Wetterdaten: Samstag, 14.10.2017
Datum Zeit Temp. A. Temp. A. max Feuchte A. Luftdruck Regen Wind Richtung Richtung Sonnenschein ET UV Solar Taupunkt Windchill Windböen
14.10.2017 00:00 7,1 °C 7,1 °C 95 % 1027,8 hPa 0,0 mm 0,0 km/h (0 Bft) S-SW 209 ° 0 min 0,000 mm 0,0 UV-I 0 W/m² 6,4 °C 7,1 °C 0,0 km/h (0 Bft)
14.10.2017 00:01 7,2 °C 7,2 °C 95 % 1027,8 hPa 0,0 mm 0,0 km/h (0 Bft) S-SW 209 ° 0 min 0,000 mm 0,0 UV-I 0 W/m² 6,5 °C 7,2 °C 0,0 km/h (0 Bft)
14.10.2017 00:02 7,3 °C 7,3 °C 95 % 1027,8 hPa 0,0 mm 0,0 km/h (0 Bft) S-SW 209 ° 0 min 0,000 mm 0,0 UV-I 0 W/m² 6,6 °C 7,3 °C 0,0 km/h (0 Bft)
14.10.2017 00:03 7,1 °C 7,3 °C 95 % 1027,7 hPa 0,0 mm 0,0 km/h (0 Bft) S-SW 209 ° 0 min 0,000 mm 0,0 UV-I 0 W/m² 6,4 °C 7,1 °C 0,0 km/h (0 Bft)
14.10.2017 00:04 6,9 °C 7,1 °C 95 % 1027,7 hPa 0,0 mm 0,0 km/h (0 Bft) S-SW 209 ° 0 min 0,000 mm 0,0 UV-I 0 W/m² 6,2 °C 6,9 °C 0,0 km/h (0 Bft)
14.10.2017 00:05 6,8 °C 6,9 °C 95 % 1027,7 hPa 0,0 mm 0,0 km/h (0 Bft) S-SW 209 ° 0 min 0,000 mm 0,0 UV-I 0 W/m² 6,1 °C 6,8 °C 0,0 km/h (0 Bft)
14.10.2017 00:06 6,8 °C 6,8 °C 95 % 1027,7 hPa 0,0 mm 0,0 km/h (0 Bft) S-SW 209 ° 0 min 0,000 mm 0,0 UV-I 0 W/m² 6,1 °C 6,8 °C 0,0 km/h (0 Bft)
14.10.2017 00:07 6,8 °C 6,8 °C 95 % 1027,7 hPa 0,0 mm 0,0 km/h (0 Bft) S-SW 209 ° 0 min 0,000 mm 0,0 UV-I 0 W/m² 6,1 °C 6,8 °C 0,0 km/h (0 Bft)
14.10.2017 00:08 6,9 °C 6,9 °C 95 % 1027,7 hPa 0,0 mm 0,0 km/h (0 Bft) S-SW 209 ° 0 min 0,000 mm 0,0 UV-I 0 W/m² 6,2 °C 6,9 °C 0,0 km/h (0 Bft)
14.10.2017 00:09 6,9 °C 6,9 °C 95 % 1027,7 hPa 0,0 mm 0,0 km/h (0 Bft) S-SW 209 ° 0 min 0,000 mm 0,0 UV-I 0 W/m² 6,2 °C 6,9 °C 0,0 km/h (0 Bft)
14.10.2017 00:10 6,8 °C 6,9 °C 95 % 1027,6 hPa 0,0 mm 0,0 km/h (0 Bft) S-SW 209 ° 0 min 0,000 mm 0,0 UV-I 0 W/m² 6,1 °C 6,8 °C 0,0 km/h (0 Bft)
14.10.2017 00:11 6,8 °C 6,8 °C 95 % 1027,6 hPa 0,0 mm 0,0 km/h (0 Bft) S-SW 209 ° 0 min 0,000 mm 0,0 UV-I 0 W/m² 6,1 °C 6,8 °C 0,0 km/h (0 Bft)
14.10.2017 00:12 6,8 °C 6,8 °C 95 % 1027,6 hPa 0,0 mm 0,0 km/h (0 Bft) S-SW 209 ° 0 min 0,000 mm 0,0 UV-I 0 W/m² 6,1 °C 6,8 °C 0,0 km/h (0 Bft)
14.10.2017 00:13 6,7 °C 6,8 °C 95 % 1027,6 hPa 0,0 mm 0,0 km/h (0 Bft) S-SW 209 ° 0 min 0,000 mm 0,0 UV-I 0 W/m² 6,0 °C 6,7 °C 0,0 km/h (0 Bft)
14.10.2017 00:14 6,8 °C 6,8 °C 95 % 1027,6 hPa 0,0 mm 0,0 km/h (0 Bft) S-SW 209 ° 0 min 0,000 mm 0,0 UV-I 0 W/m² 6,1 °C 6,8 °C 0,0 km/h (0 Bft)
14.10.2017 00:15 6,8 °C 6,8 °C 95 % 1027,6 hPa 0,0 mm 0,0 km/h (0 Bft) S-SW 209 ° 0 min 0,000 mm 0,0 UV-I 0 W/m² 6,1 °C 6,8 °C 0,0 km/h (0 Bft)
14.10.2017 00:16 6,9 °C 6,9 °C 95 % 1027,6 hPa 0,0 mm 0,0 km/h (0 Bft) S-SW 209 ° 0 min 0,000 mm 0,0 UV-I 0 W/m² 6,2 °C 6,9 °C 0,0 km/h (0 Bft)
14.10.2017 00:17 6,9 °C 6,9 °C 95 % 1027,6 hPa 0,0 mm 0,0 km/h (0 Bft) S-SW 209 ° 0 min 0,000 mm 0,0 UV-I 0 W/m² 6,2 °C 6,9 °C 0,0 km/h (0 Bft)
14.10.2017 00:18 6,9 °C 6,9 °C 95 % 1027,6 hPa 0,0 mm 0,0 km/h (0 Bft) S-SW 209 ° 0 min 0,000 mm 0,0 UV-I 0 W/m² 6,2 °C 6,9 °C 0,0 km/h (0 Bft)
14.10.2017 00:19 6,8 °C 6,9 °C 95 % 1027,6 hPa 0,0 mm 0,0 km/h (0 Bft) S-SW 209 ° 0 min 0,000 mm 0,0 UV-I 0 W/m² 6,1 °C 6,8 °C 0,0 km/h (0 Bft)
14.10.2017 00:20 6,6 °C 6,8 °C 95 % 1027,6 hPa 0,0 mm 0,0 km/h (0 Bft) S-SW 209 ° 0 min 0,000 mm 0,0 UV-I 0 W/m² 5,9 °C 6,6 °C 0,0 km/h (0 Bft)
14.10.2017 00:21 6,3 °C 6,6 °C 94 % 1027,5 hPa 0,0 mm 0,0 km/h (0 Bft) S-SW 209 ° 0 min 0,000 mm 0,0 UV-I 0 W/m² 5,4 °C 6,3 °C 0,0 km/h (0 Bft)
14.10.2017 00:22 6,2 °C 6,3 °C 94 % 1027,5 hPa 0,0 mm 0,0 km/h (0 Bft) S-SW 209 ° 0 min 0,000 mm 0,0 UV-I 0 W/m² 5,3 °C 6,2 °C 0,0 km/h (0 Bft)
14.10.2017 00:23 5,9 °C 6,2 °C 94 % 1027,5 hPa 0,0 mm 0,0 km/h (0 Bft) S-SW 209 ° 0 min 0,000 mm 0,0 UV-I 0 W/m² 5,0 °C 5,9 °C 0,0 km/h (0 Bft)
14.10.2017 00:24 5,8 °C 5,9 °C 94 % 1027,5 hPa 0,0 mm 0,0 km/h (0 Bft) S-SW 209 ° 0 min 0,000 mm 0,0 UV-I 0 W/m² 4,9 °C 5,8 °C 0,0 km/h (0 Bft)
14.10.2017 00:25 5,8 °C 5,8 °C 94 % 1027,5 hPa 0,0 mm 0,0 km/h (0 Bft) S-SW 209 ° 0 min 0,000 mm 0,0 UV-I 0 W/m² 4,9 °C 5,8 °C 0,0 km/h (0 Bft)
14.10.2017 00:26 5,8 °C 5,8 °C 94 % 1027,5 hPa 0,0 mm 0,0 km/h (0 Bft) S-SW 209 ° 0 min 0,000 mm 0,0 UV-I 0 W/m² 4,9 °C 5,8 °C 0,0 km/h (0 Bft)
14.10.2017 00:27 5,8 °C 5,8 °C 95 % 1027,5 hPa 0,0 mm 0,0 km/h (0 Bft) S-SW 209 ° 0 min 0,000 mm 0,0 UV-I 0 W/m² 5,1 °C 5,8 °C 0,0 km/h (0 Bft)
14.10.2017 00:28 5,9 °C 5,9 °C 95 % 1027,5 hPa 0,0 mm 0,0 km/h (0 Bft) S-SW 209 ° 0 min 0,000 mm 0,0 UV-I 0 W/m² 5,2 °C 5,9 °C 0,0 km/h (0 Bft)
14.10.2017 00:29 5,9 °C 5,9 °C 95 % 1027,5 hPa 0,0 mm 0,0 km/h (0 Bft) S-SW 209 ° 0 min 0,000 mm 0,0 UV-I 0 W/m² 5,2 °C 5,9 °C 0,0 km/h (0 Bft)
14.10.2017 00:30 6,0 °C 6,0 °C 95 % 1027,4 hPa 0,0 mm 0,0 km/h (0 Bft) S-SW 209 ° 0 min 0,000 mm 0,0 UV-I 0 W/m² 5,3 °C 6,0 °C 0,0 km/h (0 Bft)
14.10.2017 00:31 6,1 °C 6,1 °C 95 % 1027,4 hPa 0,0 mm 0,3 km/h (0 Bft) S-SW 209 ° 0 min 0,000 mm 0,0 UV-I 0 W/m² 5,4 °C 6,1 °C 3,2 km/h (1 Bft)
14.10.2017 00:32 6,2 °C 6,2 °C 95 % 1027,4 hPa 0,0 mm 0,0 km/h (0 Bft) S-SW 209 ° 0 min 0,000 mm 0,0 UV-I 0 W/m² 5,5 °C 6,2 °C 0,0 km/h (0 Bft)
14.10.2017 00:33 6,4 °C 6,4 °C 95 % 1027,4 hPa 0,0 mm 0,0 km/h (0 Bft) S-SW 209 ° 0 min 0,000 mm 0,0 UV-I 0 W/m² 5,7 °C 6,4 °C 0,0 km/h (0 Bft)
14.10.2017 00:34 6,6 °C 6,6 °C 96 % 1027,4 hPa 0,0 mm 0,0 km/h (0 Bft) S-SW 209 ° 0 min 0,000 mm 0,0 UV-I 0 W/m² 6,0 °C 6,6 °C 0,0 km/h (0 Bft)
14.10.2017 00:35 6,8 °C 6,8 °C 96 % 1027,4 hPa 0,0 mm 0,0 km/h (0 Bft) S-SW 209 ° 0 min 0,000 mm 0,0 UV-I 0 W/m² 6,2 °C 6,8 °C 0,0 km/h (0 Bft)
14.10.2017 00:36 6,8 °C 6,8 °C 96 % 1027,4 hPa 0,0 mm 0,0 km/h (0 Bft) S-SW 209 ° 0 min 0,000 mm 0,0 UV-I 0 W/m² 6,2 °C 6,8 °C 0,0 km/h (0 Bft)
14.10.2017 00:37 6,9 °C 6,9 °C 96 % 1027,4 hPa 0,0 mm 0,0 km/h (0 Bft) S-SW 209 ° 0 min 0,000 mm 0,0 UV-I 0 W/m² 6,3 °C 6,9 °C 0,0 km/h (0 Bft)
14.10.2017 00:38 7,0 °C 7,0 °C 96 % 1027,4 hPa 0,0 mm 0,0 km/h (0 Bft) S-SW 209 ° 0 min 0,000 mm 0,0 UV-I 0 W/m² 6,4 °C 7,0 °C 0,0 km/h (0 Bft)
14.10.2017 00:39 6,8 °C 7,0 °C 96 % 1027,4 hPa 0,0 mm 0,0 km/h (0 Bft) S-SW 209 ° 0 min 0,000 mm 0,0 UV-I 0 W/m² 6,2 °C 6,8 °C 0,0 km/h (0 Bft)
14.10.2017 00:40 6,7 °C 6,8 °C 96 % 1027,4 hPa 0,0 mm 0,0 km/h (0 Bft) S-SW 209 ° 0 min 0,000 mm 0,0 UV-I 0 W/m² 6,1 °C 6,7 °C 0,0 km/h (0 Bft)
14.10.2017 00:41 6,6 °C 6,7 °C 95 % 1027,4 hPa 0,0 mm 0,0 km/h (0 Bft) S-SW 209 ° 0 min 0,000 mm 0,0 UV-I 0 W/m² 5,9 °C 6,6 °C 0,0 km/h (0 Bft)
14.10.2017 00:42 6,4 °C 6,6 °C 95 % 1027,4 hPa 0,0 mm 0,0 km/h (0 Bft) S-SW 209 ° 0 min 0,000 mm 0,0 UV-I 0 W/m² 5,7 °C 6,4 °C 0,0 km/h (0 Bft)
14.10.2017 00:43 6,4 °C 6,4 °C 95 % 1027,4 hPa 0,0 mm 0,0 km/h (0 Bft) S-SW 209 ° 0 min 0,000 mm 0,0 UV-I 0 W/m² 5,7 °C 6,4 °C 0,0 km/h (0 Bft)
14.10.2017 00:44 6,3 °C 6,4 °C 95 % 1027,4 hPa 0,0 mm 0,0 km/h (0 Bft) S-SW 209 ° 0 min 0,000 mm 0,0 UV-I 0 W/m² 5,6 °C 6,3 °C 0,0 km/h (0 Bft)
14.10.2017 00:45 6,4 °C 6,4 °C 95 % 1027,4 hPa 0,0 mm 0,0 km/h (0 Bft) S-SW 209 ° 0 min 0,000 mm 0,0 UV-I 0 W/m² 5,7 °C 6,4 °C 0,0 km/h (0 Bft)
14.10.2017 00:46 6,5 °C 6,5 °C 95 % 1027,4 hPa 0,0 mm 0,0 km/h (0 Bft) S-SW 209 ° 0 min 0,000 mm 0,0 UV-I 0 W/m² 5,8 °C 6,5 °C 0,0 km/h (0 Bft)
14.10.2017 00:47 6,6 °C 6,6 °C 95 % 1027,4 hPa 0,0 mm 0,0 km/h (0 Bft) S-SW 209 ° 0 min 0,000 mm 0,0 UV-I 0 W/m² 5,9 °C 6,6 °C 0,0 km/h (0 Bft)
14.10.2017 00:48 6,7 °C 6,7 °C 95 % 1027,4 hPa 0,0 mm 0,0 km/h (0 Bft) S-SW 209 ° 0 min 0,000 mm 0,0 UV-I 0 W/m² 6,0 °C 6,7 °C 0,0 km/h (0 Bft)
14.10.2017 00:49 6,7 °C 6,8 °C 96 % 1027,4 hPa 0,0 mm 0,0 km/h (0 Bft) S-SW 209 ° 0 min 0,000 mm 0,0 UV-I 0 W/m² 6,1 °C 6,7 °C 0,0 km/h (0 Bft)
14.10.2017 00:50 6,7 °C 6,8 °C 96 % 1027,4 hPa 0,0 mm 0,0 km/h (0 Bft) S-SW 209 ° 0 min 0,000 mm 0,0 UV-I 0 W/m² 6,1 °C 6,7 °C 0,0 km/h (0 Bft)
14.10.2017 00:51 6,6 °C 6,7 °C 95 % 1027,3 hPa 0,0 mm 0,0 km/h (0 Bft) S-SW 209 ° 0 min 0,000 mm 0,0 UV-I 0 W/m² 5,9 °C 6,6 °C 0,0 km/h (0 Bft)
14.10.2017 00:52 6,4 °C 6,6 °C 95 % 1027,4 hPa 0,0 mm 0,0 km/h (0 Bft) S-SW 209 ° 0 min 0,000 mm 0,0 UV-I 0 W/m² 5,7 °C 6,4 °C 0,0 km/h (0 Bft)
14.10.2017 00:53 6,4 °C 6,4 °C 95 % 1027,4 hPa 0,0 mm 0,0 km/h (0 Bft) S-SW 209 ° 0 min 0,000 mm 0,0 UV-I 0 W/m² 5,7 °C 6,4 °C 0,0 km/h (0 Bft)
14.10.2017 00:54 6,4 °C 6,4 °C 95 % 1027,4 hPa 0,0 mm 0,0 km/h (0 Bft) S-SW 209 ° 0 min 0,000 mm 0,0 UV-I 0 W/m² 5,7 °C 6,4 °C 0,0 km/h (0 Bft)
14.10.2017 00:55 6,4 °C 6,4 °C 95 % 1027,4 hPa 0,0 mm 0,0 km/h (0 Bft) S-SW 209 ° 0 min 0,000 mm 0,0 UV-I 0 W/m² 5,7 °C 6,4 °C 0,0 km/h (0 Bft)
14.10.2017 00:56 6,4 °C 6,4 °C 95 % 1027,3 hPa 0,0 mm 0,0 km/h (0 Bft) S-SW 209 ° 0 min 0,000 mm 0,0 UV-I 0 W/m² 5,7 °C 6,4 °C 0,0 km/h (0 Bft)
14.10.2017 00:57 6,5 °C 6,5 °C 95 % 1027,3 hPa 0,0 mm 0,0 km/h (0 Bft) S-SW 209 ° 0 min 0,000 mm 0,0 UV-I 0 W/m² 5,8 °C 6,5 °C 0,0 km/h (0 Bft)
14.10.2017 00:58 6,5 °C 6,5 °C 95 % 1027,3 hPa 0,0 mm 0,0 km/h (0 Bft) S-SW 209 ° 0 min 0,000 mm 0,0 UV-I 0 W/m² 5,8 °C 6,5 °C 0,0 km/h (0 Bft)
14.10.2017 00:59 6,6 °C 6,6 °C 95 % 1027,3 hPa 0,0 mm 0,0 km/h (0 Bft) S-SW 209 ° 0 min 0,000 mm 0,0 UV-I 0 W/m² 5,9 °C 6,6 °C 0,0 km/h (0 Bft)
14.10.2017 01:00 6,6 °C 6,6 °C 95 % 1027,3 hPa 0,0 mm 0,0 km/h (0 Bft) S-SW 209 ° 0 min 0,000 mm 0,0 UV-I 0 W/m² 5,9 °C 6,6 °C 0,0 km/h (0 Bft)
14.10.2017 01:01 6,4 °C 6,6 °C 95 % 1027,3 hPa 0,0 mm 0,0 km/h (0 Bft) S-SW 209 ° 0 min 0,000 mm 0,0 UV-I 0 W/m² 5,7 °C 6,4 °C 0,0 km/h (0 Bft)
14.10.2017 01:02 6,4 °C 6,4 °C 95 % 1027,3 hPa 0,0 mm 0,0 km/h (0 Bft) S-SW 209 ° 0 min 0,000 mm 0,0 UV-I 0 W/m² 5,7 °C 6,4 °C 0,0 km/h (0 Bft)
14.10.2017 01:03 6,4 °C 6,4 °C 95 % 1027,3 hPa 0,0 mm 0,0 km/h (0 Bft) S-SW 209 ° 0 min 0,000 mm 0,0 UV-I 0 W/m² 5,7 °C 6,4 °C 0,0 km/h (0 Bft)
14.10.2017 01:04 6,3 °C 6,4 °C 95 % 1027,4 hPa 0,0 mm 0,0 km/h (0 Bft) S-SW 209 ° 0 min 0,000 mm 0,0 UV-I 0 W/m² 5,6 °C 6,3 °C 0,0 km/h (0 Bft)
14.10.2017 01:05 6,3 °C 6,3 °C 95 % 1027,4 hPa 0,0 mm 0,0 km/h (0 Bft) S-SW 209 ° 0 min 0,000 mm 0,0 UV-I 0 W/m² 5,6 °C 6,3 °C 0,0 km/h (0 Bft)
14.10.2017 01:06 6,2 °C 6,3 °C 95 % 1027,4 hPa 0,0 mm 0,0 km/h (0 Bft) S-SW 209 ° 0 min 0,000 mm 0,0 UV-I 0 W/m² 5,5 °C 6,2 °C 0,0 km/h (0 Bft)
14.10.2017 01:07 6,2 °C 6,2 °C 95 % 1027,5 hPa 0,0 mm 0,0 km/h (0 Bft) S-SW 209 ° 0 min 0,000 mm 0,0 UV-I 0 W/m² 5,5 °C 6,2 °C 0,0 km/h (0 Bft)
14.10.2017 01:08 6,2 °C 6,2 °C 95 % 1027,4 hPa 0,0 mm 0,0 km/h (0 Bft) S-SW 209 ° 0 min 0,000 mm 0,0 UV-I 0 W/m² 5,5 °C 6,2 °C 0,0 km/h (0 Bft)
14.10.2017 01:09 6,2 °C 6,2 °C 95 % 1027,4 hPa 0,0 mm 0,0 km/h (0 Bft) S-SW 209 ° 0 min 0,000 mm 0,0 UV-I 0 W/m² 5,5 °C 6,2 °C 0,0 km/h (0 Bft)
14.10.2017 01:10 6,2 °C 6,2 °C 95 % 1027,4 hPa 0,0 mm 0,0 km/h (0 Bft) S-SW 209 ° 0 min 0,000 mm 0,0 UV-I 0 W/m² 5,5 °C 6,2 °C 0,0 km/h (0 Bft)
14.10.2017 01:11 6,2 °C 6,2 °C 95 % 1027,4 hPa 0,0 mm 0,0 km/h (0 Bft) S-SW 209 ° 0 min 0,000 mm 0,0 UV-I 0 W/m² 5,5 °C 6,2 °C 0,0 km/h (0 Bft)
14.10.2017 01:12 6,3 °C 6,3 °C 95 % 1027,4 hPa 0,0 mm 0,0 km/h (0 Bft) S-SW 209 ° 0 min 0,000 mm 0,0 UV-I 0 W/m² 5,6 °C 6,3 °C 0,0 km/h (0 Bft)
14.10.2017 01:13 6,4 °C 6,4 °C 95 % 1027,4 hPa 0,0 mm 0,0 km/h (0 Bft) S-SW 209 ° 0 min 0,000 mm 0,0 UV-I 0 W/m² 5,7 °C 6,4 °C 0,0 km/h (0 Bft)
14.10.2017 01:14 6,5 °C 6,5 °C 96 % 1027,4 hPa 0,0 mm 0,0 km/h (0 Bft) S-SW 209 ° 0 min 0,000 mm 0,0 UV-I 0 W/m² 5,9 °C 6,5 °C 0,0 km/h (0 Bft)
14.10.2017 01:15 6,6 °C 6,6 °C 96 % 1027,3 hPa 0,0 mm 0,0 km/h (0 Bft) S-SW 209 ° 0 min 0,000 mm 0,0 UV-I 0 W/m² 6,0 °C 6,6 °C 0,0 km/h (0 Bft)
14.10.2017 01:16 6,6 °C 6,6 °C 96 % 1027,3 hPa 0,0 mm 0,0 km/h (0 Bft) S-SW 209 ° 0 min 0,000 mm 0,0 UV-I 0 W/m² 6,0 °C 6,6 °C 0,0 km/h (0 Bft)
14.10.2017 01:17 6,5 °C 6,6 °C 96 % 1027,4 hPa 0,0 mm 0,0 km/h (0 Bft) S-SW 209 ° 0 min 0,000 mm 0,0 UV-I 0 W/m² 5,9 °C 6,5 °C 0,0 km/h (0 Bft)
14.10.2017 01:18 6,6 °C 6,6 °C 95 % 1027,4 hPa 0,0 mm 0,0 km/h (0 Bft) S-SW 209 ° 0 min 0,000 mm 0,0 UV-I 0 W/m² 5,9 °C 6,6 °C 0,0 km/h (0 Bft)
14.10.2017 01:19 6,4 °C 6,6 °C 96 % 1027,4 hPa 0,0 mm 0,0 km/h (0 Bft) S-SW 209 ° 0 min 0,000 mm 0,0 UV-I 0 W/m² 5,8 °C 6,4 °C 0,0 km/h (0 Bft)
14.10.2017 01:20 6,3 °C 6,4 °C 95 % 1027,5 hPa 0,0 mm 0,0 km/h (0 Bft) S-SW 209 ° 0 min 0,000 mm 0,0 UV-I 0 W/m² 5,6 °C 6,3 °C 0,0 km/h (0 Bft)
14.10.2017 01:21 6,2 °C 6,3 °C 95 % 1027,4 hPa 0,0 mm 0,0 km/h (0 Bft) S-SW 209 ° 0 min 0,000 mm 0,0 UV-I 0 W/m² 5,5 °C 6,2 °C 0,0 km/h (0 Bft)
14.10.2017 01:22 6,2 °C 6,2 °C 95 % 1027,4 hPa 0,0 mm 0,0 km/h (0 Bft) S-SW 209 ° 0 min 0,000 mm 0,0 UV-I 0 W/m² 5,5 °C 6,2 °C 0,0 km/h (0 Bft)
14.10.2017 01:23 6,1 °C 6,2 °C 95 % 1027,5 hPa 0,0 mm 0,0 km/h (0 Bft) S-SW 209 ° 0 min 0,000 mm 0,0 UV-I 0 W/m² 5,4 °C 6,1 °C 0,0 km/h (0 Bft)
14.10.2017 01:24 6,0 °C 6,1 °C 95 % 1027,5 hPa 0,0 mm 0,0 km/h (0 Bft) S-SW 209 ° 0 min 0,000 mm 0,0 UV-I 0 W/m² 5,3 °C 6,0 °C 0,0 km/h (0 Bft)
14.10.2017 01:25 6,0 °C 6,1 °C 95 % 1027,5 hPa 0,0 mm 0,0 km/h (0 Bft) S-SW 209 ° 0 min 0,000 mm 0,0 UV-I 0 W/m² 5,3 °C 6,0 °C 0,0 km/h (0 Bft)
14.10.2017 01:26 6,0 °C 6,0 °C 95 % 1027,5 hPa 0,0 mm 0,0 km/h (0 Bft) S-SW 209 ° 0 min 0,000 mm 0,0 UV-I 0 W/m² 5,3 °C 6,0 °C 0,0 km/h (0 Bft)
14.10.2017 01:27 6,1 °C 6,1 °C 95 % 1027,5 hPa 0,0 mm 0,0 km/h (0 Bft) S-SW 209 ° 0 min 0,000 mm 0,0 UV-I 0 W/m² 5,4 °C 6,1 °C 0,0 km/h (0 Bft)
14.10.2017 01:28 6,1 °C 6,1 °C 95 % 1027,5 hPa 0,0 mm 0,0 km/h (0 Bft) S-SW 209 ° 0 min 0,000 mm 0,0 UV-I 0 W/m² 5,4 °C 6,1 °C 0,0 km/h (0 Bft)
14.10.2017 01:29 6,2 °C 6,2 °C 95 % 1027,5 hPa 0,0 mm 0,0 km/h (0 Bft) S-SW 209 ° 0 min 0,000 mm 0,0 UV-I 0 W/m² 5,5 °C 6,2 °C 0,0 km/h (0 Bft)
14.10.2017 01:30 6,3 °C 6,3 °C 95 % 1027,5 hPa 0,0 mm 0,0 km/h (0 Bft) S-SW 209 ° 0 min 0,000 mm 0,0 UV-I 0 W/m² 5,6 °C 6,3 °C 0,0 km/h (0 Bft)
14.10.2017 01:31 6,4 °C 6,4 °C 95 % 1027,4 hPa 0,0 mm 0,0 km/h (0 Bft) S-SW 209 ° 0 min 0,000 mm 0,0 UV-I 0 W/m² 5,7 °C 6,4 °C 0,0 km/h (0 Bft)
14.10.2017 01:32 6,3 °C 6,4 °C 95 % 1027,5 hPa 0,0 mm 0,0 km/h (0 Bft) S-SW 209 ° 0 min 0,000 mm 0,0 UV-I 0 W/m² 5,6 °C 6,3 °C 0,0 km/h (0 Bft)
14.10.2017 01:33 6,4 °C 6,4 °C 95 % 1027,5 hPa 0,0 mm 0,0 km/h (0 Bft) S-SW 209 ° 0 min 0,000 mm 0,0 UV-I 0 W/m² 5,7 °C 6,4 °C 0,0 km/h (0 Bft)
14.10.2017 01:34 6,4 °C 6,4 °C 95 % 1027,5 hPa 0,0 mm 0,0 km/h (0 Bft) S-SW 209 ° 0 min 0,000 mm 0,0 UV-I 0 W/m² 5,7 °C 6,4 °C 0,0 km/h (0 Bft)
14.10.2017 01:35 6,3 °C 6,4 °C 96 % 1027,5 hPa 0,0 mm 0,0 km/h (0 Bft) S-SW 209 ° 0 min 0,000 mm 0,0 UV-I 0 W/m² 5,7 °C 6,3 °C 0,0 km/h (0 Bft)
14.10.2017 01:36 6,2 °C 6,3 °C 95 % 1027,5 hPa 0,0 mm 0,0 km/h (0 Bft) S-SW 209 ° 0 min 0,000 mm 0,0 UV-I 0 W/m² 5,5 °C 6,2 °C 0,0 km/h (0 Bft)
14.10.2017 01:37 6,1 °C 6,2 °C 95 % 1027,5 hPa 0,0 mm 0,0 km/h (0 Bft) S-SW 209 ° 0 min 0,000 mm 0,0 UV-I 0 W/m² 5,4 °C 6,1 °C 0,0 km/h (0 Bft)
14.10.2017 01:38 6,0 °C 6,1 °C 95 % 1027,5 hPa 0,0 mm 0,0 km/h (0 Bft) S-SW 209 ° 0 min 0,000 mm 0,0 UV-I 0 W/m² 5,3 °C 6,0 °C 0,0 km/h (0 Bft)
14.10.2017 01:39 5,9 °C 6,0 °C 95 % 1027,6 hPa 0,0 mm 0,0 km/h (0 Bft) S-SW 209 ° 0 min 0,000 mm 0,0 UV-I 0 W/m² 5,2 °C 5,9 °C 0,0 km/h (0 Bft)
14.10.2017 01:40 5,9 °C 5,9 °C 95 % 1027,6 hPa 0,0 mm 0,0 km/h (0 Bft) S-SW 209 ° 0 min 0,000 mm 0,0 UV-I 0 W/m² 5,2 °C 5,9 °C 0,0 km/h (0 Bft)
14.10.2017 01:41 6,0 °C 6,0 °C 95 % 1027,6 hPa 0,0 mm 0,0 km/h (0 Bft) S-SW 209 ° 0 min 0,000 mm 0,0 UV-I 0 W/m² 5,3 °C 6,0 °C 0,0 km/h (0 Bft)
14.10.2017 01:42 6,1 °C 6,1 °C 95 % 1027,6 hPa 0,0 mm 0,0 km/h (0 Bft) S-SW 209 ° 0 min 0,000 mm 0,0 UV-I 0 W/m² 5,4 °C 6,1 °C 0,0 km/h (0 Bft)
14.10.2017 01:43 6,2 °C 6,2 °C 95 % 1027,6 hPa 0,0 mm 0,0 km/h (0 Bft) S-SW 209 ° 0 min 0,000 mm 0,0 UV-I 0 W/m² 5,5 °C 6,2 °C 0,0 km/h (0 Bft)
14.10.2017 01:44 6,2 °C 6,2 °C 96 % 1027,6 hPa 0,0 mm 0,0 km/h (0 Bft) S-SW 209 ° 0 min 0,000 mm 0,0 UV-I 0 W/m² 5,6 °C 6,2 °C 0,0 km/h (0 Bft)
14.10.2017 01:45 6,3 °C 6,3 °C 95 % 1027,6 hPa 0,0 mm 0,3 km/h (0 Bft) S-SW 209 ° 0 min 0,000 mm 0,0 UV-I 0 W/m² 5,6 °C 6,3 °C 3,2 km/h (1 Bft)
14.10.2017 01:46 6,4 °C 6,4 °C 96 % 1027,5 hPa 0,0 mm 2,5 km/h (1 Bft) S-SW 209 ° 0 min 0,000 mm 0,0 UV-I 0 W/m² 5,8 °C 6,4 °C 3,2 km/h (1 Bft)
14.10.2017 01:47 6,5 °C 6,5 °C 96 % 1027,5 hPa 0,0 mm 2,1 km/h (1 Bft) S-SW 209 ° 0 min 0,000 mm 0,0 UV-I 0 W/m² 5,9 °C 6,5 °C 3,2 km/h (1 Bft)
14.10.2017 01:48 6,7 °C 6,7 °C 96 % 1027,5 hPa 0,0 mm 3,5 km/h (1 Bft) W 267 ° 0 min 0,000 mm 0,0 UV-I 0 W/m² 6,1 °C 6,7 °C 4,8 km/h (1 Bft)
14.10.2017 01:49 6,8 °C 6,8 °C 96 % 1027,5 hPa 0,0 mm 2,6 km/h (1 Bft) W 267 ° 0 min 0,000 mm 0,0 UV-I 0 W/m² 6,2 °C 6,8 °C 3,2 km/h (1 Bft)
14.10.2017 01:50 6,9 °C 6,9 °C 96 % 1027,5 hPa 0,0 mm 1,0 km/h (0 Bft) W 267 ° 0 min 0,000 mm 0,0 UV-I 0 W/m² 6,3 °C 6,9 °C 1,6 km/h (1 Bft)
14.10.2017 01:51 6,9 °C 6,9 °C 96 % 1027,5 hPa 0,0 mm 0,0 km/h (0 Bft) W 267 ° 0 min 0,000 mm 0,0 UV-I 0 W/m² 6,3 °C 6,9 °C 0,0 km/h (0 Bft)
14.10.2017 01:52 6,8 °C 7,0 °C 96 % 1027,6 hPa 0,0 mm 0,0 km/h (0 Bft) W 267 ° 0 min 0,000 mm 0,0 UV-I 0 W/m² 6,2 °C 6,8 °C 0,0 km/h (0 Bft)
14.10.2017 01:53 6,6 °C 6,8 °C 96 % 1027,6 hPa 0,0 mm 0,0 km/h (0 Bft) W 267 ° 0 min 0,000 mm 0,0 UV-I 0 W/m² 6,0 °C 6,6 °C 0,0 km/h (0 Bft)
14.10.2017 01:54 6,3 °C 6,6 °C 95 % 1027,6 hPa 0,0 mm 0,0 km/h (0 Bft) W 267 ° 0 min 0,000 mm 0,0 UV-I 0 W/m² 5,6 °C 6,3 °C 0,0 km/h (0 Bft)
14.10.2017 01:55 6,1 °C 6,3 °C 95 % 1027,6 hPa 0,0 mm 0,0 km/h (0 Bft) W 267 ° 0 min 0,000 mm 0,0 UV-I 0 W/m² 5,4 °C 6,1 °C 0,0 km/h (0 Bft)
14.10.2017 01:56 5,9 °C 6,1 °C 94 % 1027,6 hPa 0,0 mm 0,0 km/h (0 Bft) W 267 ° 0 min 0,000 mm 0,0 UV-I 0 W/m² 5,0 °C 5,9 °C 0,0 km/h (0 Bft)
14.10.2017 01:57 5,8 °C 5,9 °C 94 % 1027,6 hPa 0,0 mm 0,0 km/h (0 Bft) W 267 ° 0 min 0,000 mm 0,0 UV-I 0 W/m² 4,9 °C 5,8 °C 0,0 km/h (0 Bft)
14.10.2017 01:58 5,7 °C 5,8 °C 94 % 1027,7 hPa 0,0 mm 0,0 km/h (0 Bft) W 267 ° 0 min 0,000 mm 0,0 UV-I 0 W/m² 4,8 °C 5,7 °C 0,0 km/h (0 Bft)
14.10.2017 01:59 5,6 °C 5,7 °C 95 % 1027,7 hPa 0,0 mm 0,0 km/h (0 Bft) W 267 ° 0 min 0,000 mm 0,0 UV-I 0 W/m² 4,9 °C 5,6 °C 0,0 km/h (0 Bft)
14.10.2017 02:00 5,4 °C 5,6 °C 95 % 1027,7 hPa 0,0 mm 1,1 km/h (1 Bft) W 267 ° 0 min 0,000 mm 0,0 UV-I 0 W/m² 4,7 °C 5,4 °C 3,2 km/h (1 Bft)
14.10.2017 02:01 5,4 °C 5,4 °C 95 % 1027,7 hPa 0,0 mm 2,3 km/h (1 Bft) W 267 ° 0 min 0,000 mm 0,0 UV-I 0 W/m² 4,7 °C 5,4 °C 4,8 km/h (1 Bft)
14.10.2017 02:02 5,3 °C 5,4 °C 95 % 1027,7 hPa 0,0 mm 3,2 km/h (1 Bft) W 267 ° 0 min 0,000 mm 0,0 UV-I 0 W/m² 4,6 °C 5,3 °C 4,8 km/h (1 Bft)
14.10.2017 02:03 5,3 °C 5,4 °C 95 % 1027,7 hPa 0,0 mm 2,6 km/h (1 Bft) W 267 ° 0 min 0,000 mm 0,0 UV-I 0 W/m² 4,6 °C 5,3 °C 4,8 km/h (1 Bft)
14.10.2017 02:04 5,4 °C 5,4 °C 95 % 1027,8 hPa 0,0 mm 0,9 km/h (0 Bft) W 267 ° 0 min 0,000 mm 0,0 UV-I 0 W/m² 4,7 °C 5,4 °C 1,6 km/h (1 Bft)
14.10.2017 02:05 5,4 °C 5,4 °C 95 % 1027,7 hPa 0,0 mm 0,0 km/h (0 Bft) W 267 ° 0 min 0,000 mm 0,0 UV-I 0 W/m² 4,7 °C 5,4 °C 0,0 km/h (0 Bft)
14.10.2017 02:06 5,6 °C 5,6 °C 95 % 1027,8 hPa 0,0 mm 0,0 km/h (0 Bft) W 267 ° 0 min 0,000 mm 0,0 UV-I 0 W/m² 4,9 °C 5,6 °C 0,0 km/h (0 Bft)
14.10.2017 02:07 5,6 °C 5,6 °C 95 % 1027,8 hPa 0,0 mm 0,0 km/h (0 Bft) W 267 ° 0 min 0,000 mm 0,0 UV-I 0 W/m² 4,9 °C 5,6 °C 0,0 km/h (0 Bft)
14.10.2017 02:08 5,7 °C 5,7 °C 95 % 1027,8 hPa 0,0 mm 0,0 km/h (0 Bft) W 267 ° 0 min 0,000 mm 0,0 UV-I 0 W/m² 5,0 °C 5,7 °C 0,0 km/h (0 Bft)
14.10.2017 02:09 5,8 °C 5,8 °C 96 % 1027,8 hPa 0,0 mm 0,0 km/h (0 Bft) W 267 ° 0 min 0,000 mm 0,0 UV-I 0 W/m² 5,2 °C 5,8 °C 0,0 km/h (0 Bft)
14.10.2017 02:10 5,9 °C 5,9 °C 96 % 1027,8 hPa 0,0 mm 0,0 km/h (0 Bft) W 267 ° 0 min 0,000 mm 0,0 UV-I 0 W/m² 5,3 °C 5,9 °C 0,0 km/h (0 Bft)
14.10.2017 02:11 5,9 °C 5,9 °C 96 % 1027,8 hPa 0,0 mm 0,0 km/h (0 Bft) W 267 ° 0 min 0,000 mm 0,0 UV-I 0 W/m² 5,3 °C 5,9 °C 0,0 km/h (0 Bft)
14.10.2017 02:12 5,9 °C 5,9 °C 96 % 1027,8 hPa 0,0 mm 0,0 km/h (0 Bft) W 267 ° 0 min 0,000 mm 0,0 UV-I 0 W/m² 5,3 °C 5,9 °C 0,0 km/h (0 Bft)
14.10.2017 02:13 5,9 °C 5,9 °C 96 % 1027,9 hPa 0,0 mm 0,0 km/h (0 Bft) W 267 ° 0 min 0,000 mm 0,0 UV-I 0 W/m² 5,3 °C 5,9 °C 0,0 km/h (0 Bft)
14.10.2017 02:14 5,8 °C 5,9 °C 95 % 1027,9 hPa 0,0 mm 0,0 km/h (0 Bft) W 267 ° 0 min 0,000 mm 0,0 UV-I 0 W/m² 5,1 °C 5,8 °C 0,0 km/h (0 Bft)
14.10.2017 02:15 5,8 °C 5,8 °C 95 % 1027,9 hPa 0,0 mm 0,0 km/h (0 Bft) W 267 ° 0 min 0,000 mm 0,0 UV-I 0 W/m² 5,1 °C 5,8 °C 0,0 km/h (0 Bft)
14.10.2017 02:16 5,8 °C 5,8 °C 95 % 1027,9 hPa 0,0 mm 0,0 km/h (0 Bft) W 267 ° 0 min 0,000 mm 0,0 UV-I 0 W/m² 5,1 °C 5,8 °C 0,0 km/h (0 Bft)
14.10.2017 02:17 5,8 °C 5,8 °C 95 % 1027,9 hPa 0,0 mm 0,0 km/h (0 Bft) W 267 ° 0 min 0,000 mm 0,0 UV-I 0 W/m² 5,1 °C 5,8 °C 0,0 km/h (0 Bft)
14.10.2017 02:18 5,8 °C 5,8 °C 95 % 1027,8 hPa 0,0 mm 0,0 km/h (0 Bft) W 267 ° 0 min 0,000 mm 0,0 UV-I 0 W/m² 5,1 °C 5,8 °C 0,0 km/h (0 Bft)
14.10.2017 02:19 5,8 °C 5,8 °C 95 % 1027,8 hPa 0,0 mm 0,0 km/h (0 Bft) W 267 ° 0 min 0,000 mm 0,0 UV-I 0 W/m² 5,1 °C 5,8 °C 0,0 km/h (0 Bft)
14.10.2017 02:20 5,8 °C 5,8 °C 95 % 1027,8 hPa 0,0 mm 0,0 km/h (0 Bft) W 267 ° 0 min 0,000 mm 0,0 UV-I 0 W/m² 5,1 °C 5,8 °C 0,0 km/h (0 Bft)
14.10.2017 02:21 5,8 °C 5,8 °C 95 % 1027,9 hPa 0,0 mm 0,0 km/h (0 Bft) W 267 ° 0 min 0,000 mm 0,0 UV-I 0 W/m² 5,1 °C 5,8 °C 0,0 km/h (0 Bft)
14.10.2017 02:22 5,9 °C 5,9 °C 95 % 1027,8 hPa 0,0 mm 0,9 km/h (0 Bft) W 267 ° 0 min 0,000 mm 0,0 UV-I 0 W/m² 5,2 °C 5,9 °C 4,8 km/h (1 Bft)
14.10.2017 02:23 5,9 °C 6,0 °C 95 % 1027,8 hPa 0,0 mm 3,2 km/h (1 Bft) W 267 ° 0 min 0,000 mm 0,0 UV-I 0 W/m² 5,2 °C 5,9 °C 4,8 km/h (1 Bft)
14.10.2017 02:24 5,9 °C 5,9 °C 95 % 1027,9 hPa 0,0 mm 1,2 km/h (1 Bft) W 267 ° 0 min 0,000 mm 0,0 UV-I 0 W/m² 5,2 °C 5,9 °C 4,8 km/h (1 Bft)
14.10.2017 02:25 5,8 °C 5,9 °C 95 % 1027,8 hPa 0,0 mm 0,0 km/h (0 Bft) W 267 ° 0 min 0,000 mm 0,0 UV-I 0 W/m² 5,1 °C 5,8 °C 0,0 km/h (0 Bft)
14.10.2017 02:26 5,8 °C 5,8 °C 95 % 1027,8 hPa 0,0 mm 0,0 km/h (0 Bft) W 267 ° 0 min 0,000 mm 0,0 UV-I 0 W/m² 5,1 °C 5,8 °C 0,0 km/h (0 Bft)
14.10.2017 02:27 5,8 °C 5,8 °C 95 % 1027,8 hPa 0,0 mm 0,0 km/h (0 Bft) W 267 ° 0 min 0,000 mm 0,0 UV-I 0 W/m² 5,1 °C 5,8 °C 0,0 km/h (0 Bft)
14.10.2017 02:28 5,8 °C 5,8 °C 95 % 1027,8 hPa 0,0 mm 0,0 km/h (0 Bft) W 267 ° 0 min 0,000 mm 0,0 UV-I 0 W/m² 5,1 °C 5,8 °C 0,0 km/h (0 Bft)
14.10.2017 02:29 5,8 °C 5,8 °C 95 % 1027,8 hPa 0,0 mm 0,0 km/h (0 Bft) W 267 ° 0 min 0,000 mm 0,0 UV-I 0 W/m² 5,1 °C 5,8 °C 0,0 km/h (0 Bft)
14.10.2017 02:30 5,8 °C 5,8 °C 95 % 1027,8 hPa 0,0 mm 0,0 km/h (0 Bft) W 267 ° 0 min 0,000 mm 0,0 UV-I 0 W/m² 5,1 °C 5,8 °C 0,0 km/h (0 Bft)
14.10.2017 02:31 5,9 °C 5,9 °C 95 % 1027,8 hPa 0,0 mm 0,0 km/h (0 Bft) W 267 ° 0 min 0,000 mm 0,0 UV-I 0 W/m² 5,2 °C 5,9 °C 0,0 km/h (0 Bft)
14.10.2017 02:32 5,9 °C 5,9 °C 95 % 1027,7 hPa 0,0 mm 0,0 km/h (0 Bft) W 267 ° 0 min 0,000 mm 0,0 UV-I 0 W/m² 5,2 °C 5,9 °C 0,0 km/h (0 Bft)
14.10.2017 02:33 5,8 °C 5,9 °C 95 % 1027,7 hPa 0,0 mm 0,0 km/h (0 Bft) W 267 ° 0 min 0,000 mm 0,0 UV-I 0 W/m² 5,1 °C 5,8 °C 0,0 km/h (0 Bft)
14.10.2017 02:34 5,6 °C 5,8 °C 95 % 1027,7 hPa 0,0 mm 0,0 km/h (0 Bft) W 267 ° 0 min 0,000 mm 0,0 UV-I 0 W/m² 4,9 °C 5,6 °C 0,0 km/h (0 Bft)
14.10.2017 02:35 5,5 °C 5,6 °C 95 % 1027,6 hPa 0,0 mm 0,0 km/h (0 Bft) W 267 ° 0 min 0,000 mm 0,0 UV-I 0 W/m² 4,8 °C 5,5 °C 0,0 km/h (0 Bft)
14.10.2017 02:36 5,4 °C 5,5 °C 95 % 1027,7 hPa 0,0 mm 0,0 km/h (0 Bft) W 267 ° 0 min 0,000 mm 0,0 UV-I 0 W/m² 4,7 °C 5,4 °C 0,0 km/h (0 Bft)
14.10.2017 02:37 5,3 °C 5,4 °C 95 % 1027,7 hPa 0,0 mm 0,0 km/h (0 Bft) W 267 ° 0 min 0,000 mm 0,0 UV-I 0 W/m² 4,6 °C 5,3 °C 0,0 km/h (0 Bft)
14.10.2017 02:38 5,2 °C 5,3 °C 95 % 1027,7 hPa 0,0 mm 0,0 km/h (0 Bft) W 267 ° 0 min 0,000 mm 0,0 UV-I 0 W/m² 4,5 °C 5,2 °C 0,0 km/h (0 Bft)
14.10.2017 02:39 5,2 °C 5,2 °C 95 % 1027,7 hPa 0,0 mm 0,0 km/h (0 Bft) W 267 ° 0 min 0,000 mm 0,0 UV-I 0 W/m² 4,5 °C 5,2 °C 0,0 km/h (0 Bft)
14.10.2017 02:40 5,1 °C 5,2 °C 95 % 1027,7 hPa 0,0 mm 0,0 km/h (0 Bft) W 267 ° 0 min 0,000 mm 0,0 UV-I 0 W/m² 4,4 °C 5,1 °C 0,0 km/h (0 Bft)
14.10.2017 02:41 5,1 °C 5,1 °C 95 % 1027,7 hPa 0,0 mm 0,0 km/h (0 Bft) W 267 ° 0 min 0,000 mm 0,0 UV-I 0 W/m² 4,4 °C 5,1 °C 0,0 km/h (0 Bft)
14.10.2017 02:42 5,1 °C 5,1 °C 95 % 1027,7 hPa 0,0 mm 0,0 km/h (0 Bft) W 267 ° 0 min 0,000 mm 0,0 UV-I 0 W/m² 4,4 °C 5,1 °C 0,0 km/h (0 Bft)
14.10.2017 02:43 5,1 °C 5,1 °C 95 % 1027,7 hPa 0,0 mm 0,0 km/h (0 Bft) W 267 ° 0 min 0,000 mm 0,0 UV-I 0 W/m² 4,4 °C 5,1 °C 0,0 km/h (0 Bft)
14.10.2017 02:44 5,2 °C 5,2 °C 95 % 1027,6 hPa 0,0 mm 0,0 km/h (0 Bft) W 267 ° 0 min 0,000 mm 0,0 UV-I 0 W/m² 4,5 °C 5,2 °C 0,0 km/h (0 Bft)
14.10.2017 02:45 5,3 °C 5,3 °C 95 % 1027,6 hPa 0,0 mm 0,0 km/h (0 Bft) W 267 ° 0 min 0,000 mm 0,0 UV-I 0 W/m² 4,6 °C 5,3 °C 0,0 km/h (0 Bft)
14.10.2017 02:46 5,3 °C 5,3 °C 95 % 1027,5 hPa 0,0 mm 0,0 km/h (0 Bft) W 267 ° 0 min 0,000 mm 0,0 UV-I 0 W/m² 4,6 °C 5,3 °C 0,0 km/h (0 Bft)
14.10.2017 02:47 5,2 °C 5,3 °C 95 % 1027,6 hPa 0,0 mm 0,0 km/h (0 Bft) W 267 ° 0 min 0,000 mm 0,0 UV-I 0 W/m² 4,5 °C 5,2 °C 0,0 km/h (0 Bft)
14.10.2017 02:48 5,1 °C 5,2 °C 95 % 1027,6 hPa 0,0 mm 0,0 km/h (0 Bft) W 267 ° 0 min 0,000 mm 0,0 UV-I 0 W/m² 4,4 °C 5,1 °C 0,0 km/h (0 Bft)
14.10.2017 02:49 5,1 °C 5,1 °C 95 % 1027,6 hPa 0,0 mm 0,0 km/h (0 Bft) W 267 ° 0 min 0,000 mm 0,0 UV-I 0 W/m² 4,4 °C 5,1 °C 0,0 km/h (0 Bft)
14.10.2017 02:50 5,1 °C 5,1 °C 95 % 1027,5 hPa 0,0 mm 0,0 km/h (0 Bft) W 267 ° 0 min 0,000 mm 0,0 UV-I 0 W/m² 4,4 °C 5,1 °C 0,0 km/h (0 Bft)
14.10.2017 02:51 5,1 °C 5,1 °C 95 % 1027,7 hPa 0,0 mm 0,0 km/h (0 Bft) W 267 ° 0 min 0,000 mm 0,0 UV-I 0 W/m² 4,4 °C 5,1 °C 0,0 km/h (0 Bft)
14.10.2017 02:52 5,1 °C 5,1 °C 95 % 1027,7 hPa 0,0 mm 0,0 km/h (0 Bft) W 267 ° 0 min 0,000 mm 0,0 UV-I 0 W/m² 4,4 °C 5,1 °C 0,0 km/h (0 Bft)
14.10.2017 02:53 5,2 °C 5,2 °C 95 % 1027,7 hPa 0,0 mm 0,0 km/h (0 Bft) W 267 ° 0 min 0,000 mm 0,0 UV-I 0 W/m² 4,5 °C 5,2 °C 0,0 km/h (0 Bft)
14.10.2017 02:54 5,3 °C 5,3 °C 95 % 1027,7 hPa 0,0 mm 0,0 km/h (0 Bft) W 267 ° 0 min 0,000 mm 0,0 UV-I 0 W/m² 4,6 °C 5,3 °C 0,0 km/h (0 Bft)
14.10.2017 02:55 5,2 °C 5,3 °C 96 % 1027,7 hPa 0,0 mm 0,0 km/h (0 Bft) W 267 ° 0 min 0,000 mm 0,0 UV-I 0 W/m² 4,6 °C 5,2 °C 0,0 km/h (0 Bft)
14.10.2017 02:56 5,3 °C 5,3 °C 95 % 1027,7 hPa 0,0 mm 0,0 km/h (0 Bft) W 267 ° 0 min 0,000 mm 0,0 UV-I 0 W/m² 4,6 °C 5,3 °C 0,0 km/h (0 Bft)
14.10.2017 02:57 5,3 °C 5,3 °C 95 % 1027,7 hPa 0,0 mm 0,0 km/h (0 Bft) W 267 ° 0 min 0,000 mm 0,0 UV-I 0 W/m² 4,6 °C 5,3 °C 0,0 km/h (0 Bft)
14.10.2017 02:58 5,4 °C 5,4 °C 95 % 1027,7 hPa 0,0 mm 0,0 km/h (0 Bft) W 267 ° 0 min 0,000 mm 0,0 UV-I 0 W/m² 4,7 °C 5,4 °C 0,0 km/h (0 Bft)
14.10.2017 02:59 5,4 °C 5,4 °C 95 % 1027,7 hPa 0,0 mm 0,0 km/h (0 Bft) W 267 ° 0 min 0,000 mm 0,0 UV-I 0 W/m² 4,7 °C 5,4 °C 0,0 km/h (0 Bft)
14.10.2017 03:00 5,6 °C 5,6 °C 96 % 1027,7 hPa 0,0 mm 0,0 km/h (0 Bft) W 267 ° 0 min 0,000 mm 0,0 UV-I 0 W/m² 5,0 °C 5,6 °C 0,0 km/h (0 Bft)
14.10.2017 03:01 5,7 °C 5,7 °C 96 % 1027,6 hPa 0,0 mm 0,0 km/h (0 Bft) W 267 ° 0 min 0,000 mm 0,0 UV-I 0 W/m² 5,1 °C 5,7 °C 0,0 km/h (0 Bft)
14.10.2017 03:02 5,8 °C 5,8 °C 96 % 1027,6 hPa 0,0 mm 0,0 km/h (0 Bft) W 267 ° 0 min 0,000 mm 0,0 UV-I 0 W/m² 5,2 °C 5,8 °C 0,0 km/h (0 Bft)
14.10.2017 03:03 5,9 °C 5,9 °C 96 % 1027,6 hPa 0,0 mm 0,0 km/h (0 Bft) W 267 ° 0 min 0,000 mm 0,0 UV-I 0 W/m² 5,3 °C 5,9 °C 0,0 km/h (0 Bft)
14.10.2017 03:04 5,8 °C 5,9 °C 96 % 1027,6 hPa 0,0 mm 0,0 km/h (0 Bft) W 267 ° 0 min 0,000 mm 0,0 UV-I 0 W/m² 5,2 °C 5,8 °C 0,0 km/h (0 Bft)
14.10.2017 03:05 5,7 °C 5,8 °C 96 % 1027,6 hPa 0,0 mm 0,0 km/h (0 Bft) W 267 ° 0 min 0,000 mm 0,0 UV-I 0 W/m² 5,1 °C 5,7 °C 0,0 km/h (0 Bft)
14.10.2017 03:06 5,7 °C 5,7 °C 96 % 1027,6 hPa 0,0 mm 0,0 km/h (0 Bft) W 267 ° 0 min 0,000 mm 0,0 UV-I 0 W/m² 5,1 °C 5,7 °C 0,0 km/h (0 Bft)
14.10.2017 03:07 5,7 °C 5,8 °C 96 % 1027,6 hPa 0,0 mm 0,0 km/h (0 Bft) W 267 ° 0 min 0,000 mm 0,0 UV-I 0 W/m² 5,1 °C 5,7 °C 0,0 km/h (0 Bft)
14.10.2017 03:08 5,7 °C 5,8 °C 95 % 1027,6 hPa 0,0 mm 0,0 km/h (0 Bft) W 267 ° 0 min 0,000 mm 0,0 UV-I 0 W/m² 5,0 °C 5,7 °C 0,0 km/h (0 Bft)
14.10.2017 03:09 5,7 °C 5,7 °C 96 % 1027,6 hPa 0,0 mm 0,0 km/h (0 Bft) W 267 ° 0 min 0,000 mm 0,0 UV-I 0 W/m² 5,1 °C 5,7 °C 0,0 km/h (0 Bft)
14.10.2017 03:10 5,8 °C 5,8 °C 96 % 1027,6 hPa 0,0 mm 0,0 km/h (0 Bft) W 267 ° 0 min 0,000 mm 0,0 UV-I 0 W/m² 5,2 °C 5,8 °C 0,0 km/h (0 Bft)
14.10.2017 03:11 5,9 °C 5,9 °C 96 % 1027,6 hPa 0,0 mm 0,0 km/h (0 Bft) W 267 ° 0 min 0,000 mm 0,0 UV-I 0 W/m² 5,3 °C 5,9 °C 0,0 km/h (0 Bft)
14.10.2017 03:12 6,0 °C 6,0 °C 96 % 1027,6 hPa 0,0 mm 0,0 km/h (0 Bft) W 267 ° 0 min 0,000 mm 0,0 UV-I 0 W/m² 5,4 °C 6,0 °C 0,0 km/h (0 Bft)
14.10.2017 03:13 6,1 °C 6,1 °C 96 % 1027,6 hPa 0,0 mm 0,0 km/h (0 Bft) W 267 ° 0 min 0,000 mm 0,0 UV-I 0 W/m² 5,5 °C 6,1 °C 0,0 km/h (0 Bft)
14.10.2017 03:14 6,0 °C 6,1 °C 96 % 1027,6 hPa 0,0 mm 0,0 km/h (0 Bft) W 267 ° 0 min 0,000 mm 0,0 UV-I 0 W/m² 5,4 °C 6,0 °C 0,0 km/h (0 Bft)
14.10.2017 03:15 5,8 °C 6,0 °C 96 % 1027,6 hPa 0,0 mm 0,0 km/h (0 Bft) W 267 ° 0 min 0,000 mm 0,0 UV-I 0 W/m² 5,2 °C 5,8 °C 0,0 km/h (0 Bft)
14.10.2017 03:16 5,8 °C 5,8 °C 96 % 1027,6 hPa 0,0 mm 0,0 km/h (0 Bft) W 267 ° 0 min 0,000 mm 0,0 UV-I 0 W/m² 5,2 °C 5,8 °C 0,0 km/h (0 Bft)
14.10.2017 03:17 5,7 °C 5,8 °C 95 % 1027,6 hPa 0,0 mm 0,0 km/h (0 Bft) W 267 ° 0 min 0,000 mm 0,0 UV-I 0 W/m² 5,0 °C 5,7 °C 0,0 km/h (0 Bft)
14.10.2017 03:18 5,7 °C 5,7 °C 95 % 1027,6 hPa 0,0 mm 0,0 km/h (0 Bft) W 267 ° 0 min 0,000 mm 0,0 UV-I 0 W/m² 5,0 °C 5,7 °C 0,0 km/h (0 Bft)
14.10.2017 03:19 5,7 °C 5,7 °C 95 % 1027,5 hPa 0,0 mm 0,0 km/h (0 Bft) W 267 ° 0 min 0,000 mm 0,0 UV-I 0 W/m² 5,0 °C 5,7 °C 0,0 km/h (0 Bft)
14.10.2017 03:20 5,8 °C 5,8 °C 96 % 1027,5 hPa 0,0 mm 0,0 km/h (0 Bft) W 267 ° 0 min 0,000 mm 0,0 UV-I 0 W/m² 5,2 °C 5,8 °C 0,0 km/h (0 Bft)
14.10.2017 03:21 5,9 °C 5,9 °C 96 % 1027,5 hPa 0,0 mm 0,0 km/h (0 Bft) W 267 ° 0 min 0,000 mm 0,0 UV-I 0 W/m² 5,3 °C 5,9 °C 0,0 km/h (0 Bft)
14.10.2017 03:22 5,8 °C 5,9 °C 96 % 1027,5 hPa 0,0 mm 0,0 km/h (0 Bft) W 267 ° 0 min 0,000 mm 0,0 UV-I 0 W/m² 5,2 °C 5,8 °C 0,0 km/h (0 Bft)
14.10.2017 03:23 5,6 °C 5,8 °C 95 % 1027,5 hPa 0,0 mm 0,0 km/h (0 Bft) W 267 ° 0 min 0,000 mm 0,0 UV-I 0 W/m² 4,9 °C 5,6 °C 0,0 km/h (0 Bft)
14.10.2017 03:24 5,4 °C 5,6 °C 95 % 1027,5 hPa 0,0 mm 0,0 km/h (0 Bft) W 267 ° 0 min 0,000 mm 0,0 UV-I 0 W/m² 4,7 °C 5,4 °C 0,0 km/h (0 Bft)
14.10.2017 03:25 5,3 °C 5,4 °C 95 % 1027,5 hPa 0,0 mm 0,0 km/h (0 Bft) W 267 ° 0 min 0,000 mm 0,0 UV-I 0 W/m² 4,6 °C 5,3 °C 0,0 km/h (0 Bft)
14.10.2017 03:26 5,2 °C 5,3 °C 95 % 1027,4 hPa 0,0 mm 0,0 km/h (0 Bft) W 267 ° 0 min 0,000 mm 0,0 UV-I 0 W/m² 4,5 °C 5,2 °C 0,0 km/h (0 Bft)
14.10.2017 03:27 5,1 °C 5,2 °C 95 % 1027,5 hPa 0,0 mm 0,0 km/h (0 Bft) W 267 ° 0 min 0,000 mm 0,0 UV-I 0 W/m² 4,4 °C 5,1 °C 0,0 km/h (0 Bft)
14.10.2017 03:28 4,9 °C 5,1 °C 95 % 1027,5 hPa 0,0 mm 0,0 km/h (0 Bft) W 267 ° 0 min 0,000 mm 0,0 UV-I 0 W/m² 4,2 °C 4,9 °C 0,0 km/h (0 Bft)
14.10.2017 03:29 4,9 °C 4,9 °C 95 % 1027,5 hPa 0,0 mm 0,0 km/h (0 Bft) W 267 ° 0 min 0,000 mm 0,0 UV-I 0 W/m² 4,2 °C 4,9 °C 0,0 km/h (0 Bft)
14.10.2017 03:30 4,9 °C 4,9 °C 95 % 1027,5 hPa 0,0 mm 0,0 km/h (0 Bft) W 267 ° 0 min 0,000 mm 0,0 UV-I 0 W/m² 4,2 °C 4,9 °C 0,0 km/h (0 Bft)
14.10.2017 03:31 4,9 °C 4,9 °C 95 % 1027,5 hPa 0,0 mm 0,0 km/h (0 Bft) W 267 ° 0 min 0,000 mm 0,0 UV-I 0 W/m² 4,2 °C 4,9 °C 0,0 km/h (0 Bft)
14.10.2017 03:32 5,1 °C 5,1 °C 95 % 1027,5 hPa 0,0 mm 0,0 km/h (0 Bft) W 267 ° 0 min 0,000 mm 0,0 UV-I 0 W/m² 4,4 °C 5,1 °C 0,0 km/h (0 Bft)
14.10.2017 03:33 5,1 °C 5,1 °C 95 % 1027,5 hPa 0,0 mm 0,0 km/h (0 Bft) W 267 ° 0 min 0,000 mm 0,0 UV-I 0 W/m² 4,4 °C 5,1 °C 0,0 km/h (0 Bft)
14.10.2017 03:34 5,2 °C 5,2 °C 96 % 1027,5 hPa 0,0 mm 0,0 km/h (0 Bft) W 267 ° 0 min 0,000 mm 0,0 UV-I 0 W/m² 4,6 °C 5,2 °C 0,0 km/h (0 Bft)
14.10.2017 03:35 5,2 °C 5,2 °C 96 % 1027,5 hPa 0,0 mm 0,0 km/h (0 Bft) W 267 ° 0 min 0,000 mm 0,0 UV-I 0 W/m² 4,6 °C 5,2 °C 0,0 km/h (0 Bft)
14.10.2017 03:36 5,2 °C 5,2 °C 96 % 1027,6 hPa 0,0 mm 0,0 km/h (0 Bft) W 267 ° 0 min 0,000 mm 0,0 UV-I 0 W/m² 4,6 °C 5,2 °C 0,0 km/h (0 Bft)
14.10.2017 03:37 5,4 °C 5,4 °C 96 % 1027,6 hPa 0,0 mm 0,0 km/h (0 Bft) W 267 ° 0 min 0,000 mm 0,0 UV-I 0 W/m² 4,8 °C 5,4 °C 0,0 km/h (0 Bft)
14.10.2017 03:38 5,6 °C 5,6 °C 96 % 1027,6 hPa 0,0 mm 0,0 km/h (0 Bft) W 267 ° 0 min 0,000 mm 0,0 UV-I 0 W/m² 5,0 °C 5,6 °C 0,0 km/h (0 Bft)
14.10.2017 03:39 5,6 °C 5,6 °C 96 % 1027,6 hPa 0,0 mm 0,0 km/h (0 Bft) W 267 ° 0 min 0,000 mm 0,0 UV-I 0 W/m² 5,0 °C 5,6 °C 0,0 km/h (0 Bft)
14.10.2017 03:40 5,8 °C 5,8 °C 96 % 1027,6 hPa 0,0 mm 0,3 km/h (0 Bft) W 267 ° 0 min 0,000 mm 0,0 UV-I 0 W/m² 5,2 °C 5,8 °C 1,6 km/h (1 Bft)
14.10.2017 03:41 5,8 °C 5,8 °C 96 % 1027,6 hPa 0,0 mm 0,0 km/h (0 Bft) W 267 ° 0 min 0,000 mm 0,0 UV-I 0 W/m² 5,2 °C 5,8 °C 0,0 km/h (0 Bft)
14.10.2017 03:42 5,9 °C 5,9 °C 96 % 1027,6 hPa 0,0 mm 0,0 km/h (0 Bft) W 267 ° 0 min 0,000 mm 0,0 UV-I 0 W/m² 5,3 °C 5,9 °C 0,0 km/h (0 Bft)
14.10.2017 03:43 5,9 °C 5,9 °C 96 % 1027,6 hPa 0,0 mm 0,0 km/h (0 Bft) W 267 ° 0 min 0,000 mm 0,0 UV-I 0 W/m² 5,3 °C 5,9 °C 0,0 km/h (0 Bft)
14.10.2017 03:44 5,9 °C 6,0 °C 96 % 1027,6 hPa 0,0 mm 0,0 km/h (0 Bft) W 267 ° 0 min 0,000 mm 0,0 UV-I 0 W/m² 5,3 °C 5,9 °C 0,0 km/h (0 Bft)
14.10.2017 03:45 6,1 °C 6,1 °C 96 % 1027,6 hPa 0,0 mm 0,0 km/h (0 Bft) W 267 ° 0 min 0,000 mm 0,0 UV-I 0 W/m² 5,5 °C 6,1 °C 0,0 km/h (0 Bft)
14.10.2017 03:46 6,1 °C 6,1 °C 96 % 1027,6 hPa 0,0 mm 0,0 km/h (0 Bft) W 267 ° 0 min 0,000 mm 0,0 UV-I 0 W/m² 5,5 °C 6,1 °C 0,0 km/h (0 Bft)
14.10.2017 03:47 6,2 °C 6,2 °C 96 % 1027,5 hPa 0,0 mm 0,0 km/h (0 Bft) W 267 ° 0 min 0,000 mm 0,0 UV-I 0 W/m² 5,6 °C 6,2 °C 0,0 km/h (0 Bft)
14.10.2017 03:48 6,2 °C 6,2 °C 96 % 1027,5 hPa 0,0 mm 0,0 km/h (0 Bft) W 267 ° 0 min 0,000 mm 0,0 UV-I 0 W/m² 5,6 °C 6,2 °C 0,0 km/h (0 Bft)
14.10.2017 03:49 6,1 °C 6,2 °C 96 % 1027,5 hPa 0,0 mm 0,0 km/h (0 Bft) W 267 ° 0 min 0,000 mm 0,0 UV-I 0 W/m² 5,5 °C 6,1 °C 0,0 km/h (0 Bft)
14.10.2017 03:50 5,9 °C 6,1 °C 96 % 1027,5 hPa 0,0 mm 0,0 km/h (0 Bft) W 267 ° 0 min 0,000 mm 0,0 UV-I 0 W/m² 5,3 °C 5,9 °C 0,0 km/h (0 Bft)
14.10.2017 03:51 5,8 °C 5,9 °C 96 % 1027,5 hPa 0,0 mm 0,0 km/h (0 Bft) W 267 ° 0 min 0,000 mm 0,0 UV-I 0 W/m² 5,2 °C 5,8 °C 0,0 km/h (0 Bft)
14.10.2017 03:52 5,7 °C 5,8 °C 95 % 1027,5 hPa 0,0 mm 0,0 km/h (0 Bft) W 267 ° 0 min 0,000 mm 0,0 UV-I 0 W/m² 5,0 °C 5,7 °C 0,0 km/h (0 Bft)
14.10.2017 03:53 5,7 °C 5,8 °C 95 % 1027,5 hPa 0,0 mm 0,0 km/h (0 Bft) W 267 ° 0 min 0,000 mm 0,0 UV-I 0 W/m² 5,0 °C 5,7 °C 0,0 km/h (0 Bft)
14.10.2017 03:54 5,7 °C 5,8 °C 95 % 1027,5 hPa 0,0 mm 0,0 km/h (0 Bft) W 267 ° 0 min 0,000 mm 0,0 UV-I 0 W/m² 5,0 °C 5,7 °C 0,0 km/h (0 Bft)
14.10.2017 03:55 5,7 °C 5,8 °C 96 % 1027,5 hPa 0,0 mm 0,0 km/h (0 Bft) W 267 ° 0 min 0,000 mm 0,0 UV-I 0 W/m² 5,1 °C 5,7 °C 0,0 km/h (0 Bft)
14.10.2017 03:56 5,6 °C 5,7 °C 95 % 1027,5 hPa 0,0 mm 0,0 km/h (0 Bft) W 267 ° 0 min 0,000 mm 0,0 UV-I 0 W/m² 4,9 °C 5,6 °C 0,0 km/h (0 Bft)
14.10.2017 03:57 5,5 °C 5,6 °C 95 % 1027,5 hPa 0,0 mm 0,0 km/h (0 Bft) W 267 ° 0 min 0,000 mm 0,0 UV-I 0 W/m² 4,8 °C 5,5 °C 0,0 km/h (0 Bft)
14.10.2017 03:58 5,4 °C 5,5 °C 95 % 1027,5 hPa 0,0 mm 0,0 km/h (0 Bft) W 267 ° 0 min 0,000 mm 0,0 UV-I 0 W/m² 4,7 °C 5,4 °C 0,0 km/h (0 Bft)
14.10.2017 03:59 5,3 °C 5,4 °C 95 % 1027,5 hPa 0,0 mm 0,0 km/h (0 Bft) W 267 ° 0 min 0,000 mm 0,0 UV-I 0 W/m² 4,6 °C 5,3 °C 0,0 km/h (0 Bft)
14.10.2017 04:00 5,3 °C 5,3 °C 95 % 1027,5 hPa 0,0 mm 0,0 km/h (0 Bft) W 267 ° 0 min 0,000 mm 0,0 UV-I 0 W/m² 4,6 °C 5,3 °C 0,0 km/h (0 Bft)
14.10.2017 04:01 5,3 °C 5,3 °C 95 % 1027,5 hPa 0,0 mm 0,0 km/h (0 Bft) W 267 ° 0 min 0,000 mm 0,0 UV-I 0 W/m² 4,6 °C 5,3 °C 0,0 km/h (0 Bft)
14.10.2017 04:02 5,3 °C 5,3 °C 95 % 1027,4 hPa 0,0 mm 0,0 km/h (0 Bft) W 267 ° 0 min 0,000 mm 0,0 UV-I 0 W/m² 4,6 °C 5,3 °C 0,0 km/h (0 Bft)
14.10.2017 04:03 5,4 °C 5,4 °C 95 % 1027,4 hPa 0,0 mm 0,0 km/h (0 Bft) W 267 ° 0 min 0,000 mm 0,0 UV-I 0 W/m² 4,7 °C 5,4 °C 0,0 km/h (0 Bft)
14.10.2017 04:04 5,4 °C 5,4 °C 95 % 1027,4 hPa 0,0 mm 0,0 km/h (0 Bft) W 267 ° 0 min 0,000 mm 0,0 UV-I 0 W/m² 4,7 °C 5,4 °C 0,0 km/h (0 Bft)
14.10.2017 04:05 5,4 °C 5,4 °C 96 % 1027,4 hPa 0,0 mm 0,0 km/h (0 Bft) W 267 ° 0 min 0,000 mm 0,0 UV-I 0 W/m² 4,8 °C 5,4 °C 0,0 km/h (0 Bft)
14.10.2017 04:06 5,3 °C 5,4 °C 96 % 1027,4 hPa 0,0 mm 0,0 km/h (0 Bft) W 267 ° 0 min 0,000 mm 0,0 UV-I 0 W/m² 4,7 °C 5,3 °C 0,0 km/h (0 Bft)
14.10.2017 04:07 5,2 °C 5,3 °C 95 % 1027,4 hPa 0,0 mm 0,0 km/h (0 Bft) W 267 ° 0 min 0,000 mm 0,0 UV-I 0 W/m² 4,5 °C 5,2 °C 0,0 km/h (0 Bft)
14.10.2017 04:08 5,1 °C 5,2 °C 95 % 1027,4 hPa 0,0 mm 0,0 km/h (0 Bft) W 267 ° 0 min 0,000 mm 0,0 UV-I 0 W/m² 4,4 °C 5,1 °C 0,0 km/h (0 Bft)
14.10.2017 04:09 4,8 °C 5,1 °C 95 % 1027,4 hPa 0,0 mm 0,0 km/h (0 Bft) W 267 ° 0 min 0,000 mm 0,0 UV-I 0 W/m² 4,1 °C 4,8 °C 0,0 km/h (0 Bft)
14.10.2017 04:10 4,8 °C 4,8 °C 95 % 1027,5 hPa 0,0 mm 0,0 km/h (0 Bft) W 267 ° 0 min 0,000 mm 0,0 UV-I 0 W/m² 4,1 °C 4,8 °C 0,0 km/h (0 Bft)
14.10.2017 04:11 4,8 °C 4,8 °C 95 % 1027,4 hPa 0,0 mm 0,0 km/h (0 Bft) W 267 ° 0 min 0,000 mm 0,0 UV-I 0 W/m² 4,1 °C 4,8 °C 0,0 km/h (0 Bft)
14.10.2017 04:12 4,8 °C 4,8 °C 95 % 1027,4 hPa 0,0 mm 0,0 km/h (0 Bft) W 267 ° 0 min 0,000 mm 0,0 UV-I 0 W/m² 4,1 °C 4,8 °C 0,0 km/h (0 Bft)
14.10.2017 04:13 4,8 °C 4,8 °C 95 % 1027,4 hPa 0,0 mm 0,0 km/h (0 Bft) W 267 ° 0 min 0,000 mm 0,0 UV-I 0 W/m² 4,1 °C 4,8 °C 0,0 km/h (0 Bft)
14.10.2017 04:14 4,8 °C 4,8 °C 95 % 1027,5 hPa 0,0 mm 0,0 km/h (0 Bft) W 267 ° 0 min 0,000 mm 0,0 UV-I 0 W/m² 4,1 °C 4,8 °C 0,0 km/h (0 Bft)
14.10.2017 04:15 4,9 °C 4,9 °C 95 % 1027,4 hPa 0,0 mm 0,0 km/h (0 Bft) W 267 ° 0 min 0,000 mm 0,0 UV-I 0 W/m² 4,2 °C 4,9 °C 0,0 km/h (0 Bft)
14.10.2017 04:16 5,1 °C 5,1 °C 95 % 1027,4 hPa 0,0 mm 0,0 km/h (0 Bft) W 267 ° 0 min 0,000 mm 0,0 UV-I 0 W/m² 4,4 °C 5,1 °C 0,0 km/h (0 Bft)
14.10.2017 04:17 5,2 °C 5,2 °C 95 % 1027,4 hPa 0,0 mm 0,0 km/h (0 Bft) W 267 ° 0 min 0,000 mm 0,0 UV-I 0 W/m² 4,5 °C 5,2 °C 0,0 km/h (0 Bft)
14.10.2017 04:18 5,3 °C 5,3 °C 96 % 1027,4 hPa 0,0 mm 0,0 km/h (0 Bft) W 267 ° 0 min 0,000 mm 0,0 UV-I 0 W/m² 4,7 °C 5,3 °C 0,0 km/h (0 Bft)
14.10.2017 04:19 5,3 °C 5,3 °C 96 % 1027,4 hPa 0,0 mm 0,0 km/h (0 Bft) W 267 ° 0 min 0,000 mm 0,0 UV-I 0 W/m² 4,7 °C 5,3 °C 0,0 km/h (0 Bft)
14.10.2017 04:20 5,3 °C 5,4 °C 96 % 1027,4 hPa 0,0 mm 0,0 km/h (0 Bft) W 267 ° 0 min 0,000 mm 0,0 UV-I 0 W/m² 4,7 °C 5,3 °C 0,0 km/h (0 Bft)
14.10.2017 04:21 5,3 °C 5,3 °C 96 % 1027,4 hPa 0,0 mm 0,0 km/h (0 Bft) W 267 ° 0 min 0,000 mm 0,0 UV-I 0 W/m² 4,7 °C 5,3 °C 0,0 km/h (0 Bft)
14.10.2017 04:22 5,3 °C 5,3 °C 96 % 1027,4 hPa 0,0 mm 0,0 km/h (0 Bft) W 267 ° 0 min 0,000 mm 0,0 UV-I 0 W/m² 4,7 °C 5,3 °C 0,0 km/h (0 Bft)
14.10.2017 04:23 5,3 °C 5,3 °C 95 % 1027,4 hPa 0,0 mm 0,0 km/h (0 Bft) W 267 ° 0 min 0,000 mm 0,0 UV-I 0 W/m² 4,6 °C 5,3 °C 0,0 km/h (0 Bft)
14.10.2017 04:24 5,3 °C 5,3 °C 95 % 1027,4 hPa 0,0 mm 0,0 km/h (0 Bft) W 267 ° 0 min 0,000 mm 0,0 UV-I 0 W/m² 4,6 °C 5,3 °C 0,0 km/h (0 Bft)
14.10.2017 04:25 5,3 °C 5,3 °C 95 % 1027,4 hPa 0,0 mm 0,0 km/h (0 Bft) W 267 ° 0 min 0,000 mm 0,0 UV-I 0 W/m² 4,6 °C 5,3 °C 0,0 km/h (0 Bft)
14.10.2017 04:26 5,3 °C 5,3 °C 96 % 1027,4 hPa 0,0 mm 0,0 km/h (0 Bft) W 267 ° 0 min 0,000 mm 0,0 UV-I 0 W/m² 4,7 °C 5,3 °C 0,0 km/h (0 Bft)
14.10.2017 04:27 5,3 °C 5,3 °C 96 % 1027,4 hPa 0,0 mm 0,0 km/h (0 Bft) W 267 ° 0 min 0,000 mm 0,0 UV-I 0 W/m² 4,7 °C 5,3 °C 0,0 km/h (0 Bft)
14.10.2017 04:28 5,2 °C 5,3 °C 96 % 1027,4 hPa 0,0 mm 0,0 km/h (0 Bft) W 267 ° 0 min 0,000 mm 0,0 UV-I 0 W/m² 4,6 °C 5,2 °C 0,0 km/h (0 Bft)
14.10.2017 04:29 5,2 °C 5,2 °C 96 % 1027,4 hPa 0,0 mm 0,0 km/h (0 Bft) W 267 ° 0 min 0,000 mm 0,0 UV-I 0 W/m² 4,6 °C 5,2 °C 0,0 km/h (0 Bft)
14.10.2017 04:30 5,1 °C 5,2 °C 95 % 1027,4 hPa 0,0 mm 0,0 km/h (0 Bft) W 267 ° 0 min 0,000 mm 0,0 UV-I 0 W/m² 4,4 °C 5,1 °C 0,0 km/h (0 Bft)
14.10.2017 04:31 5,1 °C 5,1 °C 95 % 1027,4 hPa 0,0 mm 0,0 km/h (0 Bft) W 267 ° 0 min 0,000 mm 0,0 UV-I 0 W/m² 4,4 °C 5,1 °C 0,0 km/h (0 Bft)
14.10.2017 04:32 5,2 °C 5,2 °C 95 % 1027,4 hPa 0,0 mm 0,0 km/h (0 Bft) W 267 ° 0 min 0,000 mm 0,0 UV-I 0 W/m² 4,5 °C 5,2 °C 0,0 km/h (0 Bft)
14.10.2017 04:33 5,2 °C 5,2 °C 95 % 1027,4 hPa 0,0 mm 0,0 km/h (0 Bft) W 267 ° 0 min 0,000 mm 0,0 UV-I 0 W/m² 4,5 °C 5,2 °C 0,0 km/h (0 Bft)
14.10.2017 04:34 5,3 °C 5,3 °C 96 % 1027,4 hPa 0,0 mm 0,0 km/h (0 Bft) W 267 ° 0 min 0,000 mm 0,0 UV-I 0 W/m² 4,7 °C 5,3 °C 0,0 km/h (0 Bft)
14.10.2017 04:35 5,4 °C 5,4 °C 96 % 1027,4 hPa 0,0 mm 0,0 km/h (0 Bft) W 267 ° 0 min 0,000 mm 0,0 UV-I 0 W/m² 4,8 °C 5,4 °C 0,0 km/h (0 Bft)
14.10.2017 04:36 5,6 °C 5,6 °C 96 % 1027,4 hPa 0,0 mm 0,0 km/h (0 Bft) W 267 ° 0 min 0,000 mm 0,0 UV-I 0 W/m² 5,0 °C 5,6 °C 0,0 km/h (0 Bft)
14.10.2017 04:37 5,7 °C 5,7 °C 96 % 1027,4 hPa 0,0 mm 0,0 km/h (0 Bft) W 267 ° 0 min 0,000 mm 0,0 UV-I 0 W/m² 5,1 °C 5,7 °C 0,0 km/h (0 Bft)
14.10.2017 04:38 5,8 °C 5,8 °C 96 % 1027,5 hPa 0,0 mm 0,0 km/h (0 Bft) W 267 ° 0 min 0,000 mm 0,0 UV-I 0 W/m² 5,2 °C 5,8 °C 0,0 km/h (0 Bft)
14.10.2017 04:39 5,8 °C 5,8 °C 96 % 1027,4 hPa 0,0 mm 0,0 km/h (0 Bft) W 267 ° 0 min 0,000 mm 0,0 UV-I 0 W/m² 5,2 °C 5,8 °C 0,0 km/h (0 Bft)
14.10.2017 04:40 5,8 °C 5,8 °C 96 % 1027,5 hPa 0,0 mm 0,0 km/h (0 Bft) W 267 ° 0 min 0,000 mm 0,0 UV-I 0 W/m² 5,2 °C 5,8 °C 0,0 km/h (0 Bft)
14.10.2017 04:41 5,7 °C 5,8 °C 96 % 1027,5 hPa 0,0 mm 0,0 km/h (0 Bft) W 267 ° 0 min 0,000 mm 0,0 UV-I 0 W/m² 5,1 °C 5,7 °C 0,0 km/h (0 Bft)
14.10.2017 04:42 5,6 °C 5,7 °C 96 % 1027,5 hPa 0,0 mm 0,0 km/h (0 Bft) W 267 ° 0 min 0,000 mm 0,0 UV-I 0 W/m² 5,0 °C 5,6 °C 0,0 km/h (0 Bft)
14.10.2017 04:43 5,6 °C 5,6 °C 95 % 1027,5 hPa 0,0 mm 0,0 km/h (0 Bft) W 267 ° 0 min 0,000 mm 0,0 UV-I 0 W/m² 4,9 °C 5,6 °C 0,0 km/h (0 Bft)
14.10.2017 04:44 5,4 °C 5,6 °C 95 % 1027,5 hPa 0,0 mm 0,0 km/h (0 Bft) W 267 ° 0 min 0,000 mm 0,0 UV-I 0 W/m² 4,7 °C 5,4 °C 0,0 km/h (0 Bft)
14.10.2017 04:45 5,4 °C 5,4 °C 95 % 1027,5 hPa 0,0 mm 0,0 km/h (0 Bft) W 267 ° 0 min 0,000 mm 0,0 UV-I 0 W/m² 4,7 °C 5,4 °C 0,0 km/h (0 Bft)
14.10.2017 04:46 5,4 °C 5,5 °C 95 % 1027,5 hPa 0,0 mm 0,0 km/h (0 Bft) W 267 ° 0 min 0,000 mm 0,0 UV-I 0 W/m² 4,7 °C 5,4 °C 0,0 km/h (0 Bft)
14.10.2017 04:47 5,4 °C 5,4 °C 95 % 1027,5 hPa 0,0 mm 0,0 km/h (0 Bft) W 267 ° 0 min 0,000 mm 0,0 UV-I 0 W/m² 4,7 °C 5,4 °C 0,0 km/h (0 Bft)
14.10.2017 04:48 5,4 °C 5,4 °C 95 % 1027,5 hPa 0,0 mm 0,0 km/h (0 Bft) W 267 ° 0 min 0,000 mm 0,0 UV-I 0 W/m² 4,7 °C 5,4 °C 0,0 km/h (0 Bft)
14.10.2017 04:49 5,4 °C 5,4 °C 95 % 1027,5 hPa 0,0 mm 0,0 km/h (0 Bft) W 267 ° 0 min 0,000 mm 0,0 UV-I 0 W/m² 4,7 °C 5,4 °C 0,0 km/h (0 Bft)
14.10.2017 04:50 5,5 °C 5,5 °C 96 % 1027,5 hPa 0,0 mm 0,0 km/h (0 Bft) W 267 ° 0 min 0,000 mm 0,0 UV-I 0 W/m² 4,9 °C 5,5 °C 0,0 km/h (0 Bft)
14.10.2017 04:51 5,5 °C 5,6 °C 96 % 1027,5 hPa 0,0 mm 0,0 km/h (0 Bft) W 267 ° 0 min 0,000 mm 0,0 UV-I 0 W/m² 4,9 °C 5,5 °C 0,0 km/h (0 Bft)
14.10.2017 04:52 5,5 °C 5,5 °C 96 % 1027,5 hPa 0,0 mm 0,0 km/h (0 Bft) W 267 ° 0 min 0,000 mm 0,0 UV-I 0 W/m² 4,9 °C 5,5 °C 0,0 km/h (0 Bft)
14.10.2017 04:53 5,5 °C 5,5 °C 96 % 1027,5 hPa 0,0 mm 0,0 km/h (0 Bft) W 267 ° 0 min 0,000 mm 0,0 UV-I 0 W/m² 4,9 °C 5,5 °C 0,0 km/h (0 Bft)
14.10.2017 04:54 5,4 °C 5,5 °C 95 % 1027,5 hPa 0,0 mm 0,0 km/h (0 Bft) W 267 ° 0 min 0,000 mm 0,0 UV-I 0 W/m² 4,7 °C 5,4 °C 0,0 km/h (0 Bft)
14.10.2017 04:55 5,4 °C 5,4 °C 95 % 1027,5 hPa 0,0 mm 0,0 km/h (0 Bft) W 267 ° 0 min 0,000 mm 0,0 UV-I 0 W/m² 4,7 °C 5,4 °C 0,0 km/h (0 Bft)
14.10.2017 04:56 5,4 °C 5,4 °C 95 % 1027,5 hPa 0,0 mm 0,0 km/h (0 Bft) W 267 ° 0 min 0,000 mm 0,0 UV-I 0 W/m² 4,7 °C 5,4 °C 0,0 km/h (0 Bft)
14.10.2017 04:57 5,4 °C 5,4 °C 95 % 1027,5 hPa 0,0 mm 0,0 km/h (0 Bft) W 267 ° 0 min 0,000 mm 0,0 UV-I 0 W/m² 4,7 °C 5,4 °C 0,0 km/h (0 Bft)
14.10.2017 04:58 5,3 °C 5,4 °C 95 % 1027,5 hPa 0,0 mm 0,0 km/h (0 Bft) W 267 ° 0 min 0,000 mm 0,0 UV-I 0 W/m² 4,6 °C 5,3 °C 0,0 km/h (0 Bft)
14.10.2017 04:59 5,3 °C 5,4 °C 95 % 1027,5 hPa 0,0 mm 0,0 km/h (0 Bft) W 267 ° 0 min 0,000 mm 0,0 UV-I 0 W/m² 4,6 °C 5,3 °C 0,0 km/h (0 Bft)
14.10.2017 05:00 5,3 °C 5,3 °C 95 % 1027,5 hPa 0,0 mm 0,0 km/h (0 Bft) W 267 ° 0 min 0,000 mm 0,0 UV-I 0 W/m² 4,6 °C 5,3 °C 0,0 km/h (0 Bft)
14.10.2017 05:01 5,3 °C 5,3 °C 95 % 1027,5 hPa 0,0 mm 0,0 km/h (0 Bft) W 267 ° 0 min 0,000 mm 0,0 UV-I 0 W/m² 4,6 °C 5,3 °C 0,0 km/h (0 Bft)
14.10.2017 05:02 5,3 °C 5,3 °C 95 % 1027,5 hPa 0,0 mm 0,0 km/h (0 Bft) W 267 ° 0 min 0,000 mm 0,0 UV-I 0 W/m² 4,6 °C 5,3 °C 0,0 km/h (0 Bft)
14.10.2017 05:03 5,2 °C 5,3 °C 95 % 1027,5 hPa 0,0 mm 0,0 km/h (0 Bft) W 267 ° 0 min 0,000 mm 0,0 UV-I 0 W/m² 4,5 °C 5,2 °C 0,0 km/h (0 Bft)
14.10.2017 05:04 5,2 °C 5,2 °C 95 % 1027,5 hPa 0,0 mm 0,0 km/h (0 Bft) W 267 ° 0 min 0,000 mm 0,0 UV-I 0 W/m² 4,5 °C 5,2 °C 0,0 km/h (0 Bft)
14.10.2017 05:05 5,2 °C 5,2 °C 95 % 1027,5 hPa 0,0 mm 0,0 km/h (0 Bft) W 267 ° 0 min 0,000 mm 0,0 UV-I 0 W/m² 4,5 °C 5,2 °C 0,0 km/h (0 Bft)
14.10.2017 05:06 5,2 °C 5,2 °C 95 % 1027,5 hPa 0,0 mm 0,0 km/h (0 Bft) W 267 ° 0 min 0,000 mm 0,0 UV-I 0 W/m² 4,5 °C 5,2 °C 0,0 km/h (0 Bft)
14.10.2017 05:07 5,1 °C 5,2 °C 95 % 1027,6 hPa 0,0 mm 0,0 km/h (0 Bft) W 267 ° 0 min 0,000 mm 0,0 UV-I 0 W/m² 4,4 °C 5,1 °C 0,0 km/h (0 Bft)
14.10.2017 05:08 5,2 °C 5,2 °C 95 % 1027,6 hPa 0,0 mm 0,0 km/h (0 Bft) W 267 ° 0 min 0,000 mm 0,0 UV-I 0 W/m² 4,5 °C 5,2 °C 0,0 km/h (0 Bft)
14.10.2017 05:09 5,2 °C 5,2 °C 95 % 1027,6 hPa 0,0 mm 0,0 km/h (0 Bft) W 267 ° 0 min 0,000 mm 0,0 UV-I 0 W/m² 4,5 °C 5,2 °C 0,0 km/h (0 Bft)
14.10.2017 05:10 5,2 °C 5,2 °C 95 % 1027,5 hPa 0,0 mm 0,0 km/h (0 Bft) W 267 ° 0 min 0,000 mm 0,0 UV-I 0 W/m² 4,5 °C 5,2 °C 0,0 km/h (0 Bft)
14.10.2017 05:11 5,2 °C 5,2 °C 95 % 1027,5 hPa 0,0 mm 0,0 km/h (0 Bft) W 267 ° 0 min 0,000 mm 0,0 UV-I 0 W/m² 4,5 °C 5,2 °C 0,0 km/h (0 Bft)
14.10.2017 05:12 5,2 °C 5,2 °C 95 % 1027,6 hPa 0,0 mm 0,0 km/h (0 Bft) W 267 ° 0 min 0,000 mm 0,0 UV-I 0 W/m² 4,5 °C 5,2 °C 0,0 km/h (0 Bft)
14.10.2017 05:13 5,2 °C 5,2 °C 95 % 1027,5 hPa 0,0 mm 0,0 km/h (0 Bft) W 267 ° 0 min 0,000 mm 0,0 UV-I 0 W/m² 4,5 °C 5,2 °C 0,0 km/h (0 Bft)
14.10.2017 05:14 5,3 °C 5,3 °C 96 % 1027,6 hPa 0,0 mm 0,0 km/h (0 Bft) W 267 ° 0 min 0,000 mm 0,0 UV-I 0 W/m² 4,7 °C 5,3 °C 0,0 km/h (0 Bft)
14.10.2017 05:15 5,3 °C 5,3 °C 96 % 1027,6 hPa 0,0 mm 0,0 km/h (0 Bft) W 267 ° 0 min 0,000 mm 0,0 UV-I 0 W/m² 4,7 °C 5,3 °C 0,0 km/h (0 Bft)
14.10.2017 05:16 5,3 °C 5,3 °C 96 % 1027,6 hPa 0,0 mm 0,0 km/h (0 Bft) W 267 ° 0 min 0,000 mm 0,0 UV-I 0 W/m² 4,7 °C 5,3 °C 0,0 km/h (0 Bft)
14.10.2017 05:17 5,3 °C 5,3 °C 96 % 1027,6 hPa 0,0 mm 0,0 km/h (0 Bft) W 267 ° 0 min 0,000 mm 0,0 UV-I 0 W/m² 4,7 °C 5,3 °C 0,0 km/h (0 Bft)
14.10.2017 05:18 5,2 °C 5,3 °C 96 % 1027,6 hPa 0,0 mm 0,0 km/h (0 Bft) W 267 ° 0 min 0,000 mm 0,0 UV-I 0 W/m² 4,6 °C 5,2 °C 0,0 km/h (0 Bft)
14.10.2017 05:19 5,2 °C 5,2 °C 95 % 1027,6 hPa 0,0 mm 0,0 km/h (0 Bft) W 267 ° 0 min 0,000 mm 0,0 UV-I 0 W/m² 4,5 °C 5,2 °C 0,0 km/h (0 Bft)
14.10.2017 05:20 5,1 °C 5,2 °C 95 % 1027,6 hPa 0,0 mm 0,0 km/h (0 Bft) W 267 ° 0 min 0,000 mm 0,0 UV-I 0 W/m² 4,4 °C 5,1 °C 0,0 km/h (0 Bft)
14.10.2017 05:21 5,1 °C 5,2 °C 95 % 1027,6 hPa 0,0 mm 0,0 km/h (0 Bft) W 267 ° 0 min 0,000 mm 0,0 UV-I 0 W/m² 4,4 °C 5,1 °C 0,0 km/h (0 Bft)
14.10.2017 05:22 5,2 °C 5,2 °C 96 % 1027,6 hPa 0,0 mm 0,0 km/h (0 Bft) W 267 ° 0 min 0,000 mm 0,0 UV-I 0 W/m² 4,6 °C 5,2 °C 0,0 km/h (0 Bft)
14.10.2017 05:23 5,1 °C 5,2 °C 95 % 1027,6 hPa 0,0 mm 0,0 km/h (0 Bft) W 267 ° 0 min 0,000 mm 0,0 UV-I 0 W/m² 4,4 °C 5,1 °C 0,0 km/h (0 Bft)
14.10.2017 05:24 5,1 °C 5,2 °C 96 % 1027,7 hPa 0,0 mm 0,0 km/h (0 Bft) W 267 ° 0 min 0,000 mm 0,0 UV-I 0 W/m² 4,5 °C 5,1 °C 0,0 km/h (0 Bft)
14.10.2017 05:25 5,2 °C 5,2 °C 96 % 1027,6 hPa 0,0 mm 0,0 km/h (0 Bft) W 267 ° 0 min 0,000 mm 0,0 UV-I 0 W/m² 4,6 °C 5,2 °C 0,0 km/h (0 Bft)
14.10.2017 05:26 5,2 °C 5,2 °C 96 % 1027,7 hPa 0,0 mm 0,0 km/h (0 Bft) W 267 ° 0 min 0,000 mm 0,0 UV-I 0 W/m² 4,6 °C 5,2 °C 0,0 km/h (0 Bft)
14.10.2017 05:27 5,2 °C 5,2 °C 96 % 1027,7 hPa 0,0 mm 0,0 km/h (0 Bft) W 267 ° 0 min 0,000 mm 0,0 UV-I 0 W/m² 4,6 °C 5,2 °C 0,0 km/h (0 Bft)
14.10.2017 05:28 5,2 °C 5,2 °C 96 % 1027,6 hPa 0,0 mm 0,0 km/h (0 Bft) W 267 ° 0 min 0,000 mm 0,0 UV-I 0 W/m² 4,6 °C 5,2 °C 0,0 km/h (0 Bft)
14.10.2017 05:29 5,2 °C 5,2 °C 96 % 1027,6 hPa 0,0 mm 0,0 km/h (0 Bft) W 267 ° 0 min 0,000 mm 0,0 UV-I 0 W/m² 4,6 °C 5,2 °C 0,0 km/h (0 Bft)
14.10.2017 05:30 5,2 °C 5,2 °C 96 % 1027,6 hPa 0,0 mm 0,0 km/h (0 Bft) W 267 ° 0 min 0,000 mm 0,0 UV-I 0 W/m² 4,6 °C 5,2 °C 0,0 km/h (0 Bft)
14.10.2017 05:31 5,2 °C 5,2 °C 96 % 1027,6 hPa 0,0 mm 0,0 km/h (0 Bft) W 267 ° 0 min 0,000 mm 0,0 UV-I 0 W/m² 4,6 °C 5,2 °C 0,0 km/h (0 Bft)
14.10.2017 05:32 5,2 °C 5,2 °C 96 % 1027,7 hPa 0,0 mm 0,0 km/h (0 Bft) W 267 ° 0 min 0,000 mm 0,0 UV-I 0 W/m² 4,6 °C 5,2 °C 0,0 km/h (0 Bft)
14.10.2017 05:33 5,2 °C 5,2 °C 96 % 1027,6 hPa 0,0 mm 0,0 km/h (0 Bft) W 267 ° 0 min 0,000 mm 0,0 UV-I 0 W/m² 4,6 °C 5,2 °C 0,0 km/h (0 Bft)
14.10.2017 05:34 5,2 °C 5,2 °C 96 % 1027,6 hPa 0,0 mm 0,0 km/h (0 Bft) W 267 ° 0 min 0,000 mm 0,0 UV-I 0 W/m² 4,6 °C 5,2 °C 0,0 km/h (0 Bft)
14.10.2017 05:35 5,2 °C 5,2 °C 96 % 1027,6 hPa 0,0 mm 0,0 km/h (0 Bft) W 267 ° 0 min 0,000 mm 0,0 UV-I 0 W/m² 4,6 °C 5,2 °C 0,0 km/h (0 Bft)
14.10.2017 05:36 5,2 °C 5,2 °C 96 % 1027,6 hPa 0,0 mm 0,0 km/h (0 Bft) W 267 ° 0 min 0,000 mm 0,0 UV-I 0 W/m² 4,6 °C 5,2 °C 0,0 km/h (0 Bft)
14.10.2017 05:37 5,2 °C 5,2 °C 96 % 1027,6 hPa 0,0 mm 0,0 km/h (0 Bft) W 267 ° 0 min 0,000 mm 0,0 UV-I 0 W/m² 4,6 °C 5,2 °C 0,0 km/h (0 Bft)
14.10.2017 05:38 5,2 °C 5,2 °C 96 % 1027,6 hPa 0,0 mm 0,0 km/h (0 Bft) W 267 ° 0 min 0,000 mm 0,0 UV-I 0 W/m² 4,6 °C 5,2 °C 0,0 km/h (0 Bft)
14.10.2017 05:39 5,2 °C 5,2 °C 96 % 1027,6 hPa 0,0 mm 0,0 km/h (0 Bft) W 267 ° 0 min 0,000 mm 0,0 UV-I 0 W/m² 4,6 °C 5,2 °C 0,0 km/h (0 Bft)
14.10.2017 05:40 5,2 °C 5,2 °C 96 % 1027,7 hPa 0,0 mm 0,0 km/h (0 Bft) W 267 ° 0 min 0,000 mm 0,0 UV-I 0 W/m² 4,6 °C 5,2 °C 0,0 km/h (0 Bft)
14.10.2017 05:41 5,2 °C 5,2 °C 96 % 1027,6 hPa 0,0 mm 0,0 km/h (0 Bft) W 267 ° 0 min 0,000 mm 0,0 UV-I 0 W/m² 4,6 °C 5,2 °C 0,0 km/h (0 Bft)
14.10.2017 05:42 5,3 °C 5,3 °C 96 % 1027,6 hPa 0,0 mm 0,0 km/h (0 Bft) W 267 ° 0 min 0,000 mm 0,0 UV-I 0 W/m² 4,7 °C 5,3 °C 0,0 km/h (0 Bft)
14.10.2017 05:43 5,3 °C 5,3 °C 96 % 1027,6 hPa 0,0 mm 0,0 km/h (0 Bft) W 267 ° 0 min 0,000 mm 0,0 UV-I 0 W/m² 4,7 °C 5,3 °C 0,0 km/h (0 Bft)
14.10.2017 05:44 5,2 °C 5,3 °C 96 % 1027,6 hPa 0,0 mm 0,0 km/h (0 Bft) W 267 ° 0 min 0,000 mm 0,0 UV-I 0 W/m² 4,6 °C 5,2 °C 0,0 km/h (0 Bft)
14.10.2017 05:45 5,2 °C 5,3 °C 96 % 1027,6 hPa 0,0 mm 0,0 km/h (0 Bft) W 267 ° 0 min 0,000 mm 0,0 UV-I 0 W/m² 4,6 °C 5,2 °C 0,0 km/h (0 Bft)
14.10.2017 05:46 5,2 °C 5,2 °C 96 % 1027,6 hPa 0,0 mm 0,0 km/h (0 Bft) W 267 ° 0 min 0,000 mm 0,0 UV-I 0 W/m² 4,6 °C 5,2 °C 0,0 km/h (0 Bft)
14.10.2017 05:47 5,1 °C 5,2 °C 96 % 1027,6 hPa 0,0 mm 0,0 km/h (0 Bft) W 267 ° 0 min 0,000 mm 0,0 UV-I 0 W/m² 4,5 °C 5,1 °C 0,0 km/h (0 Bft)
14.10.2017 05:48 4,9 °C 5,1 °C 95 % 1027,6 hPa 0,0 mm 0,0 km/h (0 Bft) W 267 ° 0 min 0,000 mm 0,0 UV-I 0 W/m² 4,2 °C 4,9 °C 0,0 km/h (0 Bft)
14.10.2017 05:49 4,9 °C 5,0 °C 95 % 1027,6 hPa 0,0 mm 0,0 km/h (0 Bft) W 267 ° 0 min 0,000 mm 0,0 UV-I 0 W/m² 4,2 °C 4,9 °C 0,0 km/h (0 Bft)
14.10.2017 05:50 4,9 °C 4,9 °C 95 % 1027,6 hPa 0,0 mm 0,0 km/h (0 Bft) W 267 ° 0 min 0,000 mm 0,0 UV-I 0 W/m² 4,2 °C 4,9 °C 0,0 km/h (0 Bft)
14.10.2017 05:51 4,9 °C 4,9 °C 95 % 1027,6 hPa 0,0 mm 0,0 km/h (0 Bft) W 267 ° 0 min 0,000 mm 0,0 UV-I 0 W/m² 4,2 °C 4,9 °C 0,0 km/h (0 Bft)
14.10.2017 05:52 5,0 °C 5,0 °C 95 % 1027,6 hPa 0,0 mm 0,0 km/h (0 Bft) W 267 ° 0 min 0,000 mm 0,0 UV-I 0 W/m² 4,3 °C 5,0 °C 0,0 km/h (0 Bft)
14.10.2017 05:53 5,1 °C 5,1 °C 96 % 1027,7 hPa 0,0 mm 0,0 km/h (0 Bft) W 267 ° 0 min 0,000 mm 0,0 UV-I 0 W/m² 4,5 °C 5,1 °C 0,0 km/h (0 Bft)
14.10.2017 05:54 5,2 °C 5,2 °C 96 % 1027,7 hPa 0,0 mm 0,0 km/h (0 Bft) W 267 ° 0 min 0,000 mm 0,0 UV-I 0 W/m² 4,6 °C 5,2 °C 0,0 km/h (0 Bft)
14.10.2017 05:55 5,2 °C 5,2 °C 96 % 1027,7 hPa 0,0 mm 0,0 km/h (0 Bft) W 267 ° 0 min 0,000 mm 0,0 UV-I 0 W/m² 4,6 °C 5,2 °C 0,0 km/h (0 Bft)
14.10.2017 05:56 5,2 °C 5,2 °C 96 % 1027,7 hPa 0,0 mm 0,0 km/h (0 Bft) W 267 ° 0 min 0,000 mm 0,0 UV-I 0 W/m² 4,6 °C 5,2 °C 0,0 km/h (0 Bft)
14.10.2017 05:57 5,2 °C 5,2 °C 96 % 1027,6 hPa 0,0 mm 0,0 km/h (0 Bft) W 267 ° 0 min 0,000 mm 0,0 UV-I 0 W/m² 4,6 °C 5,2 °C 0,0 km/h (0 Bft)
14.10.2017 05:58 5,3 °C 5,3 °C 96 % 1027,7 hPa 0,0 mm 0,0 km/h (0 Bft) W 267 ° 0 min 0,000 mm 0,0 UV-I 0 W/m² 4,7 °C 5,3 °C 0,0 km/h (0 Bft)
14.10.2017 05:59 5,3 °C 5,3 °C 96 % 1027,6 hPa 0,0 mm 0,0 km/h (0 Bft) W 267 ° 0 min 0,000 mm 0,0 UV-I 0 W/m² 4,7 °C 5,3 °C 0,0 km/h (0 Bft)
14.10.2017 06:00 5,2 °C 5,3 °C 96 % 1027,6 hPa 0,0 mm 0,0 km/h (0 Bft) W 267 ° 0 min 0,000 mm 0,0 UV-I 0 W/m² 4,6 °C 5,2 °C 0,0 km/h (0 Bft)
14.10.2017 06:01 5,2 °C 5,2 °C 96 % 1027,7 hPa 0,0 mm 0,0 km/h (0 Bft) W 267 ° 0 min 0,000 mm 0,0 UV-I 0 W/m² 4,6 °C 5,2 °C 0,0 km/h (0 Bft)
14.10.2017 06:02 5,2 °C 5,2 °C 96 % 1027,7 hPa 0,0 mm 0,0 km/h (0 Bft) W 267 ° 0 min 0,000 mm 0,0 UV-I 0 W/m² 4,6 °C 5,2 °C 0,0 km/h (0 Bft)
14.10.2017 06:03 5,1 °C 5,2 °C 96 % 1027,7 hPa 0,0 mm 0,0 km/h (0 Bft) W 267 ° 0 min 0,000 mm 0,0 UV-I 0 W/m² 4,5 °C 5,1 °C 0,0 km/h (0 Bft)
14.10.2017 06:04 5,1 °C 5,1 °C 96 % 1027,8 hPa 0,0 mm 0,0 km/h (0 Bft) W 267 ° 0 min 0,000 mm 0,0 UV-I 0 W/m² 4,5 °C 5,1 °C 0,0 km/h (0 Bft)
14.10.2017 06:05 5,1 °C 5,1 °C 96 % 1027,8 hPa 0,0 mm 0,0 km/h (0 Bft) W 267 ° 0 min 0,000 mm 0,0 UV-I 0 W/m² 4,5 °C 5,1 °C 0,0 km/h (0 Bft)
14.10.2017 06:06 5,1 °C 5,1 °C 96 % 1027,8 hPa 0,0 mm 0,0 km/h (0 Bft) W 267 ° 0 min 0,000 mm 0,0 UV-I 0 W/m² 4,5 °C 5,1 °C 0,0 km/h (0 Bft)
14.10.2017 06:07 5,1 °C 5,1 °C 96 % 1027,8 hPa 0,0 mm 0,0 km/h (0 Bft) W 267 ° 0 min 0,000 mm 0,0 UV-I 0 W/m² 4,5 °C 5,1 °C 0,0 km/h (0 Bft)
14.10.2017 06:08 5,1 °C 5,1 °C 96 % 1027,7 hPa 0,0 mm 0,0 km/h (0 Bft) W 267 ° 0 min 0,000 mm 0,0 UV-I 0 W/m² 4,5 °C 5,1 °C 0,0 km/h (0 Bft)
14.10.2017 06:09 5,1 °C 5,1 °C 96 % 1027,8 hPa 0,0 mm 0,0 km/h (0 Bft) W 267 ° 0 min 0,000 mm 0,0 UV-I 0 W/m² 4,5 °C 5,1 °C 0,0 km/h (0 Bft)
14.10.2017 06:10 5,0 °C 5,1 °C 96 % 1027,8 hPa 0,0 mm 0,0 km/h (0 Bft) W 267 ° 0 min 0,000 mm 0,0 UV-I 0 W/m² 4,4 °C 5,0 °C 0,0 km/h (0 Bft)
14.10.2017 06:11 5,1 °C 5,1 °C 96 % 1027,8 hPa 0,0 mm 0,0 km/h (0 Bft) W 267 ° 0 min 0,000 mm 0,0 UV-I 0 W/m² 4,5 °C 5,1 °C 0,0 km/h (0 Bft)
14.10.2017 06:12 5,1 °C 5,1 °C 96 % 1027,8 hPa 0,0 mm 0,0 km/h (0 Bft) W 267 ° 0 min 0,000 mm 0,0 UV-I 0 W/m² 4,5 °C 5,1 °C 0,0 km/h (0 Bft)
14.10.2017 06:13 5,1 °C 5,1 °C 96 % 1027,8 hPa 0,0 mm 0,0 km/h (0 Bft) W 267 ° 0 min 0,000 mm 0,0 UV-I 0 W/m² 4,5 °C 5,1 °C 0,0 km/h (0 Bft)
14.10.2017 06:14 5,1 °C 5,1 °C 96 % 1027,7 hPa 0,0 mm 0,0 km/h (0 Bft) W 267 ° 0 min 0,000 mm 0,0 UV-I 0 W/m² 4,5 °C 5,1 °C 0,0 km/h (0 Bft)
14.10.2017 06:15 5,1 °C 5,1 °C 96 % 1027,7 hPa 0,0 mm 0,0 km/h (0 Bft) W 267 ° 0 min 0,000 mm 0,0 UV-I 0 W/m² 4,5 °C 5,1 °C 0,0 km/h (0 Bft)
14.10.2017 06:16 5,1 °C 5,1 °C 96 % 1027,7 hPa 0,0 mm 0,0 km/h (0 Bft) W 267 ° 0 min 0,000 mm 0,0 UV-I 0 W/m² 4,5 °C 5,1 °C 0,0 km/h (0 Bft)
14.10.2017 06:17 5,1 °C 5,1 °C 96 % 1027,7 hPa 0,0 mm 0,0 km/h (0 Bft) W 267 ° 0 min 0,000 mm 0,0 UV-I 0 W/m² 4,5 °C 5,1 °C 0,0 km/h (0 Bft)
14.10.2017 06:18 5,2 °C 5,2 °C 96 % 1027,6 hPa 0,0 mm 0,0 km/h (0 Bft) W 267 ° 0 min 0,000 mm 0,0 UV-I 0 W/m² 4,6 °C 5,2 °C 0,0 km/h (0 Bft)
14.10.2017 06:19 5,2 °C 5,2 °C 96 % 1027,7 hPa 0,0 mm 0,0 km/h (0 Bft) W 267 ° 0 min 0,000 mm 0,0 UV-I 0 W/m² 4,6 °C 5,2 °C 0,0 km/h (0 Bft)
14.10.2017 06:20 5,2 °C 5,2 °C 96 % 1027,7 hPa 0,0 mm 0,0 km/h (0 Bft) W 267 ° 0 min 0,000 mm 0,0 UV-I 0 W/m² 4,6 °C 5,2 °C 0,0 km/h (0 Bft)
14.10.2017 06:21 5,2 °C 5,2 °C 96 % 1027,7 hPa 0,0 mm 0,0 km/h (0 Bft) W 267 ° 0 min 0,000 mm 0,0 UV-I 0 W/m² 4,6 °C 5,2 °C 0,0 km/h (0 Bft)
14.10.2017 06:22 5,1 °C 5,2 °C 96 % 1027,7 hPa 0,0 mm 0,0 km/h (0 Bft) W 267 ° 0 min 0,000 mm 0,0 UV-I 0 W/m² 4,5 °C 5,1 °C 0,0 km/h (0 Bft)
14.10.2017 06:23 5,1 °C 5,1 °C 96 % 1027,7 hPa 0,0 mm 0,0 km/h (0 Bft) W 267 ° 0 min 0,000 mm 0,0 UV-I 0 W/m² 4,5 °C 5,1 °C 0,0 km/h (0 Bft)
14.10.2017 06:24 5,1 °C 5,1 °C 96 % 1027,7 hPa 0,0 mm 0,0 km/h (0 Bft) W 267 ° 0 min 0,000 mm 0,0 UV-I 0 W/m² 4,5 °C 5,1 °C 0,0 km/h (0 Bft)
14.10.2017 06:25 5,1 °C 5,1 °C 96 % 1027,7 hPa 0,0 mm 0,0 km/h (0 Bft) W 267 ° 0 min 0,000 mm 0,0 UV-I 0 W/m² 4,5 °C 5,1 °C 0,0 km/h (0 Bft)
14.10.2017 06:26 4,9 °C 5,1 °C 96 % 1027,7 hPa 0,0 mm 0,0 km/h (0 Bft) W 267 ° 0 min 0,000 mm 0,0 UV-I 0 W/m² 4,3 °C 4,9 °C 0,0 km/h (0 Bft)
14.10.2017 06:27 4,8 °C 4,9 °C 95 % 1027,7 hPa 0,0 mm 0,0 km/h (0 Bft) W 267 ° 0 min 0,000 mm 0,0 UV-I 0 W/m² 4,1 °C 4,8 °C 0,0 km/h (0 Bft)
14.10.2017 06:28 4,7 °C 4,8 °C 95 % 1027,6 hPa 0,0 mm 0,0 km/h (0 Bft) W 267 ° 0 min 0,000 mm 0,0 UV-I 0 W/m² 4,0 °C 4,7 °C 0,0 km/h (0 Bft)
14.10.2017 06:29 4,7 °C 4,7 °C 95 % 1027,7 hPa 0,0 mm 0,0 km/h (0 Bft) W 267 ° 0 min 0,000 mm 0,0 UV-I 0 W/m² 4,0 °C 4,7 °C 0,0 km/h (0 Bft)
14.10.2017 06:30 4,7 °C 4,7 °C 95 % 1027,7 hPa 0,0 mm 0,0 km/h (0 Bft) W 267 ° 0 min 0,000 mm 0,0 UV-I 0 W/m² 4,0 °C 4,7 °C 0,0 km/h (0 Bft)
14.10.2017 06:31 4,8 °C 4,8 °C 96 % 1027,7 hPa 0,0 mm 0,0 km/h (0 Bft) W 267 ° 0 min 0,000 mm 0,0 UV-I 0 W/m² 4,2 °C 4,8 °C 0,0 km/h (0 Bft)
14.10.2017 06:32 4,9 °C 4,9 °C 96 % 1027,6 hPa 0,0 mm 0,0 km/h (0 Bft) W 267 ° 0 min 0,000 mm 0,0 UV-I 0 W/m² 4,3 °C 4,9 °C 0,0 km/h (0 Bft)
14.10.2017 06:33 4,9 °C 4,9 °C 96 % 1027,6 hPa 0,0 mm 0,0 km/h (0 Bft) W 267 ° 0 min 0,000 mm 0,0 UV-I 0 W/m² 4,3 °C 4,9 °C 0,0 km/h (0 Bft)
14.10.2017 06:34 5,0 °C 5,0 °C 96 % 1027,7 hPa 0,0 mm 0,0 km/h (0 Bft) W 267 ° 0 min 0,000 mm 0,0 UV-I 0 W/m² 4,4 °C 5,0 °C 0,0 km/h (0 Bft)
14.10.2017 06:35 5,1 °C 5,1 °C 96 % 1027,7 hPa 0,0 mm 0,0 km/h (0 Bft) W 267 ° 0 min 0,000 mm 0,0 UV-I 0 W/m² 4,5 °C 5,1 °C 0,0 km/h (0 Bft)
14.10.2017 06:36 5,1 °C 5,1 °C 96 % 1027,7 hPa 0,0 mm 0,0 km/h (0 Bft) W 267 ° 0 min 0,000 mm 0,0 UV-I 0 W/m² 4,5 °C 5,1 °C 0,0 km/h (0 Bft)
14.10.2017 06:37 4,9 °C 5,1 °C 96 % 1027,7 hPa 0,0 mm 0,0 km/h (0 Bft) W 267 ° 0 min 0,000 mm 0,0 UV-I 0 W/m² 4,3 °C 4,9 °C 0,0 km/h (0 Bft)
14.10.2017 06:38 4,9 °C 4,9 °C 96 % 1027,7 hPa 0,0 mm 0,0 km/h (0 Bft) W 267 ° 0 min 0,000 mm 0,0 UV-I 0 W/m² 4,3 °C 4,9 °C 0,0 km/h (0 Bft)
14.10.2017 06:39 4,8 °C 4,9 °C 96 % 1027,7 hPa 0,0 mm 0,0 km/h (0 Bft) W 267 ° 0 min 0,000 mm 0,0 UV-I 0 W/m² 4,2 °C 4,8 °C 0,0 km/h (0 Bft)
14.10.2017 06:40 4,8 °C 4,8 °C 96 % 1027,8 hPa 0,0 mm 0,0 km/h (0 Bft) W 267 ° 0 min 0,000 mm 0,0 UV-I 0 W/m² 4,2 °C 4,8 °C 0,0 km/h (0 Bft)
14.10.2017 06:41 4,7 °C 4,8 °C 96 % 1027,8 hPa 0,0 mm 0,0 km/h (0 Bft) W 267 ° 0 min 0,000 mm 0,0 UV-I 0 W/m² 4,1 °C 4,7 °C 0,0 km/h (0 Bft)
14.10.2017 06:42 4,8 °C 4,8 °C 96 % 1027,8 hPa 0,0 mm 0,0 km/h (0 Bft) W 267 ° 0 min 0,000 mm 0,0 UV-I 0 W/m² 4,2 °C 4,8 °C 0,0 km/h (0 Bft)
14.10.2017 06:43 4,8 °C 4,8 °C 96 % 1027,8 hPa 0,0 mm 0,0 km/h (0 Bft) W 267 ° 0 min 0,000 mm 0,0 UV-I 0 W/m² 4,2 °C 4,8 °C 0,0 km/h (0 Bft)
14.10.2017 06:44 4,8 °C 4,8 °C 96 % 1027,8 hPa 0,0 mm 0,0 km/h (0 Bft) W 267 ° 0 min 0,000 mm 0,0 UV-I 0 W/m² 4,2 °C 4,8 °C 0,0 km/h (0 Bft)
14.10.2017 06:45 5,1 °C 5,1 °C 96 % 1027,8 hPa 0,0 mm 0,0 km/h (0 Bft) W 267 ° 0 min 0,000 mm 0,0 UV-I 0 W/m² 4,5 °C 5,1 °C 0,0 km/h (0 Bft)
14.10.2017 06:46 5,2 °C 5,2 °C 96 % 1027,8 hPa 0,0 mm 0,0 km/h (0 Bft) W 267 ° 0 min 0,000 mm 0,0 UV-I 0 W/m² 4,6 °C 5,2 °C 0,0 km/h (0 Bft)
14.10.2017 06:47 5,3 °C 5,3 °C 96 % 1027,8 hPa 0,0 mm 0,0 km/h (0 Bft) W 267 ° 0 min 0,000 mm 0,0 UV-I 0 W/m² 4,7 °C 5,3 °C 0,0 km/h (0 Bft)
14.10.2017 06:48 5,3 °C 5,3 °C 96 % 1027,8 hPa 0,0 mm 0,0 km/h (0 Bft) W 267 ° 0 min 0,000 mm 0,0 UV-I 0 W/m² 4,7 °C 5,3 °C 0,0 km/h (0 Bft)
14.10.2017 06:49 5,3 °C 5,3 °C 96 % 1027,8 hPa 0,0 mm 0,0 km/h (0 Bft) W 267 ° 0 min 0,000 mm 0,0 UV-I 0 W/m² 4,7 °C 5,3 °C 0,0 km/h (0 Bft)
14.10.2017 06:50 5,2 °C 5,3 °C 96 % 1027,8 hPa 0,0 mm 0,0 km/h (0 Bft) W 267 ° 0 min 0,000 mm 0,0 UV-I 0 W/m² 4,6 °C 5,2 °C 0,0 km/h (0 Bft)
14.10.2017 06:51 5,2 °C 5,3 °C 96 % 1027,8 hPa 0,0 mm 0,0 km/h (0 Bft) W 267 ° 0 min 0,000 mm 0,0 UV-I 0 W/m² 4,6 °C 5,2 °C 0,0 km/h (0 Bft)
14.10.2017 06:52 5,2 °C 5,2 °C 96 % 1027,8 hPa 0,0 mm 0,0 km/h (0 Bft) W 267 ° 0 min 0,000 mm 0,0 UV-I 0 W/m² 4,6 °C 5,2 °C 0,0 km/h (0 Bft)
14.10.2017 06:53 5,2 °C 5,2 °C 96 % 1027,8 hPa 0,0 mm 0,0 km/h (0 Bft) W 267 ° 0 min 0,000 mm 0,0 UV-I 0 W/m² 4,6 °C 5,2 °C 0,0 km/h (0 Bft)
14.10.2017 06:54 5,1 °C 5,2 °C 96 % 1027,8 hPa 0,0 mm 0,0 km/h (0 Bft) W 267 ° 0 min 0,000 mm 0,0 UV-I 0 W/m² 4,5 °C 5,1 °C 0,0 km/h (0 Bft)
14.10.2017 06:55 5,1 °C 5,1 °C 96 % 1027,8 hPa 0,0 mm 0,0 km/h (0 Bft) W 267 ° 0 min 0,000 mm 0,0 UV-I 0 W/m² 4,5 °C 5,1 °C 0,0 km/h (0 Bft)
14.10.2017 06:56 5,1 °C 5,1 °C 96 % 1027,8 hPa 0,0 mm 0,0 km/h (0 Bft) W 267 ° 0 min 0,000 mm 0,0 UV-I 0 W/m² 4,5 °C 5,1 °C 0,0 km/h (0 Bft)
14.10.2017 06:57 5,1 °C 5,1 °C 96 % 1027,8 hPa 0,0 mm 0,0 km/h (0 Bft) W 267 ° 0 min 0,000 mm 0,0 UV-I 0 W/m² 4,5 °C 5,1 °C 0,0 km/h (0 Bft)
14.10.2017 06:58 5,1 °C 5,1 °C 96 % 1027,8 hPa 0,0 mm 0,0 km/h (0 Bft) W 267 ° 0 min 0,000 mm 0,0 UV-I 0 W/m² 4,5 °C 5,1 °C 0,0 km/h (0 Bft)
14.10.2017 06:59 5,0 °C 5,1 °C 96 % 1027,8 hPa 0,0 mm 0,0 km/h (0 Bft) W 267 ° 0 min 0,000 mm 0,0 UV-I 0 W/m² 4,4 °C 5,0 °C 0,0 km/h (0 Bft)
14.10.2017 07:00 4,9 °C 5,1 °C 96 % 1027,8 hPa 0,0 mm 0,0 km/h (0 Bft) W 267 ° 0 min 0,000 mm 0,0 UV-I 0 W/m² 4,3 °C 4,9 °C 0,0 km/h (0 Bft)
14.10.2017 07:01 4,9 °C 4,9 °C 96 % 1027,8 hPa 0,0 mm 0,0 km/h (0 Bft) W 267 ° 0 min 0,000 mm 0,0 UV-I 0 W/m² 4,3 °C 4,9 °C 0,0 km/h (0 Bft)
14.10.2017 07:02 4,9 °C 4,9 °C 96 % 1027,8 hPa 0,0 mm 0,0 km/h (0 Bft) W 267 ° 0 min 0,000 mm 0,0 UV-I 0 W/m² 4,3 °C 4,9 °C 0,0 km/h (0 Bft)
14.10.2017 07:03 4,9 °C 4,9 °C 96 % 1027,8 hPa 0,0 mm 0,0 km/h (0 Bft) W 267 ° 0 min 0,000 mm 0,0 UV-I 0 W/m² 4,3 °C 4,9 °C 0,0 km/h (0 Bft)
14.10.2017 07:04 4,9 °C 4,9 °C 96 % 1027,8 hPa 0,0 mm 0,0 km/h (0 Bft) W 267 ° 0 min 0,000 mm 0,0 UV-I 0 W/m² 4,3 °C 4,9 °C 0,0 km/h (0 Bft)
14.10.2017 07:05 4,8 °C 4,9 °C 96 % 1027,8 hPa 0,0 mm 0,0 km/h (0 Bft) W 267 ° 0 min 0,000 mm 0,0 UV-I 0 W/m² 4,2 °C 4,8 °C 0,0 km/h (0 Bft)
14.10.2017 07:06 4,8 °C 4,8 °C 96 % 1027,8 hPa 0,0 mm 0,0 km/h (0 Bft) W 267 ° 0 min 0,000 mm 0,0 UV-I 0 W/m² 4,2 °C 4,8 °C 0,0 km/h (0 Bft)
14.10.2017 07:07 4,8 °C 4,8 °C 96 % 1027,8 hPa 0,0 mm 0,0 km/h (0 Bft) W 267 ° 0 min 0,000 mm 0,0 UV-I 0 W/m² 4,2 °C 4,8 °C 0,0 km/h (0 Bft)
14.10.2017 07:08 4,8 °C 4,8 °C 96 % 1027,8 hPa 0,0 mm 0,0 km/h (0 Bft) W 267 ° 0 min 0,000 mm 0,0 UV-I 0 W/m² 4,2 °C 4,8 °C 0,0 km/h (0 Bft)
14.10.2017 07:09 4,8 °C 4,8 °C 96 % 1027,8 hPa 0,0 mm 0,0 km/h (0 Bft) W 267 ° 0 min 0,000 mm 0,0 UV-I 0 W/m² 4,2 °C 4,8 °C 0,0 km/h (0 Bft)
14.10.2017 07:10 4,7 °C 4,8 °C 96 % 1027,8 hPa 0,0 mm 0,0 km/h (0 Bft) W 267 ° 0 min 0,000 mm 0,0 UV-I 0 W/m² 4,1 °C 4,7 °C 0,0 km/h (0 Bft)
14.10.2017 07:11 4,7 °C 4,7 °C 96 % 1027,8 hPa 0,0 mm 0,0 km/h (0 Bft) W 267 ° 0 min 0,000 mm 0,0 UV-I 0 W/m² 4,1 °C 4,7 °C 0,0 km/h (0 Bft)
14.10.2017 07:12 4,7 °C 4,7 °C 95 % 1027,8 hPa 0,0 mm 0,0 km/h (0 Bft) W 267 ° 0 min 0,000 mm 0,0 UV-I 0 W/m² 4,0 °C 4,7 °C 0,0 km/h (0 Bft)
14.10.2017 07:13 4,7 °C 4,7 °C 95 % 1027,8 hPa 0,0 mm 0,0 km/h (0 Bft) W 267 ° 0 min 0,000 mm 0,0 UV-I 0 W/m² 4,0 °C 4,7 °C 0,0 km/h (0 Bft)
14.10.2017 07:14 4,7 °C 4,7 °C 95 % 1027,8 hPa 0,0 mm 0,0 km/h (0 Bft) W 267 ° 0 min 0,000 mm 0,0 UV-I 0 W/m² 4,0 °C 4,7 °C 0,0 km/h (0 Bft)
14.10.2017 07:15 4,7 °C 4,7 °C 95 % 1027,8 hPa 0,0 mm 0,0 km/h (0 Bft) W 267 ° 0 min 0,000 mm 0,0 UV-I 0 W/m² 4,0 °C 4,7 °C 0,0 km/h (0 Bft)
14.10.2017 07:16 4,7 °C 4,7 °C 96 % 1027,8 hPa 0,0 mm 0,0 km/h (0 Bft) W 267 ° 0 min 0,000 mm 0,0 UV-I 0 W/m² 4,1 °C 4,7 °C 0,0 km/h (0 Bft)
14.10.2017 07:17 4,8 °C 4,8 °C 96 % 1027,8 hPa 0,0 mm 0,0 km/h (0 Bft) W 267 ° 0 min 0,000 mm 0,0 UV-I 0 W/m² 4,2 °C 4,8 °C 0,0 km/h (0 Bft)
14.10.2017 07:18 4,8 °C 4,8 °C 96 % 1027,8 hPa 0,0 mm 0,0 km/h (0 Bft) W 267 ° 0 min 0,000 mm 0,0 UV-I 0 W/m² 4,2 °C 4,8 °C 0,0 km/h (0 Bft)
14.10.2017 07:19 4,9 °C 4,9 °C 96 % 1027,8 hPa 0,0 mm 0,0 km/h (0 Bft) W 267 ° 0 min 0,000 mm 0,0 UV-I 0 W/m² 4,3 °C 4,9 °C 0,0 km/h (0 Bft)
14.10.2017 07:20 5,1 °C 5,1 °C 96 % 1027,8 hPa 0,0 mm 0,0 km/h (0 Bft) W 267 ° 0 min 0,000 mm 0,0 UV-I 0 W/m² 4,5 °C 5,1 °C 0,0 km/h (0 Bft)
14.10.2017 07:21 5,1 °C 5,1 °C 96 % 1027,8 hPa 0,0 mm 0,0 km/h (0 Bft) W 267 ° 0 min 0,000 mm 0,0 UV-I 0 W/m² 4,5 °C 5,1 °C 0,0 km/h (0 Bft)
14.10.2017 07:22 5,1 °C 5,1 °C 96 % 1027,8 hPa 0,0 mm 0,0 km/h (0 Bft) W 267 ° 0 min 0,000 mm 0,0 UV-I 0 W/m² 4,5 °C 5,1 °C 0,0 km/h (0 Bft)
14.10.2017 07:23 5,1 °C 5,1 °C 96 % 1027,8 hPa 0,0 mm 0,0 km/h (0 Bft) W 267 ° 0 min 0,000 mm 0,0 UV-I 0 W/m² 4,5 °C 5,1 °C 0,0 km/h (0 Bft)
14.10.2017 07:24 5,1 °C 5,1 °C 96 % 1027,8 hPa 0,0 mm 0,0 km/h (0 Bft) W 267 ° 0 min 0,000 mm 0,0 UV-I 0 W/m² 4,5 °C 5,1 °C 0,0 km/h (0 Bft)
14.10.2017 07:25 5,1 °C 5,1 °C 96 % 1027,8 hPa 0,0 mm 0,0 km/h (0 Bft) W 267 ° 0 min 0,000 mm 0,0 UV-I 0 W/m² 4,5 °C 5,1 °C 0,0 km/h (0 Bft)
14.10.2017 07:26 5,1 °C 5,1 °C 96 % 1027,8 hPa 0,0 mm 0,0 km/h (0 Bft) W 267 ° 0 min 0,000 mm 0,0 UV-I 0 W/m² 4,5 °C 5,1 °C 0,0 km/h (0 Bft)
14.10.2017 07:27 5,1 °C 5,1 °C 96 % 1027,8 hPa 0,0 mm 0,0 km/h (0 Bft) W 267 ° 0 min 0,000 mm 0,0 UV-I 0 W/m² 4,5 °C 5,1 °C 0,0 km/h (0 Bft)
14.10.2017 07:28 5,1 °C 5,1 °C 96 % 1027,8 hPa 0,0 mm 0,0 km/h (0 Bft) W 267 ° 0 min 0,000 mm 0,0 UV-I 0 W/m² 4,5 °C 5,1 °C 0,0 km/h (0 Bft)
14.10.2017 07:29 5,1 °C 5,1 °C 96 % 1027,9 hPa 0,0 mm 0,0 km/h (0 Bft) W 267 ° 0 min 0,000 mm 0,0 UV-I 0 W/m² 4,5 °C 5,1 °C 0,0 km/h (0 Bft)
14.10.2017 07:30 5,1 °C 5,1 °C 96 % 1027,8 hPa 0,0 mm 0,0 km/h (0 Bft) W 267 ° 0 min 0,000 mm 0,0 UV-I 0 W/m² 4,5 °C 5,1 °C 0,0 km/h (0 Bft)
14.10.2017 07:31 5,1 °C 5,1 °C 96 % 1027,8 hPa 0,0 mm 0,0 km/h (0 Bft) W 267 ° 0 min 0,000 mm 0,0 UV-I 0 W/m² 4,5 °C 5,1 °C 0,0 km/h (0 Bft)
14.10.2017 07:32 5,0 °C 5,1 °C 96 % 1027,8 hPa 0,0 mm 0,0 km/h (0 Bft) W 267 ° 0 min 0,000 mm 0,0 UV-I 0 W/m² 4,4 °C 5,0 °C 0,0 km/h (0 Bft)
14.10.2017 07:33 5,0 °C 5,1 °C 96 % 1027,8 hPa 0,0 mm 0,0 km/h (0 Bft) W 267 ° 0 min 0,000 mm 0,0 UV-I 0 W/m² 4,4 °C 5,0 °C 0,0 km/h (0 Bft)
14.10.2017 07:34 4,9 °C 5,0 °C 96 % 1027,8 hPa 0,0 mm 0,0 km/h (0 Bft) W 267 ° 0 min 0,000 mm 0,0 UV-I 0 W/m² 4,3 °C 4,9 °C 0,0 km/h (0 Bft)
14.10.2017 07:35 4,8 °C 4,9 °C 96 % 1027,8 hPa 0,0 mm 0,0 km/h (0 Bft) W 267 ° 0 min 0,000 mm 0,0 UV-I 0 W/m² 4,2 °C 4,8 °C 0,0 km/h (0 Bft)
14.10.2017 07:36 4,8 °C 4,8 °C 96 % 1027,8 hPa 0,0 mm 0,0 km/h (0 Bft) W 267 ° 0 min 0,000 mm 0,0 UV-I 0 W/m² 4,2 °C 4,8 °C 0,0 km/h (0 Bft)
14.10.2017 07:37 4,8 °C 4,8 °C 96 % 1027,8 hPa 0,0 mm 0,0 km/h (0 Bft) W 267 ° 0 min 0,000 mm 0,0 UV-I 0 W/m² 4,2 °C 4,8 °C 0,0 km/h (0 Bft)
14.10.2017 07:38 4,7 °C 4,8 °C 96 % 1027,8 hPa 0,0 mm 0,0 km/h (0 Bft) W 267 ° 0 min 0,000 mm 0,0 UV-I 5 W/m² 4,1 °C 4,7 °C 0,0 km/h (0 Bft)
14.10.2017 07:39 4,6 °C 4,7 °C 95 % 1027,8 hPa 0,0 mm 0,0 km/h (0 Bft) W 267 ° 0 min 0,000 mm 0,0 UV-I 5 W/m² 3,9 °C 4,6 °C 0,0 km/h (0 Bft)
14.10.2017 07:40 4,6 °C 4,6 °C 95 % 1027,9 hPa 0,0 mm 0,0 km/h (0 Bft) W 267 ° 0 min 0,000 mm 0,0 UV-I 5 W/m² 3,9 °C 4,6 °C 0,0 km/h (0 Bft)
14.10.2017 07:41 4,6 °C 4,6 °C 95 % 1027,9 hPa 0,0 mm 0,0 km/h (0 Bft) W 267 ° 0 min 0,000 mm 0,0 UV-I 5 W/m² 3,9 °C 4,6 °C 0,0 km/h (0 Bft)
14.10.2017 07:42 4,6 °C 4,6 °C 96 % 1027,9 hPa 0,0 mm 0,0 km/h (0 Bft) W 267 ° 0 min 0,000 mm 0,0 UV-I 5 W/m² 4,0 °C 4,6 °C 0,0 km/h (0 Bft)
14.10.2017 07:43 4,6 °C 4,6 °C 96 % 1027,9 hPa 0,0 mm 0,0 km/h (0 Bft) W 267 ° 0 min 0,000 mm 0,0 UV-I 5 W/m² 4,0 °C 4,6 °C 0,0 km/h (0 Bft)
14.10.2017 07:44 4,6 °C 4,6 °C 96 % 1027,9 hPa 0,0 mm 0,0 km/h (0 Bft) W 267 ° 0 min 0,000 mm 0,0 UV-I 7 W/m² 4,0 °C 4,6 °C 0,0 km/h (0 Bft)
14.10.2017 07:45 4,8 °C 4,8 °C 96 % 1027,9 hPa 0,0 mm 0,0 km/h (0 Bft) W 267 ° 0 min 0,000 mm 0,0 UV-I 7 W/m² 4,2 °C 4,8 °C 0,0 km/h (0 Bft)
14.10.2017 07:46 4,9 °C 4,9 °C 96 % 1027,9 hPa 0,0 mm 0,0 km/h (0 Bft) W 267 ° 0 min 0,000 mm 0,0 UV-I 7 W/m² 4,3 °C 4,9 °C 0,0 km/h (0 Bft)
14.10.2017 07:47 5,0 °C 5,0 °C 96 % 1027,9 hPa 0,0 mm 0,0 km/h (0 Bft) W 267 ° 0 min 0,000 mm 0,0 UV-I 7 W/m² 4,4 °C 5,0 °C 0,0 km/h (0 Bft)
14.10.2017 07:48 5,1 °C 5,1 °C 96 % 1027,8 hPa 0,0 mm 0,0 km/h (0 Bft) W 267 ° 0 min 0,000 mm 0,0 UV-I 7 W/m² 4,5 °C 5,1 °C 0,0 km/h (0 Bft)
14.10.2017 07:49 5,1 °C 5,1 °C 96 % 1027,8 hPa 0,0 mm 0,0 km/h (0 Bft) W 267 ° 0 min 0,000 mm 0,0 UV-I 7 W/m² 4,5 °C 5,1 °C 0,0 km/h (0 Bft)
14.10.2017 07:50 5,1 °C 5,1 °C 96 % 1027,9 hPa 0,0 mm 0,0 km/h (0 Bft) W 267 ° 0 min 0,000 mm 0,0 UV-I 7 W/m² 4,5 °C 5,1 °C 0,0 km/h (0 Bft)
14.10.2017 07:51 5,0 °C 5,1 °C 96 % 1027,9 hPa 0,0 mm 0,0 km/h (0 Bft) W 267 ° 0 min 0,000 mm 0,0 UV-I 9 W/m² 4,4 °C 5,0 °C 0,0 km/h (0 Bft)
14.10.2017 07:52 5,0 °C 5,0 °C 96 % 1027,9 hPa 0,0 mm 0,0 km/h (0 Bft) W 267 ° 0 min 0,000 mm 0,0 UV-I 9 W/m² 4,4 °C 5,0 °C 0,0 km/h (0 Bft)
14.10.2017 07:53 5,0 °C 5,0 °C 96 % 1027,9 hPa 0,0 mm 0,0 km/h (0 Bft) W 267 ° 0 min 0,000 mm 0,0 UV-I 9 W/m² 4,4 °C 5,0 °C 0,0 km/h (0 Bft)
14.10.2017 07:54 5,1 °C 5,1 °C 96 % 1028,0 hPa 0,0 mm 0,0 km/h (0 Bft) W 267 ° 0 min 0,000 mm 0,0 UV-I 9 W/m² 4,5 °C 5,1 °C 0,0 km/h (0 Bft)
14.10.2017 07:55 5,1 °C 5,1 °C 96 % 1028,0 hPa 0,0 mm 0,0 km/h (0 Bft) W 267 ° 0 min 0,000 mm 0,0 UV-I 9 W/m² 4,5 °C 5,1 °C 0,0 km/h (0 Bft)
14.10.2017 07:56 5,1 °C 5,1 °C 96 % 1028,1 hPa 0,0 mm 0,0 km/h (0 Bft) W 267 ° 0 min 0,000 mm 0,0 UV-I 9 W/m² 4,5 °C 5,1 °C 0,0 km/h (0 Bft)
14.10.2017 07:57 5,1 °C 5,2 °C 96 % 1028,1 hPa 0,0 mm 0,0 km/h (0 Bft) W 267 ° 0 min 0,000 mm 0,0 UV-I 11 W/m² 4,5 °C 5,1 °C 0,0 km/h (0 Bft)
14.10.2017 07:58 5,2 °C 5,2 °C 96 % 1028,1 hPa 0,0 mm 0,0 km/h (0 Bft) W 267 ° 0 min 0,000 mm 0,0 UV-I 11 W/m² 4,6 °C 5,2 °C 0,0 km/h (0 Bft)
14.10.2017 07:59 5,1 °C 5,2 °C 96 % 1028,0 hPa 0,0 mm 0,0 km/h (0 Bft) W 267 ° 0 min 0,000 mm 0,0 UV-I 11 W/m² 4,5 °C 5,1 °C 0,0 km/h (0 Bft)
14.10.2017 08:00 5,1 °C 5,1 °C 96 % 1028,1 hPa 0,0 mm 0,0 km/h (0 Bft) W 267 ° 0 min 0,000 mm 0,0 UV-I 11 W/m² 4,5 °C 5,1 °C 0,0 km/h (0 Bft)
14.10.2017 08:01 5,0 °C 5,1 °C 96 % 1028,1 hPa 0,0 mm 0,0 km/h (0 Bft) W 267 ° 0 min 0,000 mm 0,0 UV-I 11 W/m² 4,4 °C 5,0 °C 0,0 km/h (0 Bft)
14.10.2017 08:02 5,1 °C 5,1 °C 96 % 1028,1 hPa 0,0 mm 0,0 km/h (0 Bft) W 267 ° 0 min 0,000 mm 0,0 UV-I 11 W/m² 4,5 °C 5,1 °C 0,0 km/h (0 Bft)
14.10.2017 08:03 5,1 °C 5,1 °C 96 % 1028,1 hPa 0,0 mm 0,0 km/h (0 Bft) W 267 ° 0 min 0,000 mm 0,0 UV-I 11 W/m² 4,5 °C 5,1 °C 0,0 km/h (0 Bft)
14.10.2017 08:04 5,1 °C 5,1 °C 96 % 1028,1 hPa 0,0 mm 0,0 km/h (0 Bft) W 267 ° 0 min 0,000 mm 0,0 UV-I 12 W/m² 4,5 °C 5,1 °C 0,0 km/h (0 Bft)
14.10.2017 08:05 5,1 °C 5,1 °C 96 % 1028,1 hPa 0,0 mm 0,0 km/h (0 Bft) W 267 ° 0 min 0,000 mm 0,0 UV-I 12 W/m² 4,5 °C 5,1 °C 0,0 km/h (0 Bft)
14.10.2017 08:06 4,9 °C 5,1 °C 96 % 1028,0 hPa 0,0 mm 0,0 km/h (0 Bft) W 267 ° 0 min 0,000 mm 0,0 UV-I 12 W/m² 4,3 °C 4,9 °C 0,0 km/h (0 Bft)
14.10.2017 08:07 4,9 °C 4,9 °C 96 % 1028,1 hPa 0,0 mm 0,0 km/h (0 Bft) W 267 ° 0 min 0,000 mm 0,0 UV-I 12 W/m² 4,3 °C 4,9 °C 0,0 km/h (0 Bft)
14.10.2017 08:08 4,9 °C 4,9 °C 96 % 1028,1 hPa 0,0 mm 0,0 km/h (0 Bft) W 267 ° 0 min 0,000 mm 0,0 UV-I 12 W/m² 4,3 °C 4,9 °C 0,0 km/h (0 Bft)
14.10.2017 08:09 4,8 °C 4,9 °C 96 % 1028,1 hPa 0,0 mm 0,0 km/h (0 Bft) W 267 ° 0 min 0,000 mm 0,0 UV-I 12 W/m² 4,2 °C 4,8 °C 0,0 km/h (0 Bft)
14.10.2017 08:10 4,9 °C 4,9 °C 96 % 1028,1 hPa 0,0 mm 0,0 km/h (0 Bft) W 267 ° 0 min 0,000 mm 0,0 UV-I 12 W/m² 4,3 °C 4,9 °C 0,0 km/h (0 Bft)
14.10.2017 08:11 4,8 °C 4,9 °C 96 % 1028,1 hPa 0,0 mm 0,0 km/h (0 Bft) W 267 ° 0 min 0,000 mm 0,0 UV-I 12 W/m² 4,2 °C 4,8 °C 0,0 km/h (0 Bft)
14.10.2017 08:12 4,9 °C 4,9 °C 96 % 1028,1 hPa 0,0 mm 0,0 km/h (0 Bft) W 267 ° 0 min 0,000 mm 0,0 UV-I 12 W/m² 4,3 °C 4,9 °C 0,0 km/h (0 Bft)
14.10.2017 08:13 4,8 °C 4,9 °C 96 % 1028,1 hPa 0,0 mm 0,0 km/h (0 Bft) W 267 ° 0 min 0,000 mm 0,0 UV-I 12 W/m² 4,2 °C 4,8 °C 0,0 km/h (0 Bft)
14.10.2017 08:14 4,7 °C 4,8 °C 96 % 1028,1 hPa 0,0 mm 0,0 km/h (0 Bft) W 267 ° 0 min 0,000 mm 0,0 UV-I 14 W/m² 4,1 °C 4,7 °C 0,0 km/h (0 Bft)
14.10.2017 08:15 4,7 °C 4,7 °C 95 % 1028,2 hPa 0,0 mm 0,0 km/h (0 Bft) W 267 ° 0 min 0,000 mm 0,0 UV-I 14 W/m² 4,0 °C 4,7 °C 0,0 km/h (0 Bft)
14.10.2017 08:16 4,6 °C 4,7 °C 95 % 1028,1 hPa 0,0 mm 0,0 km/h (0 Bft) W 267 ° 0 min 0,000 mm 0,0 UV-I 14 W/m² 3,9 °C 4,6 °C 0,0 km/h (0 Bft)
14.10.2017 08:17 4,7 °C 4,7 °C 95 % 1028,1 hPa 0,0 mm 0,0 km/h (0 Bft) W 267 ° 0 min 0,000 mm 0,0 UV-I 14 W/m² 4,0 °C 4,7 °C 0,0 km/h (0 Bft)
14.10.2017 08:18 4,7 °C 4,7 °C 95 % 1028,1 hPa 0,0 mm 0,0 km/h (0 Bft) W 267 ° 0 min 0,000 mm 0,0 UV-I 14 W/m² 4,0 °C 4,7 °C 0,0 km/h (0 Bft)
14.10.2017 08:19 4,8 °C 4,8 °C 95 % 1028,2 hPa 0,0 mm 0,0 km/h (0 Bft) W 267 ° 0 min 0,000 mm 0,0 UV-I 14 W/m² 4,1 °C 4,8 °C 0,0 km/h (0 Bft)
14.10.2017 08:20 4,8 °C 4,8 °C 96 % 1028,2 hPa 0,0 mm 0,0 km/h (0 Bft) W 267 ° 0 min 0,000 mm 0,0 UV-I 14 W/m² 4,2 °C 4,8 °C 0,0 km/h (0 Bft)
14.10.2017 08:21 4,9 °C 4,9 °C 96 % 1028,2 hPa 0,0 mm 0,0 km/h (0 Bft) W 267 ° 0 min 0,000 mm 0,0 UV-I 14 W/m² 4,3 °C 4,9 °C 0,0 km/h (0 Bft)
14.10.2017 08:22 4,8 °C 4,9 °C 96 % 1028,2 hPa 0,0 mm 0,0 km/h (0 Bft) W 267 ° 0 min 0,000 mm 0,0 UV-I 14 W/m² 4,2 °C 4,8 °C 0,0 km/h (0 Bft)
14.10.2017 08:23 4,9 °C 4,9 °C 96 % 1028,2 hPa 0,0 mm 0,0 km/h (0 Bft) W 267 ° 0 min 0,000 mm 0,0 UV-I 14 W/m² 4,3 °C 4,9 °C 0,0 km/h (0 Bft)
14.10.2017 08:24 4,9 °C 4,9 °C 96 % 1028,2 hPa 0,0 mm 0,0 km/h (0 Bft) W 267 ° 0 min 0,000 mm 0,0 UV-I 14 W/m² 4,3 °C 4,9 °C 0,0 km/h (0 Bft)
14.10.2017 08:25 5,0 °C 5,0 °C 96 % 1028,2 hPa 0,0 mm 0,0 km/h (0 Bft) W 267 ° 0 min 0,000 mm 0,0 UV-I 14 W/m² 4,4 °C 5,0 °C 0,0 km/h (0 Bft)
14.10.2017 08:26 5,0 °C 5,0 °C 96 % 1028,2 hPa 0,0 mm 0,0 km/h (0 Bft) W 267 ° 0 min 0,000 mm 0,0 UV-I 14 W/m² 4,4 °C 5,0 °C 0,0 km/h (0 Bft)
14.10.2017 08:27 5,0 °C 5,0 °C 96 % 1028,2 hPa 0,0 mm 0,0 km/h (0 Bft) W 267 ° 0 min 0,000 mm 0,0 UV-I 14 W/m² 4,4 °C 5,0 °C 0,0 km/h (0 Bft)
14.10.2017 08:28 5,1 °C 5,1 °C 96 % 1028,2 hPa 0,0 mm 0,0 km/h (0 Bft) W 267 ° 0 min 0,000 mm 0,0 UV-I 14 W/m² 4,5 °C 5,1 °C 0,0 km/h (0 Bft)
14.10.2017 08:29 5,2 °C 5,2 °C 96 % 1028,3 hPa 0,0 mm 0,0 km/h (0 Bft) W 267 ° 0 min 0,000 mm 0,0 UV-I 14 W/m² 4,6 °C 5,2 °C 0,0 km/h (0 Bft)
14.10.2017 08:30 5,3 °C 5,3 °C 96 % 1028,3 hPa 0,0 mm 0,0 km/h (0 Bft) W 267 ° 0 min 0,000 mm 0,0 UV-I 16 W/m² 4,7 °C 5,3 °C 0,0 km/h (0 Bft)
14.10.2017 08:31 5,3 °C 5,3 °C 96 % 1028,3 hPa 0,0 mm 0,0 km/h (0 Bft) W 267 ° 0 min 0,000 mm 0,0 UV-I 16 W/m² 4,7 °C 5,3 °C 0,0 km/h (0 Bft)
14.10.2017 08:32 5,4 °C 5,4 °C 96 % 1028,3 hPa 0,0 mm 0,0 km/h (0 Bft) W 267 ° 0 min 0,000 mm 0,0 UV-I 16 W/m² 4,8 °C 5,4 °C 0,0 km/h (0 Bft)
14.10.2017 08:33 5,4 °C 5,4 °C 96 % 1028,3 hPa 0,0 mm 0,0 km/h (0 Bft) W 267 ° 0 min 0,000 mm 0,0 UV-I 16 W/m² 4,8 °C 5,4 °C 0,0 km/h (0 Bft)
14.10.2017 08:34 5,5 °C 5,5 °C 96 % 1028,3 hPa 0,0 mm 0,0 km/h (0 Bft) W 267 ° 0 min 0,000 mm 0,0 UV-I 16 W/m² 4,9 °C 5,5 °C 0,0 km/h (0 Bft)
14.10.2017 08:35 5,5 °C 5,5 °C 96 % 1028,3 hPa 0,0 mm 0,0 km/h (0 Bft) W 267 ° 0 min 0,000 mm 0,0 UV-I 16 W/m² 4,9 °C 5,5 °C 0,0 km/h (0 Bft)
14.10.2017 08:36 5,6 °C 5,6 °C 96 % 1028,3 hPa 0,0 mm 0,0 km/h (0 Bft) W 267 ° 0 min 0,000 mm 0,0 UV-I 16 W/m² 5,0 °C 5,6 °C 0,0 km/h (0 Bft)
14.10.2017 08:37 5,6 °C 5,6 °C 96 % 1028,3 hPa 0,0 mm 0,0 km/h (0 Bft) W 267 ° 0 min 0,000 mm 0,0 UV-I 16 W/m² 5,0 °C 5,6 °C 0,0 km/h (0 Bft)
14.10.2017 08:38 5,6 °C 5,6 °C 96 % 1028,3 hPa 0,0 mm 0,0 km/h (0 Bft) W 267 ° 0 min 0,000 mm 0,0 UV-I 16 W/m² 5,0 °C 5,6 °C 0,0 km/h (0 Bft)
14.10.2017 08:39 5,6 °C 5,6 °C 96 % 1028,2 hPa 0,0 mm 0,0 km/h (0 Bft) W 267 ° 0 min 0,000 mm 0,0 UV-I 16 W/m² 5,0 °C 5,6 °C 0,0 km/h (0 Bft)
14.10.2017 08:40 5,7 °C 5,7 °C 96 % 1028,3 hPa 0,0 mm 0,0 km/h (0 Bft) W 267 ° 0 min 0,000 mm 0,0 UV-I 16 W/m² 5,1 °C 5,7 °C 0,0 km/h (0 Bft)
14.10.2017 08:41 5,7 °C 5,7 °C 96 % 1028,3 hPa 0,0 mm 0,0 km/h (0 Bft) W 267 ° 0 min 0,000 mm 0,0 UV-I 16 W/m² 5,1 °C 5,7 °C 0,0 km/h (0 Bft)
14.10.2017 08:42 5,8 °C 5,8 °C 96 % 1028,3 hPa 0,0 mm 0,0 km/h (0 Bft) W 267 ° 0 min 0,000 mm 0,0 UV-I 16 W/m² 5,2 °C 5,8 °C 0,0 km/h (0 Bft)
14.10.2017 08:43 5,8 °C 5,8 °C 96 % 1028,3 hPa 0,0 mm 0,0 km/h (0 Bft) W 267 ° 0 min 0,000 mm 0,0 UV-I 16 W/m² 5,2 °C 5,8 °C 0,0 km/h (0 Bft)
14.10.2017 08:44 5,8 °C 5,8 °C 96 % 1028,3 hPa 0,0 mm 0,0 km/h (0 Bft) W 267 ° 0 min 0,000 mm 0,0 UV-I 16 W/m² 5,2 °C 5,8 °C 0,0 km/h (0 Bft)
14.10.2017 08:45 5,9 °C 5,9 °C 96 % 1028,3 hPa 0,0 mm 0,0 km/h (0 Bft) W 267 ° 0 min 0,000 mm 0,0 UV-I 16 W/m² 5,3 °C 5,9 °C 0,0 km/h (0 Bft)
14.10.2017 08:46 6,0 °C 6,0 °C 96 % 1028,3 hPa 0,0 mm 0,0 km/h (0 Bft) W 267 ° 0 min 0,000 mm 0,0 UV-I 16 W/m² 5,4 °C 6,0 °C 0,0 km/h (0 Bft)
14.10.2017 08:47 6,1 °C 6,1 °C 96 % 1028,3 hPa 0,0 mm 0,0 km/h (0 Bft) W 267 ° 0 min 0,000 mm 0,0 UV-I 16 W/m² 5,5 °C 6,1 °C 0,0 km/h (0 Bft)
14.10.2017 08:48 6,1 °C 6,1 °C 96 % 1028,3 hPa 0,0 mm 0,0 km/h (0 Bft) W 267 ° 0 min 0,000 mm 0,0 UV-I 16 W/m² 5,5 °C 6,1 °C 0,0 km/h (0 Bft)
14.10.2017 08:49 6,1 °C 6,1 °C 96 % 1028,3 hPa 0,0 mm 0,0 km/h (0 Bft) W 267 ° 0 min 0,000 mm 0,0 UV-I 16 W/m² 5,5 °C 6,1 °C 0,0 km/h (0 Bft)
14.10.2017 08:50 6,2 °C 6,2 °C 96 % 1028,3 hPa 0,0 mm 0,0 km/h (0 Bft) W 267 ° 0 min 0,000 mm 0,0 UV-I 18 W/m² 5,6 °C 6,2 °C 0,0 km/h (0 Bft)
14.10.2017 08:51 6,2 °C 6,2 °C 96 % 1028,3 hPa 0,0 mm 0,0 km/h (0 Bft) W 267 ° 0 min 0,000 mm 0,0 UV-I 18 W/m² 5,6 °C 6,2 °C 0,0 km/h (0 Bft)
14.10.2017 08:52 6,3 °C 6,3 °C 96 % 1028,3 hPa 0,0 mm 0,0 km/h (0 Bft) W 267 ° 0 min 0,000 mm 0,0 UV-I 18 W/m² 5,7 °C 6,3 °C 0,0 km/h (0 Bft)
14.10.2017 08:53 6,3 °C 6,3 °C 96 % 1028,3 hPa 0,0 mm 0,0 km/h (0 Bft) W 267 ° 0 min 0,000 mm 0,0 UV-I 18 W/m² 5,7 °C 6,3 °C 0,0 km/h (0 Bft)
14.10.2017 08:54 6,3 °C 6,3 °C 96 % 1028,4 hPa 0,0 mm 0,0 km/h (0 Bft) W 267 ° 0 min 0,000 mm 0,0 UV-I 18 W/m² 5,7 °C 6,3 °C 0,0 km/h (0 Bft)
14.10.2017 08:55 6,3 °C 6,3 °C 96 % 1028,4 hPa 0,0 mm 0,0 km/h (0 Bft) W 267 ° 0 min 0,000 mm 0,0 UV-I 18 W/m² 5,7 °C 6,3 °C 0,0 km/h (0 Bft)
14.10.2017 08:56 6,2 °C 6,3 °C 96 % 1028,4 hPa 0,0 mm 0,0 km/h (0 Bft) W 267 ° 0 min 0,000 mm 0,0 UV-I 18 W/m² 5,6 °C 6,2 °C 0,0 km/h (0 Bft)
14.10.2017 08:57 6,3 °C 6,3 °C 96 % 1028,3 hPa 0,0 mm 0,0 km/h (0 Bft) W 267 ° 0 min 0,000 mm 0,0 UV-I 18 W/m² 5,7 °C 6,3 °C 0,0 km/h (0 Bft)
14.10.2017 08:58 6,3 °C 6,3 °C 96 % 1028,3 hPa 0,0 mm 0,0 km/h (0 Bft) W 267 ° 0 min 0,000 mm 0,0 UV-I 18 W/m² 5,7 °C 6,3 °C 0,0 km/h (0 Bft)
14.10.2017 08:59 6,3 °C 6,3 °C 96 % 1028,4 hPa 0,0 mm 0,0 km/h (0 Bft) W 267 ° 0 min 0,000 mm 0,0 UV-I 18 W/m² 5,7 °C 6,3 °C 0,0 km/h (0 Bft)
14.10.2017 09:00 6,4 °C 6,4 °C 96 % 1028,3 hPa 0,0 mm 0,0 km/h (0 Bft) W 267 ° 0 min 0,000 mm 0,0 UV-I 18 W/m² 5,8 °C 6,4 °C 0,0 km/h (0 Bft)
14.10.2017 09:01 6,4 °C 6,4 °C 96 % 1028,4 hPa 0,0 mm 0,0 km/h (0 Bft) W 267 ° 0 min 0,000 mm 0,0 UV-I 19 W/m² 5,8 °C 6,4 °C 0,0 km/h (0 Bft)
14.10.2017 09:02 6,4 °C 6,4 °C 96 % 1028,3 hPa 0,0 mm 0,0 km/h (0 Bft) W 267 ° 0 min 0,000 mm 0,0 UV-I 19 W/m² 5,8 °C 6,4 °C 0,0 km/h (0 Bft)
14.10.2017 09:03 6,5 °C 6,5 °C 96 % 1028,3 hPa 0,0 mm 0,0 km/h (0 Bft) W 267 ° 0 min 0,000 mm 0,0 UV-I 19 W/m² 5,9 °C 6,5 °C 0,0 km/h (0 Bft)
14.10.2017 09:04 6,4 °C 6,5 °C 96 % 1028,4 hPa 0,0 mm 0,0 km/h (0 Bft) W 267 ° 0 min 0,000 mm 0,0 UV-I 19 W/m² 5,8 °C 6,4 °C 0,0 km/h (0 Bft)
14.10.2017 09:05 6,6 °C 6,6 °C 96 % 1028,3 hPa 0,0 mm 0,0 km/h (0 Bft) W 267 ° 0 min 0,000 mm 0,0 UV-I 19 W/m² 6,0 °C 6,6 °C 0,0 km/h (0 Bft)
14.10.2017 09:06 6,6 °C 6,6 °C 96 % 1028,4 hPa 0,0 mm 0,0 km/h (0 Bft) W 267 ° 0 min 0,000 mm 0,0 UV-I 19 W/m² 6,0 °C 6,6 °C 0,0 km/h (0 Bft)
14.10.2017 09:07 6,7 °C 6,7 °C 96 % 1028,4 hPa 0,0 mm 0,0 km/h (0 Bft) W 267 ° 0 min 0,000 mm 0,0 UV-I 19 W/m² 6,1 °C 6,7 °C 0,0 km/h (0 Bft)
14.10.2017 09:08 6,8 °C 6,8 °C 96 % 1028,4 hPa 0,0 mm 0,0 km/h (0 Bft) W 267 ° 0 min 0,000 mm 0,0 UV-I 19 W/m² 6,2 °C 6,8 °C 0,0 km/h (0 Bft)
14.10.2017 09:09 6,8 °C 6,8 °C 96 % 1028,4 hPa 0,0 mm 0,0 km/h (0 Bft) W 267 ° 0 min 0,000 mm 0,0 UV-I 19 W/m² 6,2 °C 6,8 °C 0,0 km/h (0 Bft)
14.10.2017 09:10 6,9 °C 6,9 °C 96 % 1028,4 hPa 0,0 mm 0,0 km/h (0 Bft) W 267 ° 0 min 0,000 mm 0,0 UV-I 19 W/m² 6,3 °C 6,9 °C 0,0 km/h (0 Bft)
14.10.2017 09:11 7,0 °C 7,0 °C 96 % 1028,4 hPa 0,0 mm 0,0 km/h (0 Bft) W 267 ° 0 min 0,000 mm 0,0 UV-I 19 W/m² 6,4 °C 7,0 °C 0,0 km/h (0 Bft)
14.10.2017 09:12 7,1 °C 7,1 °C 96 % 1028,4 hPa 0,0 mm 0,0 km/h (0 Bft) W 267 ° 0 min 0,000 mm 0,0 UV-I 19 W/m² 6,5 °C 7,1 °C 0,0 km/h (0 Bft)
14.10.2017 09:13 7,2 °C 7,2 °C 96 % 1028,4 hPa 0,0 mm 0,0 km/h (0 Bft) W 267 ° 0 min 0,000 mm 0,0 UV-I 19 W/m² 6,6 °C 7,2 °C 0,0 km/h (0 Bft)
14.10.2017 09:14 7,2 °C 7,2 °C 96 % 1028,4 hPa 0,0 mm 0,0 km/h (0 Bft) W 267 ° 0 min 0,000 mm 0,0 UV-I 19 W/m² 6,6 °C 7,2 °C 0,0 km/h (0 Bft)
14.10.2017 09:15 7,2 °C 7,2 °C 96 % 1028,4 hPa 0,0 mm 0,0 km/h (0 Bft) W 267 ° 0 min 0,000 mm 0,0 UV-I 19 W/m² 6,6 °C 7,2 °C 0,0 km/h (0 Bft)
14.10.2017 09:16 7,3 °C 7,3 °C 96 % 1028,4 hPa 0,0 mm 0,0 km/h (0 Bft) W 267 ° 0 min 0,000 mm 0,0 UV-I 19 W/m² 6,7 °C 7,3 °C 0,0 km/h (0 Bft)
14.10.2017 09:17 7,3 °C 7,3 °C 96 % 1028,4 hPa 0,0 mm 0,0 km/h (0 Bft) W 267 ° 0 min 0,000 mm 0,0 UV-I 19 W/m² 6,7 °C 7,3 °C 0,0 km/h (0 Bft)
14.10.2017 09:18 7,4 °C 7,4 °C 96 % 1028,4 hPa 0,0 mm 0,0 km/h (0 Bft) W 267 ° 0 min 0,000 mm 0,0 UV-I 19 W/m² 6,8 °C 7,4 °C 0,0 km/h (0 Bft)
14.10.2017 09:19 7,5 °C 7,5 °C 96 % 1028,4 hPa 0,0 mm 0,0 km/h (0 Bft) W 267 ° 0 min 0,000 mm 0,0 UV-I 19 W/m² 6,9 °C 7,5 °C 0,0 km/h (0 Bft)
14.10.2017 09:20 7,5 °C 7,5 °C 95 % 1028,4 hPa 0,0 mm 0,0 km/h (0 Bft) W 267 ° 0 min 0,000 mm 0,0 UV-I 19 W/m² 6,8 °C 7,5 °C 0,0 km/h (0 Bft)
14.10.2017 09:21 7,6 °C 7,6 °C 95 % 1028,4 hPa 0,0 mm 0,0 km/h (0 Bft) W 267 ° 0 min 0,000 mm 0,0 UV-I 21 W/m² 6,9 °C 7,6 °C 0,0 km/h (0 Bft)
14.10.2017 09:22 7,7 °C 7,7 °C 95 % 1028,4 hPa 0,0 mm 0,0 km/h (0 Bft) W 267 ° 0 min 0,000 mm 0,0 UV-I 21 W/m² 7,0 °C 7,7 °C 0,0 km/h (0 Bft)
14.10.2017 09:23 7,8 °C 7,8 °C 95 % 1028,5 hPa 0,0 mm 0,0 km/h (0 Bft) W 267 ° 0 min 0,000 mm 0,0 UV-I 21 W/m² 7,0 °C 7,8 °C 0,0 km/h (0 Bft)
14.10.2017 09:24 7,9 °C 7,9 °C 95 % 1028,4 hPa 0,0 mm 0,0 km/h (0 Bft) W 267 ° 0 min 0,000 mm 0,0 UV-I 21 W/m² 7,1 °C 7,9 °C 0,0 km/h (0 Bft)
14.10.2017 09:25 7,9 °C 7,9 °C 95 % 1028,4 hPa 0,0 mm 0,0 km/h (0 Bft) W 267 ° 0 min 0,000 mm 0,0 UV-I 21 W/m² 7,1 °C 7,9 °C 0,0 km/h (0 Bft)
14.10.2017 09:26 8,0 °C 8,0 °C 94 % 1028,4 hPa 0,0 mm 0,0 km/h (0 Bft) W 267 ° 0 min 0,000 mm 0,0 UV-I 21 W/m² 7,1 °C 8,0 °C 0,0 km/h (0 Bft)
14.10.2017 09:27 8,1 °C 8,1 °C 94 % 1028,4 hPa 0,0 mm 0,0 km/h (0 Bft) W 267 ° 0 min 0,000 mm 0,0 UV-I 21 W/m² 7,2 °C 8,1 °C 0,0 km/h (0 Bft)
14.10.2017 09:28 8,2 °C 8,2 °C 94 % 1028,5 hPa 0,0 mm 0,0 km/h (0 Bft) W 267 ° 0 min 0,000 mm 0,0 UV-I 21 W/m² 7,3 °C 8,2 °C 0,0 km/h (0 Bft)
14.10.2017 09:29 8,2 °C 8,2 °C 94 % 1028,4 hPa 0,0 mm 0,0 km/h (0 Bft) W 267 ° 0 min 0,000 mm 0,0 UV-I 21 W/m² 7,3 °C 8,2 °C 0,0 km/h (0 Bft)
14.10.2017 09:30 8,3 °C 8,3 °C 93 % 1028,5 hPa 0,0 mm 0,0 km/h (0 Bft) W 267 ° 0 min 0,000 mm 0,0 UV-I 21 W/m² 7,2 °C 8,3 °C 0,0 km/h (0 Bft)
14.10.2017 09:31 8,3 °C 8,3 °C 93 % 1028,5 hPa 0,0 mm 0,0 km/h (0 Bft) W 267 ° 0 min 0,000 mm 0,0 UV-I 21 W/m² 7,2 °C 8,3 °C 0,0 km/h (0 Bft)
14.10.2017 09:32 8,4 °C 8,4 °C 93 % 1028,5 hPa 0,0 mm 0,0 km/h (0 Bft) W 267 ° 0 min 0,000 mm 0,0 UV-I 21 W/m² 7,3 °C 8,4 °C 0,0 km/h (0 Bft)
14.10.2017 09:33 8,3 °C 8,4 °C 93 % 1028,5 hPa 0,0 mm 0,0 km/h (0 Bft) W 267 ° 0 min 0,000 mm 0,0 UV-I 21 W/m² 7,2 °C 8,3 °C 0,0 km/h (0 Bft)
14.10.2017 09:34 8,3 °C 8,4 °C 93 % 1028,5 hPa 0,0 mm 0,0 km/h (0 Bft) W 267 ° 0 min 0,000 mm 0,0 UV-I 21 W/m² 7,2 °C 8,3 °C 0,0 km/h (0 Bft)
14.10.2017 09:35 8,3 °C 8,3 °C 92 % 1028,5 hPa 0,0 mm 0,0 km/h (0 Bft) W 267 ° 0 min 0,000 mm 0,0 UV-I 21 W/m² 7,1 °C 8,3 °C 0,0 km/h (0 Bft)
14.10.2017 09:36 8,2 °C 8,3 °C 93 % 1028,6 hPa 0,0 mm 0,0 km/h (0 Bft) W 267 ° 0 min 0,000 mm 0,0 UV-I 21 W/m² 7,1 °C 8,2 °C 0,0 km/h (0 Bft)
14.10.2017 09:37 8,2 °C 8,2 °C 93 % 1028,5 hPa 0,0 mm 0,0 km/h (0 Bft) W 267 ° 0 min 0,000 mm 0,0 UV-I 21 W/m² 7,1 °C 8,2 °C 0,0 km/h (0 Bft)
14.10.2017 09:38 8,2 °C 8,2 °C 93 % 1028,6 hPa 0,0 mm 0,0 km/h (0 Bft) W 267 ° 0 min 0,000 mm 0,0 UV-I 21 W/m² 7,1 °C 8,2 °C 0,0 km/h (0 Bft)
14.10.2017 09:39 8,3 °C 8,3 °C 93 % 1028,6 hPa 0,0 mm 0,0 km/h (0 Bft) W 267 ° 0 min 0,000 mm 0,0 UV-I 21 W/m² 7,2 °C 8,3 °C 0,0 km/h (0 Bft)
14.10.2017 09:40 8,3 °C 8,3 °C 93 % 1028,5 hPa 0,0 mm 0,0 km/h (0 Bft) W 267 ° 0 min 0,000 mm 0,0 UV-I 21 W/m² 7,2 °C 8,3 °C 0,0 km/h (0 Bft)
14.10.2017 09:41 8,3 °C 8,3 °C 93 % 1028,6 hPa 0,0 mm 0,0 km/h (0 Bft) W 267 ° 0 min 0,000 mm 0,0 UV-I 21 W/m² 7,2 °C 8,3 °C 0,0 km/h (0 Bft)
14.10.2017 09:42 8,4 °C 8,4 °C 93 % 1028,5 hPa 0,0 mm 0,0 km/h (0 Bft) W 267 ° 0 min 0,000 mm 0,0 UV-I 21 W/m² 7,3 °C 8,4 °C 0,0 km/h (0 Bft)
14.10.2017 09:43 8,7 °C 8,7 °C 93 % 1028,6 hPa 0,0 mm 0,0 km/h (0 Bft) W 267 ° 0 min 0,000 mm 0,0 UV-I 23 W/m² 7,6 °C 8,7 °C 0,0 km/h (0 Bft)
14.10.2017 09:44 8,8 °C 8,8 °C 93 % 1028,6 hPa 0,0 mm 0,0 km/h (0 Bft) W 267 ° 0 min 0,000 mm 0,0 UV-I 23 W/m² 7,7 °C 8,8 °C 0,0 km/h (0 Bft)
14.10.2017 09:45 8,9 °C 8,9 °C 93 % 1028,6 hPa 0,0 mm 0,0 km/h (0 Bft) W 267 ° 0 min 0,000 mm 0,0 UV-I 23 W/m² 7,8 °C 8,9 °C 0,0 km/h (0 Bft)
14.10.2017 09:46 8,9 °C 8,9 °C 92 % 1028,5 hPa 0,0 mm 0,0 km/h (0 Bft) W 267 ° 0 min 0,000 mm 0,0 UV-I 23 W/m² 7,7 °C 8,9 °C 0,0 km/h (0 Bft)
14.10.2017 09:47 9,1 °C 9,1 °C 92 % 1028,6 hPa 0,0 mm 0,0 km/h (0 Bft) W 267 ° 0 min 0,000 mm 0,0 UV-I 23 W/m² 7,9 °C 9,1 °C 0,0 km/h (0 Bft)
14.10.2017 09:48 9,1 °C 9,1 °C 92 % 1028,6 hPa 0,0 mm 0,0 km/h (0 Bft) W 267 ° 0 min 0,000 mm 0,0 UV-I 23 W/m² 7,9 °C 9,1 °C 0,0 km/h (0 Bft)
14.10.2017 09:49 9,2 °C 9,2 °C 92 % 1028,5 hPa 0,0 mm 0,0 km/h (0 Bft) W 267 ° 0 min 0,000 mm 0,0 UV-I 23 W/m² 8,0 °C 9,2 °C 0,0 km/h (0 Bft)
14.10.2017 09:50 9,3 °C 9,3 °C 92 % 1028,5 hPa 0,0 mm 0,0 km/h (0 Bft) W 267 ° 0 min 0,000 mm 0,0 UV-I 23 W/m² 8,1 °C 9,3 °C 0,0 km/h (0 Bft)
14.10.2017 09:51 9,4 °C 9,4 °C 92 % 1028,5 hPa 0,0 mm 0,0 km/h (0 Bft) W 267 ° 0 min 0,000 mm 0,0 UV-I 23 W/m² 8,2 °C 9,4 °C 0,0 km/h (0 Bft)
14.10.2017 09:52 9,6 °C 9,6 °C 91 % 1028,5 hPa 0,0 mm 0,0 km/h (0 Bft) W 267 ° 0 min 0,000 mm 0,0 UV-I 23 W/m² 8,2 °C 9,6 °C 0,0 km/h (0 Bft)
14.10.2017 09:53 9,6 °C 9,6 °C 91 % 1028,5 hPa 0,0 mm 0,0 km/h (0 Bft) W 267 ° 0 min 0,000 mm 0,0 UV-I 23 W/m² 8,2 °C 9,6 °C 0,0 km/h (0 Bft)
14.10.2017 09:54 9,5 °C 9,6 °C 90 % 1028,5 hPa 0,0 mm 0,0 km/h (0 Bft) W 267 ° 0 min 0,000 mm 0,0 UV-I 23 W/m² 7,9 °C 9,5 °C 0,0 km/h (0 Bft)
14.10.2017 09:55 9,6 °C 9,6 °C 91 % 1028,5 hPa 0,0 mm 0,0 km/h (0 Bft) W 267 ° 0 min 0,000 mm 0,0 UV-I 23 W/m² 8,2 °C 9,6 °C 0,0 km/h (0 Bft)
14.10.2017 09:56 9,6 °C 9,6 °C 90 % 1028,5 hPa 0,0 mm 0,0 km/h (0 Bft) W 267 ° 0 min 0,000 mm 0,0 UV-I 23 W/m² 8,0 °C 9,6 °C 0,0 km/h (0 Bft)
14.10.2017 09:57 9,7 °C 9,7 °C 91 % 1028,5 hPa 0,0 mm 0,0 km/h (0 Bft) W 267 ° 0 min 0,000 mm 0,0 UV-I 23 W/m² 8,3 °C 9,7 °C 0,0 km/h (0 Bft)
14.10.2017 09:58 9,8 °C 9,8 °C 90 % 1028,5 hPa 0,0 mm 0,0 km/h (0 Bft) W 267 ° 0 min 0,000 mm 0,0 UV-I 23 W/m² 8,2 °C 9,8 °C 0,0 km/h (0 Bft)
14.10.2017 09:59 9,8 °C 9,8 °C 90 % 1028,5 hPa 0,0 mm 0,0 km/h (0 Bft) W 267 ° 0 min 0,000 mm 0,0 UV-I 23 W/m² 8,2 °C 9,8 °C 0,0 km/h (0 Bft)
14.10.2017 10:00 9,8 °C 9,8 °C 90 % 1028,5 hPa 0,0 mm 0,0 km/h (0 Bft) W 267 ° 0 min 0,000 mm 0,0 UV-I 23 W/m² 8,2 °C 9,8 °C 0,0 km/h (0 Bft)
14.10.2017 10:01 9,9 °C 9,9 °C 91 % 1028,5 hPa 0,0 mm 0,0 km/h (0 Bft) W 267 ° 0 min 0,000 mm 0,0 UV-I 23 W/m² 8,5 °C 9,9 °C 0,0 km/h (0 Bft)
14.10.2017 10:02 10,1 °C 10,1 °C 90 % 1028,5 hPa 0,0 mm 0,0 km/h (0 Bft) W 267 ° 0 min 0,000 mm 0,0 UV-I 23 W/m² 8,5 °C 10,1 °C 0,0 km/h (0 Bft)
14.10.2017 10:03 10,2 °C 10,2 °C 90 % 1028,5 hPa 0,0 mm 0,0 km/h (0 Bft) W 267 ° 0 min 0,000 mm 0,0 UV-I 23 W/m² 8,6 °C 10,2 °C 0,0 km/h (0 Bft)
14.10.2017 10:04 10,2 °C 10,2 °C 90 % 1028,5 hPa 0,0 mm 0,0 km/h (0 Bft) W 267 ° 0 min 0,000 mm 0,0 UV-I 23 W/m² 8,6 °C 10,2 °C 0,0 km/h (0 Bft)
14.10.2017 10:05 10,1 °C 10,2 °C 89 % 1028,5 hPa 0,0 mm 0,0 km/h (0 Bft) W 267 ° 0 min 0,000 mm 0,0 UV-I 23 W/m² 8,4 °C 10,1 °C 0,0 km/h (0 Bft)
14.10.2017 10:06 10,1 °C 10,1 °C 90 % 1028,4 hPa 0,0 mm 0,0 km/h (0 Bft) W 267 ° 0 min 0,000 mm 0,0 UV-I 23 W/m² 8,5 °C 10,1 °C 0,0 km/h (0 Bft)
14.10.2017 10:07 10,0 °C 10,1 °C 90 % 1028,4 hPa 0,0 mm 0,0 km/h (0 Bft) W 267 ° 0 min 0,000 mm 0,0 UV-I 25 W/m² 8,4 °C 10,0 °C 0,0 km/h (0 Bft)
14.10.2017 10:08 10,0 °C 10,0 °C 90 % 1028,4 hPa 0,0 mm 0,0 km/h (0 Bft) W 267 ° 0 min 0,000 mm 0,0 UV-I 25 W/m² 8,4 °C 10,0 °C 0,0 km/h (0 Bft)
14.10.2017 10:09 10,1 °C 10,1 °C 91 % 1028,4 hPa 0,0 mm 0,0 km/h (0 Bft) W 267 ° 0 min 0,000 mm 0,0 UV-I 25 W/m² 8,7 °C 10,1 °C 0,0 km/h (0 Bft)
14.10.2017 10:10 10,1 °C 10,1 °C 91 % 1028,4 hPa 0,0 mm 0,0 km/h (0 Bft) W 267 ° 0 min 0,000 mm 0,0 UV-I 25 W/m² 8,7 °C 10,1 °C 0,0 km/h (0 Bft)
14.10.2017 10:11 10,1 °C 10,1 °C 91 % 1028,4 hPa 0,0 mm 0,0 km/h (0 Bft) W 267 ° 0 min 0,000 mm 0,0 UV-I 25 W/m² 8,7 °C 10,1 °C 0,0 km/h (0 Bft)
14.10.2017 10:12 10,3 °C 10,3 °C 91 % 1028,3 hPa 0,0 mm 0,0 km/h (0 Bft) W 267 ° 0 min 0,000 mm 0,0 UV-I 25 W/m² 8,9 °C 10,3 °C 0,0 km/h (0 Bft)
14.10.2017 10:13 10,4 °C 10,4 °C 91 % 1028,4 hPa 0,0 mm 0,0 km/h (0 Bft) W 267 ° 0 min 0,000 mm 0,0 UV-I 25 W/m² 9,0 °C 10,4 °C 0,0 km/h (0 Bft)
14.10.2017 10:14 10,6 °C 10,6 °C 91 % 1028,4 hPa 0,0 mm 0,0 km/h (0 Bft) W 267 ° 0 min 0,000 mm 0,0 UV-I 25 W/m² 9,2 °C 10,6 °C 0,0 km/h (0 Bft)
14.10.2017 10:15 10,8 °C 10,8 °C 90 % 1028,4 hPa 0,0 mm 0,0 km/h (0 Bft) W 267 ° 0 min 0,000 mm 0,0 UV-I 25 W/m² 9,2 °C 10,8 °C 0,0 km/h (0 Bft)
14.10.2017 10:16 10,9 °C 10,9 °C 89 % 1028,3 hPa 0,0 mm 0,0 km/h (0 Bft) W 267 ° 0 min 0,000 mm 0,0 UV-I 25 W/m² 9,2 °C 10,9 °C 0,0 km/h (0 Bft)
14.10.2017 10:17 11,1 °C 11,1 °C 89 % 1028,3 hPa 0,0 mm 0,0 km/h (0 Bft) W 267 ° 0 min 0,000 mm 0,0 UV-I 25 W/m² 9,4 °C 11,1 °C 0,0 km/h (0 Bft)
14.10.2017 10:18 11,2 °C 11,2 °C 89 % 1028,3 hPa 0,0 mm 0,0 km/h (0 Bft) W 267 ° 0 min 0,000 mm 0,0 UV-I 25 W/m² 9,5 °C 11,2 °C 0,0 km/h (0 Bft)
14.10.2017 10:19 11,2 °C 11,2 °C 88 % 1028,3 hPa 0,0 mm 0,0 km/h (0 Bft) W 267 ° 0 min 0,000 mm 0,0 UV-I 28 W/m² 9,3 °C 11,2 °C 0,0 km/h (0 Bft)
14.10.2017 10:20 11,3 °C 11,3 °C 88 % 1028,4 hPa 0,0 mm 0,0 km/h (0 Bft) W 267 ° 0 min 0,000 mm 0,0 UV-I 30 W/m² 9,4 °C 11,3 °C 0,0 km/h (0 Bft)
14.10.2017 10:21 11,4 °C 11,4 °C 87 % 1028,3 hPa 0,0 mm 0,0 km/h (0 Bft) W 267 ° 0 min 0,000 mm 0,0 UV-I 26 W/m² 9,3 °C 11,4 °C 0,0 km/h (0 Bft)
14.10.2017 10:22 11,6 °C 11,6 °C 87 % 1028,3 hPa 0,0 mm 0,0 km/h (0 Bft) W 267 ° 0 min 0,000 mm 0,0 UV-I 28 W/m² 9,5 °C 11,6 °C 0,0 km/h (0 Bft)
14.10.2017 10:23 11,6 °C 11,6 °C 87 % 1028,4 hPa 0,0 mm 0,0 km/h (0 Bft) W 267 ° 0 min 0,000 mm 0,0 UV-I 25 W/m² 9,5 °C 11,6 °C 0,0 km/h (0 Bft)
14.10.2017 10:24 11,7 °C 11,7 °C 87 % 1028,3 hPa 0,0 mm 0,0 km/h (0 Bft) W 267 ° 0 min 0,000 mm 0,0 UV-I 25 W/m² 9,6 °C 11,7 °C 0,0 km/h (0 Bft)
14.10.2017 10:25 11,8 °C 11,8 °C 87 % 1028,3 hPa 0,0 mm 0,0 km/h (0 Bft) W 267 ° 0 min 0,000 mm 0,0 UV-I 26 W/m² 9,7 °C 11,8 °C 0,0 km/h (0 Bft)
14.10.2017 10:26 11,9 °C 11,9 °C 87 % 1028,3 hPa 0,0 mm 0,0 km/h (0 Bft) W 267 ° 0 min 0,000 mm 0,0 UV-I 32 W/m² 9,8 °C 11,9 °C 0,0 km/h (0 Bft)
14.10.2017 10:27 11,9 °C 11,9 °C 87 % 1028,3 hPa 0,0 mm 0,0 km/h (0 Bft) W 267 ° 0 min 0,000 mm 0,0 UV-I 40 W/m² 9,8 °C 11,9 °C 0,0 km/h (0 Bft)
14.10.2017 10:28 12,1 °C 12,1 °C 86 % 1028,3 hPa 0,0 mm 0,0 km/h (0 Bft) W 267 ° 0 min 0,000 mm 0,0 UV-I 40 W/m² 9,8 °C 12,1 °C 0,0 km/h (0 Bft)
14.10.2017 10:29 12,1 °C 12,1 °C 86 % 1028,4 hPa 0,0 mm 0,0 km/h (0 Bft) W 267 ° 0 min 0,000 mm 0,0 UV-I 33 W/m² 9,8 °C 12,1 °C 0,0 km/h (0 Bft)
14.10.2017 10:30 12,2 °C 12,2 °C 86 % 1028,3 hPa 0,0 mm 0,0 km/h (0 Bft) W 267 ° 0 min 0,000 mm 0,0 UV-I 33 W/m² 9,9 °C 12,2 °C 0,0 km/h (0 Bft)
14.10.2017 10:31 12,2 °C 12,2 °C 85 % 1028,3 hPa 0,0 mm 0,0 km/h (0 Bft) W 267 ° 0 min 0,000 mm 0,0 UV-I 30 W/m² 9,8 °C 12,2 °C 0,0 km/h (0 Bft)
14.10.2017 10:32 12,3 °C 12,3 °C 84 % 1028,3 hPa 0,0 mm 0,0 km/h (0 Bft) W 267 ° 0 min 0,000 mm 0,0 UV-I 28 W/m² 9,7 °C 12,3 °C 0,0 km/h (0 Bft)
14.10.2017 10:33 12,4 °C 12,4 °C 84 % 1028,3 hPa 0,2 mm 0,0 km/h (0 Bft) W 267 ° 0 min 0,000 mm 0,0 UV-I 28 W/m² 9,8 °C 12,4 °C 0,0 km/h (0 Bft)
14.10.2017 10:34 12,6 °C 12,6 °C 84 % 1028,3 hPa 0,0 mm 0,0 km/h (0 Bft) W 267 ° 0 min 0,000 mm 0,0 UV-I 33 W/m² 10,0 °C 12,6 °C 0,0 km/h (0 Bft)
14.10.2017 10:35 12,6 °C 12,6 °C 84 % 1028,3 hPa 0,0 mm 0,0 km/h (0 Bft) W 267 ° 0 min 0,000 mm 0,0 UV-I 40 W/m² 10,0 °C 12,6 °C 0,0 km/h (0 Bft)
14.10.2017 10:36 12,7 °C 12,7 °C 83 % 1028,3 hPa 0,0 mm 0,0 km/h (0 Bft) W 267 ° 0 min 0,000 mm 0,0 UV-I 35 W/m² 9,9 °C 12,7 °C 0,0 km/h (0 Bft)
14.10.2017 10:37 12,8 °C 12,8 °C 83 % 1028,3 hPa 0,0 mm 0,0 km/h (0 Bft) W 267 ° 0 min 0,000 mm 0,0 UV-I 30 W/m² 10,0 °C 12,8 °C 0,0 km/h (0 Bft)
14.10.2017 10:38 12,8 °C 12,8 °C 83 % 1028,3 hPa 0,0 mm 0,0 km/h (0 Bft) W 267 ° 0 min 0,000 mm 0,0 UV-I 28 W/m² 10,0 °C 12,8 °C 0,0 km/h (0 Bft)
14.10.2017 10:39 12,9 °C 12,9 °C 83 % 1028,3 hPa 0,0 mm 0,0 km/h (0 Bft) W 267 ° 0 min 0,000 mm 0,0 UV-I 26 W/m² 10,1 °C 12,9 °C 0,0 km/h (0 Bft)
14.10.2017 10:40 12,9 °C 12,9 °C 82 % 1028,3 hPa 0,0 mm 0,0 km/h (0 Bft) W 267 ° 0 min 0,000 mm 0,0 UV-I 26 W/m² 9,9 °C 12,9 °C 0,0 km/h (0 Bft)
14.10.2017 10:41 13,0 °C 13,0 °C 82 % 1028,3 hPa 0,0 mm 0,0 km/h (0 Bft) W 267 ° 0 min 0,000 mm 0,0 UV-I 28 W/m² 10,0 °C 13,0 °C 0,0 km/h (0 Bft)
14.10.2017 10:42 13,1 °C 13,1 °C 82 % 1028,3 hPa 0,0 mm 0,0 km/h (0 Bft) W 267 ° 0 min 0,000 mm 0,0 UV-I 28 W/m² 10,1 °C 13,1 °C 0,0 km/h (0 Bft)
14.10.2017 10:43 13,1 °C 13,1 °C 82 % 1028,3 hPa 0,0 mm 0,0 km/h (0 Bft) W 267 ° 0 min 0,000 mm 0,0 UV-I 30 W/m² 10,1 °C 13,1 °C 0,0 km/h (0 Bft)
14.10.2017 10:44 13,1 °C 13,1 °C 82 % 1028,3 hPa 0,0 mm 0,0 km/h (0 Bft) W 267 ° 0 min 0,000 mm 0,0 UV-I 33 W/m² 10,1 °C 13,1 °C 0,0 km/h (0 Bft)
14.10.2017 10:45 13,2 °C 13,2 °C 81 % 1028,3 hPa 0,0 mm 0,0 km/h (0 Bft) W 267 ° 0 min 0,000 mm 0,0 UV-I 30 W/m² 10,0 °C 13,2 °C 0,0 km/h (0 Bft)
14.10.2017 10:46 13,3 °C 13,3 °C 81 % 1028,3 hPa 0,0 mm 0,0 km/h (0 Bft) W 267 ° 0 min 0,000 mm 0,0 UV-I 26 W/m² 10,1 °C 13,3 °C 0,0 km/h (0 Bft)
14.10.2017 10:47 13,3 °C 13,3 °C 81 % 1028,3 hPa 0,0 mm 0,0 km/h (0 Bft) W 267 ° 0 min 0,000 mm 0,0 UV-I 28 W/m² 10,1 °C 13,3 °C 0,0 km/h (0 Bft)
14.10.2017 10:48 13,4 °C 13,4 °C 81 % 1028,3 hPa 0,0 mm 0,0 km/h (0 Bft) W 267 ° 0 min 0,000 mm 0,0 UV-I 28 W/m² 10,2 °C 13,4 °C 0,0 km/h (0 Bft)
14.10.2017 10:49 13,5 °C 13,5 °C 80 % 1028,3 hPa 0,0 mm 0,0 km/h (0 Bft) W 267 ° 0 min 0,000 mm 0,0 UV-I 33 W/m² 10,1 °C 13,5 °C 0,0 km/h (0 Bft)
14.10.2017 10:50 13,6 °C 13,6 °C 80 % 1028,4 hPa 0,0 mm 0,0 km/h (0 Bft) W 267 ° 0 min 0,000 mm 0,0 UV-I 40 W/m² 10,2 °C 13,6 °C 0,0 km/h (0 Bft)
14.10.2017 10:51 13,7 °C 13,7 °C 80 % 1028,4 hPa 0,0 mm 0,0 km/h (0 Bft) W 267 ° 0 min 0,000 mm 0,0 UV-I 39 W/m² 10,3 °C 13,7 °C 0,0 km/h (0 Bft)
14.10.2017 10:52 13,8 °C 13,8 °C 79 % 1028,4 hPa 0,0 mm 0,0 km/h (0 Bft) W 267 ° 0 min 0,000 mm 0,0 UV-I 35 W/m² 10,2 °C 13,8 °C 0,0 km/h (0 Bft)
14.10.2017 10:53 13,8 °C 13,8 °C 79 % 1028,4 hPa 0,0 mm 0,0 km/h (0 Bft) W 267 ° 0 min 0,000 mm 0,0 UV-I 79 W/m² 10,2 °C 13,8 °C 0,0 km/h (0 Bft)
14.10.2017 10:54 13,8 °C 13,9 °C 79 % 1028,4 hPa 0,0 mm 0,0 km/h (0 Bft) W 267 ° 0 min 0,000 mm 1,5 UV-I 123 W/m² 10,2 °C 13,8 °C 0,0 km/h (0 Bft)
14.10.2017 10:55 13,9 °C 13,9 °C 79 % 1028,4 hPa 0,0 mm 0,0 km/h (0 Bft) W 267 ° 0 min 0,000 mm 1,6 UV-I 185 W/m² 10,3 °C 13,9 °C 0,0 km/h (0 Bft)
14.10.2017 10:56 14,0 °C 14,0 °C 79 % 1028,4 hPa 0,0 mm 0,0 km/h (0 Bft) W 267 ° 0 min 0,000 mm 1,7 UV-I 216 W/m² 10,4 °C 14,0 °C 0,0 km/h (0 Bft)
14.10.2017 10:57 14,1 °C 14,1 °C 78 % 1028,3 hPa 0,0 mm 0,0 km/h (0 Bft) W 267 ° 0 min 0,000 mm 1,8 UV-I 255 W/m² 10,3 °C 14,1 °C 0,0 km/h (0 Bft)
14.10.2017 10:58 14,1 °C 14,1 °C 78 % 1028,4 hPa 0,0 mm 0,0 km/h (0 Bft) W 267 ° 1 min 0,000 mm 2,0 UV-I 306 W/m² 10,3 °C 14,1 °C 0,0 km/h (0 Bft)
14.10.2017 10:59 14,2 °C 14,2 °C 77 % 1028,3 hPa 0,0 mm 0,0 km/h (0 Bft) W 267 ° 1 min 0,000 mm 2,1 UV-I 302 W/m² 10,2 °C 14,2 °C 0,0 km/h (0 Bft)
14.10.2017 11:00 14,2 °C 14,2 °C 77 % 1028,3 hPa 0,0 mm 0,0 km/h (0 Bft) W 267 ° 1 min 0,025 mm 2,1 UV-I 353 W/m² 10,2 °C 14,2 °C 0,0 km/h (0 Bft)
14.10.2017 11:01 14,3 °C 14,3 °C 77 % 1028,3 hPa 0,0 mm 0,0 km/h (0 Bft) W 267 ° 1 min 0,000 mm 2,2 UV-I 403 W/m² 10,3 °C 14,3 °C 0,0 km/h (0 Bft)
14.10.2017 11:02 14,3 °C 14,3 °C 76 % 1028,2 hPa 0,0 mm 0,0 km/h (0 Bft) W 267 ° 1 min 0,000 mm 2,3 UV-I 411 W/m² 10,1 °C 14,3 °C 0,0 km/h (0 Bft)
14.10.2017 11:03 14,4 °C 14,4 °C 76 % 1028,2 hPa 0,0 mm 0,0 km/h (0 Bft) W 267 ° 1 min 0,000 mm 2,3 UV-I 413 W/m² 10,2 °C 14,4 °C 0,0 km/h (0 Bft)
14.10.2017 11:04 14,5 °C 14,5 °C 76 % 1028,3 hPa 0,0 mm 0,0 km/h (0 Bft) W 267 ° 1 min 0,000 mm 2,3 UV-I 413 W/m² 10,3 °C 14,5 °C 0,0 km/h (0 Bft)
14.10.2017 11:05 14,4 °C 14,5 °C 76 % 1028,3 hPa 0,0 mm 0,0 km/h (0 Bft) W 267 ° 1 min 0,000 mm 2,3 UV-I 390 W/m² 10,2 °C 14,4 °C 0,0 km/h (0 Bft)
14.10.2017 11:06 14,5 °C 14,5 °C 76 % 1028,3 hPa 0,0 mm 0,0 km/h (0 Bft) W 267 ° 1 min 0,000 mm 2,2 UV-I 338 W/m² 10,3 °C 14,5 °C 0,0 km/h (0 Bft)
14.10.2017 11:07 14,6 °C 14,6 °C 75 % 1028,2 hPa 0,0 mm 0,0 km/h (0 Bft) W 267 ° 1 min 0,000 mm 2,1 UV-I 322 W/m² 10,2 °C 14,6 °C 0,0 km/h (0 Bft)
14.10.2017 11:08 14,7 °C 14,7 °C 75 % 1028,2 hPa 0,0 mm 0,0 km/h (0 Bft) W 267 ° 1 min 0,000 mm 2,1 UV-I 315 W/m² 10,3 °C 14,7 °C 0,0 km/h (0 Bft)
14.10.2017 11:09 14,8 °C 14,8 °C 74 % 1028,2 hPa 0,0 mm 0,0 km/h (0 Bft) W 267 ° 0 min 0,000 mm 2,1 UV-I 271 W/m² 10,2 °C 14,8 °C 0,0 km/h (0 Bft)
14.10.2017 11:10 14,8 °C 14,8 °C 74 % 1028,2 hPa 0,0 mm 0,0 km/h (0 Bft) W 267 ° 0 min 0,000 mm 1,9 UV-I 174 W/m² 10,2 °C 14,8 °C 0,0 km/h (0 Bft)
14.10.2017 11:11 14,9 °C 14,9 °C 74 % 1028,2 hPa 0,0 mm 0,0 km/h (0 Bft) W 267 ° 0 min 0,000 mm 1,7 UV-I 171 W/m² 10,3 °C 14,9 °C 0,0 km/h (0 Bft)
14.10.2017 11:12 14,9 °C 15,0 °C 74 % 1028,2 hPa 0,0 mm 0,0 km/h (0 Bft) W 267 ° 0 min 0,000 mm 1,8 UV-I 181 W/m² 10,3 °C 14,9 °C 0,0 km/h (0 Bft)
14.10.2017 11:13 15,0 °C 15,1 °C 74 % 1028,2 hPa 0,0 mm 0,0 km/h (0 Bft) W 267 ° 0 min 0,000 mm 1,8 UV-I 169 W/m² 10,4 °C 15,0 °C 0,0 km/h (0 Bft)
14.10.2017 11:14 15,1 °C 15,1 °C 73 % 1028,2 hPa 0,0 mm 0,0 km/h (0 Bft) W 267 ° 0 min 0,000 mm 1,7 UV-I 176 W/m² 10,3 °C 15,1 °C 0,0 km/h (0 Bft)
14.10.2017 11:15 15,1 °C 15,1 °C 73 % 1028,2 hPa 0,0 mm 0,0 km/h (0 Bft) W 267 ° 0 min 0,000 mm 1,8 UV-I 239 W/m² 10,3 °C 15,1 °C 0,0 km/h (0 Bft)
14.10.2017 11:16 15,2 °C 15,2 °C 73 % 1028,2 hPa 0,0 mm 0,0 km/h (0 Bft) W 267 ° 0 min 0,000 mm 2,0 UV-I 241 W/m² 10,4 °C 15,2 °C 0,0 km/h (0 Bft)
14.10.2017 11:17 15,2 °C 15,2 °C 73 % 1028,2 hPa 0,0 mm 0,0 km/h (0 Bft) W 267 ° 0 min 0,000 mm 1,9 UV-I 188 W/m² 10,4 °C 15,2 °C 0,0 km/h (0 Bft)
14.10.2017 11:18 15,2 °C 15,2 °C 73 % 1028,2 hPa 0,0 mm 0,0 km/h (0 Bft) W 267 ° 0 min 0,000 mm 1,7 UV-I 113 W/m² 10,4 °C 15,2 °C 0,0 km/h (0 Bft)
14.10.2017 11:19 15,2 °C 15,2 °C 73 % 1028,2 hPa 0,0 mm 0,0 km/h (0 Bft) W 267 ° 0 min 0,000 mm 0,0 UV-I 51 W/m² 10,4 °C 15,2 °C 0,0 km/h (0 Bft)
14.10.2017 11:20 15,2 °C 15,2 °C 73 % 1028,2 hPa 0,0 mm 0,0 km/h (0 Bft) W 267 ° 0 min 0,000 mm 0,0 UV-I 44 W/m² 10,4 °C 15,2 °C 0,0 km/h (0 Bft)
14.10.2017 11:21 15,2 °C 15,2 °C 73 % 1028,2 hPa 0,0 mm 0,0 km/h (0 Bft) W 267 ° 0 min 0,000 mm 0,0 UV-I 42 W/m² 10,4 °C 15,2 °C 0,0 km/h (0 Bft)
14.10.2017 11:22 15,2 °C 15,2 °C 72 % 1028,1 hPa 0,0 mm 0,0 km/h (0 Bft) W 267 ° 0 min 0,000 mm 0,0 UV-I 39 W/m² 10,2 °C 15,2 °C 0,0 km/h (0 Bft)
14.10.2017 11:23 15,2 °C 15,2 °C 73 % 1028,1 hPa 0,0 mm 0,0 km/h (0 Bft) W 267 ° 0 min 0,000 mm 0,0 UV-I 35 W/m² 10,4 °C 15,2 °C 0,0 km/h (0 Bft)
14.10.2017 11:24 15,1 °C 15,2 °C 73 % 1028,1 hPa 0,0 mm 0,0 km/h (0 Bft) W 267 ° 0 min 0,000 mm 0,0 UV-I 35 W/m² 10,3 °C 15,1 °C 0,0 km/h (0 Bft)
14.10.2017 11:25 15,1 °C 15,1 °C 73 % 1028,1 hPa 0,0 mm 0,0 km/h (0 Bft) W 267 ° 0 min 0,000 mm 0,0 UV-I 42 W/m² 10,3 °C 15,1 °C 0,0 km/h (0 Bft)
14.10.2017 11:26 15,2 °C 15,2 °C 72 % 1028,1 hPa 0,0 mm 0,0 km/h (0 Bft) W 267 ° 0 min 0,000 mm 0,0 UV-I 44 W/m² 10,2 °C 15,2 °C 0,0 km/h (0 Bft)
14.10.2017 11:27 15,2 °C 15,2 °C 72 % 1028,1 hPa 0,0 mm 0,0 km/h (0 Bft) W 267 ° 0 min 0,000 mm 0,0 UV-I 44 W/m² 10,2 °C 15,2 °C 0,0 km/h (0 Bft)
14.10.2017 11:28 15,3 °C 15,3 °C 72 % 1028,1 hPa 0,0 mm 0,0 km/h (0 Bft) W 267 ° 0 min 0,000 mm 0,0 UV-I 30 W/m² 10,3 °C 15,3 °C 0,0 km/h (0 Bft)
14.10.2017 11:29 15,4 °C 15,4 °C 72 % 1028,1 hPa 0,0 mm 0,0 km/h (0 Bft) W 267 ° 0 min 0,000 mm 0,0 UV-I 30 W/m² 10,4 °C 15,4 °C 0,0 km/h (0 Bft)
14.10.2017 11:30 15,4 °C 15,4 °C 72 % 1028,1 hPa 0,0 mm 0,0 km/h (0 Bft) W 267 ° 0 min 0,000 mm 0,0 UV-I 32 W/m² 10,4 °C 15,4 °C 0,0 km/h (0 Bft)
14.10.2017 11:31 15,4 °C 15,4 °C 71 % 1028,0 hPa 0,0 mm 0,0 km/h (0 Bft) W 267 ° 0 min 0,000 mm 0,0 UV-I 30 W/m² 10,2 °C 15,4 °C 0,0 km/h (0 Bft)
14.10.2017 11:32 15,4 °C 15,4 °C 71 % 1028,0 hPa 0,0 mm 0,0 km/h (0 Bft) W 267 ° 0 min 0,000 mm 0,0 UV-I 35 W/m² 10,2 °C 15,4 °C 0,0 km/h (0 Bft)
14.10.2017 11:33 15,5 °C 15,5 °C 71 % 1028,0 hPa 0,0 mm 0,0 km/h (0 Bft) W 267 ° 0 min 0,000 mm 1,5 UV-I 60 W/m² 10,3 °C 15,5 °C 0,0 km/h (0 Bft)
14.10.2017 11:34 15,6 °C 15,6 °C 71 % 1028,0 hPa 0,0 mm 0,0 km/h (0 Bft) W 267 ° 0 min 0,000 mm 1,6 UV-I 111 W/m² 10,4 °C 15,6 °C 0,0 km/h (0 Bft)
14.10.2017 11:35 15,6 °C 15,6 °C 71 % 1028,0 hPa 0,0 mm 0,0 km/h (0 Bft) W 267 ° 0 min 0,000 mm 2,3 UV-I 111 W/m² 10,4 °C 15,6 °C 0,0 km/h (0 Bft)
14.10.2017 11:36 15,6 °C 15,6 °C 71 % 1028,0 hPa 0,0 mm 0,0 km/h (0 Bft) W 267 ° 1 min 0,000 mm 2,6 UV-I 436 W/m² 10,4 °C 15,6 °C 0,0 km/h (0 Bft)
14.10.2017 11:37 15,4 °C 15,6 °C 72 % 1028,0 hPa 0,0 mm 0,0 km/h (0 Bft) W 267 ° 1 min 0,000 mm 2,6 UV-I 422 W/m² 10,4 °C 15,4 °C 0,0 km/h (0 Bft)
14.10.2017 11:38 15,4 °C 15,4 °C 72 % 1028,0 hPa 0,0 mm 0,0 km/h (0 Bft) W 267 ° 1 min 0,000 mm 2,7 UV-I 439 W/m² 10,4 °C 15,4 °C 0,0 km/h (0 Bft)
14.10.2017 11:39 15,4 °C 15,4 °C 72 % 1028,0 hPa 0,0 mm 0,0 km/h (0 Bft) W 267 ° 1 min 0,000 mm 2,7 UV-I 466 W/m² 10,4 °C 15,4 °C 0,0 km/h (0 Bft)
14.10.2017 11:40 15,5 °C 15,5 °C 71 % 1028,0 hPa 0,0 mm 0,0 km/h (0 Bft) W 267 ° 1 min 0,000 mm 2,8 UV-I 468 W/m² 10,3 °C 15,5 °C 0,0 km/h (0 Bft)
14.10.2017 11:41 15,6 °C 15,6 °C 71 % 1028,1 hPa 0,0 mm 0,0 km/h (0 Bft) W 267 ° 1 min 0,000 mm 2,8 UV-I 469 W/m² 10,4 °C 15,6 °C 0,0 km/h (0 Bft)
14.10.2017 11:42 15,6 °C 15,6 °C 71 % 1028,0 hPa 0,0 mm 0,0 km/h (0 Bft) W 267 ° 1 min 0,000 mm 2,8 UV-I 469 W/m² 10,4 °C 15,6 °C 0,0 km/h (0 Bft)
14.10.2017 11:43 15,6 °C 15,6 °C 72 % 1028,0 hPa 0,0 mm 0,0 km/h (0 Bft) W 267 ° 1 min 0,000 mm 2,9 UV-I 471 W/m² 10,6 °C 15,6 °C 0,0 km/h (0 Bft)
14.10.2017 11:44 15,7 °C 15,7 °C 72 % 1028,0 hPa 0,0 mm 0,0 km/h (0 Bft) W 267 ° 1 min 0,000 mm 2,9 UV-I 473 W/m² 10,7 °C 15,7 °C 0,0 km/h (0 Bft)
14.10.2017 11:45 15,7 °C 15,7 °C 71 % 1028,0 hPa 0,0 mm 0,0 km/h (0 Bft) W 267 ° 1 min 0,000 mm 2,9 UV-I 476 W/m² 10,5 °C 15,7 °C 0,0 km/h (0 Bft)
14.10.2017 11:46 15,8 °C 15,8 °C 71 % 1028,0 hPa 0,0 mm 0,0 km/h (0 Bft) W 267 ° 1 min 0,000 mm 2,9 UV-I 476 W/m² 10,6 °C 15,8 °C 0,0 km/h (0 Bft)
14.10.2017 11:47 15,9 °C 15,9 °C 71 % 1028,0 hPa 0,0 mm 0,0 km/h (0 Bft) W 267 ° 1 min 0,000 mm 3,0 UV-I 478 W/m² 10,6 °C 15,9 °C 0,0 km/h (0 Bft)
14.10.2017 11:48 16,0 °C 16,0 °C 70 % 1028,1 hPa 0,0 mm 0,0 km/h (0 Bft) W 267 ° 1 min 0,000 mm 3,0 UV-I 482 W/m² 10,5 °C 16,0 °C 0,0 km/h (0 Bft)
14.10.2017 11:49 16,1 °C 16,1 °C 70 % 1028,1 hPa 0,0 mm 0,0 km/h (0 Bft) W 267 ° 1 min 0,000 mm 3,1 UV-I 483 W/m² 10,6 °C 16,1 °C 0,0 km/h (0 Bft)
14.10.2017 11:50 16,3 °C 16,3 °C 70 % 1028,0 hPa 0,0 mm 0,0 km/h (0 Bft) W 267 ° 1 min 0,000 mm 3,1 UV-I 487 W/m² 10,8 °C 16,3 °C 0,0 km/h (0 Bft)
14.10.2017 11:51 16,4 °C 16,4 °C 69 % 1028,1 hPa 0,0 mm 0,0 km/h (0 Bft) W 267 ° 1 min 0,000 mm 3,1 UV-I 494 W/m² 10,7 °C 16,4 °C 0,0 km/h (0 Bft)
14.10.2017 11:52 16,3 °C 16,4 °C 71 % 1028,1 hPa 0,0 mm 0,0 km/h (0 Bft) W 267 ° 1 min 0,000 mm 3,1 UV-I 497 W/m² 11,0 °C 16,3 °C 0,0 km/h (0 Bft)
14.10.2017 11:53 16,3 °C 16,4 °C 70 % 1028,0 hPa 0,0 mm 0,0 km/h (0 Bft) W 267 ° 1 min 0,000 mm 3,2 UV-I 501 W/m² 10,8 °C 16,3 °C 0,0 km/h (0 Bft)
14.10.2017 11:54 16,1 °C 16,3 °C 72 % 1028,0 hPa 0,0 mm 0,0 km/h (0 Bft) W 267 ° 1 min 0,000 mm 3,2 UV-I 504 W/m² 11,0 °C 16,1 °C 0,0 km/h (0 Bft)
14.10.2017 11:55 15,8 °C 16,1 °C 73 % 1028,1 hPa 0,0 mm 0,4 km/h (0 Bft) W 267 ° 1 min 0,000 mm 3,2 UV-I 508 W/m² 11,0 °C 15,8 °C 1,6 km/h (1 Bft)
14.10.2017 11:56 15,8 °C 15,8 °C 73 % 1028,1 hPa 0,0 mm 0,2 km/h (0 Bft) W 267 ° 1 min 0,000 mm 3,2 UV-I 510 W/m² 11,0 °C 15,8 °C 1,6 km/h (1 Bft)
14.10.2017 11:57 16,0 °C 16,0 °C 72 % 1028,0 hPa 0,0 mm 2,7 km/h (1 Bft) N-NW 340 ° 1 min 0,000 mm 3,2 UV-I 515 W/m² 11,0 °C 16,0 °C 4,8 km/h (1 Bft)
14.10.2017 11:58 16,2 °C 16,2 °C 76 % 1028,0 hPa 0,0 mm 1,1 km/h (1 Bft) N-NW 340 ° 1 min 0,000 mm 3,3 UV-I 515 W/m² 12,0 °C 16,2 °C 3,2 km/h (1 Bft)
14.10.2017 11:59 16,2 °C 16,2 °C 72 % 1028,1 hPa 0,0 mm 0,0 km/h (0 Bft) N-NW 340 ° 1 min 0,000 mm 3,3 UV-I 517 W/m² 11,1 °C 16,2 °C 0,0 km/h (0 Bft)
14.10.2017 12:00 16,3 °C 16,3 °C 73 % 1028,1 hPa 0,0 mm 0,0 km/h (0 Bft) N-NW 340 ° 1 min 0,153 mm 3,3 UV-I 517 W/m² 11,4 °C 16,3 °C 0,0 km/h (0 Bft)
14.10.2017 12:01 16,3 °C 16,3 °C 78 % 1028,0 hPa 0,0 mm 0,0 km/h (0 Bft) N-NW 340 ° 1 min 0,000 mm 3,3 UV-I 519 W/m² 12,5 °C 16,3 °C 0,0 km/h (0 Bft)
14.10.2017 12:02 16,5 °C 16,5 °C 67 % 1028,1 hPa 0,0 mm 0,0 km/h (0 Bft) N-NW 340 ° 1 min 0,000 mm 3,3 UV-I 519 W/m² 10,4 °C 16,5 °C 0,0 km/h (0 Bft)
14.10.2017 12:03 16,6 °C 16,6 °C 68 % 1028,1 hPa 0,0 mm 0,0 km/h (0 Bft) N-NW 340 ° 1 min 0,000 mm 3,3 UV-I 526 W/m² 10,7 °C 16,6 °C 0,0 km/h (0 Bft)
14.10.2017 12:04 16,7 °C 16,7 °C 68 % 1028,0 hPa 0,0 mm 0,0 km/h (0 Bft) N-NW 340 ° 1 min 0,000 mm 3,4 UV-I 526 W/m² 10,8 °C 16,7 °C 0,0 km/h (0 Bft)
14.10.2017 12:05 16,8 °C 16,8 °C 68 % 1028,1 hPa 0,0 mm 0,0 km/h (0 Bft) N-NW 340 ° 1 min 0,000 mm 3,4 UV-I 526 W/m² 10,9 °C 16,8 °C 0,0 km/h (0 Bft)
14.10.2017 12:06 16,9 °C 16,9 °C 67 % 1028,1 hPa 0,0 mm 0,5 km/h (0 Bft) N-NW 340 ° 1 min 0,000 mm 3,4 UV-I 526 W/m² 10,7 °C 16,9 °C 1,6 km/h (1 Bft)
14.10.2017 12:07 16,8 °C 16,9 °C 70 % 1028,0 hPa 0,0 mm 0,9 km/h (0 Bft) N-NW 342 ° 1 min 0,000 mm 3,4 UV-I 527 W/m² 11,3 °C 16,8 °C 3,2 km/h (1 Bft)
14.10.2017 12:08 16,3 °C 16,8 °C 70 % 1028,0 hPa 0,0 mm 2,1 km/h (1 Bft) N-NW 343 ° 1 min 0,000 mm 3,4 UV-I 529 W/m² 10,8 °C 16,3 °C 3,2 km/h (1 Bft)
14.10.2017 12:09 16,3 °C 16,3 °C 69 % 1028,0 hPa 0,0 mm 1,5 km/h (1 Bft) N-NW 343 ° 1 min 0,000 mm 3,4 UV-I 531 W/m² 10,6 °C 16,3 °C 3,2 km/h (1 Bft)
14.10.2017 12:10 16,4 °C 16,4 °C 69 % 1028,0 hPa 0,0 mm 0,1 km/h (0 Bft) N-NW 343 ° 1 min 0,000 mm 3,4 UV-I 531 W/m² 10,7 °C 16,4 °C 1,6 km/h (1 Bft)
14.10.2017 12:11 16,4 °C 16,4 °C 70 % 1028,0 hPa 0,0 mm 1,0 km/h (0 Bft) N-NW 344 ° 1 min 0,000 mm 3,4 UV-I 529 W/m² 10,9 °C 16,4 °C 3,2 km/h (1 Bft)
14.10.2017 12:12 16,6 °C 16,6 °C 70 % 1028,0 hPa 0,0 mm 0,7 km/h (0 Bft) N-NW 344 ° 1 min 0,000 mm 3,4 UV-I 531 W/m² 11,1 °C 16,6 °C 1,6 km/h (1 Bft)
14.10.2017 12:13 16,7 °C 16,7 °C 68 % 1028,0 hPa 0,0 mm 2,5 km/h (1 Bft) O 101 ° 1 min 0,000 mm 3,4 UV-I 531 W/m² 10,8 °C 16,7 °C 6,4 km/h (2 Bft)
14.10.2017 12:14 16,7 °C 16,7 °C 68 % 1028,0 hPa 0,0 mm 4,4 km/h (1 Bft) O-SO 111 ° 1 min 0,000 mm 3,4 UV-I 533 W/m² 10,8 °C 16,7 °C 6,4 km/h (2 Bft)
14.10.2017 12:15 16,7 °C 16,7 °C 68 % 1027,9 hPa 0,0 mm 2,0 km/h (1 Bft) O-SO 111 ° 1 min 0,000 mm 3,4 UV-I 534 W/m² 10,8 °C 16,7 °C 3,2 km/h (1 Bft)
14.10.2017 12:16 16,7 °C 16,7 °C 68 % 1027,9 hPa 0,0 mm 0,4 km/h (0 Bft) O-SO 111 ° 1 min 0,000 mm 3,5 UV-I 534 W/m² 10,8 °C 16,7 °C 1,6 km/h (1 Bft)
14.10.2017 12:17 16,8 °C 16,8 °C 67 % 1027,9 hPa 0,0 mm 0,3 km/h (0 Bft) O-SO 111 ° 1 min 0,000 mm 3,5 UV-I 536 W/m² 10,6 °C 16,8 °C 1,6 km/h (1 Bft)
14.10.2017 12:18 16,9 °C 16,9 °C 67 % 1027,9 hPa 0,0 mm 0,1 km/h (0 Bft) O-SO 111 ° 1 min 0,000 mm 3,5 UV-I 536 W/m² 10,7 °C 16,9 °C 1,6 km/h (1 Bft)
14.10.2017 12:19 16,9 °C 16,9 °C 69 % 1027,9 hPa 0,0 mm 2,1 km/h (1 Bft) O-SO 111 ° 1 min 0,000 mm 3,5 UV-I 538 W/m² 11,2 °C 16,9 °C 3,2 km/h (1 Bft)
14.10.2017 12:20 16,9 °C 16,9 °C 68 % 1027,9 hPa 0,0 mm 1,8 km/h (1 Bft) O-SO 111 ° 1 min 0,000 mm 3,5 UV-I 538 W/m² 11,0 °C 16,9 °C 3,2 km/h (1 Bft)
14.10.2017 12:21 17,0 °C 17,0 °C 68 % 1027,9 hPa 0,0 mm 1,6 km/h (1 Bft) O-SO 111 ° 1 min 0,000 mm 3,5 UV-I 538 W/m² 11,0 °C 17,0 °C 3,2 km/h (1 Bft)
14.10.2017 12:22 17,2 °C 17,2 °C 68 % 1027,9 hPa 0,0 mm 0,3 km/h (0 Bft) O-SO 112 ° 1 min 0,000 mm 3,5 UV-I 540 W/m² 11,2 °C 17,2 °C 1,6 km/h (1 Bft)
14.10.2017 12:23 17,1 °C 17,2 °C 68 % 1027,9 hPa 0,0 mm 1,5 km/h (1 Bft) O-SO 111 ° 1 min 0,000 mm 3,5 UV-I 540 W/m² 11,1 °C 17,1 °C 3,2 km/h (1 Bft)
14.10.2017 12:24 17,1 °C 17,1 °C 70 % 1027,9 hPa 0,0 mm 2,6 km/h (1 Bft) O 100 ° 1 min 0,000 mm 3,5 UV-I 540 W/m² 11,6 °C 17,1 °C 4,8 km/h (1 Bft)
14.10.2017 12:25 17,1 °C 17,1 °C 69 % 1027,8 hPa 0,0 mm 1,0 km/h (0 Bft) O 100 ° 1 min 0,000 mm 3,5 UV-I 540 W/m² 11,4 °C 17,1 °C 3,2 km/h (1 Bft)
14.10.2017 12:26 17,2 °C 17,2 °C 68 % 1027,8 hPa 0,0 mm 0,0 km/h (0 Bft) O 100 ° 1 min 0,000 mm 3,5 UV-I 541 W/m² 11,2 °C 17,2 °C 0,0 km/h (0 Bft)
14.10.2017 12:27 17,3 °C 17,3 °C 69 % 1027,9 hPa 0,0 mm 0,0 km/h (0 Bft) O 100 ° 1 min 0,000 mm 3,5 UV-I 543 W/m² 11,6 °C 17,3 °C 0,0 km/h (0 Bft)
14.10.2017 12:28 17,5 °C 17,5 °C 67 % 1027,9 hPa 0,0 mm 0,0 km/h (0 Bft) O 100 ° 1 min 0,000 mm 3,5 UV-I 543 W/m² 11,3 °C 17,5 °C 0,0 km/h (0 Bft)
14.10.2017 12:29 17,6 °C 17,6 °C 67 % 1027,9 hPa 0,0 mm 0,0 km/h (0 Bft) O 100 ° 1 min 0,000 mm 3,5 UV-I 543 W/m² 11,4 °C 17,6 °C 0,0 km/h (0 Bft)
14.10.2017 12:30 17,6 °C 17,6 °C 66 % 1027,9 hPa 0,0 mm 0,0 km/h (0 Bft) O 100 ° 1 min 0,000 mm 3,5 UV-I 543 W/m² 11,2 °C 17,6 °C 0,0 km/h (0 Bft)
14.10.2017 12:31 17,4 °C 17,6 °C 68 % 1027,9 hPa 0,0 mm 0,9 km/h (0 Bft) O 100 ° 1 min 0,000 mm 3,5 UV-I 543 W/m² 11,4 °C 17,4 °C 3,2 km/h (1 Bft)
14.10.2017 12:32 17,3 °C 17,4 °C 67 % 1027,9 hPa 0,0 mm 1,3 km/h (1 Bft) O 99 ° 1 min 0,000 mm 3,5 UV-I 545 W/m² 11,1 °C 17,3 °C 3,2 km/h (1 Bft)
14.10.2017 12:33 17,3 °C 17,3 °C 75 % 1027,9 hPa 0,0 mm 0,3 km/h (0 Bft) O 99 ° 1 min 0,000 mm 3,6 UV-I 545 W/m² 12,8 °C 17,3 °C 1,6 km/h (1 Bft)
14.10.2017 12:34 17,2 °C 17,3 °C 70 % 1027,9 hPa 0,0 mm 0,7 km/h (0 Bft) O 99 ° 1 min 0,000 mm 3,6 UV-I 547 W/m² 11,7 °C 17,2 °C 3,2 km/h (1 Bft)
14.10.2017 12:35 17,3 °C 17,3 °C 70 % 1027,8 hPa 0,0 mm 1,6 km/h (1 Bft) O 99 ° 1 min 0,000 mm 3,6 UV-I 547 W/m² 11,8 °C 17,3 °C 4,8 km/h (1 Bft)
14.10.2017 12:36 17,3 °C 17,3 °C 67 % 1027,9 hPa 0,0 mm 0,4 km/h (0 Bft) O 99 ° 1 min 0,000 mm 3,6 UV-I 547 W/m² 11,1 °C 17,3 °C 3,2 km/h (1 Bft)
14.10.2017 12:37 17,3 °C 17,3 °C 69 % 1027,8 hPa 0,0 mm 2,7 km/h (1 Bft) O 99 ° 1 min 0,000 mm 3,6 UV-I 548 W/m² 11,6 °C 17,3 °C 4,8 km/h (1 Bft)
14.10.2017 12:38 17,3 °C 17,3 °C 68 % 1027,9 hPa 0,0 mm 1,7 km/h (1 Bft) O 100 ° 1 min 0,000 mm 3,6 UV-I 548 W/m² 11,3 °C 17,3 °C 3,2 km/h (1 Bft)
14.10.2017 12:39 17,3 °C 17,3 °C 67 % 1027,8 hPa 0,0 mm 1,7 km/h (1 Bft) NO 56 ° 1 min 0,000 mm 3,6 UV-I 548 W/m² 11,1 °C 17,3 °C 4,8 km/h (1 Bft)
14.10.2017 12:40 17,4 °C 17,4 °C 69 % 1027,8 hPa 0,0 mm 3,1 km/h (1 Bft) O-NO 57 ° 1 min 0,000 mm 3,6 UV-I 548 W/m² 11,7 °C 17,4 °C 4,8 km/h (1 Bft)
14.10.2017 12:41 17,7 °C 17,7 °C 68 % 1027,8 hPa 0,0 mm 1,6 km/h (1 Bft) O-NO 57 ° 1 min 0,000 mm 3,6 UV-I 548 W/m² 11,7 °C 17,7 °C 3,2 km/h (1 Bft)
14.10.2017 12:42 17,7 °C 17,7 °C 68 % 1027,8 hPa 0,0 mm 2,4 km/h (1 Bft) O-NO 77 ° 1 min 0,000 mm 3,6 UV-I 550 W/m² 11,7 °C 17,7 °C 4,8 km/h (1 Bft)
14.10.2017 12:43 17,7 °C 17,7 °C 67 % 1027,8 hPa 0,0 mm 0,9 km/h (0 Bft) O-NO 77 ° 1 min 0,000 mm 3,6 UV-I 550 W/m² 11,5 °C 17,7 °C 3,2 km/h (1 Bft)
14.10.2017 12:44 17,7 °C 17,7 °C 68 % 1027,8 hPa 0,0 mm 2,5 km/h (1 Bft) SO 128 ° 1 min 0,000 mm 3,6 UV-I 550 W/m² 11,7 °C 17,7 °C 4,8 km/h (1 Bft)
14.10.2017 12:45 17,7 °C 17,7 °C 67 % 1027,8 hPa 0,0 mm 1,3 km/h (1 Bft) SO 128 ° 1 min 0,000 mm 3,6 UV-I 550 W/m² 11,5 °C 17,7 °C 4,8 km/h (1 Bft)
14.10.2017 12:46 17,7 °C 17,7 °C 66 % 1027,8 hPa 0,0 mm 0,0 km/h (0 Bft) SO 128 ° 1 min 0,000 mm 3,6 UV-I 552 W/m² 11,3 °C 17,7 °C 0,0 km/h (0 Bft)
14.10.2017 12:47 17,6 °C 17,7 °C 66 % 1027,6 hPa 0,0 mm 1,6 km/h (1 Bft) SO 128 ° 1 min 0,000 mm 3,6 UV-I 552 W/m² 11,2 °C 17,6 °C 3,2 km/h (1 Bft)
14.10.2017 12:48 17,6 °C 17,6 °C 66 % 1027,7 hPa 0,0 mm 1,3 km/h (1 Bft) SO 128 ° 1 min 0,000 mm 3,6 UV-I 554 W/m² 11,2 °C 17,6 °C 3,2 km/h (1 Bft)
14.10.2017 12:49 17,6 °C 17,6 °C 66 % 1027,6 hPa 0,0 mm 0,3 km/h (0 Bft) SO 128 ° 1 min 0,000 mm 3,6 UV-I 554 W/m² 11,2 °C 17,6 °C 1,6 km/h (1 Bft)
14.10.2017 12:50 17,6 °C 17,7 °C 66 % 1027,6 hPa 0,0 mm 2,1 km/h (1 Bft) SO 127 ° 1 min 0,000 mm 3,6 UV-I 552 W/m² 11,2 °C 17,6 °C 4,8 km/h (1 Bft)
14.10.2017 12:51 17,6 °C 17,7 °C 67 % 1027,7 hPa 0,0 mm 1,5 km/h (1 Bft) SO 127 ° 1 min 0,000 mm 3,6 UV-I 552 W/m² 11,4 °C 17,6 °C 4,8 km/h (1 Bft)
14.10.2017 12:52 17,6 °C 17,6 °C 69 % 1027,7 hPa 0,0 mm 0,2 km/h (0 Bft) SO 127 ° 1 min 0,000 mm 3,6 UV-I 552 W/m² 11,8 °C 17,6 °C 1,6 km/h (1 Bft)
14.10.2017 12:53 17,4 °C 17,6 °C 67 % 1027,6 hPa 0,0 mm 0,6 km/h (0 Bft) SO 127 ° 1 min 0,000 mm 3,6 UV-I 554 W/m² 11,2 °C 17,4 °C 1,6 km/h (1 Bft)
14.10.2017 12:54 17,4 °C 17,4 °C 68 % 1027,7 hPa 0,0 mm 2,5 km/h (1 Bft) SO 127 ° 1 min 0,000 mm 3,6 UV-I 554 W/m² 11,4 °C 17,4 °C 4,8 km/h (1 Bft)
14.10.2017 12:55 17,4 °C 17,4 °C 67 % 1027,7 hPa 0,0 mm 2,0 km/h (1 Bft) SO 127 ° 1 min 0,000 mm 3,6 UV-I 554 W/m² 11,2 °C 17,4 °C 3,2 km/h (1 Bft)
14.10.2017 12:56 17,6 °C 17,6 °C 68 % 1027,7 hPa 0,0 mm 3,7 km/h (1 Bft) O-NO 78 ° 1 min 0,000 mm 3,6 UV-I 554 W/m² 11,6 °C 17,6 °C 4,8 km/h (1 Bft)
14.10.2017 12:57 17,7 °C 17,7 °C 68 % 1027,6 hPa 0,0 mm 3,5 km/h (1 Bft) O-NO 74 ° 1 min 0,000 mm 3,6 UV-I 554 W/m² 11,7 °C 17,7 °C 6,4 km/h (2 Bft)
14.10.2017 12:58 17,6 °C 17,7 °C 68 % 1027,6 hPa 0,0 mm 2,1 km/h (1 Bft) O 84 ° 1 min 0,000 mm 3,6 UV-I 554 W/m² 11,6 °C 17,6 °C 3,2 km/h (1 Bft)
14.10.2017 12:59 17,6 °C 17,6 °C 68 % 1027,6 hPa 0,0 mm 0,9 km/h (0 Bft) O 84 ° 1 min 0,000 mm 3,6 UV-I 555 W/m² 11,6 °C 17,6 °C 1,6 km/h (1 Bft)
14.10.2017 13:00 17,6 °C 17,6 °C 67 % 1027,6 hPa 0,0 mm 2,1 km/h (1 Bft) O-SO 108 ° 1 min 0,305 mm 3,6 UV-I 554 W/m² 11,4 °C 17,6 °C 3,2 km/h (1 Bft)
14.10.2017 13:01 17,7 °C 17,7 °C 68 % 1027,6 hPa 0,0 mm 3,3 km/h (1 Bft) O-SO 115 ° 1 min 0,000 mm 3,6 UV-I 554 W/m² 11,7 °C 17,7 °C 4,8 km/h (1 Bft)
14.10.2017 13:02 17,7 °C 17,7 °C 66 % 1027,6 hPa 0,0 mm 2,3 km/h (1 Bft) SO 125 ° 1 min 0,000 mm 3,6 UV-I 555 W/m² 11,3 °C 17,7 °C 3,2 km/h (1 Bft)
14.10.2017 13:03 17,7 °C 17,7 °C 68 % 1027,6 hPa 0,0 mm 2,0 km/h (1 Bft) SO 125 ° 1 min 0,000 mm 3,6 UV-I 554 W/m² 11,7 °C 17,7 °C 3,2 km/h (1 Bft)
14.10.2017 13:04 17,6 °C 17,7 °C 68 % 1027,6 hPa 0,0 mm 0,5 km/h (0 Bft) SO 125 ° 1 min 0,000 mm 3,6 UV-I 555 W/m² 11,6 °C 17,6 °C 3,2 km/h (1 Bft)
14.10.2017 13:05 17,6 °C 17,6 °C 67 % 1027,6 hPa 0,0 mm 0,2 km/h (0 Bft) SO 125 ° 1 min 0,000 mm 3,6 UV-I 554 W/m² 11,4 °C 17,6 °C 1,6 km/h (1 Bft)
14.10.2017 13:06 17,7 °C 17,7 °C 67 % 1027,5 hPa 0,0 mm 0,1 km/h (0 Bft) SO 125 ° 1 min 0,000 mm 3,6 UV-I 554 W/m² 11,5 °C 17,7 °C 1,6 km/h (1 Bft)
14.10.2017 13:07 17,8 °C 17,8 °C 67 % 1027,5 hPa 0,0 mm 0,0 km/h (0 Bft) SO 125 ° 1 min 0,000 mm 3,6 UV-I 552 W/m² 11,6 °C 17,8 °C 0,0 km/h (0 Bft)
14.10.2017 13:08 17,8 °C 17,9 °C 68 % 1027,5 hPa 0,0 mm 2,6 km/h (1 Bft) O-SO 103 ° 1 min 0,000 mm 3,6 UV-I 554 W/m² 11,8 °C 17,8 °C 3,2 km/h (1 Bft)
14.10.2017 13:09 17,7 °C 17,8 °C 67 % 1027,5 hPa 0,0 mm 0,8 km/h (0 Bft) O-SO 103 ° 1 min 0,000 mm 3,6 UV-I 554 W/m² 11,5 °C 17,7 °C 3,2 km/h (1 Bft)
14.10.2017 13:10 17,7 °C 17,8 °C 67 % 1027,5 hPa 0,0 mm 1,3 km/h (1 Bft) O-SO 102 ° 1 min 0,000 mm 3,6 UV-I 554 W/m² 11,5 °C 17,7 °C 3,2 km/h (1 Bft)
14.10.2017 13:11 17,7 °C 17,7 °C 68 % 1027,5 hPa 0,0 mm 1,2 km/h (1 Bft) O-SO 102 ° 1 min 0,000 mm 3,6 UV-I 554 W/m² 11,7 °C 17,7 °C 3,2 km/h (1 Bft)
14.10.2017 13:12 17,7 °C 17,7 °C 68 % 1027,5 hPa 0,0 mm 0,1 km/h (0 Bft) O-SO 102 ° 1 min 0,000 mm 3,6 UV-I 554 W/m² 11,7 °C 17,7 °C 1,6 km/h (1 Bft)
14.10.2017 13:13 17,8 °C 17,8 °C 68 % 1027,5 hPa 0,0 mm 0,0 km/h (0 Bft) O-SO 102 ° 1 min 0,000 mm 3,6 UV-I 554 W/m² 11,8 °C 17,8 °C 0,0 km/h (0 Bft)
14.10.2017 13:14 17,8 °C 17,8 °C 68 % 1027,4 hPa 0,0 mm 0,0 km/h (0 Bft) O-SO 102 ° 1 min 0,000 mm 3,6 UV-I 554 W/m² 11,8 °C 17,8 °C 0,0 km/h (0 Bft)
14.10.2017 13:15 17,7 °C 17,8 °C 68 % 1027,4 hPa 0,0 mm 0,0 km/h (0 Bft) O-SO 102 ° 1 min 0,000 mm 3,6 UV-I 554 W/m² 11,7 °C 17,7 °C 0,0 km/h (0 Bft)
14.10.2017 13:16 17,8 °C 17,8 °C 68 % 1027,4 hPa 0,0 mm 0,0 km/h (0 Bft) O-SO 102 ° 1 min 0,000 mm 3,6 UV-I 552 W/m² 11,8 °C 17,8 °C 0,0 km/h (0 Bft)
14.10.2017 13:17 17,8 °C 17,8 °C 69 % 1027,5 hPa 0,0 mm 0,0 km/h (0 Bft) O-SO 102 ° 1 min 0,000 mm 3,6 UV-I 554 W/m² 12,0 °C 17,8 °C 0,0 km/h (0 Bft)
14.10.2017 13:18 17,7 °C 17,8 °C 68 % 1027,4 hPa 0,0 mm 1,0 km/h (0 Bft) O-SO 102 ° 1 min 0,000 mm 3,6 UV-I 552 W/m² 11,7 °C 17,7 °C 3,2 km/h (1 Bft)
14.10.2017 13:19 17,6 °C 17,7 °C 69 % 1027,4 hPa 0,0 mm 1,5 km/h (1 Bft) O-SO 102 ° 1 min 0,000 mm 3,6 UV-I 552 W/m² 11,8 °C 17,6 °C 3,2 km/h (1 Bft)
14.10.2017 13:20 17,7 °C 17,7 °C 68 % 1027,5 hPa 0,0 mm 1,1 km/h (1 Bft) O 101 ° 1 min 0,000 mm 3,6 UV-I 552 W/m² 11,7 °C 17,7 °C 3,2 km/h (1 Bft)
14.10.2017 13:21 17,7 °C 17,7 °C 68 % 1027,4 hPa 0,0 mm 2,8 km/h (1 Bft) O 101 ° 1 min 0,000 mm 3,6 UV-I 552 W/m² 11,7 °C 17,7 °C 3,2 km/h (1 Bft)
14.10.2017 13:22 17,7 °C 17,7 °C 67 % 1027,5 hPa 0,0 mm 3,8 km/h (1 Bft) O 101 ° 1 min 0,000 mm 3,6 UV-I 552 W/m² 11,5 °C 17,7 °C 4,8 km/h (1 Bft)
14.10.2017 13:23 17,8 °C 17,8 °C 67 % 1027,5 hPa 0,0 mm 0,5 km/h (0 Bft) O 101 ° 1 min 0,000 mm 3,6 UV-I 552 W/m² 11,6 °C 17,8 °C 3,2 km/h (1 Bft)
14.10.2017 13:24 18,1 °C 18,1 °C 69 % 1027,4 hPa 0,0 mm 0,0 km/h (0 Bft) O 101 ° 1 min 0,000 mm 3,6 UV-I 550 W/m² 12,3 °C 18,1 °C 0,0 km/h (0 Bft)
14.10.2017 13:25 18,1 °C 18,1 °C 66 % 1027,4 hPa 0,0 mm 0,0 km/h (0 Bft) O 101 ° 1 min 0,000 mm 3,6 UV-I 552 W/m² 11,6 °C 18,1 °C 0,0 km/h (0 Bft)
14.10.2017 13:26 18,1 °C 18,1 °C 66 % 1027,4 hPa 0,0 mm 3,1 km/h (1 Bft) O 101 ° 1 min 0,000 mm 3,6 UV-I 550 W/m² 11,6 °C 18,1 °C 6,4 km/h (2 Bft)
14.10.2017 13:27 17,9 °C 18,1 °C 68 % 1027,4 hPa 0,0 mm 1,1 km/h (1 Bft) O 101 ° 1 min 0,000 mm 3,6 UV-I 550 W/m² 11,9 °C 17,9 °C 1,6 km/h (1 Bft)
14.10.2017 13:28 17,9 °C 17,9 °C 66 % 1027,4 hPa 0,0 mm 0,0 km/h (0 Bft) O 101 ° 1 min 0,000 mm 3,6 UV-I 550 W/m² 11,5 °C 17,9 °C 0,0 km/h (0 Bft)
14.10.2017 13:29 18,1 °C 18,1 °C 67 % 1027,4 hPa 0,0 mm 1,3 km/h (1 Bft) O-SO 117 ° 1 min 0,000 mm 3,6 UV-I 552 W/m² 11,9 °C 18,1 °C 6,4 km/h (2 Bft)
14.10.2017 13:30 17,9 °C 18,1 °C 67 % 1027,4 hPa 0,0 mm 2,7 km/h (1 Bft) O-SO 117 ° 1 min 0,000 mm 3,6 UV-I 550 W/m² 11,7 °C 17,9 °C 6,4 km/h (2 Bft)
14.10.2017 13:31 18,0 °C 18,0 °C 66 % 1027,3 hPa 0,0 mm 1,4 km/h (1 Bft) O-SO 117 ° 1 min 0,000 mm 3,6 UV-I 550 W/m² 11,6 °C 18,0 °C 3,2 km/h (1 Bft)
14.10.2017 13:32 18,1 °C 18,1 °C 66 % 1027,3 hPa 0,0 mm 0,0 km/h (0 Bft) O-SO 117 ° 1 min 0,000 mm 3,6 UV-I 550 W/m² 11,6 °C 18,1 °C 0,0 km/h (0 Bft)
14.10.2017 13:33 18,2 °C 18,2 °C 67 % 1027,3 hPa 0,0 mm 0,0 km/h (0 Bft) O-SO 117 ° 1 min 0,000 mm 3,6 UV-I 550 W/m² 12,0 °C 18,2 °C 0,0 km/h (0 Bft)
14.10.2017 13:34 18,1 °C 18,2 °C 67 % 1027,3 hPa 0,0 mm 1,5 km/h (1 Bft) O-SO 117 ° 1 min 0,000 mm 3,6 UV-I 548 W/m² 11,9 °C 18,1 °C 3,2 km/h (1 Bft)
14.10.2017 13:35 18,1 °C 18,1 °C 66 % 1027,3 hPa 0,0 mm 1,1 km/h (1 Bft) O-SO 117 ° 1 min 0,000 mm 3,6 UV-I 548 W/m² 11,6 °C 18,1 °C 3,2 km/h (1 Bft)
14.10.2017 13:36 18,1 °C 18,2 °C 68 % 1027,3 hPa 0,0 mm 0,0 km/h (0 Bft) O-SO 117 ° 1 min 0,000 mm 3,6 UV-I 548 W/m² 12,1 °C 18,1 °C 0,0 km/h (0 Bft)
14.10.2017 13:37 18,1 °C 18,1 °C 67 % 1027,2 hPa 0,0 mm 0,7 km/h (0 Bft) O 94 ° 1 min 0,000 mm 3,6 UV-I 548 W/m² 11,9 °C 18,1 °C 3,2 km/h (1 Bft)
14.10.2017 13:38 18,1 °C 18,1 °C 66 % 1027,3 hPa 0,0 mm 2,1 km/h (1 Bft) NO 49 ° 1 min 0,000 mm 3,6 UV-I 547 W/m² 11,6 °C 18,1 °C 4,8 km/h (1 Bft)
14.10.2017 13:39 18,2 °C 18,2 °C 67 % 1027,3 hPa 0,0 mm 1,1 km/h (1 Bft) N-NO 30 ° 1 min 0,000 mm 3,6 UV-I 547 W/m² 12,0 °C 18,2 °C 6,4 km/h (2 Bft)
14.10.2017 13:40 18,3 °C 18,3 °C 67 % 1027,3 hPa 0,0 mm 4,8 km/h (1 Bft) N-NO 24 ° 1 min 0,000 mm 3,6 UV-I 547 W/m² 12,1 °C 18,3 °C 6,4 km/h (2 Bft)
14.10.2017 13:41 18,4 °C 18,4 °C 69 % 1027,2 hPa 0,0 mm 3,7 km/h (1 Bft) N-NO 24 ° 1 min 0,000 mm 3,6 UV-I 545 W/m² 12,6 °C 18,4 °C 4,8 km/h (1 Bft)
14.10.2017 13:42 18,5 °C 18,5 °C 67 % 1027,2 hPa 0,0 mm 3,6 km/h (1 Bft) N-NW 342 ° 1 min 0,000 mm 3,5 UV-I 543 W/m² 12,3 °C 18,5 °C 4,8 km/h (1 Bft)
14.10.2017 13:43 18,6 °C 18,6 °C 67 % 1027,2 hPa 0,0 mm 1,0 km/h (0 Bft) N 360 ° 1 min 0,000 mm 3,5 UV-I 543 W/m² 12,3 °C 18,6 °C 3,2 km/h (1 Bft)
14.10.2017 13:44 18,4 °C 18,6 °C 67 % 1027,2 hPa 0,0 mm 3,8 km/h (1 Bft) N-NO 28 ° 1 min 0,000 mm 3,5 UV-I 541 W/m² 12,2 °C 18,4 °C 6,4 km/h (2 Bft)
14.10.2017 13:45 18,5 °C 18,5 °C 64 % 1027,2 hPa 0,0 mm 3,6 km/h (1 Bft) N-NO 32 ° 1 min 0,000 mm 3,5 UV-I 540 W/m² 11,6 °C 18,5 °C 6,4 km/h (2 Bft)
14.10.2017 13:46 18,7 °C 18,7 °C 63 % 1027,2 hPa 0,0 mm 3,0 km/h (1 Bft) N-NO 32 ° 1 min 0,000 mm 3,5 UV-I 541 W/m² 11,5 °C 18,7 °C 4,8 km/h (1 Bft)
14.10.2017 13:47 18,8 °C 18,8 °C 66 % 1027,2 hPa 0,0 mm 4,2 km/h (1 Bft) N 11 ° 1 min 0,000 mm 3,5 UV-I 541 W/m² 12,3 °C 18,8 °C 6,4 km/h (2 Bft)
14.10.2017 13:48 18,6 °C 18,8 °C 67 % 1027,1 hPa 0,0 mm 3,6 km/h (1 Bft) N-NO 17 ° 1 min 0,000 mm 3,5 UV-I 541 W/m² 12,3 °C 18,6 °C 4,8 km/h (1 Bft)
14.10.2017 13:49 18,5 °C 18,6 °C 69 % 1027,1 hPa 0,0 mm 2,0 km/h (1 Bft) NO 34 ° 1 min 0,000 mm 3,5 UV-I 540 W/m² 12,7 °C 18,5 °C 3,2 km/h (1 Bft)
14.10.2017 13:50 18,4 °C 18,5 °C 66 % 1027,1 hPa 0,0 mm 2,9 km/h (1 Bft) NO 44 ° 1 min 0,000 mm 3,5 UV-I 540 W/m² 11,9 °C 18,4 °C 4,8 km/h (1 Bft)
14.10.2017 13:51 18,4 °C 18,4 °C 67 % 1027,1 hPa 0,0 mm 2,6 km/h (1 Bft) NO 44 ° 1 min 0,000 mm 3,5 UV-I 538 W/m² 12,2 °C 18,4 °C 4,8 km/h (1 Bft)
14.10.2017 13:52 18,4 °C 18,4 °C 65 % 1027,1 hPa 0,0 mm 2,1 km/h (1 Bft) NO 44 ° 1 min 0,000 mm 3,5 UV-I 538 W/m² 11,7 °C 18,4 °C 4,8 km/h (1 Bft)
14.10.2017 13:53 18,5 °C 18,5 °C 64 % 1027,1 hPa 0,0 mm 0,6 km/h (0 Bft) NO 44 ° 1 min 0,000 mm 3,5 UV-I 538 W/m² 11,6 °C 18,5 °C 1,6 km/h (1 Bft)
14.10.2017 13:54 18,6 °C 18,6 °C 64 % 1027,1 hPa 0,0 mm 0,0 km/h (0 Bft) NO 44 ° 1 min 0,000 mm 3,4 UV-I 536 W/m² 11,7 °C 18,6 °C 0,0 km/h (0 Bft)
14.10.2017 13:55 18,6 °C 18,6 °C 64 % 1027,1 hPa 0,0 mm 2,3 km/h (1 Bft) NO 44 ° 1 min 0,000 mm 3,4 UV-I 536 W/m² 11,7 °C 18,6 °C 3,2 km/h (1 Bft)
14.10.2017 13:56 18,5 °C 18,6 °C 63 % 1027,1 hPa 0,0 mm 2,5 km/h (1 Bft) O 95 ° 1 min 0,000 mm 3,4 UV-I 536 W/m² 11,3 °C 18,5 °C 4,8 km/h (1 Bft)
14.10.2017 13:57 18,6 °C 18,6 °C 63 % 1027,1 hPa 0,0 mm 1,2 km/h (1 Bft) O 95 ° 1 min 0,000 mm 3,4 UV-I 536 W/m² 11,4 °C 18,6 °C 1,6 km/h (1 Bft)
14.10.2017 13:58 18,6 °C 18,6 °C 63 % 1027,1 hPa 0,0 mm 1,1 km/h (1 Bft) O 95 ° 1 min 0,000 mm 3,4 UV-I 536 W/m² 11,4 °C 18,6 °C 1,6 km/h (1 Bft)
14.10.2017 13:59 18,6 °C 18,6 °C 66 % 1027,1 hPa 0,0 mm 1,7 km/h (1 Bft) O 95 ° 1 min 0,000 mm 3,4 UV-I 536 W/m² 12,1 °C 18,6 °C 3,2 km/h (1 Bft)
14.10.2017 14:00 18,6 °C 18,7 °C 65 % 1027,1 hPa 0,0 mm 1,4 km/h (1 Bft) O 95 ° 1 min 0,000 mm 3,4 UV-I 534 W/m² 11,9 °C 18,6 °C 3,2 km/h (1 Bft)
14.10.2017 14:01 18,4 °C 18,6 °C 64 % 1027,1 hPa 0,0 mm 2,0 km/h (1 Bft) O 95 ° 1 min 0,304 mm 3,4 UV-I 534 W/m² 11,5 °C 18,4 °C 4,8 km/h (1 Bft)
14.10.2017 14:02 18,5 °C 18,5 °C 63 % 1027,1 hPa 0,0 mm 2,3 km/h (1 Bft) O-NO 71 ° 1 min 0,000 mm 3,4 UV-I 533 W/m² 11,3 °C 18,5 °C 3,2 km/h (1 Bft)
14.10.2017 14:03 18,6 °C 18,6 °C 64 % 1027,1 hPa 0,0 mm 1,5 km/h (1 Bft) O-NO 71 ° 1 min 0,000 mm 3,4 UV-I 531 W/m² 11,7 °C 18,6 °C 3,2 km/h (1 Bft)
14.10.2017 14:04 18,8 °C 18,8 °C 67 % 1027,1 hPa 0,0 mm 1,8 km/h (1 Bft) NO 36 ° 1 min 0,000 mm 3,4 UV-I 529 W/m² 12,5 °C 18,8 °C 6,4 km/h (2 Bft)
14.10.2017 14:05 18,7 °C 18,8 °C 64 % 1027,1 hPa 0,0 mm 1,1 km/h (1 Bft) NO 36 ° 1 min 0,000 mm 3,4 UV-I 529 W/m² 11,7 °C 18,7 °C 4,8 km/h (1 Bft)
14.10.2017 14:06 18,6 °C 18,7 °C 64 % 1027,1 hPa 0,0 mm 0,9 km/h (0 Bft) NO 36 ° 1 min 0,000 mm 3,4 UV-I 529 W/m² 11,7 °C 18,6 °C 3,2 km/h (1 Bft)
14.10.2017 14:07 18,6 °C 18,6 °C 64 % 1027,1 hPa 0,0 mm 2,9 km/h (1 Bft) NO 36 ° 1 min 0,000 mm 3,3 UV-I 527 W/m² 11,7 °C 18,6 °C 4,8 km/h (1 Bft)
14.10.2017 14:08 18,7 °C 18,7 °C 66 % 1027,0 hPa 0,0 mm 5,4 km/h (1 Bft) N-NO 26 ° 1 min 0,000 mm 3,3 UV-I 526 W/m² 12,2 °C 18,7 °C 6,4 km/h (2 Bft)
14.10.2017 14:09 18,7 °C 18,7 °C 65 % 1027,1 hPa 0,0 mm 3,6 km/h (1 Bft) N-NO 19 ° 1 min 0,000 mm 3,3 UV-I 524 W/m² 12,0 °C 18,7 °C 6,4 km/h (2 Bft)
14.10.2017 14:10 18,7 °C 18,7 °C 64 % 1027,0 hPa 0,0 mm 2,2 km/h (1 Bft) N-NO 19 ° 1 min 0,000 mm 3,3 UV-I 524 W/m² 11,7 °C 18,7 °C 3,2 km/h (1 Bft)
14.10.2017 14:11 18,6 °C 18,7 °C 64 % 1027,0 hPa 0,0 mm 2,0 km/h (1 Bft) NO 36 ° 1 min 0,000 mm 3,3 UV-I 522 W/m² 11,7 °C 18,6 °C 4,8 km/h (1 Bft)
14.10.2017 14:12 18,5 °C 18,6 °C 66 % 1027,0 hPa 0,0 mm 3,7 km/h (1 Bft) NO 37 ° 1 min 0,000 mm 3,3 UV-I 522 W/m² 12,0 °C 18,5 °C 4,8 km/h (1 Bft)
14.10.2017 14:13 18,4 °C 18,5 °C 66 % 1027,0 hPa 0,0 mm 2,1 km/h (1 Bft) NO 35 ° 1 min 0,000 mm 3,3 UV-I 520 W/m² 11,9 °C 18,4 °C 4,8 km/h (1 Bft)
14.10.2017 14:14 18,6 °C 18,6 °C 65 % 1027,0 hPa 0,0 mm 3,5 km/h (1 Bft) N-NO 23 ° 1 min 0,000 mm 3,2 UV-I 519 W/m² 11,9 °C 18,6 °C 6,4 km/h (2 Bft)
14.10.2017 14:15 18,8 °C 18,8 °C 66 % 1027,0 hPa 0,0 mm 4,1 km/h (1 Bft) N-NO 13 ° 1 min 0,000 mm 3,2 UV-I 519 W/m² 12,3 °C 18,8 °C 8,0 km/h (2 Bft)
14.10.2017 14:16 18,8 °C 18,8 °C 66 % 1027,0 hPa 0,0 mm 4,7 km/h (1 Bft) N-NO 20 ° 1 min 0,000 mm 3,2 UV-I 519 W/m² 12,3 °C 18,8 °C 8,0 km/h (2 Bft)
14.10.2017 14:17 18,8 °C 18,8 °C 65 % 1027,0 hPa 0,0 mm 5,9 km/h (2 Bft) NO 54 ° 1 min 0,000 mm 3,2 UV-I 517 W/m² 12,1 °C 18,8 °C 11,3 km/h (2 Bft)
14.10.2017 14:18 18,8 °C 18,8 °C 63 % 1027,0 hPa 0,0 mm 3,6 km/h (1 Bft) NO 55 ° 1 min 0,000 mm 3,2 UV-I 517 W/m² 11,6 °C 18,8 °C 4,8 km/h (1 Bft)
14.10.2017 14:19 18,7 °C 18,8 °C 63 % 1027,0 hPa 0,0 mm 1,8 km/h (1 Bft) NO 54 ° 1 min 0,000 mm 3,2 UV-I 515 W/m² 11,5 °C 18,7 °C 4,8 km/h (1 Bft)
14.10.2017 14:20 18,7 °C 18,7 °C 65 % 1027,0 hPa 0,0 mm 1,9 km/h (1 Bft) NO 54 ° 1 min 0,000 mm 3,2 UV-I 515 W/m² 12,0 °C 18,7 °C 3,2 km/h (1 Bft)
14.10.2017 14:21 18,7 °C 18,7 °C 64 % 1027,0 hPa 0,0 mm 1,1 km/h (1 Bft) NO 54 ° 1 min 0,000 mm 3,2 UV-I 513 W/m² 11,7 °C 18,7 °C 3,2 km/h (1 Bft)
14.10.2017 14:22 18,7 °C 18,7 °C 65 % 1027,0 hPa 0,0 mm 2,3 km/h (1 Bft) NO 54 ° 1 min 0,000 mm 3,2 UV-I 513 W/m² 12,0 °C 18,7 °C 4,8 km/h (1 Bft)
14.10.2017 14:23 18,6 °C 18,7 °C 66 % 1027,0 hPa 0,0 mm 4,9 km/h (1 Bft) N-NO 27 ° 1 min 0,000 mm 3,2 UV-I 512 W/m² 12,1 °C 18,6 °C 6,4 km/h (2 Bft)
14.10.2017 14:24 18,6 °C 18,6 °C 62 % 1027,1 hPa 0,0 mm 0,2 km/h (0 Bft) N-NO 28 ° 1 min 0,000 mm 3,2 UV-I 510 W/m² 11,2 °C 18,6 °C 1,6 km/h (1 Bft)
14.10.2017 14:25 18,6 °C 18,6 °C 63 % 1027,0 hPa 0,0 mm 1,1 km/h (1 Bft) N-NO 28 ° 1 min 0,000 mm 3,1 UV-I 510 W/m² 11,4 °C 18,6 °C 3,2 km/h (1 Bft)
14.10.2017 14:26 18,8 °C 18,8 °C 62 % 1027,0 hPa 0,0 mm 1,6 km/h (1 Bft) N-NO 30 ° 1 min 0,000 mm 3,1 UV-I 508 W/m² 11,4 °C 18,8 °C 3,2 km/h (1 Bft)
14.10.2017 14:27 18,8 °C 18,8 °C 61 % 1027,0 hPa 0,0 mm 0,0 km/h (0 Bft) N-NO 30 ° 1 min 0,000 mm 3,1 UV-I 508 W/m² 11,1 °C 18,8 °C 0,0 km/h (0 Bft)
14.10.2017 14:28 18,8 °C 18,8 °C 61 % 1027,0 hPa 0,0 mm 0,0 km/h (0 Bft) N-NO 30 ° 1 min 0,000 mm 3,1 UV-I 506 W/m² 11,1 °C 18,8 °C 0,0 km/h (0 Bft)
14.10.2017 14:29 18,7 °C 18,8 °C 61 % 1027,0 hPa 0,0 mm 0,2 km/h (0 Bft) NO 37 ° 1 min 0,000 mm 3,1 UV-I 504 W/m² 11,0 °C 18,7 °C 3,2 km/h (1 Bft)
14.10.2017 14:30 18,5 °C 18,7 °C 65 % 1027,0 hPa 0,0 mm 4,5 km/h (1 Bft) O-NO 76 ° 1 min 0,000 mm 3,1 UV-I 503 W/m² 11,8 °C 18,5 °C 8,0 km/h (2 Bft)
14.10.2017 14:31 18,5 °C 18,5 °C 63 % 1027,0 hPa 0,0 mm 3,0 km/h (1 Bft) O-NO 57 ° 1 min 0,000 mm 3,1 UV-I 501 W/m² 11,3 °C 18,5 °C 4,8 km/h (1 Bft)
14.10.2017 14:32 18,8 °C 18,8 °C 62 % 1027,0 hPa 0,0 mm 1,3 km/h (1 Bft) O-NO 67 ° 1 min 0,000 mm 3,1 UV-I 501 W/m² 11,4 °C 18,8 °C 4,8 km/h (1 Bft)
14.10.2017 14:33 18,8 °C 18,8 °C 62 % 1027,0 hPa 0,0 mm 2,9 km/h (1 Bft) O-NO 67 ° 1 min 0,000 mm 3,1 UV-I 499 W/m² 11,4 °C 18,8 °C 4,8 km/h (1 Bft)
14.10.2017 14:34 18,7 °C 18,8 °C 61 % 1027,0 hPa 0,0 mm 0,0 km/h (0 Bft) O-NO 67 ° 1 min 0,000 mm 3,0 UV-I 499 W/m² 11,0 °C 18,7 °C 0,0 km/h (0 Bft)
14.10.2017 14:35 18,7 °C 18,7 °C 61 % 1027,0 hPa 0,0 mm 0,1 km/h (0 Bft) O-NO 67 ° 1 min 0,000 mm 3,0 UV-I 497 W/m² 11,0 °C 18,7 °C 1,6 km/h (1 Bft)
14.10.2017 14:36 18,7 °C 18,7 °C 62 % 1027,0 hPa 0,0 mm 0,5 km/h (0 Bft) O-NO 67 ° 1 min 0,000 mm 3,0 UV-I 496 W/m² 11,3 °C 18,7 °C 1,6 km/h (1 Bft)
14.10.2017 14:37 18,7 °C 18,7 °C 60 % 1027,1 hPa 0,0 mm 1,1 km/h (1 Bft) O-NO 67 ° 1 min 0,000 mm 3,0 UV-I 496 W/m² 10,8 °C 18,7 °C 1,6 km/h (1 Bft)
14.10.2017 14:38 18,7 °C 18,7 °C 61 % 1027,0 hPa 0,0 mm 1,7 km/h (1 Bft) O-NO 67 ° 1 min 0,000 mm 3,0 UV-I 494 W/m² 11,0 °C 18,7 °C 4,8 km/h (1 Bft)
14.10.2017 14:39 18,6 °C 18,7 °C 61 % 1027,0 hPa 0,0 mm 2,3 km/h (1 Bft) O-NO 67 ° 1 min 0,000 mm 3,0 UV-I 492 W/m² 10,9 °C 18,6 °C 6,4 km/h (2 Bft)
14.10.2017 14:40 18,8 °C 18,8 °C 61 % 1027,0 hPa 0,0 mm 1,7 km/h (1 Bft) O-NO 67 ° 1 min 0,000 mm 3,0 UV-I 492 W/m² 11,1 °C 18,8 °C 3,2 km/h (1 Bft)
14.10.2017 14:41 18,8 °C 18,8 °C 65 % 1027,0 hPa 0,0 mm 2,2 km/h (1 Bft) O-NO 67 ° 1 min 0,000 mm 3,0 UV-I 489 W/m² 12,1 °C 18,8 °C 4,8 km/h (1 Bft)
14.10.2017 14:42 18,7 °C 18,8 °C 64 % 1027,0 hPa 0,0 mm 2,4 km/h (1 Bft) O-NO 72 ° 1 min 0,000 mm 2,9 UV-I 489 W/m² 11,7 °C 18,7 °C 4,8 km/h (1 Bft)
14.10.2017 14:43 18,6 °C 18,7 °C 62 % 1027,0 hPa 0,0 mm 3,0 km/h (1 Bft) O-NO 71 ° 1 min 0,000 mm 2,9 UV-I 487 W/m² 11,2 °C 18,6 °C 4,8 km/h (1 Bft)
14.10.2017 14:44 18,6 °C 18,6 °C 62 % 1027,0 hPa 0,0 mm 3,6 km/h (1 Bft) O-NO 72 ° 1 min 0,000 mm 2,9 UV-I 485 W/m² 11,2 °C 18,6 °C 4,8 km/h (1 Bft)
14.10.2017 14:45 18,7 °C 18,7 °C 61 % 1027,0 hPa 0,0 mm 2,5 km/h (1 Bft) O-NO 72 ° 1 min 0,000 mm 2,9 UV-I 483 W/m² 11,0 °C 18,7 °C 3,2 km/h (1 Bft)
14.10.2017 14:46 18,7 °C 18,7 °C 63 % 1027,0 hPa 0,0 mm 1,1 km/h (1 Bft) O-NO 72 ° 1 min 0,000 mm 2,9 UV-I 483 W/m² 11,5 °C 18,7 °C 3,2 km/h (1 Bft)
14.10.2017 14:47 18,6 °C 18,7 °C 66 % 1027,0 hPa 0,0 mm 3,9 km/h (1 Bft) NO 51 ° 1 min 0,000 mm 2,9 UV-I 482 W/m² 12,1 °C 18,6 °C 8,0 km/h (2 Bft)
14.10.2017 14:48 18,5 °C 18,6 °C 62 % 1027,0 hPa 0,0 mm 1,4 km/h (1 Bft) NO 51 ° 1 min 0,000 mm 2,8 UV-I 480 W/m² 11,1 °C 18,5 °C 3,2 km/h (1 Bft)
14.10.2017 14:49 18,6 °C 18,6 °C 64 % 1027,0 hPa 0,0 mm 1,9 km/h (1 Bft) NO 51 ° 1 min 0,000 mm 2,8 UV-I 480 W/m² 11,7 °C 18,6 °C 4,8 km/h (1 Bft)
14.10.2017 14:50 18,6 °C 18,6 °C 62 % 1027,0 hPa 0,0 mm 1,1 km/h (1 Bft) NO 51 ° 1 min 0,000 mm 2,8 UV-I 478 W/m² 11,2 °C 18,6 °C 3,2 km/h (1 Bft)
14.10.2017 14:51 18,6 °C 18,6 °C 61 % 1027,0 hPa 0,0 mm 0,4 km/h (0 Bft) NO 51 ° 1 min 0,000 mm 2,8 UV-I 476 W/m² 10,9 °C 18,6 °C 1,6 km/h (1 Bft)
14.10.2017 14:52 18,7 °C 18,7 °C 61 % 1027,0 hPa 0,0 mm 0,0 km/h (0 Bft) NO 51 ° 1 min 0,000 mm 2,8 UV-I 475 W/m² 11,0 °C 18,7 °C 0,0 km/h (0 Bft)
14.10.2017 14:53 18,6 °C 18,7 °C 61 % 1027,0 hPa 0,0 mm 0,1 km/h (0 Bft) NO 51 ° 1 min 0,000 mm 2,8 UV-I 473 W/m² 10,9 °C 18,6 °C 1,6 km/h (1 Bft)
14.10.2017 14:54 18,4 °C 18,6 °C 63 % 1027,0 hPa 0,0 mm 1,6 km/h (1 Bft) NO 51 ° 1 min 0,000 mm 2,8 UV-I 471 W/m² 11,2 °C 18,4 °C 3,2 km/h (1 Bft)
14.10.2017 14:55 18,3 °C 18,4 °C 64 % 1027,0 hPa 0,0 mm 0,3 km/h (0 Bft) NO 51 ° 1 min 0,000 mm 2,7 UV-I 469 W/m² 11,4 °C 18,3 °C 1,6 km/h (1 Bft)
14.10.2017 14:56 18,5 °C 18,5 °C 62 % 1027,0 hPa 0,0 mm 0,0 km/h (0 Bft) NO 51 ° 1 min 0,000 mm 2,7 UV-I 468 W/m² 11,1 °C 18,5 °C 0,0 km/h (0 Bft)
14.10.2017 14:57 18,6 °C 18,6 °C 61 % 1027,0 hPa 0,0 mm 3,1 km/h (1 Bft) N-NO 32 ° 1 min 0,000 mm 2,7 UV-I 468 W/m² 10,9 °C 18,6 °C 6,4 km/h (2 Bft)
14.10.2017 14:58 18,7 °C 18,7 °C 59 % 1027,0 hPa 0,0 mm 4,4 km/h (1 Bft) N 5 ° 1 min 0,000 mm 2,7 UV-I 464 W/m² 10,5 °C 18,7 °C 6,4 km/h (2 Bft)
14.10.2017 14:59 18,8 °C 18,8 °C 61 % 1027,0 hPa 0,0 mm 4,5 km/h (1 Bft) N-NO 14 ° 1 min 0,000 mm 2,7 UV-I 462 W/m² 11,1 °C 18,8 °C 8,0 km/h (2 Bft)
14.10.2017 15:00 19,1 °C 19,1 °C 62 % 1027,0 hPa 0,0 mm 3,8 km/h (1 Bft) N-NO 31 ° 1 min 0,000 mm 2,7 UV-I 461 W/m² 11,6 °C 19,1 °C 11,3 km/h (2 Bft)
14.10.2017 15:01 19,1 °C 19,1 °C 60 % 1027,0 hPa 0,0 mm 1,5 km/h (1 Bft) N-NO 31 ° 1 min 0,305 mm 2,7 UV-I 461 W/m² 11,1 °C 19,1 °C 3,2 km/h (1 Bft)
14.10.2017 15:02 19,0 °C 19,1 °C 63 % 1027,0 hPa 0,0 mm 3,1 km/h (1 Bft) O-NO 64 ° 1 min 0,000 mm 2,6 UV-I 457 W/m² 11,8 °C 19,0 °C 6,4 km/h (2 Bft)
14.10.2017 15:03 18,9 °C 19,0 °C 61 % 1027,0 hPa 0,0 mm 3,5 km/h (1 Bft) O 87 ° 1 min 0,000 mm 2,6 UV-I 457 W/m² 11,2 °C 18,9 °C 6,4 km/h (2 Bft)
14.10.2017 15:04 18,8 °C 18,9 °C 65 % 1027,0 hPa 0,0 mm 3,2 km/h (1 Bft) O 91 ° 1 min 0,000 mm 2,6 UV-I 454 W/m² 12,1 °C 18,8 °C 4,8 km/h (1 Bft)
14.10.2017 15:05 18,8 °C 18,8 °C 59 % 1027,0 hPa 0,0 mm 4,0 km/h (1 Bft) SO 125 ° 1 min 0,000 mm 2,6 UV-I 454 W/m² 10,6 °C 18,8 °C 6,4 km/h (2 Bft)
14.10.2017 15:06 18,9 °C 18,9 °C 60 % 1027,0 hPa 0,0 mm 1,5 km/h (1 Bft) SO 125 ° 1 min 0,000 mm 2,6 UV-I 452 W/m² 11,0 °C 18,9 °C 3,2 km/h (1 Bft)
14.10.2017 15:07 18,8 °C 18,9 °C 59 % 1027,0 hPa 0,0 mm 0,4 km/h (0 Bft) SO 125 ° 1 min 0,000 mm 2,6 UV-I 450 W/m² 10,6 °C 18,8 °C 1,6 km/h (1 Bft)
14.10.2017 15:08 18,8 °C 18,8 °C 60 % 1027,0 hPa 0,0 mm 3,6 km/h (1 Bft) O-NO 58 ° 1 min 0,000 mm 2,6 UV-I 448 W/m² 10,9 °C 18,8 °C 6,4 km/h (2 Bft)
14.10.2017 15:09 18,9 °C 18,9 °C 59 % 1027,0 hPa 0,0 mm 3,3 km/h (1 Bft) NO 53 ° 1 min 0,000 mm 2,5 UV-I 446 W/m² 10,7 °C 18,9 °C 8,0 km/h (2 Bft)
14.10.2017 15:10 19,1 °C 19,1 °C 58 % 1027,0 hPa 0,0 mm 7,3 km/h (2 Bft) NO 40 ° 1 min 0,000 mm 2,5 UV-I 443 W/m² 10,6 °C 19,1 °C 9,7 km/h (2 Bft)
14.10.2017 15:11 19,1 °C 19,1 °C 57 % 1027,0 hPa 0,0 mm 5,2 km/h (1 Bft) N-NO 33 ° 1 min 0,000 mm 2,5 UV-I 443 W/m² 10,4 °C 19,1 °C 6,4 km/h (2 Bft)
14.10.2017 15:12 19,1 °C 19,2 °C 60 % 1027,0 hPa 0,0 mm 5,6 km/h (1 Bft) N 355 ° 1 min 0,000 mm 2,5 UV-I 439 W/m² 11,1 °C 19,1 °C 6,4 km/h (2 Bft)
14.10.2017 15:13 19,2 °C 19,2 °C 58 % 1027,0 hPa 0,0 mm 2,5 km/h (1 Bft) N-NW 348 ° 1 min 0,000 mm 2,5 UV-I 439 W/m² 10,7 °C 19,2 °C 6,4 km/h (2 Bft)
14.10.2017 15:14 19,2 °C 19,2 °C 58 % 1027,0 hPa 0,0 mm 2,0 km/h (1 Bft) N 349 ° 1 min 0,000 mm 2,4 UV-I 438 W/m² 10,7 °C 19,2 °C 3,2 km/h (1 Bft)
14.10.2017 15:15 19,2 °C 19,3 °C 60 % 1027,0 hPa 0,0 mm 2,9 km/h (1 Bft) NO 54 ° 1 min 0,000 mm 2,4 UV-I 436 W/m² 11,2 °C 19,2 °C 4,8 km/h (1 Bft)
14.10.2017 15:16 19,1 °C 19,2 °C 62 % 1027,0 hPa 0,0 mm 4,4 km/h (1 Bft) N-NO 32 ° 1 min 0,000 mm 2,4 UV-I 432 W/m² 11,6 °C 19,1 °C 6,4 km/h (2 Bft)
14.10.2017 15:17 19,0 °C 19,1 °C 61 % 1027,0 hPa 0,0 mm 2,9 km/h (1 Bft) N-NO 19 ° 1 min 0,000 mm 2,4 UV-I 431 W/m² 11,3 °C 19,0 °C 4,8 km/h (1 Bft)
14.10.2017 15:18 18,9 °C 19,0 °C 61 % 1027,0 hPa 0,0 mm 1,9 km/h (1 Bft) N-NO 21 ° 1 min 0,000 mm 2,4 UV-I 429 W/m² 11,2 °C 18,9 °C 3,2 km/h (1 Bft)
14.10.2017 15:19 18,8 °C 18,9 °C 60 % 1026,9 hPa 0,0 mm 3,4 km/h (1 Bft) NO 55 ° 1 min 0,000 mm 2,4 UV-I 427 W/m² 10,9 °C 18,8 °C 8,0 km/h (2 Bft)
14.10.2017 15:20 18,9 °C 18,9 °C 59 % 1026,9 hPa 0,0 mm 4,6 km/h (1 Bft) NO 40 ° 1 min 0,000 mm 2,4 UV-I 427 W/m² 10,7 °C 18,9 °C 8,0 km/h (2 Bft)
14.10.2017 15:21 19,1 °C 19,1 °C 58 % 1027,0 hPa 0,0 mm 5,2 km/h (1 Bft) N-NO 26 ° 1 min 0,000 mm 2,3 UV-I 425 W/m² 10,6 °C 19,1 °C 8,0 km/h (2 Bft)
14.10.2017 15:22 19,3 °C 19,3 °C 57 % 1027,0 hPa 0,0 mm 3,5 km/h (1 Bft) N-NO 31 ° 1 min 0,000 mm 2,3 UV-I 422 W/m² 10,6 °C 19,3 °C 6,4 km/h (2 Bft)
14.10.2017 15:23 19,3 °C 19,4 °C 58 % 1027,0 hPa 0,0 mm 4,0 km/h (1 Bft) NO 51 ° 1 min 0,000 mm 2,3 UV-I 418 W/m² 10,8 °C 19,3 °C 6,4 km/h (2 Bft)
14.10.2017 15:24 19,2 °C 19,3 °C 60 % 1027,0 hPa 0,0 mm 0,5 km/h (0 Bft) NO 51 ° 1 min 0,000 mm 2,3 UV-I 418 W/m² 11,2 °C 19,2 °C 3,2 km/h (1 Bft)
14.10.2017 15:25 19,0 °C 19,2 °C 60 % 1027,0 hPa 0,0 mm 0,5 km/h (0 Bft) NO 51 ° 1 min 0,000 mm 2,3 UV-I 417 W/m² 11,1 °C 19,0 °C 3,2 km/h (1 Bft)
14.10.2017 15:26 18,9 °C 19,0 °C 64 % 1027,0 hPa 0,0 mm 1,6 km/h (1 Bft) NO 51 ° 1 min 0,000 mm 2,3 UV-I 415 W/m² 11,9 °C 18,9 °C 3,2 km/h (1 Bft)
14.10.2017 15:27 18,8 °C 18,9 °C 62 % 1027,0 hPa 0,0 mm 1,2 km/h (1 Bft) NO 51 ° 1 min 0,000 mm 2,3 UV-I 413 W/m² 11,4 °C 18,8 °C 3,2 km/h (1 Bft)
14.10.2017 15:28 18,8 °C 18,9 °C 59 % 1027,0 hPa 0,0 mm 1,0 km/h (0 Bft) NO 51 ° 1 min 0,000 mm 2,2 UV-I 411 W/m² 10,6 °C 18,8 °C 6,4 km/h (2 Bft)
14.10.2017 15:29 18,9 °C 18,9 °C 61 % 1027,1 hPa 0,0 mm 4,1 km/h (1 Bft) NO 52 ° 1 min 0,000 mm 2,2 UV-I 410 W/m² 11,2 °C 18,9 °C 6,4 km/h (2 Bft)
14.10.2017 15:30 18,9 °C 18,9 °C 60 % 1027,0 hPa 0,0 mm 5,4 km/h (1 Bft) NO 47 ° 1 min 0,000 mm 2,2 UV-I 408 W/m² 11,0 °C 18,9 °C 8,0 km/h (2 Bft)
14.10.2017 15:31 18,8 °C 18,9 °C 61 % 1027,1 hPa 0,0 mm 3,8 km/h (1 Bft) O-NO 58 ° 1 min 0,000 mm 2,2 UV-I 406 W/m² 11,1 °C 18,8 °C 6,4 km/h (2 Bft)
14.10.2017 15:32 18,7 °C 18,8 °C 62 % 1027,0 hPa 0,0 mm 4,8 km/h (1 Bft) NO 55 ° 1 min 0,000 mm 2,2 UV-I 404 W/m² 11,3 °C 18,7 °C 8,0 km/h (2 Bft)
14.10.2017 15:33 18,8 °C 18,8 °C 61 % 1027,0 hPa 0,0 mm 3,4 km/h (1 Bft) O-NO 63 ° 1 min 0,000 mm 2,2 UV-I 401 W/m² 11,1 °C 18,8 °C 6,4 km/h (2 Bft)
14.10.2017 15:34 18,8 °C 18,8 °C 60 % 1027,0 hPa 0,0 mm 3,7 km/h (1 Bft) O-NO 70 ° 1 min 0,000 mm 2,2 UV-I 399 W/m² 10,9 °C 18,8 °C 6,4 km/h (2 Bft)
14.10.2017 15:35 18,7 °C 18,8 °C 64 % 1027,0 hPa 0,0 mm 4,6 km/h (1 Bft) O 84 ° 1 min 0,000 mm 2,1 UV-I 397 W/m² 11,7 °C 18,7 °C 6,4 km/h (2 Bft)
14.10.2017 15:36 18,7 °C 18,7 °C 61 % 1027,0 hPa 0,0 mm 1,0 km/h (0 Bft) O 84 ° 1 min 0,000 mm 2,1 UV-I 396 W/m² 11,0 °C 18,7 °C 1,6 km/h (1 Bft)
14.10.2017 15:37 18,7 °C 18,7 °C 58 % 1027,0 hPa 0,0 mm 1,7 km/h (1 Bft) O-NO 61 ° 1 min 0,000 mm 2,1 UV-I 394 W/m² 10,3 °C 18,7 °C 4,8 km/h (1 Bft)
14.10.2017 15:38 18,8 °C 18,8 °C 61 % 1026,9 hPa 0,0 mm 1,9 km/h (1 Bft) O-NO 61 ° 1 min 0,000 mm 2,1 UV-I 390 W/m² 11,1 °C 18,8 °C 3,2 km/h (1 Bft)
14.10.2017 15:39 18,8 °C 18,8 °C 59 % 1027,0 hPa 0,0 mm 3,5 km/h (1 Bft) O-NO 64 ° 1 min 0,000 mm 2,1 UV-I 388 W/m² 10,6 °C 18,8 °C 6,4 km/h (2 Bft)
14.10.2017 15:40 19,0 °C 19,0 °C 59 % 1027,0 hPa 0,0 mm 3,4 km/h (1 Bft) O-NO 74 ° 1 min 0,000 mm 2,1 UV-I 385 W/m² 10,8 °C 19,0 °C 4,8 km/h (1 Bft)
14.10.2017 15:41 19,1 °C 19,1 °C 58 % 1027,0 hPa 0,0 mm 3,4 km/h (1 Bft) O-NO 69 ° 1 min 0,000 mm 2,0 UV-I 383 W/m² 10,6 °C 19,1 °C 6,4 km/h (2 Bft)
14.10.2017 15:42 18,9 °C 19,1 °C 59 % 1026,9 hPa 0,0 mm 6,0 km/h (2 Bft) NO 55 ° 1 min 0,000 mm 2,0 UV-I 381 W/m² 10,7 °C 18,9 °C 8,0 km/h (2 Bft)
14.10.2017 15:43 18,8 °C 18,9 °C 60 % 1027,0 hPa 0,0 mm 1,3 km/h (1 Bft) NO 55 ° 1 min 0,000 mm 2,0 UV-I 380 W/m² 10,9 °C 18,8 °C 4,8 km/h (1 Bft)
14.10.2017 15:44 18,6 °C 18,8 °C 64 % 1027,0 hPa 0,0 mm 1,4 km/h (1 Bft) O-NO 76 ° 1 min 0,000 mm 2,0 UV-I 380 W/m² 11,7 °C 18,6 °C 6,4 km/h (2 Bft)
14.10.2017 15:45 18,4 °C 18,6 °C 62 % 1027,0 hPa 0,0 mm 3,8 km/h (1 Bft) O 88 ° 1 min 0,000 mm 2,0 UV-I 376 W/m² 11,0 °C 18,4 °C 8,0 km/h (2 Bft)
14.10.2017 15:46 18,5 °C 18,5 °C 59 % 1027,0 hPa 0,0 mm 1,5 km/h (1 Bft) O-NO 70 ° 1 min 0,000 mm 2,0 UV-I 374 W/m² 10,3 °C 18,5 °C 4,8 km/h (1 Bft)
14.10.2017 15:47 18,5 °C 18,5 °C 60 % 1027,1 hPa 0,0 mm 3,2 km/h (1 Bft) O 92 ° 1 min 0,000 mm 1,9 UV-I 371 W/m² 10,6 °C 18,5 °C 4,8 km/h (1 Bft)
14.10.2017 15:48 18,5 °C 18,5 °C 62 % 1027,0 hPa 0,0 mm 3,2 km/h (1 Bft) O 92 ° 1 min 0,000 mm 1,9 UV-I 369 W/m² 11,1 °C 18,5 °C 4,8 km/h (1 Bft)
14.10.2017 15:49 18,5 °C 18,5 °C 59 % 1027,0 hPa 0,0 mm 0,7 km/h (0 Bft) O 92 ° 1 min 0,000 mm 1,9 UV-I 367 W/m² 10,3 °C 18,5 °C 3,2 km/h (1 Bft)
14.10.2017 15:50 18,4 °C 18,5 °C 66 % 1027,0 hPa 0,0 mm 1,5 km/h (1 Bft) O-NO 58 ° 1 min 0,000 mm 1,9 UV-I 367 W/m² 11,9 °C 18,4 °C 3,2 km/h (1 Bft)
14.10.2017 15:51 18,2 °C 18,4 °C 69 % 1027,0 hPa 0,0 mm 3,4 km/h (1 Bft) O 80 ° 1 min 0,000 mm 1,9 UV-I 364 W/m² 12,4 °C 18,2 °C 4,8 km/h (1 Bft)
14.10.2017 15:52 18,1 °C 18,2 °C 61 % 1027,0 hPa 0,0 mm 2,1 km/h (1 Bft) O 80 ° 1 min 0,000 mm 1,8 UV-I 362 W/m² 10,5 °C 18,1 °C 3,2 km/h (1 Bft)
14.10.2017 15:53 18,2 °C 18,2 °C 60 % 1027,0 hPa 0,0 mm 4,2 km/h (1 Bft) O-NO 66 ° 1 min 0,000 mm 1,8 UV-I 359 W/m² 10,3 °C 18,2 °C 6,4 km/h (2 Bft)
14.10.2017 15:54 18,2 °C 18,2 °C 62 % 1027,0 hPa 0,0 mm 2,9 km/h (1 Bft) O-NO 66 ° 1 min 0,000 mm 1,8 UV-I 359 W/m² 10,8 °C 18,2 °C 4,8 km/h (1 Bft)
14.10.2017 15:55 18,4 °C 18,4 °C 59 % 1027,0 hPa 0,0 mm 5,2 km/h (1 Bft) NO 52 ° 1 min 0,000 mm 1,8 UV-I 355 W/m² 10,2 °C 18,4 °C 8,0 km/h (2 Bft)
14.10.2017 15:56 18,5 °C 18,5 °C 61 % 1027,0 hPa 0,0 mm 1,7 km/h (1 Bft) NO 55 ° 1 min 0,000 mm 1,8 UV-I 353 W/m² 10,8 °C 18,5 °C 3,2 km/h (1 Bft)
14.10.2017 15:57 18,6 °C 18,6 °C 59 % 1027,0 hPa 0,0 mm 2,5 km/h (1 Bft) O 90 ° 1 min 0,000 mm 1,8 UV-I 350 W/m² 10,4 °C 18,6 °C 9,7 km/h (2 Bft)
14.10.2017 15:58 18,4 °C 18,6 °C 61 % 1027,0 hPa 0,0 mm 4,0 km/h (1 Bft) O 100 ° 1 min 0,000 mm 1,7 UV-I 348 W/m² 10,7 °C 18,4 °C 8,0 km/h (2 Bft)
14.10.2017 15:59 18,2 °C 18,4 °C 60 % 1027,0 hPa 0,0 mm 0,3 km/h (0 Bft) O 100 ° 1 min 0,000 mm 1,7 UV-I 346 W/m² 10,3 °C 18,2 °C 1,6 km/h (1 Bft)
14.10.2017 16:00 18,3 °C 18,3 °C 59 % 1027,0 hPa 0,0 mm 0,0 km/h (0 Bft) O 100 ° 1 min 0,000 mm 1,7 UV-I 345 W/m² 10,1 °C 18,3 °C 0,0 km/h (0 Bft)
14.10.2017 16:01 18,3 °C 18,3 °C 58 % 1027,0 hPa 0,0 mm 1,9 km/h (1 Bft) O-SO 105 ° 1 min 0,254 mm 1,7 UV-I 343 W/m² 9,9 °C 18,3 °C 4,8 km/h (1 Bft)
14.10.2017 16:02 18,2 °C 18,3 °C 60 % 1027,0 hPa 0,0 mm 2,9 km/h (1 Bft) O 98 ° 1 min 0,000 mm 1,7 UV-I 341 W/m² 10,3 °C 18,2 °C 4,8 km/h (1 Bft)
14.10.2017 16:03 18,3 °C 18,3 °C 59 % 1027,0 hPa 0,0 mm 3,2 km/h (1 Bft) O-NO 64 ° 1 min 0,000 mm 1,7 UV-I 336 W/m² 10,1 °C 18,3 °C 4,8 km/h (1 Bft)
14.10.2017 16:04 18,3 °C 18,3 °C 59 % 1027,0 hPa 0,0 mm 1,9 km/h (1 Bft) O-NO 64 ° 1 min 0,000 mm 1,6 UV-I 334 W/m² 10,1 °C 18,3 °C 4,8 km/h (1 Bft)
14.10.2017 16:05 18,3 °C 18,3 °C 58 % 1027,0 hPa 0,0 mm 3,3 km/h (1 Bft) O-NO 76 ° 1 min 0,000 mm 1,6 UV-I 332 W/m² 9,9 °C 18,3 °C 4,8 km/h (1 Bft)
14.10.2017 16:06 18,2 °C 18,3 °C 58 % 1027,0 hPa 0,0 mm 1,3 km/h (1 Bft) O-NO 76 ° 1 min 0,000 mm 1,6 UV-I 330 W/m² 9,8 °C 18,2 °C 3,2 km/h (1 Bft)
14.10.2017 16:07 18,3 °C 18,3 °C 57 % 1026,9 hPa 0,0 mm 1,6 km/h (1 Bft) O 86 ° 1 min 0,000 mm 1,6 UV-I 329 W/m² 9,6 °C 18,3 °C 3,2 km/h (1 Bft)
14.10.2017 16:08 18,3 °C 18,3 °C 57 % 1027,0 hPa 0,0 mm 1,5 km/h (1 Bft) O 81 ° 1 min 0,000 mm 1,6 UV-I 327 W/m² 9,6 °C 18,3 °C 3,2 km/h (1 Bft)
14.10.2017 16:09 18,3 °C 18,4 °C 61 % 1027,0 hPa 0,0 mm 0,2 km/h (0 Bft) O 81 ° 1 min 0,000 mm 1,6 UV-I 322 W/m² 10,6 °C 18,3 °C 1,6 km/h (1 Bft)
14.10.2017 16:10 18,3 °C 18,3 °C 59 % 1027,0 hPa 0,0 mm 1,0 km/h (0 Bft) O 81 ° 1 min 0,000 mm 1,5 UV-I 320 W/m² 10,1 °C 18,3 °C 3,2 km/h (1 Bft)
14.10.2017 16:11 18,3 °C 18,3 °C 59 % 1027,0 hPa 0,0 mm 0,5 km/h (0 Bft) O 81 ° 1 min 0,000 mm 1,5 UV-I 318 W/m² 10,1 °C 18,3 °C 3,2 km/h (1 Bft)
14.10.2017 16:12 18,3 °C 18,3 °C 58 % 1027,0 hPa 0,0 mm 0,3 km/h (0 Bft) O 81 ° 1 min 0,000 mm 1,5 UV-I 316 W/m² 9,9 °C 18,3 °C 1,6 km/h (1 Bft)
14.10.2017 16:13 18,3 °C 18,3 °C 58 % 1027,0 hPa 0,0 mm 0,1 km/h (0 Bft) O 81 ° 1 min 0,000 mm 1,5 UV-I 313 W/m² 9,9 °C 18,3 °C 1,6 km/h (1 Bft)
14.10.2017 16:14 18,2 °C 18,3 °C 58 % 1027,0 hPa 0,0 mm 0,2 km/h (0 Bft) O 81 ° 0 min 0,000 mm 1,4 UV-I 272 W/m² 9,8 °C 18,2 °C 1,6 km/h (1 Bft)
14.10.2017 16:15 18,2 °C 18,3 °C 61 % 1027,0 hPa 0,0 mm 0,5 km/h (0 Bft) O 81 ° 0 min 0,000 mm 1,3 UV-I 121 W/m² 10,6 °C 18,2 °C 1,6 km/h (1 Bft)
14.10.2017 16:16 18,0 °C 18,2 °C 60 % 1027,0 hPa 0,0 mm 1,0 km/h (0 Bft) O 81 ° 0 min 0,000 mm 1,1 UV-I 102 W/m² 10,1 °C 18,0 °C 3,2 km/h (1 Bft)
14.10.2017 16:17 17,9 °C 18,0 °C 64 % 1027,0 hPa 0,0 mm 1,7 km/h (1 Bft) O 81 ° 0 min 0,000 mm 1,1 UV-I 69 W/m² 11,0 °C 17,9 °C 3,2 km/h (1 Bft)
14.10.2017 16:18 17,8 °C 17,9 °C 60 % 1027,0 hPa 0,0 mm 1,0 km/h (0 Bft) O 81 ° 0 min 0,000 mm 0,0 UV-I 49 W/m² 9,9 °C 17,8 °C 1,6 km/h (1 Bft)
14.10.2017 16:19 17,9 °C 17,9 °C 61 % 1027,0 hPa 0,0 mm 0,1 km/h (0 Bft) O 81 ° 0 min 0,000 mm 0,0 UV-I 49 W/m² 10,3 °C 17,9 °C 1,6 km/h (1 Bft)
14.10.2017 16:20 17,9 °C 18,0 °C 62 % 1027,0 hPa 0,0 mm 2,8 km/h (1 Bft) O-NO 75 ° 0 min 0,000 mm 0,0 UV-I 49 W/m² 10,5 °C 17,9 °C 4,8 km/h (1 Bft)
14.10.2017 16:21 17,9 °C 17,9 °C 61 % 1027,0 hPa 0,0 mm 3,5 km/h (1 Bft) O 89 ° 0 min 0,000 mm 0,0 UV-I 39 W/m² 10,3 °C 17,9 °C 6,4 km/h (2 Bft)
14.10.2017 16:22 17,9 °C 17,9 °C 63 % 1027,0 hPa 0,0 mm 2,5 km/h (1 Bft) O-NO 75 ° 0 min 0,000 mm 0,0 UV-I 35 W/m² 10,8 °C 17,9 °C 6,4 km/h (2 Bft)
14.10.2017 16:23 17,9 °C 17,9 °C 61 % 1027,0 hPa 0,0 mm 0,7 km/h (0 Bft) NO 56 ° 0 min 0,000 mm 0,0 UV-I 46 W/m² 10,3 °C 17,9 °C 3,2 km/h (1 Bft)
14.10.2017 16:24 17,9 °C 18,0 °C 62 % 1026,9 hPa 0,0 mm 0,0 km/h (0 Bft) NO 56 ° 0 min 0,000 mm 0,0 UV-I 51 W/m² 10,5 °C 17,9 °C 0,0 km/h (0 Bft)
14.10.2017 16:25 17,9 °C 18,0 °C 65 % 1027,0 hPa 0,0 mm 1,1 km/h (1 Bft) NO 56 ° 0 min 0,000 mm 0,0 UV-I 51 W/m² 11,2 °C 17,9 °C 1,6 km/h (1 Bft)
14.10.2017 16:26 17,8 °C 17,9 °C 65 % 1026,9 hPa 0,0 mm 2,1 km/h (1 Bft) NO 56 ° 0 min 0,000 mm 0,0 UV-I 39 W/m² 11,1 °C 17,8 °C 3,2 km/h (1 Bft)
14.10.2017 16:27 17,7 °C 17,8 °C 63 % 1027,0 hPa 0,0 mm 3,4 km/h (1 Bft) O-SO 119 ° 0 min 0,000 mm 0,0 UV-I 26 W/m² 10,6 °C 17,7 °C 6,4 km/h (2 Bft)
14.10.2017 16:28 17,7 °C 17,7 °C 63 % 1027,0 hPa 0,0 mm 0,0 km/h (0 Bft) O-SO 119 ° 0 min 0,000 mm 0,0 UV-I 25 W/m² 10,6 °C 17,7 °C 0,0 km/h (0 Bft)
14.10.2017 16:29 17,8 °C 17,8 °C 64 % 1027,0 hPa 0,0 mm 2,3 km/h (1 Bft) O-SO 118 ° 0 min 0,000 mm 0,0 UV-I 30 W/m² 10,9 °C 17,8 °C 6,4 km/h (2 Bft)
14.10.2017 16:30 17,8 °C 17,8 °C 64 % 1027,0 hPa 0,0 mm 1,3 km/h (1 Bft) O-SO 117 ° 0 min 0,000 mm 0,0 UV-I 39 W/m² 10,9 °C 17,8 °C 3,2 km/h (1 Bft)
14.10.2017 16:31 17,8 °C 17,8 °C 66 % 1027,0 hPa 0,0 mm 2,8 km/h (1 Bft) O 86 ° 0 min 0,000 mm 0,0 UV-I 42 W/m² 11,4 °C 17,8 °C 4,8 km/h (1 Bft)
14.10.2017 16:32 17,7 °C 17,8 °C 65 % 1027,0 hPa 0,0 mm 5,3 km/h (1 Bft) O-NO 69 ° 0 min 0,000 mm 0,0 UV-I 53 W/m² 11,0 °C 17,7 °C 9,7 km/h (2 Bft)
14.10.2017 16:33 17,6 °C 17,7 °C 67 % 1027,0 hPa 0,0 mm 2,2 km/h (1 Bft) O-NO 69 ° 0 min 0,000 mm 0,0 UV-I 44 W/m² 11,4 °C 17,6 °C 3,2 km/h (1 Bft)
14.10.2017 16:34 17,5 °C 17,6 °C 67 % 1027,0 hPa 0,0 mm 1,9 km/h (1 Bft) O 90 ° 0 min 0,000 mm 0,0 UV-I 39 W/m² 11,3 °C 17,5 °C 3,2 km/h (1 Bft)
14.10.2017 16:35 17,4 °C 17,5 °C 67 % 1027,0 hPa 0,0 mm 1,9 km/h (1 Bft) O-NO 69 ° 0 min 0,000 mm 0,0 UV-I 33 W/m² 11,2 °C 17,4 °C 4,8 km/h (1 Bft)
14.10.2017 16:36 17,3 °C 17,4 °C 68 % 1027,0 hPa 0,0 mm 2,7 km/h (1 Bft) O-NO 69 ° 0 min 0,000 mm 0,0 UV-I 26 W/m² 11,3 °C 17,3 °C 3,2 km/h (1 Bft)
14.10.2017 16:37 17,3 °C 17,3 °C 67 % 1027,0 hPa 0,0 mm 3,0 km/h (1 Bft) O-NO 74 ° 0 min 0,000 mm 0,0 UV-I 23 W/m² 11,1 °C 17,3 °C 4,8 km/h (1 Bft)
14.10.2017 16:38 17,4 °C 17,4 °C 67 % 1027,0 hPa 0,0 mm 1,7 km/h (1 Bft) O 81 ° 0 min 0,000 mm 0,0 UV-I 25 W/m² 11,2 °C 17,4 °C 6,4 km/h (2 Bft)
14.10.2017 16:39 17,6 °C 17,6 °C 67 % 1027,0 hPa 0,0 mm 3,0 km/h (1 Bft) NO 41 ° 0 min 0,000 mm 0,0 UV-I 23 W/m² 11,4 °C 17,6 °C 4,8 km/h (1 Bft)
14.10.2017 16:40 17,6 °C 17,6 °C 68 % 1027,0 hPa 0,0 mm 6,0 km/h (2 Bft) O 96 ° 0 min 0,000 mm 0,0 UV-I 23 W/m² 11,6 °C 17,6 °C 9,7 km/h (2 Bft)
14.10.2017 16:41 17,6 °C 17,6 °C 67 % 1027,0 hPa 0,0 mm 4,2 km/h (1 Bft) O-NO 66 ° 0 min 0,000 mm 0,0 UV-I 23 W/m² 11,4 °C 17,6 °C 9,7 km/h (2 Bft)
14.10.2017 16:42 17,6 °C 17,6 °C 67 % 1027,0 hPa 0,0 mm 2,4 km/h (1 Bft) O-NO 66 ° 0 min 0,000 mm 0,0 UV-I 21 W/m² 11,4 °C 17,6 °C 3,2 km/h (1 Bft)
14.10.2017 16:43 17,6 °C 17,6 °C 67 % 1027,0 hPa 0,0 mm 0,9 km/h (0 Bft) O-NO 66 ° 0 min 0,000 mm 0,0 UV-I 21 W/m² 11,4 °C 17,6 °C 1,6 km/h (1 Bft)
14.10.2017 16:44 17,7 °C 17,7 °C 67 % 1027,0 hPa 0,0 mm 0,1 km/h (0 Bft) O-NO 66 ° 0 min 0,000 mm 0,0 UV-I 21 W/m² 11,5 °C 17,7 °C 1,6 km/h (1 Bft)
14.10.2017 16:45 17,6 °C 17,7 °C 68 % 1027,0 hPa 0,0 mm 4,4 km/h (1 Bft) O-NO 59 ° 0 min 0,000 mm 0,0 UV-I 21 W/m² 11,6 °C 17,6 °C 6,4 km/h (2 Bft)
14.10.2017 16:46 17,6 °C 17,6 °C 67 % 1027,0 hPa 0,0 mm 3,2 km/h (1 Bft) O-NO 59 ° 0 min 0,000 mm 0,0 UV-I 21 W/m² 11,4 °C 17,6 °C 6,4 km/h (2 Bft)
14.10.2017 16:47 17,5 °C 17,6 °C 67 % 1027,0 hPa 0,0 mm 1,4 km/h (1 Bft) O-NO 59 ° 0 min 0,000 mm 0,0 UV-I 21 W/m² 11,3 °C 17,5 °C 3,2 km/h (1 Bft)
14.10.2017 16:48 17,5 °C 17,6 °C 68 % 1027,1 hPa 0,0 mm 4,8 km/h (1 Bft) O 82 ° 0 min 0,000 mm 0,0 UV-I 21 W/m² 11,5 °C 17,5 °C 6,4 km/h (2 Bft)
14.10.2017 16:49 17,4 °C 17,5 °C 69 % 1027,0 hPa 0,0 mm 2,1 km/h (1 Bft) O 82 ° 0 min 0,000 mm 0,0 UV-I 21 W/m² 11,7 °C 17,4 °C 4,8 km/h (1 Bft)
14.10.2017 16:50 17,4 °C 17,4 °C 67 % 1027,0 hPa 0,0 mm 5,0 km/h (1 Bft) O 86 ° 0 min 0,000 mm 0,0 UV-I 21 W/m² 11,2 °C 17,4 °C 11,3 km/h (2 Bft)
14.10.2017 16:51 17,4 °C 17,4 °C 67 % 1027,0 hPa 0,0 mm 3,8 km/h (1 Bft) O-NO 61 ° 0 min 0,000 mm 0,0 UV-I 21 W/m² 11,2 °C 17,4 °C 4,8 km/h (1 Bft)
14.10.2017 16:52 17,4 °C 17,4 °C 68 % 1027,0 hPa 0,0 mm 1,1 km/h (1 Bft) O-NO 61 ° 0 min 0,000 mm 0,0 UV-I 21 W/m² 11,4 °C 17,4 °C 3,2 km/h (1 Bft)
14.10.2017 16:53 17,4 °C 17,4 °C 67 % 1027,0 hPa 0,0 mm 2,2 km/h (1 Bft) O-NO 61 ° 0 min 0,000 mm 0,0 UV-I 21 W/m² 11,2 °C 17,4 °C 3,2 km/h (1 Bft)
14.10.2017 16:54 17,3 °C 17,4 °C 69 % 1027,0 hPa 0,0 mm 2,8 km/h (1 Bft) O-NO 61 ° 0 min 0,000 mm 0,0 UV-I 21 W/m² 11,6 °C 17,3 °C 4,8 km/h (1 Bft)
14.10.2017 16:55 17,3 °C 17,3 °C 69 % 1027,0 hPa 0,0 mm 3,2 km/h (1 Bft) O 93 ° 0 min 0,000 mm 0,0 UV-I 21 W/m² 11,6 °C 17,3 °C 4,8 km/h (1 Bft)
14.10.2017 16:56 17,3 °C 17,3 °C 68 % 1026,9 hPa 0,0 mm 2,8 km/h (1 Bft) O-NO 69 ° 0 min 0,000 mm 0,0 UV-I 21 W/m² 11,3 °C 17,3 °C 3,2 km/h (1 Bft)
14.10.2017 16:57 17,3 °C 17,3 °C 69 % 1027,0 hPa 0,0 mm 3,0 km/h (1 Bft) O-NO 74 ° 0 min 0,000 mm 0,0 UV-I 21 W/m² 11,6 °C 17,3 °C 4,8 km/h (1 Bft)
14.10.2017 16:58 17,3 °C 17,3 °C 67 % 1026,9 hPa 0,0 mm 1,3 km/h (1 Bft) O-NO 74 ° 0 min 0,000 mm 0,0 UV-I 21 W/m² 11,1 °C 17,3 °C 3,2 km/h (1 Bft)
14.10.2017 16:59 17,4 °C 17,4 °C 67 % 1026,9 hPa 0,0 mm 0,1 km/h (0 Bft) O-NO 74 ° 0 min 0,000 mm 0,0 UV-I 21 W/m² 11,2 °C 17,4 °C 1,6 km/h (1 Bft)
14.10.2017 17:00 17,4 °C 17,4 °C 67 % 1026,9 hPa 0,0 mm 1,2 km/h (1 Bft) O-NO 74 ° 0 min 0,000 mm 0,0 UV-I 21 W/m² 11,2 °C 17,4 °C 3,2 km/h (1 Bft)
14.10.2017 17:01 17,3 °C 17,4 °C 68 % 1026,9 hPa 0,0 mm 2,6 km/h (1 Bft) O-NO 74 ° 0 min 0,076 mm 0,0 UV-I 21 W/m² 11,3 °C 17,3 °C 4,8 km/h (1 Bft)
14.10.2017 17:02 17,2 °C 17,3 °C 68 % 1027,0 hPa 0,0 mm 2,1 km/h (1 Bft) O-NO 74 ° 0 min 0,000 mm 0,0 UV-I 21 W/m² 11,2 °C 17,2 °C 3,2 km/h (1 Bft)
14.10.2017 17:03 17,2 °C 17,2 °C 68 % 1027,0 hPa 0,0 mm 1,7 km/h (1 Bft) O-NO 74 ° 0 min 0,000 mm 0,0 UV-I 21 W/m² 11,2 °C 17,2 °C 3,2 km/h (1 Bft)
14.10.2017 17:04 17,3 °C 17,3 °C 68 % 1026,9 hPa 0,0 mm 0,7 km/h (0 Bft) O-NO 74 ° 0 min 0,000 mm 0,0 UV-I 21 W/m² 11,3 °C 17,3 °C 1,6 km/h (1 Bft)
14.10.2017 17:05 17,2 °C 17,3 °C 69 % 1026,9 hPa 0,0 mm 0,3 km/h (0 Bft) O-NO 74 ° 0 min 0,000 mm 0,0 UV-I 19 W/m² 11,5 °C 17,2 °C 1,6 km/h (1 Bft)
14.10.2017 17:06 17,0 °C 17,2 °C 70 % 1027,0 hPa 0,0 mm 0,0 km/h (0 Bft) O-NO 74 ° 0 min 0,000 mm 0,0 UV-I 19 W/m² 11,5 °C 17,0 °C 0,0 km/h (0 Bft)
14.10.2017 17:07 16,8 °C 17,0 °C 70 % 1026,9 hPa 0,0 mm 0,0 km/h (0 Bft) O-NO 74 ° 0 min 0,000 mm 0,0 UV-I 19 W/m² 11,3 °C 16,8 °C 0,0 km/h (0 Bft)
14.10.2017 17:08 16,8 °C 16,8 °C 69 % 1027,0 hPa 0,0 mm 0,0 km/h (0 Bft) O-NO 74 ° 0 min 0,000 mm 0,0 UV-I 19 W/m² 11,1 °C 16,8 °C 0,0 km/h (0 Bft)
14.10.2017 17:09 16,9 °C 16,9 °C 69 % 1026,9 hPa 0,0 mm 0,0 km/h (0 Bft) O-NO 74 ° 0 min 0,000 mm 0,0 UV-I 21 W/m² 11,2 °C 16,9 °C 0,0 km/h (0 Bft)
14.10.2017 17:10 16,9 °C 16,9 °C 70 % 1026,9 hPa 0,0 mm 0,0 km/h (0 Bft) O-NO 74 ° 0 min 0,000 mm 0,0 UV-I 19 W/m² 11,4 °C 16,9 °C 0,0 km/h (0 Bft)
14.10.2017 17:11 16,9 °C 16,9 °C 69 % 1026,9 hPa 0,0 mm 0,0 km/h (0 Bft) O-NO 74 ° 0 min 0,000 mm 0,0 UV-I 19 W/m² 11,2 °C 16,9 °C 0,0 km/h (0 Bft)
14.10.2017 17:12 17,0 °C 17,0 °C 68 % 1026,9 hPa 0,0 mm 0,0 km/h (0 Bft) O-NO 74 ° 0 min 0,000 mm 0,0 UV-I 19 W/m² 11,0 °C 17,0 °C 0,0 km/h (0 Bft)
14.10.2017 17:13 17,0 °C 17,1 °C 69 % 1026,9 hPa 0,0 mm 1,3 km/h (1 Bft) O-NO 74 ° 0 min 0,000 mm 0,0 UV-I 19 W/m² 11,3 °C 17,0 °C 4,8 km/h (1 Bft)
14.10.2017 17:14 16,9 °C 17,0 °C 68 % 1027,0 hPa 0,0 mm 1,2 km/h (1 Bft) O-NO 65 ° 0 min 0,000 mm 0,0 UV-I 19 W/m² 11,0 °C 16,9 °C 3,2 km/h (1 Bft)
14.10.2017 17:15 17,1 °C 17,1 °C 68 % 1026,9 hPa 0,0 mm 1,4 km/h (1 Bft) O-NO 65 ° 0 min 0,000 mm 0,0 UV-I 19 W/m² 11,1 °C 17,1 °C 3,2 km/h (1 Bft)
14.10.2017 17:16 17,0 °C 17,1 °C 68 % 1027,0 hPa 0,0 mm 2,1 km/h (1 Bft) O-NO 65 ° 0 min 0,000 mm 0,0 UV-I 19 W/m² 11,0 °C 17,0 °C 4,8 km/h (1 Bft)
14.10.2017 17:17 16,8 °C 17,0 °C 69 % 1026,9 hPa 0,0 mm 0,0 km/h (0 Bft) O-NO 65 ° 0 min 0,000 mm 0,0 UV-I 19 W/m² 11,1 °C 16,8 °C 0,0 km/h (0 Bft)
14.10.2017 17:18 16,7 °C 16,8 °C 69 % 1026,9 hPa 0,0 mm 0,7 km/h (0 Bft) O-NO 65 ° 0 min 0,000 mm 0,0 UV-I 19 W/m² 11,0 °C 16,7 °C 3,2 km/h (1 Bft)
14.10.2017 17:19 16,7 °C 16,7 °C 70 % 1026,9 hPa 0,0 mm 2,0 km/h (1 Bft) O-NO 65 ° 0 min 0,000 mm 0,0 UV-I 19 W/m² 11,2 °C 16,7 °C 4,8 km/h (1 Bft)
14.10.2017 17:20 16,6 °C 16,7 °C 69 % 1026,9 hPa 0,0 mm 3,4 km/h (1 Bft) O-NO 65 ° 0 min 0,000 mm 0,0 UV-I 19 W/m² 10,9 °C 16,6 °C 4,8 km/h (1 Bft)
14.10.2017 17:21 16,5 °C 16,6 °C 69 % 1026,9 hPa 0,0 mm 2,2 km/h (1 Bft) O-NO 65 ° 0 min 0,000 mm 0,0 UV-I 19 W/m² 10,8 °C 16,5 °C 4,8 km/h (1 Bft)
14.10.2017 17:22 16,4 °C 16,5 °C 70 % 1026,9 hPa 0,0 mm 1,5 km/h (1 Bft) O-NO 65 ° 0 min 0,000 mm 0,0 UV-I 19 W/m² 10,9 °C 16,4 °C 3,2 km/h (1 Bft)
14.10.2017 17:23 16,4 °C 16,4 °C 69 % 1026,9 hPa 0,0 mm 0,7 km/h (0 Bft) O-NO 65 ° 0 min 0,000 mm 0,0 UV-I 18 W/m² 10,7 °C 16,4 °C 3,2 km/h (1 Bft)
14.10.2017 17:24 16,4 °C 16,4 °C 70 % 1027,0 hPa 0,0 mm 2,7 km/h (1 Bft) O-NO 65 ° 0 min 0,000 mm 0,0 UV-I 18 W/m² 10,9 °C 16,4 °C 4,8 km/h (1 Bft)
14.10.2017 17:25 16,4 °C 16,4 °C 70 % 1026,9 hPa 0,0 mm 1,9 km/h (1 Bft) O-NO 65 ° 0 min 0,000 mm 0,0 UV-I 19 W/m² 10,9 °C 16,4 °C 3,2 km/h (1 Bft)
14.10.2017 17:26 16,6 °C 16,6 °C 69 % 1026,9 hPa 0,0 mm 0,7 km/h (0 Bft) O-NO 65 ° 0 min 0,000 mm 0,0 UV-I 21 W/m² 10,9 °C 16,6 °C 1,6 km/h (1 Bft)
14.10.2017 17:27 16,4 °C 16,6 °C 70 % 1027,0 hPa 0,0 mm 0,2 km/h (0 Bft) O-NO 65 ° 0 min 0,000 mm 0,0 UV-I 21 W/m² 10,9 °C 16,4 °C 1,6 km/h (1 Bft)
14.10.2017 17:28 16,4 °C 16,4 °C 70 % 1026,9 hPa 0,0 mm 0,0 km/h (0 Bft) O-NO 65 ° 0 min 0,000 mm 0,0 UV-I 19 W/m² 10,9 °C 16,4 °C 0,0 km/h (0 Bft)
14.10.2017 17:29 16,5 °C 16,5 °C 69 % 1026,9 hPa 0,0 mm 0,0 km/h (0 Bft) O-NO 65 ° 0 min 0,000 mm 0,0 UV-I 19 W/m² 10,8 °C 16,5 °C 0,0 km/h (0 Bft)
14.10.2017 17:30 16,6 °C 16,6 °C 69 % 1027,0 hPa 0,0 mm 0,4 km/h (0 Bft) O-NO 65 ° 0 min 0,000 mm 0,0 UV-I 23 W/m² 10,9 °C 16,6 °C 1,6 km/h (1 Bft)
14.10.2017 17:31 16,6 °C 16,7 °C 70 % 1026,9 hPa 0,0 mm 1,5 km/h (1 Bft) O-NO 65 ° 0 min 0,000 mm 0,0 UV-I 21 W/m² 11,1 °C 16,6 °C 3,2 km/h (1 Bft)
14.10.2017 17:32 16,4 °C 16,6 °C 69 % 1026,8 hPa 0,0 mm 0,2 km/h (0 Bft) O-NO 65 ° 0 min 0,000 mm 0,0 UV-I 19 W/m² 10,7 °C 16,4 °C 1,6 km/h (1 Bft)
14.10.2017 17:33 16,3 °C 16,4 °C 70 % 1026,9 hPa 0,0 mm 0,1 km/h (0 Bft) O-NO 65 ° 0 min 0,000 mm 0,0 UV-I 18 W/m² 10,8 °C 16,3 °C 1,6 km/h (1 Bft)
14.10.2017 17:34 16,4 °C 16,4 °C 69 % 1026,9 hPa 0,0 mm 0,8 km/h (0 Bft) O-NO 65 ° 0 min 0,000 mm 0,0 UV-I 18 W/m² 10,7 °C 16,4 °C 1,6 km/h (1 Bft)
14.10.2017 17:35 16,5 °C 16,5 °C 69 % 1026,8 hPa 0,0 mm 0,0 km/h (0 Bft) O-NO 65 ° 0 min 0,000 mm 0,0 UV-I 16 W/m² 10,8 °C 16,5 °C 0,0 km/h (0 Bft)
14.10.2017 17:36 16,6 °C 16,6 °C 69 % 1026,9 hPa 0,0 mm 0,0 km/h (0 Bft) O-NO 65 ° 0 min 0,000 mm 0,0 UV-I 16 W/m² 10,9 °C 16,6 °C 0,0 km/h (0 Bft)
14.10.2017 17:37 16,7 °C 16,7 °C 68 % 1026,9 hPa 0,0 mm 0,0 km/h (0 Bft) O-NO 65 ° 0 min 0,000 mm 0,0 UV-I 18 W/m² 10,8 °C 16,7 °C 0,0 km/h (0 Bft)
14.10.2017 17:38 16,8 °C 16,8 °C 68 % 1026,8 hPa 0,0 mm 1,5 km/h (1 Bft) O-NO 65 ° 0 min 0,000 mm 0,0 UV-I 18 W/m² 10,9 °C 16,8 °C 3,2 km/h (1 Bft)
14.10.2017 17:39 16,8 °C 16,8 °C 68 % 1026,8 hPa 0,0 mm 1,7 km/h (1 Bft) O-NO 65 ° 0 min 0,000 mm 0,0 UV-I 16 W/m² 10,9 °C 16,8 °C 3,2 km/h (1 Bft)
14.10.2017 17:40 16,7 °C 16,8 °C 68 % 1026,9 hPa 0,0 mm 0,7 km/h (0 Bft) O-NO 65 ° 0 min 0,000 mm 0,0 UV-I 16 W/m² 10,8 °C 16,7 °C 3,2 km/h (1 Bft)
14.10.2017 17:41 16,7 °C 16,8 °C 68 % 1026,9 hPa 0,0 mm 1,0 km/h (0 Bft) O-NO 65 ° 0 min 0,000 mm 0,0 UV-I 16 W/m² 10,8 °C 16,7 °C 1,6 km/h (1 Bft)
14.10.2017 17:42 16,7 °C 16,7 °C 68 % 1026,9 hPa 0,0 mm 0,0 km/h (0 Bft) O-NO 65 ° 0 min 0,000 mm 0,0 UV-I 14 W/m² 10,8 °C 16,7 °C 0,0 km/h (0 Bft)
14.10.2017 17:43 16,7 °C 16,7 °C 68 % 1026,9 hPa 0,0 mm 0,0 km/h (0 Bft) O-NO 65 ° 0 min 0,000 mm 0,0 UV-I 14 W/m² 10,8 °C 16,7 °C 0,0 km/h (0 Bft)
14.10.2017 17:44 16,7 °C 16,7 °C 68 % 1026,9 hPa 0,0 mm 0,0 km/h (0 Bft) O-NO 65 ° 0 min 0,000 mm 0,0 UV-I 14 W/m² 10,8 °C 16,7 °C 0,0 km/h (0 Bft)
14.10.2017 17:45 16,7 °C 16,7 °C 68 % 1026,9 hPa 0,0 mm 0,0 km/h (0 Bft) O-NO 65 ° 0 min 0,000 mm 0,0 UV-I 14 W/m² 10,8 °C 16,7 °C 0,0 km/h (0 Bft)
14.10.2017 17:46 16,7 °C 16,7 °C 68 % 1026,9 hPa 0,0 mm 0,0 km/h (0 Bft) O-NO 65 ° 0 min 0,000 mm 0,0 UV-I 14 W/m² 10,8 °C 16,7 °C 0,0 km/h (0 Bft)
14.10.2017 17:47 16,7 °C 16,7 °C 68 % 1026,9 hPa 0,0 mm 0,0 km/h (0 Bft) O-NO 65 ° 0 min 0,000 mm 0,0 UV-I 14 W/m² 10,8 °C 16,7 °C 0,0 km/h (0 Bft)
14.10.2017 17:48 16,6 °C 16,7 °C 68 % 1026,9 hPa 0,0 mm 0,0 km/h (0 Bft) O-NO 65 ° 0 min 0,000 mm 0,0 UV-I 14 W/m² 10,7 °C 16,6 °C 0,0 km/h (0 Bft)
14.10.2017 17:49 16,6 °C 16,6 °C 68 % 1026,9 hPa 0,0 mm 0,0 km/h (0 Bft) O-NO 65 ° 0 min 0,000 mm 0,0 UV-I 14 W/m² 10,7 °C 16,6 °C 0,0 km/h (0 Bft)
14.10.2017 17:50 16,6 °C 16,6 °C 67 % 1026,9 hPa 0,0 mm 0,0 km/h (0 Bft) O-NO 65 ° 0 min 0,000 mm 0,0 UV-I 14 W/m² 10,4 °C 16,6 °C 0,0 km/h (0 Bft)
14.10.2017 17:51 16,6 °C 16,7 °C 68 % 1026,9 hPa 0,0 mm 1,6 km/h (1 Bft) O-NO 65 ° 0 min 0,000 mm 0,0 UV-I 14 W/m² 10,7 °C 16,6 °C 3,2 km/h (1 Bft)
14.10.2017 17:52 16,7 °C 16,7 °C 68 % 1026,9 hPa 0,0 mm 0,9 km/h (0 Bft) O-NO 65 ° 0 min 0,000 mm 0,0 UV-I 14 W/m² 10,8 °C 16,7 °C 1,6 km/h (1 Bft)
14.10.2017 17:53 16,6 °C 16,7 °C 68 % 1026,9 hPa 0,0 mm 0,0 km/h (0 Bft) O-NO 65 ° 0 min 0,000 mm 0,0 UV-I 12 W/m² 10,7 °C 16,6 °C 0,0 km/h (0 Bft)
14.10.2017 17:54 16,6 °C 16,6 °C 68 % 1027,0 hPa 0,0 mm 0,0 km/h (0 Bft) O-NO 65 ° 0 min 0,000 mm 0,0 UV-I 12 W/m² 10,7 °C 16,6 °C 0,0 km/h (0 Bft)
14.10.2017 17:55 16,6 °C 16,6 °C 68 % 1026,9 hPa 0,0 mm 0,0 km/h (0 Bft) O-NO 65 ° 0 min 0,000 mm 0,0 UV-I 12 W/m² 10,7 °C 16,6 °C 0,0 km/h (0 Bft)
14.10.2017 17:56 16,4 °C 16,6 °C 69 % 1027,0 hPa 0,0 mm 0,0 km/h (0 Bft) O-NO 65 ° 0 min 0,000 mm 0,0 UV-I 12 W/m² 10,7 °C 16,4 °C 0,0 km/h (0 Bft)
14.10.2017 17:57 16,4 °C 16,4 °C 69 % 1027,0 hPa 0,0 mm 0,0 km/h (0 Bft) O-NO 65 ° 0 min 0,000 mm 0,0 UV-I 12 W/m² 10,7 °C 16,4 °C 0,0 km/h (0 Bft)
14.10.2017 17:58 16,3 °C 16,4 °C 69 % 1027,0 hPa 0,0 mm 0,0 km/h (0 Bft) O-NO 65 ° 0 min 0,000 mm 0,0 UV-I 12 W/m² 10,6 °C 16,3 °C 0,0 km/h (0 Bft)
14.10.2017 17:59 16,1 °C 16,3 °C 70 % 1027,0 hPa 0,0 mm 0,1 km/h (0 Bft) O-NO 65 ° 0 min 0,000 mm 0,0 UV-I 12 W/m² 10,6 °C 16,1 °C 1,6 km/h (1 Bft)
14.10.2017 18:00 16,0 °C 16,1 °C 70 % 1027,0 hPa 0,0 mm 0,0 km/h (0 Bft) O-NO 65 ° 0 min 0,000 mm 0,0 UV-I 11 W/m² 10,5 °C 16,0 °C 0,0 km/h (0 Bft)
14.10.2017 18:01 16,0 °C 16,0 °C 71 % 1027,0 hPa 0,0 mm 0,6 km/h (0 Bft) O-NO 65 ° 0 min 0,026 mm 0,0 UV-I 11 W/m² 10,7 °C 16,0 °C 1,6 km/h (1 Bft)
14.10.2017 18:02 15,9 °C 16,0 °C 70 % 1027,0 hPa 0,0 mm 1,2 km/h (1 Bft) O-NO 65 ° 0 min 0,000 mm 0,0 UV-I 11 W/m² 10,4 °C 15,9 °C 1,6 km/h (1 Bft)
14.10.2017 18:03 16,0 °C 16,0 °C 70 % 1027,0 hPa 0,0 mm 0,2 km/h (0 Bft) O-NO 65 ° 0 min 0,000 mm 0,0 UV-I 11 W/m² 10,5 °C 16,0 °C 1,6 km/h (1 Bft)
14.10.2017 18:04 16,1 °C 16,1 °C 70 % 1027,0 hPa 0,0 mm 0,5 km/h (0 Bft) O-NO 65 ° 0 min 0,000 mm 0,0 UV-I 11 W/m² 10,6 °C 16,1 °C 1,6 km/h (1 Bft)
14.10.2017 18:05 16,1 °C 16,1 °C 70 % 1027,0 hPa 0,0 mm 2,0 km/h (1 Bft) O-NO 65 ° 0 min 0,000 mm 0,0 UV-I 11 W/m² 10,6 °C 16,1 °C 3,2 km/h (1 Bft)
14.10.2017 18:06 16,1 °C 16,1 °C 70 % 1027,0 hPa 0,0 mm 2,5 km/h (1 Bft) O-NO 65 ° 0 min 0,000 mm 0,0 UV-I 11 W/m² 10,6 °C 16,1 °C 3,2 km/h (1 Bft)
14.10.2017 18:07 16,1 °C 16,1 °C 70 % 1027,0 hPa 0,0 mm 1,3 km/h (1 Bft) O-NO 65 ° 0 min 0,000 mm 0,0 UV-I 11 W/m² 10,6 °C 16,1 °C 3,2 km/h (1 Bft)
14.10.2017 18:08 16,1 °C 16,1 °C 70 % 1027,0 hPa 0,0 mm 1,7 km/h (1 Bft) O-NO 65 ° 0 min 0,000 mm 0,0 UV-I 9 W/m² 10,6 °C 16,1 °C 3,2 km/h (1 Bft)
14.10.2017 18:09 16,1 °C 16,1 °C 71 % 1027,0 hPa 0,0 mm 1,6 km/h (1 Bft) O-NO 65 ° 0 min 0,000 mm 0,0 UV-I 9 W/m² 10,8 °C 16,1 °C 1,6 km/h (1 Bft)
14.10.2017 18:10 16,1 °C 16,1 °C 71 % 1027,0 hPa 0,0 mm 2,0 km/h (1 Bft) O-NO 65 ° 0 min 0,000 mm 0,0 UV-I 9 W/m² 10,8 °C 16,1 °C 3,2 km/h (1 Bft)
14.10.2017 18:11 16,0 °C 16,1 °C 71 % 1027,0 hPa 0,0 mm 1,1 km/h (1 Bft) O-NO 65 ° 0 min 0,000 mm 0,0 UV-I 9 W/m² 10,7 °C 16,0 °C 1,6 km/h (1 Bft)
14.10.2017 18:12 15,9 °C 16,0 °C 71 % 1027,0 hPa 0,0 mm 0,0 km/h (0 Bft) O-NO 65 ° 0 min 0,000 mm 0,0 UV-I 9 W/m² 10,6 °C 15,9 °C 0,0 km/h (0 Bft)
14.10.2017 18:13 15,8 °C 15,9 °C 71 % 1027,0 hPa 0,0 mm 0,0 km/h (0 Bft) O-NO 65 ° 0 min 0,000 mm 0,0 UV-I 9 W/m² 10,6 °C 15,8 °C 0,0 km/h (0 Bft)
14.10.2017 18:14 15,7 °C 15,8 °C 72 % 1027,0 hPa 0,0 mm 0,0 km/h (0 Bft) O-NO 65 ° 0 min 0,000 mm 0,0 UV-I 9 W/m² 10,7 °C 15,7 °C 0,0 km/h (0 Bft)
14.10.2017 18:15 15,7 °C 15,7 °C 72 % 1027,0 hPa 0,0 mm 0,0 km/h (0 Bft) O-NO 65 ° 0 min 0,000 mm 0,0 UV-I 7 W/m² 10,7 °C 15,7 °C 0,0 km/h (0 Bft)
14.10.2017 18:16 15,6 °C 15,7 °C 73 % 1027,0 hPa 0,0 mm 0,0 km/h (0 Bft) O-NO 65 ° 0 min 0,000 mm 0,0 UV-I 7 W/m² 10,8 °C 15,6 °C 0,0 km/h (0 Bft)
14.10.2017 18:17 15,4 °C 15,6 °C 73 % 1027,0 hPa 0,0 mm 0,0 km/h (0 Bft) O-NO 65 ° 0 min 0,000 mm 0,0 UV-I 7 W/m² 10,6 °C 15,4 °C 0,0 km/h (0 Bft)
14.10.2017 18:18 15,3 °C 15,4 °C 74 % 1027,0 hPa 0,0 mm 0,0 km/h (0 Bft) O-NO 65 ° 0 min 0,000 mm 0,0 UV-I 7 W/m² 10,7 °C 15,3 °C 0,0 km/h (0 Bft)
14.10.2017 18:19 15,3 °C 15,3 °C 73 % 1027,0 hPa 0,0 mm 0,7 km/h (0 Bft) O-NO 65 ° 0 min 0,000 mm 0,0 UV-I 7 W/m² 10,5 °C 15,3 °C 1,6 km/h (1 Bft)
14.10.2017 18:20 15,2 °C 15,3 °C 73 % 1027,0 hPa 0,0 mm 0,0 km/h (0 Bft) O-NO 65 ° 0 min 0,000 mm 0,0 UV-I 7 W/m² 10,4 °C 15,2 °C 0,0 km/h (0 Bft)
14.10.2017 18:21 15,2 °C 15,2 °C 74 % 1027,0 hPa 0,0 mm 0,0 km/h (0 Bft) O-NO 65 ° 0 min 0,000 mm 0,0 UV-I 7 W/m² 10,6 °C 15,2 °C 0,0 km/h (0 Bft)
14.10.2017 18:22 15,1 °C 15,2 °C 75 % 1027,1 hPa 0,0 mm 0,0 km/h (0 Bft) O-NO 65 ° 0 min 0,000 mm 0,0 UV-I 5 W/m² 10,7 °C 15,1 °C 0,0 km/h (0 Bft)
14.10.2017 18:23 15,1 °C 15,1 °C 75 % 1027,1 hPa 0,0 mm 0,0 km/h (0 Bft) O-NO 65 ° 0 min 0,000 mm 0,0 UV-I 5 W/m² 10,7 °C 15,1 °C 0,0 km/h (0 Bft)
14.10.2017 18:24 15,0 °C 15,1 °C 75 % 1027,0 hPa 0,0 mm 0,0 km/h (0 Bft) O-NO 65 ° 0 min 0,000 mm 0,0 UV-I 5 W/m² 10,6 °C 15,0 °C 0,0 km/h (0 Bft)
14.10.2017 18:25 14,9 °C 15,0 °C 75 % 1027,1 hPa 0,0 mm 1,5 km/h (1 Bft) O-NO 65 ° 0 min 0,000 mm 0,0 UV-I 5 W/m² 10,5 °C 14,9 °C 3,2 km/h (1 Bft)
14.10.2017 18:26 14,9 °C 15,0 °C 75 % 1027,1 hPa 0,0 mm 2,2 km/h (1 Bft) O-NO 65 ° 0 min 0,000 mm 0,0 UV-I 5 W/m² 10,5 °C 14,9 °C 3,2 km/h (1 Bft)
14.10.2017 18:27 14,9 °C 14,9 °C 74 % 1027,0 hPa 0,0 mm 0,7 km/h (0 Bft) O-NO 65 ° 0 min 0,000 mm 0,0 UV-I 5 W/m² 10,3 °C 14,9 °C 1,6 km/h (1 Bft)
14.10.2017 18:28 14,8 °C 14,9 °C 74 % 1027,1 hPa 0,0 mm 0,7 km/h (0 Bft) O-NO 65 ° 0 min 0,000 mm 0,0 UV-I 5 W/m² 10,2 °C 14,8 °C 1,6 km/h (1 Bft)
14.10.2017 18:29 14,6 °C 14,8 °C 75 % 1027,1 hPa 0,0 mm 0,2 km/h (0 Bft) O-NO 65 ° 0 min 0,000 mm 0,0 UV-I 0 W/m² 10,2 °C 14,6 °C 1,6 km/h (1 Bft)
14.10.2017 18:30 14,4 °C 14,6 °C 75 % 1027,1 hPa 0,0 mm 0,4 km/h (0 Bft) O-NO 65 ° 0 min 0,000 mm 0,0 UV-I 0 W/m² 10,0 °C 14,4 °C 1,6 km/h (1 Bft)
14.10.2017 18:31 14,2 °C 14,4 °C 76 % 1027,1 hPa 0,0 mm 0,9 km/h (0 Bft) O-NO 65 ° 0 min 0,000 mm 0,0 UV-I 0 W/m² 10,0 °C 14,2 °C 3,2 km/h (1 Bft)
14.10.2017 18:32 14,0 °C 14,2 °C 77 % 1027,1 hPa 0,0 mm 1,1 km/h (1 Bft) O-NO 65 ° 0 min 0,000 mm 0,0 UV-I 0 W/m² 10,0 °C 14,0 °C 1,6 km/h (1 Bft)
14.10.2017 18:33 13,9 °C 14,0 °C 78 % 1027,1 hPa 0,0 mm 0,5 km/h (0 Bft) O-NO 65 ° 0 min 0,000 mm 0,0 UV-I 0 W/m² 10,1 °C 13,9 °C 1,6 km/h (1 Bft)
14.10.2017 18:34 13,8 °C 13,9 °C 78 % 1027,2 hPa 0,0 mm 1,9 km/h (1 Bft) O-NO 65 ° 0 min 0,000 mm 0,0 UV-I 0 W/m² 10,0 °C 13,8 °C 3,2 km/h (1 Bft)
14.10.2017 18:35 13,7 °C 13,8 °C 78 % 1027,1 hPa 0,0 mm 1,0 km/h (0 Bft) O-NO 65 ° 0 min 0,000 mm 0,0 UV-I 0 W/m² 9,9 °C 13,7 °C 1,6 km/h (1 Bft)
14.10.2017 18:36 13,6 °C 13,7 °C 79 % 1027,1 hPa 0,0 mm 0,1 km/h (0 Bft) O-NO 65 ° 0 min 0,000 mm 0,0 UV-I 0 W/m² 10,0 °C 13,6 °C 1,6 km/h (1 Bft)
14.10.2017 18:37 13,6 °C 13,6 °C 79 % 1027,2 hPa 0,0 mm 0,2 km/h (0 Bft) O-NO 65 ° 0 min 0,000 mm 0,0 UV-I 0 W/m² 10,0 °C 13,6 °C 1,6 km/h (1 Bft)
14.10.2017 18:38 13,6 °C 13,6 °C 80 % 1027,1 hPa 0,0 mm 1,1 km/h (1 Bft) O-NO 65 ° 0 min 0,000 mm 0,0 UV-I 0 W/m² 10,2 °C 13,6 °C 3,2 km/h (1 Bft)
14.10.2017 18:39 13,4 °C 13,6 °C 79 % 1027,1 hPa 0,0 mm 0,0 km/h (0 Bft) O-NO 65 ° 0 min 0,000 mm 0,0 UV-I 0 W/m² 9,8 °C 13,4 °C 0,0 km/h (0 Bft)
14.10.2017 18:40 13,3 °C 13,4 °C 80 % 1027,1 hPa 0,0 mm 0,0 km/h (0 Bft) O-NO 65 ° 0 min 0,000 mm 0,0 UV-I 0 W/m² 9,9 °C 13,3 °C 0,0 km/h (0 Bft)
14.10.2017 18:41 13,4 °C 13,4 °C 81 % 1027,2 hPa 0,0 mm 0,8 km/h (0 Bft) O-NO 65 ° 0 min 0,000 mm 0,0 UV-I 0 W/m² 10,2 °C 13,4 °C 1,6 km/h (1 Bft)
14.10.2017 18:42 13,3 °C 13,4 °C 81 % 1027,2 hPa 0,0 mm 0,4 km/h (0 Bft) O-NO 65 ° 0 min 0,000 mm 0,0 UV-I 0 W/m² 10,1 °C 13,3 °C 1,6 km/h (1 Bft)
14.10.2017 18:43 13,2 °C 13,3 °C 81 % 1027,2 hPa 0,0 mm 1,1 km/h (1 Bft) O-NO 65 ° 0 min 0,000 mm 0,0 UV-I 0 W/m² 10,0 °C 13,2 °C 3,2 km/h (1 Bft)
14.10.2017 18:44 13,2 °C 13,2 °C 81 % 1027,2 hPa 0,0 mm 0,6 km/h (0 Bft) O-NO 65 ° 0 min 0,000 mm 0,0 UV-I 0 W/m² 10,0 °C 13,2 °C 1,6 km/h (1 Bft)
14.10.2017 18:45 13,2 °C 13,2 °C 82 % 1027,2 hPa 0,0 mm 1,4 km/h (1 Bft) O-NO 65 ° 0 min 0,000 mm 0,0 UV-I 0 W/m² 10,2 °C 13,2 °C 3,2 km/h (1 Bft)
14.10.2017 18:46 13,1 °C 13,2 °C 82 % 1027,2 hPa 0,0 mm 1,9 km/h (1 Bft) O-NO 65 ° 0 min 0,000 mm 0,0 UV-I 0 W/m² 10,1 °C 13,1 °C 3,2 km/h (1 Bft)
14.10.2017 18:47 13,1 °C 13,1 °C 82 % 1027,2 hPa 0,0 mm 0,9 km/h (0 Bft) O-NO 65 ° 0 min 0,000 mm 0,0 UV-I 0 W/m² 10,1 °C 13,1 °C 1,6 km/h (1 Bft)
14.10.2017 18:48 13,1 °C 13,1 °C 81 % 1027,2 hPa 0,0 mm 0,0 km/h (0 Bft) O-NO 65 ° 0 min 0,000 mm 0,0 UV-I 0 W/m² 9,9 °C 13,1 °C 0,0 km/h (0 Bft)
14.10.2017 18:49 13,1 °C 13,1 °C 81 % 1027,2 hPa 0,0 mm 0,8 km/h (0 Bft) O-NO 65 ° 0 min 0,000 mm 0,0 UV-I 0 W/m² 9,9 °C 13,1 °C 3,2 km/h (1 Bft)
14.10.2017 18:50 13,1 °C 13,1 °C 82 % 1027,2 hPa 0,0 mm 0,1 km/h (0 Bft) O-NO 65 ° 0 min 0,000 mm 0,0 UV-I 0 W/m² 10,1 °C 13,1 °C 1,6 km/h (1 Bft)
14.10.2017 18:51 12,9 °C 13,1 °C 82 % 1027,2 hPa 0,0 mm 0,3 km/h (0 Bft) O-NO 65 ° 0 min 0,000 mm 0,0 UV-I 0 W/m² 9,9 °C 12,9 °C 1,6 km/h (1 Bft)
14.10.2017 18:52 12,8 °C 12,9 °C 81 % 1027,2 hPa 0,0 mm 0,0 km/h (0 Bft) O-NO 65 ° 0 min 0,000 mm 0,0 UV-I 0 W/m² 9,6 °C 12,8 °C 0,0 km/h (0 Bft)
14.10.2017 18:53 12,8 °C 12,8 °C 82 % 1027,2 hPa 0,0 mm 0,1 km/h (0 Bft) O-NO 65 ° 0 min 0,000 mm 0,0 UV-I 0 W/m² 9,8 °C 12,8 °C 1,6 km/h (1 Bft)
14.10.2017 18:54 12,7 °C 12,8 °C 82 % 1027,2 hPa 0,0 mm 0,0 km/h (0 Bft) O-NO 65 ° 0 min 0,000 mm 0,0 UV-I 0 W/m² 9,7 °C 12,7 °C 0,0 km/h (0 Bft)
14.10.2017 18:55 12,7 °C 12,7 °C 82 % 1027,2 hPa 0,0 mm 0,0 km/h (0 Bft) O-NO 65 ° 0 min 0,000 mm 0,0 UV-I 0 W/m² 9,7 °C 12,7 °C 0,0 km/h (0 Bft)
14.10.2017 18:56 12,6 °C 12,7 °C 82 % 1027,3 hPa 0,0 mm 0,0 km/h (0 Bft) O-NO 65 ° 0 min 0,000 mm 0,0 UV-I 0 W/m² 9,6 °C 12,6 °C 0,0 km/h (0 Bft)
14.10.2017 18:57 12,4 °C 12,6 °C 83 % 1027,2 hPa 0,0 mm 0,0 km/h (0 Bft) O-NO 65 ° 0 min 0,000 mm 0,0 UV-I 0 W/m² 9,6 °C 12,4 °C 0,0 km/h (0 Bft)
14.10.2017 18:58 12,4 °C 12,4 °C 83 % 1027,2 hPa 0,0 mm 0,0 km/h (0 Bft) O-NO 65 ° 0 min 0,000 mm 0,0 UV-I 0 W/m² 9,6 °C 12,4 °C 0,0 km/h (0 Bft)
14.10.2017 18:59 12,3 °C 12,4 °C 83 % 1027,3 hPa 0,0 mm 0,0 km/h (0 Bft) O-NO 65 ° 0 min 0,000 mm 0,0 UV-I 0 W/m² 9,5 °C 12,3 °C 0,0 km/h (0 Bft)
14.10.2017 19:00 12,2 °C 12,3 °C 83 % 1027,2 hPa 0,0 mm 0,0 km/h (0 Bft) O-NO 65 ° 0 min 0,000 mm 0,0 UV-I 0 W/m² 9,4 °C 12,2 °C 0,0 km/h (0 Bft)
14.10.2017 19:01 12,2 °C 12,2 °C 83 % 1027,2 hPa 0,0 mm 0,0 km/h (0 Bft) O-NO 65 ° 0 min 0,000 mm 0,0 UV-I 0 W/m² 9,4 °C 12,2 °C 0,0 km/h (0 Bft)
14.10.2017 19:02 12,3 °C 12,3 °C 84 % 1027,3 hPa 0,0 mm 0,0 km/h (0 Bft) O-NO 65 ° 0 min 0,000 mm 0,0 UV-I 0 W/m² 9,7 °C 12,3 °C 0,0 km/h (0 Bft)
14.10.2017 19:03 12,2 °C 12,3 °C 83 % 1027,2 hPa 0,0 mm 0,0 km/h (0 Bft) O-NO 65 ° 0 min 0,000 mm 0,0 UV-I 0 W/m² 9,4 °C 12,2 °C 0,0 km/h (0 Bft)
14.10.2017 19:04 12,2 °C 12,2 °C 83 % 1027,3 hPa 0,0 mm 0,0 km/h (0 Bft) O-NO 65 ° 0 min 0,000 mm 0,0 UV-I 0 W/m² 9,4 °C 12,2 °C 0,0 km/h (0 Bft)
14.10.2017 19:05 12,1 °C 12,2 °C 84 % 1027,3 hPa 0,0 mm 0,0 km/h (0 Bft) O-NO 65 ° 0 min 0,000 mm 0,0 UV-I 0 W/m² 9,5 °C 12,1 °C 0,0 km/h (0 Bft)
14.10.2017 19:06 11,9 °C 12,1 °C 83 % 1027,3 hPa 0,0 mm 0,0 km/h (0 Bft) O-NO 65 ° 0 min 0,000 mm 0,0 UV-I 0 W/m² 9,1 °C 11,9 °C 0,0 km/h (0 Bft)
14.10.2017 19:07 11,9 °C 11,9 °C 84 % 1027,3 hPa 0,0 mm 0,1 km/h (0 Bft) O-NO 65 ° 0 min 0,000 mm 0,0 UV-I 0 W/m² 9,3 °C 11,9 °C 1,6 km/h (1 Bft)
14.10.2017 19:08 11,9 °C 11,9 °C 85 % 1027,3 hPa 0,0 mm 0,3 km/h (0 Bft) O-NO 65 ° 0 min 0,000 mm 0,0 UV-I 0 W/m² 9,5 °C 11,9 °C 1,6 km/h (1 Bft)
14.10.2017 19:09 11,9 °C 11,9 °C 85 % 1027,3 hPa 0,0 mm 0,0 km/h (0 Bft) O-NO 65 ° 0 min 0,000 mm 0,0 UV-I 0 W/m² 9,5 °C 11,9 °C 0,0 km/h (0 Bft)
14.10.2017 19:10 11,9 °C 11,9 °C 84 % 1027,3 hPa 0,0 mm 0,0 km/h (0 Bft) O-NO 65 ° 0 min 0,000 mm 0,0 UV-I 0 W/m² 9,3 °C 11,9 °C 0,0 km/h (0 Bft)
14.10.2017 19:11 11,8 °C 11,9 °C 84 % 1027,3 hPa 0,0 mm 0,0 km/h (0 Bft) O-NO 65 ° 0 min 0,000 mm 0,0 UV-I 0 W/m² 9,2 °C 11,8 °C 0,0 km/h (0 Bft)
14.10.2017 19:12 11,7 °C 11,8 °C 84 % 1027,4 hPa 0,0 mm 0,0 km/h (0 Bft) O-NO 65 ° 0 min 0,000 mm 0,0 UV-I 0 W/m² 9,1 °C 11,7 °C 0,0 km/h (0 Bft)
14.10.2017 19:13 11,7 °C 11,7 °C 85 % 1027,3 hPa 0,0 mm 0,1 km/h (0 Bft) O-NO 65 ° 0 min 0,000 mm 0,0 UV-I 0 W/m² 9,3 °C 11,7 °C 1,6 km/h (1 Bft)
14.10.2017 19:14 11,6 °C 11,7 °C 85 % 1027,3 hPa 0,0 mm 0,6 km/h (0 Bft) O-NO 65 ° 0 min 0,000 mm 0,0 UV-I 0 W/m² 9,2 °C 11,6 °C 1,6 km/h (1 Bft)
14.10.2017 19:15 11,6 °C 11,6 °C 85 % 1027,4 hPa 0,0 mm 0,0 km/h (0 Bft) O-NO 65 ° 0 min 0,000 mm 0,0 UV-I 0 W/m² 9,2 °C 11,6 °C 0,0 km/h (0 Bft)
14.10.2017 19:16 11,6 °C 11,6 °C 85 % 1027,3 hPa 0,0 mm 0,0 km/h (0 Bft) O-NO 65 ° 0 min 0,000 mm 0,0 UV-I 0 W/m² 9,2 °C 11,6 °C 0,0 km/h (0 Bft)
14.10.2017 19:17 11,7 °C 11,7 °C 86 % 1027,3 hPa 0,0 mm 0,0 km/h (0 Bft) O-NO 65 ° 0 min 0,000 mm 0,0 UV-I 0 W/m² 9,4 °C 11,7 °C 0,0 km/h (0 Bft)
14.10.2017 19:18 11,7 °C 11,7 °C 85 % 1027,3 hPa 0,0 mm 0,6 km/h (0 Bft) O-NO 65 ° 0 min 0,000 mm 0,0 UV-I 0 W/m² 9,3 °C 11,7 °C 1,6 km/h (1 Bft)
14.10.2017 19:19 11,8 °C 11,8 °C 85 % 1027,4 hPa 0,0 mm 0,5 km/h (0 Bft) O-NO 65 ° 0 min 0,000 mm 0,0 UV-I 0 W/m² 9,4 °C 11,8 °C 1,6 km/h (1 Bft)
14.10.2017 19:20 11,8 °C 11,8 °C 85 % 1027,4 hPa 0,0 mm 0,0 km/h (0 Bft) O-NO 65 ° 0 min 0,000 mm 0,0 UV-I 0 W/m² 9,4 °C 11,8 °C 0,0 km/h (0 Bft)
14.10.2017 19:21 11,7 °C 11,8 °C 85 % 1027,4 hPa 0,0 mm 0,0 km/h (0 Bft) O-NO 65 ° 0 min 0,000 mm 0,0 UV-I 0 W/m² 9,3 °C 11,7 °C 0,0 km/h (0 Bft)
14.10.2017 19:22 11,7 °C 11,7 °C 85 % 1027,4 hPa 0,0 mm 0,0 km/h (0 Bft) O-NO 65 ° 0 min 0,000 mm 0,0 UV-I 0 W/m² 9,3 °C 11,7 °C 0,0 km/h (0 Bft)
14.10.2017 19:23 11,8 °C 11,8 °C 85 % 1027,4 hPa 0,0 mm 0,0 km/h (0 Bft) O-NO 65 ° 0 min 0,000 mm 0,0 UV-I 0 W/m² 9,4 °C 11,8 °C 0,0 km/h (0 Bft)
14.10.2017 19:24 11,8 °C 11,8 °C 86 % 1027,4 hPa 0,0 mm 0,0 km/h (0 Bft) O-NO 65 ° 0 min 0,000 mm 0,0 UV-I 0 W/m² 9,5 °C 11,8 °C 0,0 km/h (0 Bft)
14.10.2017 19:25 11,8 °C 11,8 °C 84 % 1027,5 hPa 0,0 mm 0,0 km/h (0 Bft) O-NO 65 ° 0 min 0,000 mm 0,0 UV-I 0 W/m² 9,2 °C 11,8 °C 0,0 km/h (0 Bft)
14.10.2017 19:26 11,6 °C 11,8 °C 84 % 1027,4 hPa 0,0 mm 0,0 km/h (0 Bft) O-NO 65 ° 0 min 0,000 mm 0,0 UV-I 0 W/m² 9,0 °C 11,6 °C 0,0 km/h (0 Bft)
14.10.2017 19:27 11,4 °C 11,6 °C 85 % 1027,4 hPa 0,0 mm 0,0 km/h (0 Bft) O-NO 65 ° 0 min 0,000 mm 0,0 UV-I 0 W/m² 9,0 °C 11,4 °C 0,0 km/h (0 Bft)
14.10.2017 19:28 11,3 °C 11,4 °C 85 % 1027,4 hPa 0,0 mm 0,0 km/h (0 Bft) O-NO 65 ° 0 min 0,000 mm 0,0 UV-I 0 W/m² 8,9 °C 11,3 °C 0,0 km/h (0 Bft)
14.10.2017 19:29 11,3 °C 11,3 °C 86 % 1027,4 hPa 0,0 mm 0,0 km/h (0 Bft) O-NO 65 ° 0 min 0,000 mm 0,0 UV-I 0 W/m² 9,0 °C 11,3 °C 0,0 km/h (0 Bft)
14.10.2017 19:30 11,3 °C 11,3 °C 86 % 1027,4 hPa 0,0 mm 0,0 km/h (0 Bft) O-NO 65 ° 0 min 0,000 mm 0,0 UV-I 0 W/m² 9,0 °C 11,3 °C 0,0 km/h (0 Bft)
14.10.2017 19:31 11,2 °C 11,3 °C 86 % 1027,4 hPa 0,0 mm 0,0 km/h (0 Bft) O-NO 65 ° 0 min 0,000 mm 0,0 UV-I 0 W/m² 8,9 °C 11,2 °C 0,0 km/h (0 Bft)
14.10.2017 19:32 11,2 °C 11,2 °C 86 % 1027,4 hPa 0,0 mm 0,0 km/h (0 Bft) O-NO 65 ° 0 min 0,000 mm 0,0 UV-I 0 W/m² 8,9 °C 11,2 °C 0,0 km/h (0 Bft)
14.10.2017 19:33 11,2 °C 11,2 °C 87 % 1027,5 hPa 0,0 mm 0,0 km/h (0 Bft) O-NO 65 ° 0 min 0,000 mm 0,0 UV-I 0 W/m² 9,1 °C 11,2 °C 0,0 km/h (0 Bft)
14.10.2017 19:34 11,2 °C 11,2 °C 87 % 1027,5 hPa 0,0 mm 0,0 km/h (0 Bft) O-NO 65 ° 0 min 0,000 mm 0,0 UV-I 0 W/m² 9,1 °C 11,2 °C 0,0 km/h (0 Bft)
14.10.2017 19:35 11,2 °C 11,2 °C 87 % 1027,5 hPa 0,0 mm 0,0 km/h (0 Bft) O-NO 65 ° 0 min 0,000 mm 0,0 UV-I 0 W/m² 9,1 °C 11,2 °C 0,0 km/h (0 Bft)
14.10.2017 19:36 11,2 °C 11,2 °C 87 % 1027,5 hPa 0,0 mm 0,0 km/h (0 Bft) O-NO 65 ° 0 min 0,000 mm 0,0 UV-I 0 W/m² 9,1 °C 11,2 °C 0,0 km/h (0 Bft)
14.10.2017 19:37 11,2 °C 11,2 °C 87 % 1027,4 hPa 0,0 mm 0,0 km/h (0 Bft) O-NO 65 ° 0 min 0,000 mm 0,0 UV-I 0 W/m² 9,1 °C 11,2 °C 0,0 km/h (0 Bft)
14.10.2017 19:38 11,2 °C 11,2 °C 87 % 1027,4 hPa 0,0 mm 0,0 km/h (0 Bft) O-NO 65 ° 0 min 0,000 mm 0,0 UV-I 0 W/m² 9,1 °C 11,2 °C 0,0 km/h (0 Bft)
14.10.2017 19:39 11,3 °C 11,3 °C 86 % 1027,4 hPa 0,0 mm 0,0 km/h (0 Bft) O-NO 65 ° 0 min 0,000 mm 0,0 UV-I 0 W/m² 9,0 °C 11,3 °C 0,0 km/h (0 Bft)
14.10.2017 19:40 11,3 °C 11,3 °C 86 % 1027,4 hPa 0,0 mm 0,0 km/h (0 Bft) O-NO 65 ° 0 min 0,000 mm 0,0 UV-I 0 W/m² 9,0 °C 11,3 °C 0,0 km/h (0 Bft)
14.10.2017 19:41 11,5 °C 11,5 °C 87 % 1027,3 hPa 0,0 mm 0,0 km/h (0 Bft) O-NO 65 ° 0 min 0,000 mm 0,0 UV-I 0 W/m² 9,4 °C 11,5 °C 0,0 km/h (0 Bft)
14.10.2017 19:42 11,7 °C 11,7 °C 86 % 1027,4 hPa 0,0 mm 0,0 km/h (0 Bft) O-NO 65 ° 0 min 0,000 mm 0,0 UV-I 0 W/m² 9,4 °C 11,7 °C 0,0 km/h (0 Bft)
14.10.2017 19:43 11,9 °C 11,9 °C 85 % 1027,5 hPa 0,0 mm 0,0 km/h (0 Bft) O-NO 65 ° 0 min 0,000 mm 0,0 UV-I 0 W/m² 9,5 °C 11,9 °C 0,0 km/h (0 Bft)
14.10.2017 19:44 11,9 °C 11,9 °C 84 % 1027,4 hPa 0,0 mm 0,0 km/h (0 Bft) O-NO 65 ° 0 min 0,000 mm 0,0 UV-I 0 W/m² 9,3 °C 11,9 °C 0,0 km/h (0 Bft)
14.10.2017 19:45 11,9 °C 11,9 °C 84 % 1027,4 hPa 0,0 mm 0,0 km/h (0 Bft) O-NO 65 ° 0 min 0,000 mm 0,0 UV-I 0 W/m² 9,3 °C 11,9 °C 0,0 km/h (0 Bft)
14.10.2017 19:46 11,9 °C 11,9 °C 83 % 1027,4 hPa 0,0 mm 0,0 km/h (0 Bft) O-NO 65 ° 0 min 0,000 mm 0,0 UV-I 0 W/m² 9,1 °C 11,9 °C 0,0 km/h (0 Bft)
14.10.2017 19:47 11,8 °C 11,9 °C 84 % 1027,4 hPa 0,0 mm 0,0 km/h (0 Bft) O-NO 65 ° 0 min 0,000 mm 0,0 UV-I 0 W/m² 9,2 °C 11,8 °C 0,0 km/h (0 Bft)
14.10.2017 19:48 11,7 °C 11,8 °C 84 % 1027,4 hPa 0,0 mm 0,0 km/h (0 Bft) O-NO 65 ° 0 min 0,000 mm 0,0 UV-I 0 W/m² 9,1 °C 11,7 °C 0,0 km/h (0 Bft)
14.10.2017 19:49 11,6 °C 11,7 °C 83 % 1027,4 hPa 0,0 mm 0,0 km/h (0 Bft) O-NO 65 ° 0 min 0,000 mm 0,0 UV-I 0 W/m² 8,8 °C 11,6 °C 0,0 km/h (0 Bft)
14.10.2017 19:50 11,4 °C 11,6 °C 84 % 1027,4 hPa 0,0 mm 0,0 km/h (0 Bft) O-NO 65 ° 0 min 0,000 mm 0,0 UV-I 0 W/m² 8,8 °C 11,4 °C 0,0 km/h (0 Bft)
14.10.2017 19:51 11,3 °C 11,4 °C 84 % 1027,4 hPa 0,0 mm 0,0 km/h (0 Bft) O-NO 65 ° 0 min 0,000 mm 0,0 UV-I 0 W/m² 8,7 °C 11,3 °C 0,0 km/h (0 Bft)
14.10.2017 19:52 11,1 °C 11,3 °C 85 % 1027,4 hPa 0,0 mm 0,0 km/h (0 Bft) O-NO 65 ° 0 min 0,000 mm 0,0 UV-I 0 W/m² 8,7 °C 11,1 °C 0,0 km/h (0 Bft)
14.10.2017 19:53 11,0 °C 11,1 °C 85 % 1027,4 hPa 0,0 mm 0,0 km/h (0 Bft) O-NO 65 ° 0 min 0,000 mm 0,0 UV-I 0 W/m² 8,6 °C 11,0 °C 0,0 km/h (0 Bft)
14.10.2017 19:54 10,9 °C 11,0 °C 86 % 1027,4 hPa 0,0 mm 0,0 km/h (0 Bft) O-NO 65 ° 0 min 0,000 mm 0,0 UV-I 0 W/m² 8,7 °C 10,9 °C 0,0 km/h (0 Bft)
14.10.2017 19:55 10,9 °C 10,9 °C 87 % 1027,4 hPa 0,0 mm 0,0 km/h (0 Bft) O-NO 65 ° 0 min 0,000 mm 0,0 UV-I 0 W/m² 8,8 °C 10,9 °C 0,0 km/h (0 Bft)
14.10.2017 19:56 10,8 °C 10,9 °C 87 % 1027,5 hPa 0,0 mm 0,0 km/h (0 Bft) O-NO 65 ° 0 min 0,000 mm 0,0 UV-I 0 W/m² 8,7 °C 10,8 °C 0,0 km/h (0 Bft)
14.10.2017 19:57 10,8 °C 10,8 °C 87 % 1027,4 hPa 0,0 mm 0,0 km/h (0 Bft) O-NO 65 ° 0 min 0,000 mm 0,0 UV-I 0 W/m² 8,7 °C 10,8 °C 0,0 km/h (0 Bft)
14.10.2017 19:58 10,7 °C 10,8 °C 87 % 1027,4 hPa 0,0 mm 0,0 km/h (0 Bft) O-NO 65 ° 0 min 0,000 mm 0,0 UV-I 0 W/m² 8,6 °C 10,7 °C 0,0 km/h (0 Bft)
14.10.2017 19:59 10,7 °C 10,7 °C 87 % 1027,4 hPa 0,0 mm 0,0 km/h (0 Bft) O-NO 65 ° 0 min 0,000 mm 0,0 UV-I 0 W/m² 8,6 °C 10,7 °C 0,0 km/h (0 Bft)
14.10.2017 20:00 10,6 °C 10,7 °C 87 % 1027,4 hPa 0,0 mm 0,0 km/h (0 Bft) O-NO 65 ° 0 min 0,000 mm 0,0 UV-I 0 W/m² 8,5 °C 10,6 °C 0,0 km/h (0 Bft)
14.10.2017 20:01 10,6 °C 10,6 °C 87 % 1027,4 hPa 0,0 mm 0,0 km/h (0 Bft) O-NO 65 ° 0 min 0,000 mm 0,0 UV-I 0 W/m² 8,5 °C 10,6 °C 0,0 km/h (0 Bft)
14.10.2017 20:02 10,6 °C 10,6 °C 88 % 1027,4 hPa 0,0 mm 0,0 km/h (0 Bft) O-NO 65 ° 0 min 0,000 mm 0,0 UV-I 0 W/m² 8,7 °C 10,6 °C 0,0 km/h (0 Bft)
14.10.2017 20:03 10,6 °C 10,6 °C 89 % 1027,4 hPa 0,0 mm 0,0 km/h (0 Bft) O-NO 65 ° 0 min 0,000 mm 0,0 UV-I 0 W/m² 8,9 °C 10,6 °C 0,0 km/h (0 Bft)
14.10.2017 20:04 10,7 °C 10,7 °C 89 % 1027,4 hPa 0,0 mm 0,0 km/h (0 Bft) O-NO 65 ° 0 min 0,000 mm 0,0 UV-I 0 W/m² 9,0 °C 10,7 °C 0,0 km/h (0 Bft)
14.10.2017 20:05 10,7 °C 10,7 °C 89 % 1027,4 hPa 0,0 mm 0,0 km/h (0 Bft) O-NO 65 ° 0 min 0,000 mm 0,0 UV-I 0 W/m² 9,0 °C 10,7 °C 0,0 km/h (0 Bft)
14.10.2017 20:06 10,8 °C 10,8 °C 89 % 1027,4 hPa 0,0 mm 0,0 km/h (0 Bft) O-NO 65 ° 0 min 0,000 mm 0,0 UV-I 0 W/m² 9,1 °C 10,8 °C 0,0 km/h (0 Bft)
14.10.2017 20:07 10,8 °C 10,8 °C 88 % 1027,4 hPa 0,0 mm 0,0 km/h (0 Bft) O-NO 65 ° 0 min 0,000 mm 0,0 UV-I 0 W/m² 8,9 °C 10,8 °C 0,0 km/h (0 Bft)
14.10.2017 20:08 10,8 °C 10,8 °C 88 % 1027,4 hPa 0,0 mm 0,0 km/h (0 Bft) O-NO 65 ° 0 min 0,000 mm 0,0 UV-I 0 W/m² 8,9 °C 10,8 °C 0,0 km/h (0 Bft)
14.10.2017 20:09 10,8 °C 10,9 °C 88 % 1027,4 hPa 0,0 mm 0,0 km/h (0 Bft) O-NO 65 ° 0 min 0,000 mm 0,0 UV-I 0 W/m² 8,9 °C 10,8 °C 0,0 km/h (0 Bft)
14.10.2017 20:10 10,8 °C 10,8 °C 87 % 1027,4 hPa 0,0 mm 0,0 km/h (0 Bft) O-NO 65 ° 0 min 0,000 mm 0,0 UV-I 0 W/m² 8,7 °C 10,8 °C 0,0 km/h (0 Bft)
14.10.2017 20:11 10,7 °C 10,8 °C 87 % 1027,4 hPa 0,0 mm 0,0 km/h (0 Bft) O-NO 65 ° 0 min 0,000 mm 0,0 UV-I 0 W/m² 8,6 °C 10,7 °C 0,0 km/h (0 Bft)
14.10.2017 20:12 10,6 °C 10,7 °C 87 % 1027,4 hPa 0,0 mm 0,0 km/h (0 Bft) O-NO 65 ° 0 min 0,000 mm 0,0 UV-I 0 W/m² 8,5 °C 10,6 °C 0,0 km/h (0 Bft)
14.10.2017 20:13 10,6 °C 10,6 °C 88 % 1027,4 hPa 0,0 mm 0,0 km/h (0 Bft) O-NO 65 ° 0 min 0,000 mm 0,0 UV-I 0 W/m² 8,7 °C 10,6 °C 0,0 km/h (0 Bft)
14.10.2017 20:14 10,5 °C 10,6 °C 88 % 1027,4 hPa 0,0 mm 0,0 km/h (0 Bft) O-NO 65 ° 0 min 0,000 mm 0,0 UV-I 0 W/m² 8,6 °C 10,5 °C 0,0 km/h (0 Bft)
14.10.2017 20:15 10,5 °C 10,5 °C 89 % 1027,4 hPa 0,0 mm 0,1 km/h (0 Bft) O-NO 65 ° 0 min 0,000 mm 0,0 UV-I 0 W/m² 8,8 °C 10,5 °C 1,6 km/h (1 Bft)
14.10.2017 20:16 10,5 °C 10,5 °C 88 % 1027,4 hPa 0,0 mm 0,0 km/h (0 Bft) O-NO 65 ° 0 min 0,000 mm 0,0 UV-I 0 W/m² 8,6 °C 10,5 °C 0,0 km/h (0 Bft)
14.10.2017 20:17 10,5 °C 10,5 °C 88 % 1027,4 hPa 0,0 mm 0,0 km/h (0 Bft) O-NO 65 ° 0 min 0,000 mm 0,0 UV-I 0 W/m² 8,6 °C 10,5 °C 0,0 km/h (0 Bft)
14.10.2017 20:18 10,5 °C 10,5 °C 88 % 1027,4 hPa 0,0 mm 0,0 km/h (0 Bft) O-NO 65 ° 0 min 0,000 mm 0,0 UV-I 0 W/m² 8,6 °C 10,5 °C 0,0 km/h (0 Bft)
14.10.2017 20:19 10,4 °C 10,5 °C 87 % 1027,4 hPa 0,0 mm 0,0 km/h (0 Bft) O-NO 65 ° 0 min 0,000 mm 0,0 UV-I 0 W/m² 8,3 °C 10,4 °C 0,0 km/h (0 Bft)
14.10.2017 20:20 10,3 °C 10,4 °C 87 % 1027,4 hPa 0,0 mm 1,7 km/h (1 Bft) O-NO 65 ° 0 min 0,000 mm 0,0 UV-I 0 W/m² 8,2 °C 10,3 °C 3,2 km/h (1 Bft)
14.10.2017 20:21 10,2 °C 10,3 °C 87 % 1027,4 hPa 0,0 mm 0,0 km/h (0 Bft) O-NO 65 ° 0 min 0,000 mm 0,0 UV-I 0 W/m² 8,1 °C 10,2 °C 0,0 km/h (0 Bft)
14.10.2017 20:22 10,1 °C 10,2 °C 88 % 1027,4 hPa 0,0 mm 0,0 km/h (0 Bft) O-NO 65 ° 0 min 0,000 mm 0,0 UV-I 0 W/m² 8,2 °C 10,1 °C 0,0 km/h (0 Bft)
14.10.2017 20:23 10,1 °C 10,1 °C 89 % 1027,4 hPa 0,0 mm 0,0 km/h (0 Bft) O-NO 65 ° 0 min 0,000 mm 0,0 UV-I 0 W/m² 8,4 °C 10,1 °C 0,0 km/h (0 Bft)
14.10.2017 20:24 10,1 °C 10,1 °C 90 % 1027,5 hPa 0,0 mm 0,7 km/h (0 Bft) O-NO 65 ° 0 min 0,000 mm 0,0 UV-I 0 W/m² 8,5 °C 10,1 °C 1,6 km/h (1 Bft)
14.10.2017 20:25 10,1 °C 10,1 °C 90 % 1027,4 hPa 0,0 mm 1,4 km/h (1 Bft) O-NO 65 ° 0 min 0,000 mm 0,0 UV-I 0 W/m² 8,5 °C 10,1 °C 3,2 km/h (1 Bft)
14.10.2017 20:26 10,2 °C 10,2 °C 91 % 1027,4 hPa 0,0 mm 1,7 km/h (1 Bft) O-NO 65 ° 0 min 0,000 mm 0,0 UV-I 0 W/m² 8,8 °C 10,2 °C 3,2 km/h (1 Bft)
14.10.2017 20:27 10,2 °C 10,2 °C 91 % 1027,4 hPa 0,0 mm 0,0 km/h (0 Bft) O-NO 65 ° 0 min 0,000 mm 0,0 UV-I 0 W/m² 8,8 °C 10,2 °C 0,0 km/h (0 Bft)
14.10.2017 20:28 10,4 °C 10,4 °C 91 % 1027,4 hPa 0,0 mm 0,0 km/h (0 Bft) O-NO 65 ° 0 min 0,000 mm 0,0 UV-I 0 W/m² 9,0 °C 10,4 °C 0,0 km/h (0 Bft)
14.10.2017 20:29 10,4 °C 10,4 °C 90 % 1027,4 hPa 0,0 mm 0,0 km/h (0 Bft) O-NO 65 ° 0 min 0,000 mm 0,0 UV-I 0 W/m² 8,8 °C 10,4 °C 0,0 km/h (0 Bft)
14.10.2017 20:30 10,4 °C 10,4 °C 89 % 1027,4 hPa 0,0 mm 0,0 km/h (0 Bft) O-NO 65 ° 0 min 0,000 mm 0,0 UV-I 0 W/m² 8,7 °C 10,4 °C 0,0 km/h (0 Bft)
14.10.2017 20:31 10,3 °C 10,4 °C 88 % 1027,4 hPa 0,0 mm 0,0 km/h (0 Bft) O-NO 65 ° 0 min 0,000 mm 0,0 UV-I 0 W/m² 8,4 °C 10,3 °C 0,0 km/h (0 Bft)
14.10.2017 20:32 10,3 °C 10,3 °C 88 % 1027,4 hPa 0,0 mm 0,0 km/h (0 Bft) O-NO 65 ° 0 min 0,000 mm 0,0 UV-I 0 W/m² 8,4 °C 10,3 °C 0,0 km/h (0 Bft)
14.10.2017 20:33 10,2 °C 10,3 °C 88 % 1027,5 hPa 0,0 mm 0,0 km/h (0 Bft) O-NO 65 ° 0 min 0,000 mm 0,0 UV-I 0 W/m² 8,3 °C 10,2 °C 0,0 km/h (0 Bft)
14.10.2017 20:34 10,1 °C 10,2 °C 89 % 1027,4 hPa 0,0 mm 0,0 km/h (0 Bft) O-NO 65 ° 0 min 0,000 mm 0,0 UV-I 0 W/m² 8,4 °C 10,1 °C 0,0 km/h (0 Bft)
14.10.2017 20:35 10,1 °C 10,1 °C 89 % 1027,5 hPa 0,0 mm 0,0 km/h (0 Bft) O-NO 65 ° 0 min 0,000 mm 0,0 UV-I 0 W/m² 8,4 °C 10,1 °C 0,0 km/h (0 Bft)
14.10.2017 20:36 10,1 °C 10,1 °C 89 % 1027,5 hPa 0,0 mm 0,0 km/h (0 Bft) O-NO 65 ° 0 min 0,000 mm 0,0 UV-I 0 W/m² 8,4 °C 10,1 °C 0,0 km/h (0 Bft)
14.10.2017 20:37 10,0 °C 10,1 °C 90 % 1027,5 hPa 0,0 mm 0,0 km/h (0 Bft) O-NO 65 ° 0 min 0,000 mm 0,0 UV-I 0 W/m² 8,4 °C 10,0 °C 0,0 km/h (0 Bft)
14.10.2017 20:38 9,9 °C 10,0 °C 90 % 1027,5 hPa 0,0 mm 0,0 km/h (0 Bft) O-NO 65 ° 0 min 0,000 mm 0,0 UV-I 0 W/m² 8,3 °C 9,9 °C 0,0 km/h (0 Bft)
14.10.2017 20:39 10,0 °C 10,0 °C 90 % 1027,5 hPa 0,0 mm 0,0 km/h (0 Bft) O-NO 65 ° 0 min 0,000 mm 0,0 UV-I 0 W/m² 8,4 °C 10,0 °C 0,0 km/h (0 Bft)
14.10.2017 20:40 10,0 °C 10,0 °C 90 % 1027,5 hPa 0,0 mm 0,0 km/h (0 Bft) O-NO 65 ° 0 min 0,000 mm 0,0 UV-I 0 W/m² 8,4 °C 10,0 °C 0,0 km/h (0 Bft)
14.10.2017 20:41 10,1 °C 10,1 °C 90 % 1027,5 hPa 0,0 mm 0,0 km/h (0 Bft) O-NO 65 ° 0 min 0,000 mm 0,0 UV-I 0 W/m² 8,5 °C 10,1 °C 0,0 km/h (0 Bft)
14.10.2017 20:42 10,1 °C 10,1 °C 90 % 1027,5 hPa 0,0 mm 0,0 km/h (0 Bft) O-NO 65 ° 0 min 0,000 mm 0,0 UV-I 0 W/m² 8,5 °C 10,1 °C 0,0 km/h (0 Bft)
14.10.2017 20:43 10,1 °C 10,1 °C 90 % 1027,5 hPa 0,0 mm 0,0 km/h (0 Bft) O-NO 65 ° 0 min 0,000 mm 0,0 UV-I 0 W/m² 8,5 °C 10,1 °C 0,0 km/h (0 Bft)
14.10.2017 20:44 10,2 °C 10,2 °C 90 % 1027,5 hPa 0,0 mm 0,0 km/h (0 Bft) O-NO 65 ° 0 min 0,000 mm 0,0 UV-I 0 W/m² 8,6 °C 10,2 °C 0,0 km/h (0 Bft)
14.10.2017 20:45 10,2 °C 10,2 °C 90 % 1027,5 hPa 0,0 mm 0,0 km/h (0 Bft) O-NO 65 ° 0 min 0,000 mm 0,0 UV-I 0 W/m² 8,6 °C 10,2 °C 0,0 km/h (0 Bft)
14.10.2017 20:46 10,2 °C 10,2 °C 90 % 1027,5 hPa 0,0 mm 0,0 km/h (0 Bft) O-NO 65 ° 0 min 0,000 mm 0,0 UV-I 0 W/m² 8,6 °C 10,2 °C 0,0 km/h (0 Bft)
14.10.2017 20:47 10,1 °C 10,2 °C 89 % 1027,5 hPa 0,0 mm 0,0 km/h (0 Bft) O-NO 65 ° 0 min 0,000 mm 0,0 UV-I 0 W/m² 8,4 °C 10,1 °C 0,0 km/h (0 Bft)
14.10.2017 20:48 10,1 °C 10,1 °C 89 % 1027,5 hPa 0,0 mm 0,0 km/h (0 Bft) O-NO 65 ° 0 min 0,000 mm 0,0 UV-I 0 W/m² 8,4 °C 10,1 °C 0,0 km/h (0 Bft)
14.10.2017 20:49 10,0 °C 10,1 °C 89 % 1027,5 hPa 0,0 mm 0,0 km/h (0 Bft) O-NO 65 ° 0 min 0,000 mm 0,0 UV-I 0 W/m² 8,3 °C 10,0 °C 0,0 km/h (0 Bft)
14.10.2017 20:50 9,9 °C 10,0 °C 89 % 1027,5 hPa 0,0 mm 0,0 km/h (0 Bft) O-NO 65 ° 0 min 0,000 mm 0,0 UV-I 0 W/m² 8,2 °C 9,9 °C 0,0 km/h (0 Bft)
14.10.2017 20:51 9,8 °C 9,9 °C 89 % 1027,5 hPa 0,0 mm 0,0 km/h (0 Bft) O-NO 65 ° 0 min 0,000 mm 0,0 UV-I 0 W/m² 8,1 °C 9,8 °C 0,0 km/h (0 Bft)
14.10.2017 20:52 9,7 °C 9,8 °C 89 % 1027,5 hPa 0,0 mm 0,0 km/h (0 Bft) O-NO 65 ° 0 min 0,000 mm 0,0 UV-I 0 W/m² 8,0 °C 9,7 °C 0,0 km/h (0 Bft)
14.10.2017 20:53 9,6 °C 9,7 °C 89 % 1027,5 hPa 0,0 mm 0,0 km/h (0 Bft) O-NO 65 ° 0 min 0,000 mm 0,0 UV-I 0 W/m² 7,9 °C 9,6 °C 0,0 km/h (0 Bft)
14.10.2017 20:54 9,6 °C 9,6 °C 89 % 1027,5 hPa 0,0 mm 0,0 km/h (0 Bft) O-NO 65 ° 0 min 0,000 mm 0,0 UV-I 0 W/m² 7,9 °C 9,6 °C 0,0 km/h (0 Bft)
14.10.2017 20:55 9,4 °C 9,6 °C 90 % 1027,5 hPa 0,0 mm 0,0 km/h (0 Bft) O-NO 65 ° 0 min 0,000 mm 0,0 UV-I 0 W/m² 7,8 °C 9,4 °C 0,0 km/h (0 Bft)
14.10.2017 20:56 9,4 °C 9,4 °C 90 % 1027,5 hPa 0,0 mm 0,0 km/h (0 Bft) O-NO 65 ° 0 min 0,000 mm 0,0 UV-I 0 W/m² 7,8 °C 9,4 °C 0,0 km/h (0 Bft)
14.10.2017 20:57 9,3 °C 9,4 °C 90 % 1027,5 hPa 0,0 mm 0,0 km/h (0 Bft) O-NO 65 ° 0 min 0,000 mm 0,0 UV-I 0 W/m² 7,7 °C 9,3 °C 0,0 km/h (0 Bft)
14.10.2017 20:58 9,3 °C 9,3 °C 90 % 1027,5 hPa 0,0 mm 0,0 km/h (0 Bft) O-NO 65 ° 0 min 0,000 mm 0,0 UV-I 0 W/m² 7,7 °C 9,3 °C 0,0 km/h (0 Bft)
14.10.2017 20:59 9,3 °C 9,3 °C 91 % 1027,5 hPa 0,0 mm 0,0 km/h (0 Bft) O-NO 65 ° 0 min 0,000 mm 0,0 UV-I 0 W/m² 7,9 °C 9,3 °C 0,0 km/h (0 Bft)
14.10.2017 21:00 9,3 °C 9,3 °C 91 % 1027,6 hPa 0,0 mm 0,0 km/h (0 Bft) O-NO 65 ° 0 min 0,000 mm 0,0 UV-I 0 W/m² 7,9 °C 9,3 °C 0,0 km/h (0 Bft)
14.10.2017 21:01 9,3 °C 9,3 °C 91 % 1027,5 hPa 0,0 mm 0,0 km/h (0 Bft) O-NO 65 ° 0 min 0,000 mm 0,0 UV-I 0 W/m² 7,9 °C 9,3 °C 0,0 km/h (0 Bft)
14.10.2017 21:02 9,3 °C 9,3 °C 91 % 1027,5 hPa 0,0 mm 0,0 km/h (0 Bft) O-NO 65 ° 0 min 0,000 mm 0,0 UV-I 0 W/m² 7,9 °C 9,3 °C 0,0 km/h (0 Bft)
14.10.2017 21:03 9,4 °C 9,4 °C 91 % 1027,5 hPa 0,0 mm 0,0 km/h (0 Bft) O-NO 65 ° 0 min 0,000 mm 0,0 UV-I 0 W/m² 8,0 °C 9,4 °C 0,0 km/h (0 Bft)
14.10.2017 21:04 9,4 °C 9,4 °C 91 % 1027,6 hPa 0,0 mm 0,0 km/h (0 Bft) O-NO 65 ° 0 min 0,000 mm 0,0 UV-I 0 W/m² 8,0 °C 9,4 °C 0,0 km/h (0 Bft)
14.10.2017 21:05 9,4 °C 9,4 °C 91 % 1027,6 hPa 0,0 mm 0,0 km/h (0 Bft) O-NO 65 ° 0 min 0,000 mm 0,0 UV-I 0 W/m² 8,0 °C 9,4 °C 0,0 km/h (0 Bft)
14.10.2017 21:06 9,4 °C 9,4 °C 91 % 1027,5 hPa 0,0 mm 0,0 km/h (0 Bft) O-NO 65 ° 0 min 0,000 mm 0,0 UV-I 0 W/m² 8,0 °C 9,4 °C 0,0 km/h (0 Bft)
14.10.2017 21:07 9,4 °C 9,4 °C 91 % 1027,6 hPa 0,0 mm 0,0 km/h (0 Bft) O-NO 65 ° 0 min 0,000 mm 0,0 UV-I 0 W/m² 8,0 °C 9,4 °C 0,0 km/h (0 Bft)
14.10.2017 21:08 9,4 °C 9,4 °C 91 % 1027,5 hPa 0,0 mm 0,0 km/h (0 Bft) O-NO 65 ° 0 min 0,000 mm 0,0 UV-I 0 W/m² 8,0 °C 9,4 °C 0,0 km/h (0 Bft)
14.10.2017 21:09 9,4 °C 9,4 °C 91 % 1027,5 hPa 0,0 mm 0,0 km/h (0 Bft) O-NO 65 ° 0 min 0,000 mm 0,0 UV-I 0 W/m² 8,0 °C 9,4 °C 0,0 km/h (0 Bft)
14.10.2017 21:10 9,3 °C 9,4 °C 91 % 1027,5 hPa 0,0 mm 0,0 km/h (0 Bft) O-NO 65 ° 0 min 0,000 mm 0,0 UV-I 0 W/m² 7,9 °C 9,3 °C 0,0 km/h (0 Bft)
14.10.2017 21:11 9,3 °C 9,3 °C 91 % 1027,5 hPa 0,0 mm 0,0 km/h (0 Bft) O-NO 65 ° 0 min 0,000 mm 0,0 UV-I 0 W/m² 7,9 °C 9,3 °C 0,0 km/h (0 Bft)
14.10.2017 21:12 9,3 °C 9,3 °C 91 % 1027,6 hPa 0,0 mm 0,0 km/h (0 Bft) O-NO 65 ° 0 min 0,000 mm 0,0 UV-I 0 W/m² 7,9 °C 9,3 °C 0,0 km/h (0 Bft)
14.10.2017 21:13 9,3 °C 9,3 °C 92 % 1027,5 hPa 0,0 mm 0,0 km/h (0 Bft) O-NO 65 ° 0 min 0,000 mm 0,0 UV-I 0 W/m² 8,1 °C 9,3 °C 0,0 km/h (0 Bft)
14.10.2017 21:14 9,4 °C 9,4 °C 92 % 1027,6 hPa 0,0 mm 0,0 km/h (0 Bft) O-NO 65 ° 0 min 0,000 mm 0,0 UV-I 0 W/m² 8,2 °C 9,4 °C 0,0 km/h (0 Bft)
14.10.2017 21:15 9,4 °C 9,4 °C 92 % 1027,6 hPa 0,0 mm 0,0 km/h (0 Bft) O-NO 65 ° 0 min 0,000 mm 0,0 UV-I 0 W/m² 8,2 °C 9,4 °C 0,0 km/h (0 Bft)
14.10.2017 21:16 9,4 °C 9,4 °C 92 % 1027,6 hPa 0,0 mm 0,0 km/h (0 Bft) O-NO 65 ° 0 min 0,000 mm 0,0 UV-I 0 W/m² 8,2 °C 9,4 °C 0,0 km/h (0 Bft)
14.10.2017 21:17 9,4 °C 9,4 °C 92 % 1027,6 hPa 0,0 mm 0,0 km/h (0 Bft) O-NO 65 ° 0 min 0,000 mm 0,0 UV-I 0 W/m² 8,2 °C 9,4 °C 0,0 km/h (0 Bft)
14.10.2017 21:18 9,3 °C 9,4 °C 91 % 1027,6 hPa 0,0 mm 0,0 km/h (0 Bft) O-NO 65 ° 0 min 0,000 mm 0,0 UV-I 0 W/m² 7,9 °C 9,3 °C 0,0 km/h (0 Bft)
14.10.2017 21:19 9,2 °C 9,3 °C 91 % 1027,6 hPa 0,0 mm 0,0 km/h (0 Bft) O-NO 65 ° 0 min 0,000 mm 0,0 UV-I 0 W/m² 7,8 °C 9,2 °C 0,0 km/h (0 Bft)
14.10.2017 21:20 9,1 °C 9,2 °C 91 % 1027,6 hPa 0,0 mm 0,0 km/h (0 Bft) O-NO 65 ° 0 min 0,000 mm 0,0 UV-I 0 W/m² 7,7 °C 9,1 °C 0,0 km/h (0 Bft)
14.10.2017 21:21 9,1 °C 9,1 °C 91 % 1027,6 hPa 0,0 mm 0,0 km/h (0 Bft) O-NO 65 ° 0 min 0,000 mm 0,0 UV-I 0 W/m² 7,7 °C 9,1 °C 0,0 km/h (0 Bft)
14.10.2017 21:22 8,9 °C 9,1 °C 91 % 1027,6 hPa 0,0 mm 0,0 km/h (0 Bft) O-NO 65 ° 0 min 0,000 mm 0,0 UV-I 0 W/m² 7,5 °C 8,9 °C 0,0 km/h (0 Bft)
14.10.2017 21:23 8,8 °C 8,9 °C 91 % 1027,6 hPa 0,0 mm 0,0 km/h (0 Bft) O-NO 65 ° 0 min 0,000 mm 0,0 UV-I 0 W/m² 7,4 °C 8,8 °C 0,0 km/h (0 Bft)
14.10.2017 21:24 8,8 °C 8,8 °C 91 % 1027,7 hPa 0,0 mm 0,0 km/h (0 Bft) O-NO 65 ° 0 min 0,000 mm 0,0 UV-I 0 W/m² 7,4 °C 8,8 °C 0,0 km/h (0 Bft)
14.10.2017 21:25 8,8 °C 8,8 °C 91 % 1027,6 hPa 0,0 mm 0,0 km/h (0 Bft) O-NO 65 ° 0 min 0,000 mm 0,0 UV-I 0 W/m² 7,4 °C 8,8 °C 0,0 km/h (0 Bft)
14.10.2017 21:26 8,7 °C 8,8 °C 92 % 1027,6 hPa 0,0 mm 0,0 km/h (0 Bft) O-NO 65 ° 0 min 0,000 mm 0,0 UV-I 0 W/m² 7,5 °C 8,7 °C 0,0 km/h (0 Bft)
14.10.2017 21:27 8,7 °C 8,8 °C 92 % 1027,7 hPa 0,0 mm 0,0 km/h (0 Bft) O-NO 65 ° 0 min 0,000 mm 0,0 UV-I 0 W/m² 7,5 °C 8,7 °C 0,0 km/h (0 Bft)
14.10.2017 21:28 8,8 °C 8,8 °C 92 % 1027,6 hPa 0,0 mm 0,0 km/h (0 Bft) O-NO 65 ° 0 min 0,000 mm 0,0 UV-I 0 W/m² 7,6 °C 8,8 °C 0,0 km/h (0 Bft)
14.10.2017 21:29 8,8 °C 8,8 °C 92 % 1027,6 hPa 0,0 mm 0,0 km/h (0 Bft) O-NO 65 ° 0 min 0,000 mm 0,0 UV-I 0 W/m² 7,6 °C 8,8 °C 0,0 km/h (0 Bft)
14.10.2017 21:30 8,8 °C 8,8 °C 92 % 1027,6 hPa 0,0 mm 0,0 km/h (0 Bft) O-NO 65 ° 0 min 0,000 mm 0,0 UV-I 0 W/m² 7,6 °C 8,8 °C 0,0 km/h (0 Bft)
14.10.2017 21:31 8,8 °C 8,8 °C 92 % 1027,6 hPa 0,0 mm 0,0 km/h (0 Bft) O-NO 65 ° 0 min 0,000 mm 0,0 UV-I 0 W/m² 7,6 °C 8,8 °C 0,0 km/h (0 Bft)
14.10.2017 21:32 8,9 °C 8,9 °C 93 % 1027,6 hPa 0,0 mm 0,0 km/h (0 Bft) O-NO 65 ° 0 min 0,000 mm 0,0 UV-I 0 W/m² 7,8 °C 8,9 °C 0,0 km/h (0 Bft)
14.10.2017 21:33 8,9 °C 8,9 °C 93 % 1027,6 hPa 0,0 mm 0,0 km/h (0 Bft) O-NO 65 ° 0 min 0,000 mm 0,0 UV-I 0 W/m² 7,8 °C 8,9 °C 0,0 km/h (0 Bft)
14.10.2017 21:34 8,9 °C 8,9 °C 92 % 1027,6 hPa 0,0 mm 0,0 km/h (0 Bft) O-NO 65 ° 0 min 0,000 mm 0,0 UV-I 0 W/m² 7,7 °C 8,9 °C 0,0 km/h (0 Bft)
14.10.2017 21:35 8,9 °C 8,9 °C 93 % 1027,6 hPa 0,0 mm 0,0 km/h (0 Bft) O-NO 65 ° 0 min 0,000 mm 0,0 UV-I 0 W/m² 7,8 °C 8,9 °C 0,0 km/h (0 Bft)
14.10.2017 21:36 8,9 °C 8,9 °C 93 % 1027,6 hPa 0,0 mm 0,0 km/h (0 Bft) O-NO 65 ° 0 min 0,000 mm 0,0 UV-I 0 W/m² 7,8 °C 8,9 °C 0,0 km/h (0 Bft)
14.10.2017 21:37 9,0 °C 9,0 °C 93 % 1027,6 hPa 0,0 mm 0,0 km/h (0 Bft) O-NO 65 ° 0 min 0,000 mm 0,0 UV-I 0 W/m² 7,9 °C 9,0 °C 0,0 km/h (0 Bft)
14.10.2017 21:38 9,1 °C 9,1 °C 93 % 1027,6 hPa 0,0 mm 0,0 km/h (0 Bft) O-NO 65 ° 0 min 0,000 mm 0,0 UV-I 0 W/m² 8,0 °C 9,1 °C 0,0 km/h (0 Bft)
14.10.2017 21:39 9,2 °C 9,2 °C 93 % 1027,6 hPa 0,0 mm 0,0 km/h (0 Bft) O-NO 65 ° 0 min 0,000 mm 0,0 UV-I 0 W/m² 8,1 °C 9,2 °C 0,0 km/h (0 Bft)
14.10.2017 21:40 9,1 °C 9,2 °C 92 % 1027,7 hPa 0,0 mm 0,0 km/h (0 Bft) O-NO 65 ° 0 min 0,000 mm 0,0 UV-I 0 W/m² 7,9 °C 9,1 °C 0,0 km/h (0 Bft)
14.10.2017 21:41 9,1 °C 9,2 °C 92 % 1027,6 hPa 0,0 mm 0,0 km/h (0 Bft) O-NO 65 ° 0 min 0,000 mm 0,0 UV-I 0 W/m² 7,9 °C 9,1 °C 0,0 km/h (0 Bft)
14.10.2017 21:42 9,1 °C 9,2 °C 92 % 1027,7 hPa 0,0 mm 0,0 km/h (0 Bft) O-NO 65 ° 0 min 0,000 mm 0,0 UV-I 0 W/m² 7,9 °C 9,1 °C 0,0 km/h (0 Bft)
14.10.2017 21:43 9,1 °C 9,1 °C 92 % 1027,7 hPa 0,0 mm 0,0 km/h (0 Bft) O-NO 65 ° 0 min 0,000 mm 0,0 UV-I 0 W/m² 7,9 °C 9,1 °C 0,0 km/h (0 Bft)
14.10.2017 21:44 9,1 °C 9,1 °C 92 % 1027,7 hPa 0,0 mm 0,0 km/h (0 Bft) O-NO 65 ° 0 min 0,000 mm 0,0 UV-I 0 W/m² 7,9 °C 9,1 °C 0,0 km/h (0 Bft)
14.10.2017 21:45 9,1 °C 9,1 °C 92 % 1027,6 hPa 0,0 mm 0,0 km/h (0 Bft) O-NO 65 ° 0 min 0,000 mm 0,0 UV-I 0 W/m² 7,9 °C 9,1 °C 0,0 km/h (0 Bft)
14.10.2017 21:46 9,1 °C 9,1 °C 92 % 1027,6 hPa 0,0 mm 0,0 km/h (0 Bft) O-NO 65 ° 0 min 0,000 mm 0,0 UV-I 0 W/m² 7,9 °C 9,1 °C 0,0 km/h (0 Bft)
14.10.2017 21:47 9,0 °C 9,1 °C 92 % 1027,6 hPa 0,0 mm 0,0 km/h (0 Bft) O-NO 65 ° 0 min 0,000 mm 0,0 UV-I 0 W/m² 7,8 °C 9,0 °C 0,0 km/h (0 Bft)
14.10.2017 21:48 9,0 °C 9,0 °C 92 % 1027,7 hPa 0,0 mm 0,0 km/h (0 Bft) O-NO 65 ° 0 min 0,000 mm 0,0 UV-I 0 W/m² 7,8 °C 9,0 °C 0,0 km/h (0 Bft)
14.10.2017 21:49 9,0 °C 9,0 °C 92 % 1027,7 hPa 0,0 mm 0,0 km/h (0 Bft) O-NO 65 ° 0 min 0,000 mm 0,0 UV-I 0 W/m² 7,8 °C 9,0 °C 0,0 km/h (0 Bft)
14.10.2017 21:50 8,9 °C 9,0 °C 92 % 1027,6 hPa 0,0 mm 0,0 km/h (0 Bft) O-NO 65 ° 0 min 0,000 mm 0,0 UV-I 0 W/m² 7,7 °C 8,9 °C 0,0 km/h (0 Bft)
14.10.2017 21:51 8,8 °C 8,9 °C 92 % 1027,7 hPa 0,0 mm 0,0 km/h (0 Bft) O-NO 65 ° 0 min 0,000 mm 0,0 UV-I 0 W/m² 7,6 °C 8,8 °C 0,0 km/h (0 Bft)
14.10.2017 21:52 8,7 °C 8,8 °C 92 % 1027,7 hPa 0,0 mm 0,0 km/h (0 Bft) O-NO 65 ° 0 min 0,000 mm 0,0 UV-I 0 W/m² 7,5 °C 8,7 °C 0,0 km/h (0 Bft)
14.10.2017 21:53 8,7 °C 8,7 °C 92 % 1027,7 hPa 0,0 mm 0,0 km/h (0 Bft) O-NO 65 ° 0 min 0,000 mm 0,0 UV-I 0 W/m² 7,5 °C 8,7 °C 0,0 km/h (0 Bft)
14.10.2017 21:54 8,6 °C 8,7 °C 92 % 1027,7 hPa 0,0 mm 0,0 km/h (0 Bft) O-NO 65 ° 0 min 0,000 mm 0,0 UV-I 0 W/m² 7,4 °C 8,6 °C 0,0 km/h (0 Bft)
14.10.2017 21:55 8,5 °C 8,6 °C 92 % 1027,7 hPa 0,0 mm 0,0 km/h (0 Bft) O-NO 65 ° 0 min 0,000 mm 0,0 UV-I 0 W/m² 7,3 °C 8,5 °C 0,0 km/h (0 Bft)
14.10.2017 21:56 8,5 °C 8,5 °C 92 % 1027,7 hPa 0,0 mm 0,0 km/h (0 Bft) O-NO 65 ° 0 min 0,000 mm 0,0 UV-I 0 W/m² 7,3 °C 8,5 °C 0,0 km/h (0 Bft)
14.10.2017 21:57 8,4 °C 8,5 °C 92 % 1027,7 hPa 0,0 mm 0,0 km/h (0 Bft) O-NO 65 ° 0 min 0,000 mm 0,0 UV-I 0 W/m² 7,2 °C 8,4 °C 0,0 km/h (0 Bft)
14.10.2017 21:58 8,4 °C 8,5 °C 92 % 1027,7 hPa 0,0 mm 0,0 km/h (0 Bft) O-NO 65 ° 0 min 0,000 mm 0,0 UV-I 0 W/m² 7,2 °C 8,4 °C 0,0 km/h (0 Bft)
14.10.2017 21:59 8,4 °C 8,4 °C 92 % 1027,7 hPa 0,0 mm 0,0 km/h (0 Bft) O-NO 65 ° 0 min 0,000 mm 0,0 UV-I 0 W/m² 7,2 °C 8,4 °C 0,0 km/h (0 Bft)
14.10.2017 22:00 8,4 °C 8,4 °C 92 % 1027,7 hPa 0,0 mm 0,0 km/h (0 Bft) O-NO 65 ° 0 min 0,000 mm 0,0 UV-I 0 W/m² 7,2 °C 8,4 °C 0,0 km/h (0 Bft)
14.10.2017 22:01 8,4 °C 8,4 °C 93 % 1027,7 hPa 0,0 mm 0,0 km/h (0 Bft) O-NO 65 ° 0 min 0,000 mm 0,0 UV-I 0 W/m² 7,3 °C 8,4 °C 0,0 km/h (0 Bft)
14.10.2017 22:02 8,4 °C 8,4 °C 93 % 1027,6 hPa 0,0 mm 0,0 km/h (0 Bft) O-NO 65 ° 0 min 0,000 mm 0,0 UV-I 0 W/m² 7,3 °C 8,4 °C 0,0 km/h (0 Bft)
14.10.2017 22:03 8,4 °C 8,4 °C 92 % 1027,7 hPa 0,0 mm 0,0 km/h (0 Bft) O-NO 65 ° 0 min 0,000 mm 0,0 UV-I 0 W/m² 7,2 °C 8,4 °C 0,0 km/h (0 Bft)
14.10.2017 22:04 8,4 °C 8,4 °C 92 % 1027,6 hPa 0,0 mm 0,0 km/h (0 Bft) O-NO 65 ° 0 min 0,000 mm 0,0 UV-I 0 W/m² 7,2 °C 8,4 °C 0,0 km/h (0 Bft)
14.10.2017 22:05 8,3 °C 8,4 °C 92 % 1027,7 hPa 0,0 mm 0,0 km/h (0 Bft) O-NO 65 ° 0 min 0,000 mm 0,0 UV-I 0 W/m² 7,1 °C 8,3 °C 0,0 km/h (0 Bft)
14.10.2017 22:06 8,3 °C 8,3 °C 92 % 1027,7 hPa 0,0 mm 0,0 km/h (0 Bft) O-NO 65 ° 0 min 0,000 mm 0,0 UV-I 0 W/m² 7,1 °C 8,3 °C 0,0 km/h (0 Bft)
14.10.2017 22:07 8,3 °C 8,3 °C 93 % 1027,6 hPa 0,0 mm 0,0 km/h (0 Bft) O-NO 65 ° 0 min 0,000 mm 0,0 UV-I 0 W/m² 7,2 °C 8,3 °C 0,0 km/h (0 Bft)
14.10.2017 22:08 8,3 °C 8,3 °C 93 % 1027,6 hPa 0,0 mm 0,0 km/h (0 Bft) O-NO 65 ° 0 min 0,000 mm 0,0 UV-I 0 W/m² 7,2 °C 8,3 °C 0,0 km/h (0 Bft)
14.10.2017 22:09 8,3 °C 8,3 °C 93 % 1027,6 hPa 0,0 mm 0,0 km/h (0 Bft) O-NO 65 ° 0 min 0,000 mm 0,0 UV-I 0 W/m² 7,2 °C 8,3 °C 0,0 km/h (0 Bft)
14.10.2017 22:10 8,3 °C 8,3 °C 93 % 1027,6 hPa 0,0 mm 0,0 km/h (0 Bft) O-NO 65 ° 0 min 0,000 mm 0,0 UV-I 0 W/m² 7,2 °C 8,3 °C 0,0 km/h (0 Bft)
14.10.2017 22:11 8,3 °C 8,3 °C 93 % 1027,6 hPa 0,0 mm 0,0 km/h (0 Bft) O-NO 65 ° 0 min 0,000 mm 0,0 UV-I 0 W/m² 7,2 °C 8,3 °C 0,0 km/h (0 Bft)
14.10.2017 22:12 8,3 °C 8,3 °C 93 % 1027,6 hPa 0,0 mm 0,0 km/h (0 Bft) O-NO 65 ° 0 min 0,000 mm 0,0 UV-I 0 W/m² 7,2 °C 8,3 °C 0,0 km/h (0 Bft)
14.10.2017 22:13 8,2 °C 8,3 °C 93 % 1027,6 hPa 0,0 mm 0,0 km/h (0 Bft) O-NO 65 ° 0 min 0,000 mm 0,0 UV-I 0 W/m² 7,1 °C 8,2 °C 0,0 km/h (0 Bft)
14.10.2017 22:14 8,2 °C 8,2 °C 93 % 1027,6 hPa 0,0 mm 0,0 km/h (0 Bft) O-NO 65 ° 0 min 0,000 mm 0,0 UV-I 0 W/m² 7,1 °C 8,2 °C 0,0 km/h (0 Bft)
14.10.2017 22:15 8,2 °C 8,2 °C 93 % 1027,6 hPa 0,0 mm 0,0 km/h (0 Bft) O-NO 65 ° 0 min 0,000 mm 0,0 UV-I 0 W/m² 7,1 °C 8,2 °C 0,0 km/h (0 Bft)
14.10.2017 22:16 8,1 °C 8,2 °C 93 % 1027,6 hPa 0,0 mm 0,0 km/h (0 Bft) O-NO 65 ° 0 min 0,000 mm 0,0 UV-I 0 W/m² 7,0 °C 8,1 °C 0,0 km/h (0 Bft)
14.10.2017 22:17 8,1 °C 8,1 °C 93 % 1027,6 hPa 0,0 mm 0,0 km/h (0 Bft) O-NO 65 ° 0 min 0,000 mm 0,0 UV-I 0 W/m² 7,0 °C 8,1 °C 0,0 km/h (0 Bft)
14.10.2017 22:18 8,1 °C 8,1 °C 93 % 1027,6 hPa 0,0 mm 0,0 km/h (0 Bft) O-NO 65 ° 0 min 0,000 mm 0,0 UV-I 0 W/m² 7,0 °C 8,1 °C 0,0 km/h (0 Bft)
14.10.2017 22:19 8,0 °C 8,1 °C 93 % 1027,7 hPa 0,0 mm 0,0 km/h (0 Bft) O-NO 65 ° 0 min 0,000 mm 0,0 UV-I 0 W/m² 6,9 °C 8,0 °C 0,0 km/h (0 Bft)
14.10.2017 22:20 8,0 °C 8,0 °C 93 % 1027,6 hPa 0,0 mm 0,0 km/h (0 Bft) O-NO 65 ° 0 min 0,000 mm 0,0 UV-I 0 W/m² 6,9 °C 8,0 °C 0,0 km/h (0 Bft)
14.10.2017 22:21 8,1 °C 8,1 °C 93 % 1027,7 hPa 0,0 mm 0,0 km/h (0 Bft) O-NO 65 ° 0 min 0,000 mm 0,0 UV-I 0 W/m² 7,0 °C 8,1 °C 0,0 km/h (0 Bft)
14.10.2017 22:22 8,1 °C 8,1 °C 94 % 1027,7 hPa 0,0 mm 0,0 km/h (0 Bft) O-NO 65 ° 0 min 0,000 mm 0,0 UV-I 0 W/m² 7,2 °C 8,1 °C 0,0 km/h (0 Bft)
14.10.2017 22:23 8,1 °C 8,1 °C 94 % 1027,6 hPa 0,0 mm 0,0 km/h (0 Bft) O-NO 65 ° 0 min 0,000 mm 0,0 UV-I 0 W/m² 7,2 °C 8,1 °C 0,0 km/h (0 Bft)
14.10.2017 22:24 8,1 °C 8,1 °C 94 % 1027,6 hPa 0,0 mm 0,0 km/h (0 Bft) O-NO 65 ° 0 min 0,000 mm 0,0 UV-I 0 W/m² 7,2 °C 8,1 °C 0,0 km/h (0 Bft)
14.10.2017 22:25 8,1 °C 8,1 °C 94 % 1027,7 hPa 0,0 mm 0,0 km/h (0 Bft) O-NO 65 ° 0 min 0,000 mm 0,0 UV-I 0 W/m² 7,2 °C 8,1 °C 0,0 km/h (0 Bft)
14.10.2017 22:26 8,2 °C 8,2 °C 94 % 1027,7 hPa 0,0 mm 0,0 km/h (0 Bft) O-NO 65 ° 0 min 0,000 mm 0,0 UV-I 0 W/m² 7,3 °C 8,2 °C 0,0 km/h (0 Bft)
14.10.2017 22:27 8,2 °C 8,2 °C 94 % 1027,7 hPa 0,0 mm 0,0 km/h (0 Bft) O-NO 65 ° 0 min 0,000 mm 0,0 UV-I 0 W/m² 7,3 °C 8,2 °C 0,0 km/h (0 Bft)
14.10.2017 22:28 8,3 °C 8,3 °C 94 % 1027,7 hPa 0,0 mm 0,0 km/h (0 Bft) O-NO 65 ° 0 min 0,000 mm 0,0 UV-I 0 W/m² 7,4 °C 8,3 °C 0,0 km/h (0 Bft)
14.10.2017 22:29 8,3 °C 8,3 °C 94 % 1027,7 hPa 0,0 mm 0,0 km/h (0 Bft) O-NO 65 ° 0 min 0,000 mm 0,0 UV-I 0 W/m² 7,4 °C 8,3 °C 0,0 km/h (0 Bft)
14.10.2017 22:30 8,4 °C 8,4 °C 94 % 1027,7 hPa 0,0 mm 0,0 km/h (0 Bft) O-NO 65 ° 0 min 0,000 mm 0,0 UV-I 0 W/m² 7,5 °C 8,4 °C 0,0 km/h (0 Bft)
14.10.2017 22:31 8,4 °C 8,4 °C 94 % 1027,7 hPa 0,0 mm 0,0 km/h (0 Bft) O-NO 65 ° 0 min 0,000 mm 0,0 UV-I 0 W/m² 7,5 °C 8,4 °C 0,0 km/h (0 Bft)
14.10.2017 22:32 8,6 °C 8,6 °C 94 % 1027,7 hPa 0,0 mm 0,0 km/h (0 Bft) O-NO 65 ° 0 min 0,000 mm 0,0 UV-I 0 W/m² 7,7 °C 8,6 °C 0,0 km/h (0 Bft)
14.10.2017 22:33 8,6 °C 8,6 °C 94 % 1027,7 hPa 0,0 mm 0,0 km/h (0 Bft) O-NO 65 ° 0 min 0,000 mm 0,0 UV-I 0 W/m² 7,7 °C 8,6 °C 0,0 km/h (0 Bft)
14.10.2017 22:34 8,6 °C 8,6 °C 94 % 1027,7 hPa 0,0 mm 0,0 km/h (0 Bft) O-NO 65 ° 0 min 0,000 mm 0,0 UV-I 0 W/m² 7,7 °C 8,6 °C 0,0 km/h (0 Bft)
14.10.2017 22:35 8,7 °C 8,7 °C 94 % 1027,6 hPa 0,0 mm 0,0 km/h (0 Bft) O-NO 65 ° 0 min 0,000 mm 0,0 UV-I 0 W/m² 7,8 °C 8,7 °C 0,0 km/h (0 Bft)
14.10.2017 22:36 8,7 °C 8,7 °C 93 % 1027,6 hPa 0,0 mm 0,0 km/h (0 Bft) O-NO 65 ° 0 min 0,000 mm 0,0 UV-I 0 W/m² 7,6 °C 8,7 °C 0,0 km/h (0 Bft)
14.10.2017 22:37 8,5 °C 8,7 °C 93 % 1027,6 hPa 0,0 mm 0,0 km/h (0 Bft) O-NO 65 ° 0 min 0,000 mm 0,0 UV-I 0 W/m² 7,4 °C 8,5 °C 0,0 km/h (0 Bft)
14.10.2017 22:38 8,3 °C 8,5 °C 92 % 1027,7 hPa 0,0 mm 0,0 km/h (0 Bft) O-NO 65 ° 0 min 0,000 mm 0,0 UV-I 0 W/m² 7,1 °C 8,3 °C 0,0 km/h (0 Bft)
14.10.2017 22:39 8,2 °C 8,3 °C 92 % 1027,7 hPa 0,0 mm 0,0 km/h (0 Bft) O-NO 65 ° 0 min 0,000 mm 0,0 UV-I 0 W/m² 7,0 °C 8,2 °C 0,0 km/h (0 Bft)
14.10.2017 22:40 8,1 °C 8,2 °C 92 % 1027,7 hPa 0,0 mm 0,0 km/h (0 Bft) O-NO 65 ° 0 min 0,000 mm 0,0 UV-I 0 W/m² 6,9 °C 8,1 °C 0,0 km/h (0 Bft)
14.10.2017 22:41 8,1 °C 8,1 °C 92 % 1027,6 hPa 0,0 mm 0,0 km/h (0 Bft) O-NO 65 ° 0 min 0,000 mm 0,0 UV-I 0 W/m² 6,9 °C 8,1 °C 0,0 km/h (0 Bft)
14.10.2017 22:42 8,1 °C 8,1 °C 93 % 1027,7 hPa 0,0 mm 0,0 km/h (0 Bft) O-NO 65 ° 0 min 0,000 mm 0,0 UV-I 0 W/m² 7,0 °C 8,1 °C 0,0 km/h (0 Bft)
14.10.2017 22:43 8,1 °C 8,1 °C 93 % 1027,6 hPa 0,0 mm 0,0 km/h (0 Bft) O-NO 65 ° 0 min 0,000 mm 0,0 UV-I 0 W/m² 7,0 °C 8,1 °C 0,0 km/h (0 Bft)
14.10.2017 22:44 8,1 °C 8,1 °C 93 % 1027,6 hPa 0,0 mm 0,0 km/h (0 Bft) O-NO 65 ° 0 min 0,000 mm 0,0 UV-I 0 W/m² 7,0 °C 8,1 °C 0,0 km/h (0 Bft)
14.10.2017 22:45 8,1 °C 8,1 °C 93 % 1027,6 hPa 0,0 mm 0,0 km/h (0 Bft) O-NO 65 ° 0 min 0,000 mm 0,0 UV-I 0 W/m² 7,0 °C 8,1 °C 0,0 km/h (0 Bft)
14.10.2017 22:46 7,9 °C 8,1 °C 92 % 1027,6 hPa 0,0 mm 0,0 km/h (0 Bft) O-NO 65 ° 0 min 0,000 mm 0,0 UV-I 0 W/m² 6,7 °C 7,9 °C 0,0 km/h (0 Bft)
14.10.2017 22:47 7,9 °C 7,9 °C 92 % 1027,6 hPa 0,0 mm 0,0 km/h (0 Bft) O-NO 65 ° 0 min 0,000 mm 0,0 UV-I 0 W/m² 6,7 °C 7,9 °C 0,0 km/h (0 Bft)
14.10.2017 22:48 7,8 °C 7,9 °C 93 % 1027,6 hPa 0,0 mm 0,0 km/h (0 Bft) O-NO 65 ° 0 min 0,000 mm 0,0 UV-I 0 W/m² 6,7 °C 7,8 °C 0,0 km/h (0 Bft)
14.10.2017 22:49 7,8 °C 7,9 °C 93 % 1027,6 hPa 0,0 mm 0,0 km/h (0 Bft) O-NO 65 ° 0 min 0,000 mm 0,0 UV-I 0 W/m² 6,7 °C 7,8 °C 0,0 km/h (0 Bft)
14.10.2017 22:50 8,0 °C 8,0 °C 94 % 1027,6 hPa 0,0 mm 0,0 km/h (0 Bft) O-NO 65 ° 0 min 0,000 mm 0,0 UV-I 0 W/m² 7,1 °C 8,0 °C 0,0 km/h (0 Bft)
14.10.2017 22:51 8,2 °C 8,2 °C 94 % 1027,6 hPa 0,0 mm 0,0 km/h (0 Bft) O-NO 65 ° 0 min 0,000 mm 0,0 UV-I 0 W/m² 7,3 °C 8,2 °C 0,0 km/h (0 Bft)
14.10.2017 22:52 8,3 °C 8,3 °C 94 % 1027,6 hPa 0,0 mm 0,0 km/h (0 Bft) O-NO 65 ° 0 min 0,000 mm 0,0 UV-I 0 W/m² 7,4 °C 8,3 °C 0,0 km/h (0 Bft)
14.10.2017 22:53 8,4 °C 8,4 °C 94 % 1027,6 hPa 0,0 mm 0,0 km/h (0 Bft) O-NO 65 ° 0 min 0,000 mm 0,0 UV-I 0 W/m² 7,5 °C 8,4 °C 0,0 km/h (0 Bft)
14.10.2017 22:54 8,4 °C 8,4 °C 94 % 1027,6 hPa 0,0 mm 0,0 km/h (0 Bft) O-NO 65 ° 0 min 0,000 mm 0,0 UV-I 0 W/m² 7,5 °C 8,4 °C 0,0 km/h (0 Bft)
14.10.2017 22:55 8,3 °C 8,4 °C 93 % 1027,6 hPa 0,0 mm 0,0 km/h (0 Bft) O-NO 65 ° 0 min 0,000 mm 0,0 UV-I 0 W/m² 7,2 °C 8,3 °C 0,0 km/h (0 Bft)
14.10.2017 22:56 8,3 °C 8,3 °C 93 % 1027,6 hPa 0,0 mm 0,0 km/h (0 Bft) O-NO 65 ° 0 min 0,000 mm 0,0 UV-I 0 W/m² 7,2 °C 8,3 °C 0,0 km/h (0 Bft)
14.10.2017 22:57 8,1 °C 8,3 °C 93 % 1027,6 hPa 0,0 mm 0,0 km/h (0 Bft) O-NO 65 ° 0 min 0,000 mm 0,0 UV-I 0 W/m² 7,0 °C 8,1 °C 0,0 km/h (0 Bft)
14.10.2017 22:58 8,1 °C 8,1 °C 93 % 1027,6 hPa 0,0 mm 0,0 km/h (0 Bft) O-NO 65 ° 0 min 0,000 mm 0,0 UV-I 0 W/m² 7,0 °C 8,1 °C 0,0 km/h (0 Bft)
14.10.2017 22:59 8,2 °C 8,2 °C 93 % 1027,6 hPa 0,0 mm 0,0 km/h (0 Bft) O-NO 65 ° 0 min 0,000 mm 0,0 UV-I 0 W/m² 7,1 °C 8,2 °C 0,0 km/h (0 Bft)
14.10.2017 23:00 8,2 °C 8,2 °C 93 % 1027,6 hPa 0,0 mm 0,0 km/h (0 Bft) O-NO 65 ° 0 min 0,000 mm 0,0 UV-I 0 W/m² 7,1 °C 8,2 °C 0,0 km/h (0 Bft)
14.10.2017 23:01 8,3 °C 8,3 °C 93 % 1027,6 hPa 0,0 mm 0,0 km/h (0 Bft) O-NO 65 ° 0 min 0,000 mm 0,0 UV-I 0 W/m² 7,2 °C 8,3 °C 0,0 km/h (0 Bft)
14.10.2017 23:02 8,1 °C 8,3 °C 93 % 1027,6 hPa 0,0 mm 0,0 km/h (0 Bft) O-NO 65 ° 0 min 0,000 mm 0,0 UV-I 0 W/m² 7,0 °C 8,1 °C 0,0 km/h (0 Bft)
14.10.2017 23:03 8,1 °C 8,1 °C 93 % 1027,6 hPa 0,0 mm 0,0 km/h (0 Bft) O-NO 65 ° 0 min 0,000 mm 0,0 UV-I 0 W/m² 7,0 °C 8,1 °C 0,0 km/h (0 Bft)
14.10.2017 23:04 8,1 °C 8,1 °C 93 % 1027,6 hPa 0,0 mm 0,0 km/h (0 Bft) O-NO 65 ° 0 min 0,000 mm 0,0 UV-I 0 W/m² 7,0 °C 8,1 °C 0,0 km/h (0 Bft)
14.10.2017 23:05 8,1 °C 8,1 °C 93 % 1027,6 hPa 0,0 mm 0,0 km/h (0 Bft) O-NO 65 ° 0 min 0,000 mm 0,0 UV-I 0 W/m² 7,0 °C 8,1 °C 0,0 km/h (0 Bft)
14.10.2017 23:06 8,0 °C 8,1 °C 93 % 1027,6 hPa 0,0 mm 0,0 km/h (0 Bft) O-NO 65 ° 0 min 0,000 mm 0,0 UV-I 0 W/m² 6,9 °C 8,0 °C 0,0 km/h (0 Bft)
14.10.2017 23:07 7,9 °C 8,0 °C 93 % 1027,6 hPa 0,0 mm 0,0 km/h (0 Bft) O-NO 65 ° 0 min 0,000 mm 0,0 UV-I 0 W/m² 6,8 °C 7,9 °C 0,0 km/h (0 Bft)
14.10.2017 23:08 7,9 °C 7,9 °C 93 % 1027,6 hPa 0,0 mm 0,0 km/h (0 Bft) O-NO 65 ° 0 min 0,000 mm 0,0 UV-I 0 W/m² 6,8 °C 7,9 °C 0,0 km/h (0 Bft)
14.10.2017 23:09 7,8 °C 7,9 °C 93 % 1027,6 hPa 0,0 mm 0,0 km/h (0 Bft) O-NO 65 ° 0 min 0,000 mm 0,0 UV-I 0 W/m² 6,7 °C 7,8 °C 0,0 km/h (0 Bft)
14.10.2017 23:10 7,8 °C 7,9 °C 93 % 1027,6 hPa 0,0 mm 0,0 km/h (0 Bft) O-NO 65 ° 0 min 0,000 mm 0,0 UV-I 0 W/m² 6,7 °C 7,8 °C 0,0 km/h (0 Bft)
14.10.2017 23:11 7,9 °C 7,9 °C 93 % 1027,6 hPa 0,0 mm 0,0 km/h (0 Bft) O-NO 65 ° 0 min 0,000 mm 0,0 UV-I 0 W/m² 6,8 °C 7,9 °C 0,0 km/h (0 Bft)
14.10.2017 23:12 7,9 °C 7,9 °C 93 % 1027,6 hPa 0,0 mm 0,0 km/h (0 Bft) O-NO 65 ° 0 min 0,000 mm 0,0 UV-I 0 W/m² 6,8 °C 7,9 °C 0,0 km/h (0 Bft)
14.10.2017 23:13 8,0 °C 8,0 °C 94 % 1027,6 hPa 0,0 mm 0,0 km/h (0 Bft) O-NO 65 ° 0 min 0,000 mm 0,0 UV-I 0 W/m² 7,1 °C 8,0 °C 0,0 km/h (0 Bft)
14.10.2017 23:14 8,1 °C 8,1 °C 94 % 1027,6 hPa 0,0 mm 0,0 km/h (0 Bft) O-NO 65 ° 0 min 0,000 mm 0,0 UV-I 0 W/m² 7,2 °C 8,1 °C 0,0 km/h (0 Bft)
14.10.2017 23:15 8,2 °C 8,2 °C 94 % 1027,6 hPa 0,0 mm 0,0 km/h (0 Bft) O-NO 65 ° 0 min 0,000 mm 0,0 UV-I 0 W/m² 7,3 °C 8,2 °C 0,0 km/h (0 Bft)
14.10.2017 23:16 8,2 °C 8,2 °C 94 % 1027,6 hPa 0,0 mm 0,0 km/h (0 Bft) O-NO 65 ° 0 min 0,000 mm 0,0 UV-I 0 W/m² 7,3 °C 8,2 °C 0,0 km/h (0 Bft)
14.10.2017 23:17 8,1 °C 8,2 °C 93 % 1027,6 hPa 0,0 mm 0,0 km/h (0 Bft) O-NO 65 ° 0 min 0,000 mm 0,0 UV-I 0 W/m² 7,0 °C 8,1 °C 0,0 km/h (0 Bft)
14.10.2017 23:18 8,1 °C 8,1 °C 93 % 1027,6 hPa 0,0 mm 0,0 km/h (0 Bft) O-NO 65 ° 0 min 0,000 mm 0,0 UV-I 0 W/m² 7,0 °C 8,1 °C 0,0 km/h (0 Bft)
14.10.2017 23:19 8,0 °C 8,1 °C 93 % 1027,6 hPa 0,0 mm 0,0 km/h (0 Bft) O-NO 65 ° 0 min 0,000 mm 0,0 UV-I 0 W/m² 6,9 °C 8,0 °C 0,0 km/h (0 Bft)
14.10.2017 23:20 7,9 °C 8,0 °C 93 % 1027,6 hPa 0,0 mm 0,0 km/h (0 Bft) O-NO 65 ° 0 min 0,000 mm 0,0 UV-I 0 W/m² 6,8 °C 7,9 °C 0,0 km/h (0 Bft)
14.10.2017 23:21 7,9 °C 7,9 °C 93 % 1027,6 hPa 0,0 mm 0,0 km/h (0 Bft) O-NO 65 ° 0 min 0,000 mm 0,0 UV-I 0 W/m² 6,8 °C 7,9 °C 0,0 km/h (0 Bft)
14.10.2017 23:22 7,9 °C 7,9 °C 93 % 1027,6 hPa 0,0 mm 0,0 km/h (0 Bft) O-NO 65 ° 0 min 0,000 mm 0,0 UV-I 0 W/m² 6,8 °C 7,9 °C 0,0 km/h (0 Bft)
14.10.2017 23:23 8,0 °C 8,0 °C 93 % 1027,6 hPa 0,0 mm 0,0 km/h (0 Bft) O-NO 65 ° 0 min 0,000 mm 0,0 UV-I 0 W/m² 6,9 °C 8,0 °C 0,0 km/h (0 Bft)
14.10.2017 23:24 8,0 °C 8,0 °C 94 % 1027,6 hPa 0,0 mm 0,0 km/h (0 Bft) O-NO 65 ° 0 min 0,000 mm 0,0 UV-I 0 W/m² 7,1 °C 8,0 °C 0,0 km/h (0 Bft)
14.10.2017 23:25 8,1 °C 8,1 °C 94 % 1027,6 hPa 0,0 mm 0,0 km/h (0 Bft) O-NO 65 ° 0 min 0,000 mm 0,0 UV-I 0 W/m² 7,2 °C 8,1 °C 0,0 km/h (0 Bft)
14.10.2017 23:26 8,1 °C 8,1 °C 94 % 1027,6 hPa 0,0 mm 0,0 km/h (0 Bft) O-NO 65 ° 0 min 0,000 mm 0,0 UV-I 0 W/m² 7,2 °C 8,1 °C 0,0 km/h (0 Bft)
14.10.2017 23:27 8,0 °C 8,1 °C 93 % 1027,6 hPa 0,0 mm 0,0 km/h (0 Bft) O-NO 65 ° 0 min 0,000 mm 0,0 UV-I 0 W/m² 6,9 °C 8,0 °C 0,0 km/h (0 Bft)
14.10.2017 23:28 7,9 °C 8,0 °C 93 % 1027,6 hPa 0,0 mm 0,0 km/h (0 Bft) O-NO 65 ° 0 min 0,000 mm 0,0 UV-I 0 W/m² 6,8 °C 7,9 °C 0,0 km/h (0 Bft)
14.10.2017 23:29 7,8 °C 7,9 °C 93 % 1027,6 hPa 0,0 mm 0,0 km/h (0 Bft) O-NO 65 ° 0 min 0,000 mm 0,0 UV-I 0 W/m² 6,7 °C 7,8 °C 0,0 km/h (0 Bft)
14.10.2017 23:30 7,8 °C 7,8 °C 93 % 1027,6 hPa 0,0 mm 0,0 km/h (0 Bft) O-NO 65 ° 0 min 0,000 mm 0,0 UV-I 0 W/m² 6,7 °C 7,8 °C 0,0 km/h (0 Bft)
14.10.2017 23:31 7,8 °C 7,8 °C 93 % 1027,6 hPa 0,0 mm 0,0 km/h (0 Bft) O-NO 65 ° 0 min 0,000 mm 0,0 UV-I 0 W/m² 6,7 °C 7,8 °C 0,0 km/h (0 Bft)
14.10.2017 23:32 7,8 °C 7,8 °C 93 % 1027,6 hPa 0,0 mm 0,0 km/h (0 Bft) O-NO 65 ° 0 min 0,000 mm 0,0 UV-I 0 W/m² 6,7 °C 7,8 °C 0,0 km/h (0 Bft)
14.10.2017 23:33 7,8 °C 7,8 °C 93 % 1027,6 hPa 0,0 mm 0,0 km/h (0 Bft) O-NO 65 ° 0 min 0,000 mm 0,0 UV-I 0 W/m² 6,7 °C 7,8 °C 0,0 km/h (0 Bft)
14.10.2017 23:34 7,8 °C 7,8 °C 93 % 1027,6 hPa 0,0 mm 0,0 km/h (0 Bft) O-NO 65 ° 0 min 0,000 mm 0,0 UV-I 0 W/m² 6,7 °C 7,8 °C 0,0 km/h (0 Bft)
14.10.2017 23:35 7,7 °C 7,8 °C 93 % 1027,6 hPa 0,0 mm 0,0 km/h (0 Bft) O-NO 65 ° 0 min 0,000 mm 0,0 UV-I 0 W/m² 6,6 °C 7,7 °C 0,0 km/h (0 Bft)
14.10.2017 23:36 7,7 °C 7,7 °C 93 % 1027,6 hPa 0,0 mm 0,0 km/h (0 Bft) O-NO 65 ° 0 min 0,000 mm 0,0 UV-I 0 W/m² 6,6 °C 7,7 °C 0,0 km/h (0 Bft)
14.10.2017 23:37 7,7 °C 7,7 °C 93 % 1027,6 hPa 0,0 mm 0,0 km/h (0 Bft) O-NO 65 ° 0 min 0,000 mm 0,0 UV-I 0 W/m² 6,6 °C 7,7 °C 0,0 km/h (0 Bft)
14.10.2017 23:38 7,6 °C 7,7 °C 93 % 1027,6 hPa 0,0 mm 0,0 km/h (0 Bft) O-NO 65 ° 0 min 0,000 mm 0,0 UV-I 0 W/m² 6,5 °C 7,6 °C 0,0 km/h (0 Bft)
14.10.2017 23:39 7,4 °C 7,6 °C 93 % 1027,6 hPa 0,0 mm 0,0 km/h (0 Bft) O-NO 65 ° 0 min 0,000 mm 0,0 UV-I 0 W/m² 6,3 °C 7,4 °C 0,0 km/h (0 Bft)
14.10.2017 23:40 7,4 °C 7,4 °C 93 % 1027,6 hPa 0,0 mm 0,0 km/h (0 Bft) O-NO 65 ° 0 min 0,000 mm 0,0 UV-I 0 W/m² 6,3 °C 7,4 °C 0,0 km/h (0 Bft)
14.10.2017 23:41 7,4 °C 7,4 °C 93 % 1027,6 hPa 0,0 mm 0,0 km/h (0 Bft) O-NO 65 ° 0 min 0,000 mm 0,0 UV-I 0 W/m² 6,3 °C 7,4 °C 0,0 km/h (0 Bft)
14.10.2017 23:42 7,4 °C 7,4 °C 93 % 1027,6 hPa 0,0 mm 0,3 km/h (0 Bft) O-NO 65 ° 0 min 0,000 mm 0,0 UV-I 0 W/m² 6,3 °C 7,4 °C 1,6 km/h (1 Bft)
14.10.2017 23:43 7,4 °C 7,4 °C 94 % 1027,6 hPa 0,0 mm 0,0 km/h (0 Bft) O-NO 65 ° 0 min 0,000 mm 0,0 UV-I 0 W/m² 6,5 °C 7,4 °C 0,0 km/h (0 Bft)
14.10.2017 23:44 7,4 °C 7,4 °C 94 % 1027,5 hPa 0,0 mm 0,0 km/h (0 Bft) O-NO 65 ° 0 min 0,000 mm 0,0 UV-I 0 W/m² 6,5 °C 7,4 °C 0,0 km/h (0 Bft)
14.10.2017 23:45 7,4 °C 7,4 °C 94 % 1027,5 hPa 0,0 mm 0,0 km/h (0 Bft) O-NO 65 ° 0 min 0,000 mm 0,0 UV-I 0 W/m² 6,5 °C 7,4 °C 0,0 km/h (0 Bft)
14.10.2017 23:46 7,4 °C 7,4 °C 94 % 1027,5 hPa 0,0 mm 0,0 km/h (0 Bft) O-NO 65 ° 0 min 0,000 mm 0,0 UV-I 0 W/m² 6,5 °C 7,4 °C 0,0 km/h (0 Bft)
14.10.2017 23:47 7,5 °C 7,5 °C 94 % 1027,6 hPa 0,0 mm 0,0 km/h (0 Bft) O-NO 65 ° 0 min 0,000 mm 0,0 UV-I 0 W/m² 6,6 °C 7,5 °C 0,0 km/h (0 Bft)
14.10.2017 23:48 7,5 °C 7,5 °C 94 % 1027,6 hPa 0,0 mm 0,0 km/h (0 Bft) O-NO 65 ° 0 min 0,000 mm 0,0 UV-I 0 W/m² 6,6 °C 7,5 °C 0,0 km/h (0 Bft)
14.10.2017 23:49 7,6 °C 7,6 °C 94 % 1027,5 hPa 0,0 mm 0,0 km/h (0 Bft) O-NO 65 ° 0 min 0,000 mm 0,0 UV-I 0 W/m² 6,7 °C 7,6 °C 0,0 km/h (0 Bft)
14.10.2017 23:50 7,6 °C 7,6 °C 94 % 1027,5 hPa 0,0 mm 0,0 km/h (0 Bft) O-NO 65 ° 0 min 0,000 mm 0,0 UV-I 0 W/m² 6,7 °C 7,6 °C 0,0 km/h (0 Bft)
14.10.2017 23:51 7,6 °C 7,6 °C 94 % 1027,5 hPa 0,0 mm 0,0 km/h (0 Bft) O-NO 65 ° 0 min 0,000 mm 0,0 UV-I 0 W/m² 6,7 °C 7,6 °C 0,0 km/h (0 Bft)
14.10.2017 23:52 7,7 °C 7,7 °C 94 % 1027,5 hPa 0,0 mm 0,0 km/h (0 Bft) O-NO 65 ° 0 min 0,000 mm 0,0 UV-I 0 W/m² 6,8 °C 7,7 °C 0,0 km/h (0 Bft)
14.10.2017 23:53 7,7 °C 7,7 °C 94 % 1027,4 hPa 0,0 mm 0,0 km/h (0 Bft) O-NO 65 ° 0 min 0,000 mm 0,0 UV-I 0 W/m² 6,8 °C 7,7 °C 0,0 km/h (0 Bft)
14.10.2017 23:54 7,8 °C 7,8 °C 94 % 1027,4 hPa 0,0 mm 0,0 km/h (0 Bft) O-NO 65 ° 0 min 0,000 mm 0,0 UV-I 0 W/m² 6,9 °C 7,8 °C 0,0 km/h (0 Bft)
14.10.2017 23:55 7,8 °C 7,8 °C 94 % 1027,4 hPa 0,0 mm 0,0 km/h (0 Bft) O-NO 65 ° 0 min 0,000 mm 0,0 UV-I 0 W/m² 6,9 °C 7,8 °C 0,0 km/h (0 Bft)
14.10.2017 23:56 7,8 °C 7,8 °C 94 % 1027,5 hPa 0,0 mm 0,0 km/h (0 Bft) O-NO 65 ° 0 min 0,000 mm 0,0 UV-I 0 W/m² 6,9 °C 7,8 °C 0,0 km/h (0 Bft)
14.10.2017 23:57 7,8 °C 7,8 °C 94 % 1027,5 hPa 0,0 mm 0,0 km/h (0 Bft) O-NO 65 ° 0 min 0,000 mm 0,0 UV-I 0 W/m² 6,9 °C 7,8 °C 0,0 km/h (0 Bft)
14.10.2017 23:58 7,8 °C 7,8 °C 94 % 1027,5 hPa 0,0 mm 0,0 km/h (0 Bft) O-NO 65 ° 0 min 0,000 mm 0,0 UV-I 0 W/m² 6,9 °C 7,8 °C 0,0 km/h (0 Bft)
14.10.2017 23:59 7,8 °C 7,8 °C 94 % 1027,5 hPa 0,0 mm 0,0 km/h (0 Bft) O-NO 65 ° 0 min 0,000 mm 0,0 UV-I 0 W/m² 6,9 °C 7,8 °C 0,0 km/h (0 Bft)
_ Min-Zeit 08:16 07:44 16:08 17:39 - 23:59 - - - - - - 08:16 08:16 23:59
Minimum _ 4,6 °C 4,6 °C 57 % 1026,8 hPa - 0,0 km/h (0 Bft) - - - - - - 3,9 °C 4,6 °C 0,0 km/h (0 Bft)
_ Max-Zeit 15:23 15:23 09:19 09:48 10:33 15:10 - - 16:13 15:01 13:41 13:04 12:33 15:23 16:50
Maximum _ 19,4 °C 19,4 °C 96 % 1028,6 hPa 0,2 mm 7,3 km/h
NO (2 Bft)
- - 1 min 0,305 mm 3,6 UV-I 555 W/m² 12,8 °C 19,3 °C 11,3 km/h
O (2 Bft)
Durchschnitt _ 10,6 °C 10,6 °C 85 % 1027,6 hPa #0,2 mm 0,5 km/h (0 Bft) O-NO - #4:49 h #1,448 mm 2,9 UV-I 105 W/m² 7,8 °C 10,6 °C 1,0 km/h (0 Bft)